<?xml version="1.0" encoding="UTF-8" standalone="no" ?>
<gpx xmlns="http://www.topografix.com/GPX/1/1" xmlns:xsi="http://www.w3.org/2001/XMLSchema-instance" xsi:schemaLocation="http://www.topografix.com/GPX/1/1 http://www.topografix.com/GPX/1/1/gpx.xsd" version="1.1" creator="VisuGPX - https://www.visugpx.com">
  <metadata>
    <name>ski Aup du Pont 2713m</name>
  </metadata>
  <trk>
    <name><![CDATA[ski Aup du Pont 2713m]]></name>
    <trkseg>
      <trkpt lat="45.28888" lon="6.21493">
        <ele>1179</ele>
        <time>2016-03-26T07:21:17.000Z</time>
      </trkpt>
      <trkpt lat="45.2891" lon="6.21551">
        <ele>1174.5999755859</ele>
        <time>2016-03-26T07:23:56.000Z</time>
      </trkpt>
      <trkpt lat="45.28913" lon="6.21555">
        <ele>1174</ele>
        <time>2016-03-26T07:24:00.000Z</time>
      </trkpt>
      <trkpt lat="45.28922" lon="6.2157">
        <ele>1172.8000488281</ele>
        <time>2016-03-26T07:24:14.000Z</time>
      </trkpt>
      <trkpt lat="45.28923" lon="6.21574">
        <ele>1172.4000244141</ele>
        <time>2016-03-26T07:24:16.000Z</time>
      </trkpt>
      <trkpt lat="45.28927" lon="6.21582">
        <ele>1171.5999755859</ele>
        <time>2016-03-26T07:24:22.000Z</time>
      </trkpt>
      <trkpt lat="45.28933" lon="6.21591">
        <ele>1170.8000488281</ele>
        <time>2016-03-26T07:24:29.000Z</time>
      </trkpt>
      <trkpt lat="45.28935" lon="6.21595">
        <ele>1170.4000244141</ele>
        <time>2016-03-26T07:24:31.000Z</time>
      </trkpt>
      <trkpt lat="45.28939" lon="6.21606">
        <ele>1169.8000488281</ele>
        <time>2016-03-26T07:24:37.000Z</time>
      </trkpt>
      <trkpt lat="45.28942" lon="6.21613">
        <ele>1169.4000244141</ele>
        <time>2016-03-26T07:24:41.000Z</time>
      </trkpt>
      <trkpt lat="45.28945" lon="6.21618">
        <ele>1168.8000488281</ele>
        <time>2016-03-26T07:24:44.000Z</time>
      </trkpt>
      <trkpt lat="45.28947" lon="6.21625">
        <ele>1168.1999511719</ele>
        <time>2016-03-26T07:24:48.000Z</time>
      </trkpt>
      <trkpt lat="45.28951" lon="6.21632">
        <ele>1167.5999755859</ele>
        <time>2016-03-26T07:24:52.000Z</time>
      </trkpt>
      <trkpt lat="45.28957" lon="6.21642">
        <ele>1166.8000488281</ele>
        <time>2016-03-26T07:25:00.000Z</time>
      </trkpt>
      <trkpt lat="45.28962" lon="6.2165">
        <ele>1166.1999511719</ele>
        <time>2016-03-26T07:25:06.000Z</time>
      </trkpt>
      <trkpt lat="45.2897" lon="6.2166">
        <ele>1165.8000488281</ele>
        <time>2016-03-26T07:25:13.000Z</time>
      </trkpt>
      <trkpt lat="45.28979" lon="6.21662">
        <ele>1164.8000488281</ele>
        <time>2016-03-26T07:25:19.000Z</time>
      </trkpt>
      <trkpt lat="45.2898" lon="6.21662">
        <ele>1164.8000488281</ele>
        <time>2016-03-26T07:25:20.000Z</time>
      </trkpt>
      <trkpt lat="45.28984" lon="6.21664">
        <ele>1164.1999511719</ele>
        <time>2016-03-26T07:25:24.000Z</time>
      </trkpt>
      <trkpt lat="45.28986" lon="6.21666">
        <ele>1164</ele>
        <time>2016-03-26T07:25:26.000Z</time>
      </trkpt>
      <trkpt lat="45.28987" lon="6.21667">
        <ele>1163.5999755859</ele>
        <time>2016-03-26T07:25:27.000Z</time>
      </trkpt>
      <trkpt lat="45.28989" lon="6.21689">
        <ele>1160.4000244141</ele>
        <time>2016-03-26T07:25:42.000Z</time>
      </trkpt>
      <trkpt lat="45.2899" lon="6.21691">
        <ele>1160</ele>
        <time>2016-03-26T07:25:43.000Z</time>
      </trkpt>
      <trkpt lat="45.28993" lon="6.21699">
        <ele>1159.1999511719</ele>
        <time>2016-03-26T07:25:48.000Z</time>
      </trkpt>
      <trkpt lat="45.28994" lon="6.21702">
        <ele>1158.8000488281</ele>
        <time>2016-03-26T07:25:50.000Z</time>
      </trkpt>
      <trkpt lat="45.29002" lon="6.2171">
        <ele>1158.4000244141</ele>
        <time>2016-03-26T07:25:59.000Z</time>
      </trkpt>
      <trkpt lat="45.29004" lon="6.21711">
        <ele>1158.1999511719</ele>
        <time>2016-03-26T07:26:00.000Z</time>
      </trkpt>
      <trkpt lat="45.29005" lon="6.21712">
        <ele>1158</ele>
        <time>2016-03-26T07:26:01.000Z</time>
      </trkpt>
      <trkpt lat="45.29012" lon="6.21713">
        <ele>1157</ele>
        <time>2016-03-26T07:26:06.000Z</time>
      </trkpt>
      <trkpt lat="45.29013" lon="6.21713">
        <ele>1157</ele>
        <time>2016-03-26T07:26:07.000Z</time>
      </trkpt>
      <trkpt lat="45.29031" lon="6.2172">
        <ele>1155.4000244141</ele>
        <time>2016-03-26T07:26:22.000Z</time>
      </trkpt>
      <trkpt lat="45.29037" lon="6.21718">
        <ele>1154.5999755859</ele>
        <time>2016-03-26T07:26:26.000Z</time>
      </trkpt>
      <trkpt lat="45.2904" lon="6.21711">
        <ele>1155</ele>
        <time>2016-03-26T07:26:33.000Z</time>
      </trkpt>
      <trkpt lat="45.29044" lon="6.21707">
        <ele>1155.1999511719</ele>
        <time>2016-03-26T07:26:36.000Z</time>
      </trkpt>
      <trkpt lat="45.29054" lon="6.217">
        <ele>1156.5999755859</ele>
        <time>2016-03-26T07:26:45.000Z</time>
      </trkpt>
      <trkpt lat="45.29059" lon="6.21699">
        <ele>1157</ele>
        <time>2016-03-26T07:26:48.000Z</time>
      </trkpt>
      <trkpt lat="45.2936" lon="6.20714">
        <ele>1359</ele>
        <time>2016-03-26T07:49:21.000Z</time>
      </trkpt>
      <trkpt lat="45.29362" lon="6.2071">
        <ele>1359.5999755859</ele>
        <time>2016-03-26T07:49:24.000Z</time>
      </trkpt>
      <trkpt lat="45.29364" lon="6.20668">
        <ele>1361.1999511719</ele>
        <time>2016-03-26T07:49:55.000Z</time>
      </trkpt>
      <trkpt lat="45.29365" lon="6.20663">
        <ele>1361.4000244141</ele>
        <time>2016-03-26T07:49:58.000Z</time>
      </trkpt>
      <trkpt lat="45.29395" lon="6.20606">
        <ele>1366</ele>
        <time>2016-03-26T07:50:43.000Z</time>
      </trkpt>
      <trkpt lat="45.294" lon="6.20479">
        <ele>1379</ele>
        <time>2016-03-26T07:52:24.000Z</time>
      </trkpt>
      <trkpt lat="45.294" lon="6.20477">
        <ele>1379.1999511719</ele>
        <time>2016-03-26T07:52:25.000Z</time>
      </trkpt>
      <trkpt lat="45.29411" lon="6.20445">
        <ele>1381.4000244141</ele>
        <time>2016-03-26T07:52:50.000Z</time>
      </trkpt>
      <trkpt lat="45.29413" lon="6.20441">
        <ele>1381.5999755859</ele>
        <time>2016-03-26T07:52:53.000Z</time>
      </trkpt>
      <trkpt lat="45.29407" lon="6.204">
        <ele>1386.4000244141</ele>
        <time>2016-03-26T07:53:25.000Z</time>
      </trkpt>
      <trkpt lat="45.29406" lon="6.20395">
        <ele>1386.8000488281</ele>
        <time>2016-03-26T07:53:28.000Z</time>
      </trkpt>
      <trkpt lat="45.29499" lon="6.20048">
        <ele>1420.1999511719</ele>
        <time>2016-03-26T07:59:44.000Z</time>
      </trkpt>
      <trkpt lat="45.29501" lon="6.20046">
        <ele>1419.8000488281</ele>
        <time>2016-03-26T07:59:46.000Z</time>
      </trkpt>
      <trkpt lat="45.29552" lon="6.19857">
        <ele>1453</ele>
        <time>2016-03-26T08:02:58.000Z</time>
      </trkpt>
      <trkpt lat="45.29604" lon="6.19691">
        <ele>1478</ele>
        <time>2016-03-26T08:05:50.000Z</time>
      </trkpt>
      <trkpt lat="45.2979" lon="6.19356">
        <ele>1522.8000488281</ele>
        <time>2016-03-26T08:12:07.000Z</time>
      </trkpt>
      <trkpt lat="45.29793" lon="6.19352">
        <ele>1523</ele>
        <time>2016-03-26T08:12:10.000Z</time>
      </trkpt>
      <trkpt lat="45.29799" lon="6.19338">
        <ele>1523.4000244141</ele>
        <time>2016-03-26T08:12:21.000Z</time>
      </trkpt>
      <trkpt lat="45.29802" lon="6.19333">
        <ele>1524</ele>
        <time>2016-03-26T08:12:25.000Z</time>
      </trkpt>
      <trkpt lat="45.29806" lon="6.19326">
        <ele>1524.4000244141</ele>
        <time>2016-03-26T08:12:30.000Z</time>
      </trkpt>
      <trkpt lat="45.29811" lon="6.1931">
        <ele>1524.1999511719</ele>
        <time>2016-03-26T08:12:39.000Z</time>
      </trkpt>
      <trkpt lat="45.29819" lon="6.19296">
        <ele>1524.4000244141</ele>
        <time>2016-03-26T08:12:50.000Z</time>
      </trkpt>
      <trkpt lat="45.29862" lon="6.19189">
        <ele>1533</ele>
        <time>2016-03-26T08:14:10.000Z</time>
      </trkpt>
      <trkpt lat="45.29864" lon="6.19184">
        <ele>1533.5999755859</ele>
        <time>2016-03-26T08:14:14.000Z</time>
      </trkpt>
      <trkpt lat="45.29869" lon="6.19175">
        <ele>1533.5999755859</ele>
        <time>2016-03-26T08:14:21.000Z</time>
      </trkpt>
      <trkpt lat="45.3" lon="6.18735">
        <ele>1613.4000244141</ele>
        <time>2016-03-26T08:22:54.000Z</time>
      </trkpt>
      <trkpt lat="45.30001" lon="6.18731">
        <ele>1614</ele>
        <time>2016-03-26T08:22:57.000Z</time>
      </trkpt>
      <trkpt lat="45.30042" lon="6.18427">
        <ele>1681.5999755859</ele>
        <time>2016-03-26T08:28:39.000Z</time>
      </trkpt>
      <trkpt lat="45.30044" lon="6.18425">
        <ele>1681.8000488281</ele>
        <time>2016-03-26T08:28:41.000Z</time>
      </trkpt>
      <trkpt lat="45.30051" lon="6.18419">
        <ele>1681.5999755859</ele>
        <time>2016-03-26T08:28:47.000Z</time>
      </trkpt>
      <trkpt lat="45.30056" lon="6.18412">
        <ele>1682.8000488281</ele>
        <time>2016-03-26T08:28:53.000Z</time>
      </trkpt>
      <trkpt lat="45.30057" lon="6.18412">
        <ele>1683</ele>
        <time>2016-03-26T08:28:54.000Z</time>
      </trkpt>
      <trkpt lat="45.30065" lon="6.18398">
        <ele>1685.4000244141</ele>
        <time>2016-03-26T08:29:11.000Z</time>
      </trkpt>
      <trkpt lat="45.30068" lon="6.18394">
        <ele>1685.5999755859</ele>
        <time>2016-03-26T08:29:14.000Z</time>
      </trkpt>
      <trkpt lat="45.30079" lon="6.18394">
        <ele>1685.5999755859</ele>
        <time>2016-03-26T08:29:41.000Z</time>
      </trkpt>
      <trkpt lat="45.3008" lon="6.18393">
        <ele>1685.5999755859</ele>
        <time>2016-03-26T08:29:42.000Z</time>
      </trkpt>
      <trkpt lat="45.30082" lon="6.18391">
        <ele>1685.5999755859</ele>
        <time>2016-03-26T08:29:44.000Z</time>
      </trkpt>
      <trkpt lat="45.30088" lon="6.18384">
        <ele>1686.5999755859</ele>
        <time>2016-03-26T08:29:49.000Z</time>
      </trkpt>
      <trkpt lat="45.30094" lon="6.18375">
        <ele>1687.5999755859</ele>
        <time>2016-03-26T08:29:54.000Z</time>
      </trkpt>
      <trkpt lat="45.30095" lon="6.18372">
        <ele>1687.5999755859</ele>
        <time>2016-03-26T08:29:56.000Z</time>
      </trkpt>
      <trkpt lat="45.30106" lon="6.18351">
        <ele>1689.4000244141</ele>
        <time>2016-03-26T08:30:13.000Z</time>
      </trkpt>
      <trkpt lat="45.30108" lon="6.18345">
        <ele>1689.5999755859</ele>
        <time>2016-03-26T08:30:17.000Z</time>
      </trkpt>
      <trkpt lat="45.30115" lon="6.18336">
        <ele>1690</ele>
        <time>2016-03-26T08:30:25.000Z</time>
      </trkpt>
      <trkpt lat="45.30128" lon="6.18311">
        <ele>1692</ele>
        <time>2016-03-26T08:30:48.000Z</time>
      </trkpt>
      <trkpt lat="45.30143" lon="6.18278">
        <ele>1696.1999511719</ele>
        <time>2016-03-26T08:31:20.000Z</time>
      </trkpt>
      <trkpt lat="45.30251" lon="6.18108">
        <ele>1741.8000488281</ele>
        <time>2016-03-26T08:35:44.000Z</time>
      </trkpt>
      <trkpt lat="45.30489" lon="6.17803">
        <ele>1894.1999511719</ele>
        <time>2016-03-26T08:49:04.000Z</time>
      </trkpt>
      <trkpt lat="45.3049" lon="6.178">
        <ele>1894.4000244141</ele>
        <time>2016-03-26T08:49:06.000Z</time>
      </trkpt>
      <trkpt lat="45.30493" lon="6.17795">
        <ele>1895.4000244141</ele>
        <time>2016-03-26T08:49:11.000Z</time>
      </trkpt>
      <trkpt lat="45.30495" lon="6.1779">
        <ele>1896.4000244141</ele>
        <time>2016-03-26T08:49:17.000Z</time>
      </trkpt>
      <trkpt lat="45.30499" lon="6.17785">
        <ele>1897.5999755859</ele>
        <time>2016-03-26T08:49:23.000Z</time>
      </trkpt>
      <trkpt lat="45.30686" lon="6.17842">
        <ele>2005.5999755859</ele>
        <time>2016-03-26T09:01:12.000Z</time>
      </trkpt>
      <trkpt lat="45.30691" lon="6.17838">
        <ele>2006.8000488281</ele>
        <time>2016-03-26T09:01:18.000Z</time>
      </trkpt>
      <trkpt lat="45.3115" lon="6.18523">
        <ele>2331.6000976562</ele>
        <time>2016-03-26T09:43:20.000Z</time>
      </trkpt>
      <trkpt lat="45.31151" lon="6.18524">
        <ele>2332</ele>
        <time>2016-03-26T09:43:22.000Z</time>
      </trkpt>
      <trkpt lat="45.3138" lon="6.18518">
        <ele>2468.6000976562</ele>
        <time>2016-03-26T09:55:56.000Z</time>
      </trkpt>
      <trkpt lat="45.31552" lon="6.18397">
        <ele>2553.1999511719</ele>
        <time>2016-03-26T10:05:55.000Z</time>
      </trkpt>
      <trkpt lat="45.31552" lon="6.18397">
        <ele>2553.1999511719</ele>
        <time>2016-03-26T10:06:00.000Z</time>
      </trkpt>
      <trkpt lat="45.31554" lon="6.18394">
        <ele>2553.3999023438</ele>
        <time>2016-03-26T10:06:07.000Z</time>
      </trkpt>
      <trkpt lat="45.31555" lon="6.18394">
        <ele>2553.8000488281</ele>
        <time>2016-03-26T10:06:12.000Z</time>
      </trkpt>
      <trkpt lat="45.31556" lon="6.18394">
        <ele>2554.1999511719</ele>
        <time>2016-03-26T10:06:18.000Z</time>
      </trkpt>
      <trkpt lat="45.31556" lon="6.18394">
        <ele>2554.1999511719</ele>
        <time>2016-03-26T10:06:19.000Z</time>
      </trkpt>
      <trkpt lat="45.31556" lon="6.18394">
        <ele>2554.3999023438</ele>
        <time>2016-03-26T10:06:24.000Z</time>
      </trkpt>
      <trkpt lat="45.31556" lon="6.18394">
        <ele>2554.6000976562</ele>
        <time>2016-03-26T10:06:27.000Z</time>
      </trkpt>
      <trkpt lat="45.31557" lon="6.18395">
        <ele>2555</ele>
        <time>2016-03-26T10:06:33.000Z</time>
      </trkpt>
      <trkpt lat="45.31558" lon="6.18396">
        <ele>2555.3999023438</ele>
        <time>2016-03-26T10:06:37.000Z</time>
      </trkpt>
      <trkpt lat="45.31561" lon="6.18398">
        <ele>2556</ele>
        <time>2016-03-26T10:06:46.000Z</time>
      </trkpt>
      <trkpt lat="45.31561" lon="6.18398">
        <ele>2556.6000976562</ele>
        <time>2016-03-26T10:06:48.000Z</time>
      </trkpt>
      <trkpt lat="45.31562" lon="6.18399">
        <ele>2557.3999023438</ele>
        <time>2016-03-26T10:06:53.000Z</time>
      </trkpt>
      <trkpt lat="45.31562" lon="6.18399">
        <ele>2557.1999511719</ele>
        <time>2016-03-26T10:06:59.000Z</time>
      </trkpt>
      <trkpt lat="45.31564" lon="6.184">
        <ele>2557.6000976562</ele>
        <time>2016-03-26T10:07:04.000Z</time>
      </trkpt>
      <trkpt lat="45.31565" lon="6.18402">
        <ele>2557.8000488281</ele>
        <time>2016-03-26T10:07:06.000Z</time>
      </trkpt>
      <trkpt lat="45.31569" lon="6.18405">
        <ele>2558.6000976562</ele>
        <time>2016-03-26T10:07:12.000Z</time>
      </trkpt>
      <trkpt lat="45.31569" lon="6.18405">
        <ele>2558.6000976562</ele>
        <time>2016-03-26T10:07:13.000Z</time>
      </trkpt>
      <trkpt lat="45.31571" lon="6.18406">
        <ele>2559</ele>
        <time>2016-03-26T10:07:17.000Z</time>
      </trkpt>
      <trkpt lat="45.31572" lon="6.18407">
        <ele>2559.6000976562</ele>
        <time>2016-03-26T10:07:21.000Z</time>
      </trkpt>
      <trkpt lat="45.31574" lon="6.18407">
        <ele>2559.8000488281</ele>
        <time>2016-03-26T10:07:23.000Z</time>
      </trkpt>
      <trkpt lat="45.31576" lon="6.1841">
        <ele>2560</ele>
        <time>2016-03-26T10:07:26.000Z</time>
      </trkpt>
      <trkpt lat="45.31579" lon="6.18411">
        <ele>2560.8000488281</ele>
        <time>2016-03-26T10:07:31.000Z</time>
      </trkpt>
      <trkpt lat="45.31583" lon="6.18412">
        <ele>2561.1999511719</ele>
        <time>2016-03-26T10:07:35.000Z</time>
      </trkpt>
      <trkpt lat="45.31586" lon="6.18414">
        <ele>2561.6000976562</ele>
        <time>2016-03-26T10:07:40.000Z</time>
      </trkpt>
      <trkpt lat="45.31586" lon="6.18414">
        <ele>2561.8000488281</ele>
        <time>2016-03-26T10:07:41.000Z</time>
      </trkpt>
      <trkpt lat="45.31589" lon="6.18414">
        <ele>2562.6000976562</ele>
        <time>2016-03-26T10:07:46.000Z</time>
      </trkpt>
      <trkpt lat="45.31592" lon="6.18414">
        <ele>2563</ele>
        <time>2016-03-26T10:07:50.000Z</time>
      </trkpt>
      <trkpt lat="45.31592" lon="6.18415">
        <ele>2563</ele>
        <time>2016-03-26T10:07:51.000Z</time>
      </trkpt>
      <trkpt lat="45.31595" lon="6.18413">
        <ele>2563.1999511719</ele>
        <time>2016-03-26T10:07:56.000Z</time>
      </trkpt>
      <trkpt lat="45.31598" lon="6.18412">
        <ele>2564</ele>
        <time>2016-03-26T10:08:00.000Z</time>
      </trkpt>
      <trkpt lat="45.31599" lon="6.18411">
        <ele>2564</ele>
        <time>2016-03-26T10:08:01.000Z</time>
      </trkpt>
      <trkpt lat="45.31601" lon="6.18409">
        <ele>2565.1999511719</ele>
        <time>2016-03-26T10:08:06.000Z</time>
      </trkpt>
      <trkpt lat="45.31602" lon="6.18408">
        <ele>2565.3999023438</ele>
        <time>2016-03-26T10:08:08.000Z</time>
      </trkpt>
      <trkpt lat="45.31604" lon="6.18408">
        <ele>2565.6000976562</ele>
        <time>2016-03-26T10:08:13.000Z</time>
      </trkpt>
      <trkpt lat="45.31607" lon="6.18407">
        <ele>2566.3999023438</ele>
        <time>2016-03-26T10:08:17.000Z</time>
      </trkpt>
      <trkpt lat="45.31608" lon="6.18407">
        <ele>2566.6000976562</ele>
        <time>2016-03-26T10:08:19.000Z</time>
      </trkpt>
      <trkpt lat="45.31611" lon="6.18405">
        <ele>2567.6000976562</ele>
        <time>2016-03-26T10:08:25.000Z</time>
      </trkpt>
      <trkpt lat="45.31616" lon="6.18403">
        <ele>2568.3999023438</ele>
        <time>2016-03-26T10:08:31.000Z</time>
      </trkpt>
      <trkpt lat="45.31617" lon="6.18402">
        <ele>2568.8000488281</ele>
        <time>2016-03-26T10:08:33.000Z</time>
      </trkpt>
      <trkpt lat="45.31619" lon="6.18399">
        <ele>2569.8000488281</ele>
        <time>2016-03-26T10:08:37.000Z</time>
      </trkpt>
      <trkpt lat="45.31619" lon="6.18398">
        <ele>2570</ele>
        <time>2016-03-26T10:08:38.000Z</time>
      </trkpt>
      <trkpt lat="45.31622" lon="6.18396">
        <ele>2570.8000488281</ele>
        <time>2016-03-26T10:08:45.000Z</time>
      </trkpt>
      <trkpt lat="45.31622" lon="6.18396">
        <ele>2571</ele>
        <time>2016-03-26T10:08:47.000Z</time>
      </trkpt>
      <trkpt lat="45.31624" lon="6.18395">
        <ele>2571.8000488281</ele>
        <time>2016-03-26T10:08:53.000Z</time>
      </trkpt>
      <trkpt lat="45.31625" lon="6.18395">
        <ele>2572</ele>
        <time>2016-03-26T10:08:55.000Z</time>
      </trkpt>
      <trkpt lat="45.31627" lon="6.18395">
        <ele>2572.6000976562</ele>
        <time>2016-03-26T10:09:01.000Z</time>
      </trkpt>
      <trkpt lat="45.3163" lon="6.18393">
        <ele>2573.3999023438</ele>
        <time>2016-03-26T10:09:05.000Z</time>
      </trkpt>
      <trkpt lat="45.31633" lon="6.1839">
        <ele>2573.3999023438</ele>
        <time>2016-03-26T10:09:08.000Z</time>
      </trkpt>
      <trkpt lat="45.31635" lon="6.18388">
        <ele>2574.3999023438</ele>
        <time>2016-03-26T10:09:12.000Z</time>
      </trkpt>
      <trkpt lat="45.31635" lon="6.18388">
        <ele>2574.8000488281</ele>
        <time>2016-03-26T10:09:14.000Z</time>
      </trkpt>
      <trkpt lat="45.31637" lon="6.18384">
        <ele>2575.6000976562</ele>
        <time>2016-03-26T10:09:19.000Z</time>
      </trkpt>
      <trkpt lat="45.31638" lon="6.18383">
        <ele>2575.8000488281</ele>
        <time>2016-03-26T10:09:20.000Z</time>
      </trkpt>
      <trkpt lat="45.31641" lon="6.18377">
        <ele>2576.6000976562</ele>
        <time>2016-03-26T10:09:27.000Z</time>
      </trkpt>
      <trkpt lat="45.31642" lon="6.18376">
        <ele>2577.8000488281</ele>
        <time>2016-03-26T10:09:33.000Z</time>
      </trkpt>
      <trkpt lat="45.31642" lon="6.18377">
        <ele>2578.8000488281</ele>
        <time>2016-03-26T10:09:39.000Z</time>
      </trkpt>
      <trkpt lat="45.31642" lon="6.18378">
        <ele>2578.8000488281</ele>
        <time>2016-03-26T10:09:40.000Z</time>
      </trkpt>
      <trkpt lat="45.31644" lon="6.18382">
        <ele>2578.6000976562</ele>
        <time>2016-03-26T10:09:45.000Z</time>
      </trkpt>
      <trkpt lat="45.31645" lon="6.18387">
        <ele>2579.8000488281</ele>
        <time>2016-03-26T10:09:50.000Z</time>
      </trkpt>
      <trkpt lat="45.31645" lon="6.18388">
        <ele>2580</ele>
        <time>2016-03-26T10:09:51.000Z</time>
      </trkpt>
      <trkpt lat="45.31646" lon="6.18394">
        <ele>2580.8000488281</ele>
        <time>2016-03-26T10:09:56.000Z</time>
      </trkpt>
      <trkpt lat="45.31646" lon="6.18395">
        <ele>2581</ele>
        <time>2016-03-26T10:09:57.000Z</time>
      </trkpt>
      <trkpt lat="45.31647" lon="6.18397">
        <ele>2582</ele>
        <time>2016-03-26T10:10:01.000Z</time>
      </trkpt>
      <trkpt lat="45.31647" lon="6.18399">
        <ele>2582.3999023438</ele>
        <time>2016-03-26T10:10:03.000Z</time>
      </trkpt>
      <trkpt lat="45.3165" lon="6.18396">
        <ele>2583.1999511719</ele>
        <time>2016-03-26T10:10:07.000Z</time>
      </trkpt>
      <trkpt lat="45.31651" lon="6.18395">
        <ele>2583.3999023438</ele>
        <time>2016-03-26T10:10:08.000Z</time>
      </trkpt>
      <trkpt lat="45.31654" lon="6.1839">
        <ele>2584</ele>
        <time>2016-03-26T10:10:13.000Z</time>
      </trkpt>
      <trkpt lat="45.31655" lon="6.18389">
        <ele>2584.6000976562</ele>
        <time>2016-03-26T10:10:16.000Z</time>
      </trkpt>
      <trkpt lat="45.31656" lon="6.18388">
        <ele>2585.1999511719</ele>
        <time>2016-03-26T10:10:19.000Z</time>
      </trkpt>
      <trkpt lat="45.31657" lon="6.18386">
        <ele>2585.6000976562</ele>
        <time>2016-03-26T10:10:22.000Z</time>
      </trkpt>
      <trkpt lat="45.31658" lon="6.18383">
        <ele>2586.3999023438</ele>
        <time>2016-03-26T10:10:26.000Z</time>
      </trkpt>
      <trkpt lat="45.3166" lon="6.1838">
        <ele>2586.8000488281</ele>
        <time>2016-03-26T10:10:30.000Z</time>
      </trkpt>
      <trkpt lat="45.3166" lon="6.18378">
        <ele>2587</ele>
        <time>2016-03-26T10:10:32.000Z</time>
      </trkpt>
      <trkpt lat="45.31661" lon="6.18375">
        <ele>2587.8000488281</ele>
        <time>2016-03-26T10:10:37.000Z</time>
      </trkpt>
      <trkpt lat="45.31662" lon="6.18373">
        <ele>2588</ele>
        <time>2016-03-26T10:10:38.000Z</time>
      </trkpt>
      <trkpt lat="45.31662" lon="6.18372">
        <ele>2588.6000976562</ele>
        <time>2016-03-26T10:10:41.000Z</time>
      </trkpt>
      <trkpt lat="45.31662" lon="6.18372">
        <ele>2589.1999511719</ele>
        <time>2016-03-26T10:10:43.000Z</time>
      </trkpt>
      <trkpt lat="45.31662" lon="6.18371">
        <ele>2589.8000488281</ele>
        <time>2016-03-26T10:10:46.000Z</time>
      </trkpt>
      <trkpt lat="45.31663" lon="6.18369">
        <ele>2590.3999023438</ele>
        <time>2016-03-26T10:10:49.000Z</time>
      </trkpt>
      <trkpt lat="45.31663" lon="6.18369">
        <ele>2590.3999023438</ele>
        <time>2016-03-26T10:10:50.000Z</time>
      </trkpt>
      <trkpt lat="45.31663" lon="6.18367">
        <ele>2591.3999023438</ele>
        <time>2016-03-26T10:10:54.000Z</time>
      </trkpt>
      <trkpt lat="45.31663" lon="6.18366">
        <ele>2591.6000976562</ele>
        <time>2016-03-26T10:10:55.000Z</time>
      </trkpt>
      <trkpt lat="45.31663" lon="6.18364">
        <ele>2591.8000488281</ele>
        <time>2016-03-26T10:10:59.000Z</time>
      </trkpt>
      <trkpt lat="45.31665" lon="6.18363">
        <ele>2592.6000976562</ele>
        <time>2016-03-26T10:11:03.000Z</time>
      </trkpt>
      <trkpt lat="45.31667" lon="6.18363">
        <ele>2593</ele>
        <time>2016-03-26T10:11:05.000Z</time>
      </trkpt>
      <trkpt lat="45.31668" lon="6.18363">
        <ele>2593.8000488281</ele>
        <time>2016-03-26T10:11:08.000Z</time>
      </trkpt>
      <trkpt lat="45.31668" lon="6.18363">
        <ele>2595</ele>
        <time>2016-03-26T10:11:13.000Z</time>
      </trkpt>
      <trkpt lat="45.31669" lon="6.18364">
        <ele>2595.6000976562</ele>
        <time>2016-03-26T10:11:15.000Z</time>
      </trkpt>
      <trkpt lat="45.31669" lon="6.18365">
        <ele>2596</ele>
        <time>2016-03-26T10:11:17.000Z</time>
      </trkpt>
      <trkpt lat="45.31671" lon="6.18366">
        <ele>2596.8000488281</ele>
        <time>2016-03-26T10:11:20.000Z</time>
      </trkpt>
      <trkpt lat="45.31671" lon="6.18367">
        <ele>2597.1999511719</ele>
        <time>2016-03-26T10:11:21.000Z</time>
      </trkpt>
      <trkpt lat="45.31674" lon="6.18369">
        <ele>2598</ele>
        <time>2016-03-26T10:11:25.000Z</time>
      </trkpt>
      <trkpt lat="45.31675" lon="6.1837">
        <ele>2598.1999511719</ele>
        <time>2016-03-26T10:11:26.000Z</time>
      </trkpt>
      <trkpt lat="45.31676" lon="6.18372">
        <ele>2598.6000976562</ele>
        <time>2016-03-26T10:11:30.000Z</time>
      </trkpt>
      <trkpt lat="45.31678" lon="6.18374">
        <ele>2599.3999023438</ele>
        <time>2016-03-26T10:11:33.000Z</time>
      </trkpt>
      <trkpt lat="45.3168" lon="6.18375">
        <ele>2600.3999023438</ele>
        <time>2016-03-26T10:11:36.000Z</time>
      </trkpt>
      <trkpt lat="45.31681" lon="6.18376">
        <ele>2600.8000488281</ele>
        <time>2016-03-26T10:11:38.000Z</time>
      </trkpt>
      <trkpt lat="45.31682" lon="6.18379">
        <ele>2601.1999511719</ele>
        <time>2016-03-26T10:11:43.000Z</time>
      </trkpt>
      <trkpt lat="45.31682" lon="6.18379">
        <ele>2601.6000976562</ele>
        <time>2016-03-26T10:11:44.000Z</time>
      </trkpt>
      <trkpt lat="45.31682" lon="6.18379">
        <ele>2602.8000488281</ele>
        <time>2016-03-26T10:11:47.000Z</time>
      </trkpt>
      <trkpt lat="45.31682" lon="6.18379">
        <ele>2603</ele>
        <time>2016-03-26T10:11:50.000Z</time>
      </trkpt>
      <trkpt lat="45.31686" lon="6.18368">
        <ele>2603.6000976562</ele>
        <time>2016-03-26T10:11:58.000Z</time>
      </trkpt>
      <trkpt lat="45.31686" lon="6.18367">
        <ele>2603.8000488281</ele>
        <time>2016-03-26T10:11:59.000Z</time>
      </trkpt>
      <trkpt lat="45.31686" lon="6.18364">
        <ele>2604.1999511719</ele>
        <time>2016-03-26T10:12:02.000Z</time>
      </trkpt>
      <trkpt lat="45.31687" lon="6.1836">
        <ele>2604.8000488281</ele>
        <time>2016-03-26T10:12:06.000Z</time>
      </trkpt>
      <trkpt lat="45.31687" lon="6.1836">
        <ele>2605</ele>
        <time>2016-03-26T10:12:07.000Z</time>
      </trkpt>
      <trkpt lat="45.31687" lon="6.18354">
        <ele>2606</ele>
        <time>2016-03-26T10:12:13.000Z</time>
      </trkpt>
      <trkpt lat="45.31686" lon="6.1835">
        <ele>2606.3999023438</ele>
        <time>2016-03-26T10:12:19.000Z</time>
      </trkpt>
      <trkpt lat="45.31685" lon="6.18349">
        <ele>2607.1999511719</ele>
        <time>2016-03-26T10:12:22.000Z</time>
      </trkpt>
      <trkpt lat="45.31685" lon="6.18349">
        <ele>2607.8000488281</ele>
        <time>2016-03-26T10:12:25.000Z</time>
      </trkpt>
      <trkpt lat="45.31685" lon="6.18349">
        <ele>2608.3999023438</ele>
        <time>2016-03-26T10:12:33.000Z</time>
      </trkpt>
      <trkpt lat="45.31691" lon="6.18352">
        <ele>2608.3999023438</ele>
        <time>2016-03-26T10:12:41.000Z</time>
      </trkpt>
      <trkpt lat="45.31693" lon="6.18354">
        <ele>2609.6000976562</ele>
        <time>2016-03-26T10:12:46.000Z</time>
      </trkpt>
      <trkpt lat="45.31693" lon="6.18355">
        <ele>2609.8000488281</ele>
        <time>2016-03-26T10:12:47.000Z</time>
      </trkpt>
      <trkpt lat="45.31697" lon="6.18356">
        <ele>2610.8000488281</ele>
        <time>2016-03-26T10:12:51.000Z</time>
      </trkpt>
      <trkpt lat="45.31698" lon="6.18357">
        <ele>2612</ele>
        <time>2016-03-26T10:12:54.000Z</time>
      </trkpt>
      <trkpt lat="45.317" lon="6.1836">
        <ele>2613.1999511719</ele>
        <time>2016-03-26T10:13:01.000Z</time>
      </trkpt>
      <trkpt lat="45.31701" lon="6.18362">
        <ele>2614.1999511719</ele>
        <time>2016-03-26T10:13:06.000Z</time>
      </trkpt>
      <trkpt lat="45.31702" lon="6.18363">
        <ele>2614.6000976562</ele>
        <time>2016-03-26T10:13:07.000Z</time>
      </trkpt>
      <trkpt lat="45.31703" lon="6.18366">
        <ele>2615.6000976562</ele>
        <time>2016-03-26T10:13:12.000Z</time>
      </trkpt>
      <trkpt lat="45.31703" lon="6.18366">
        <ele>2615.8000488281</ele>
        <time>2016-03-26T10:13:13.000Z</time>
      </trkpt>
      <trkpt lat="45.31703" lon="6.18366">
        <ele>2616.6000976562</ele>
        <time>2016-03-26T10:13:18.000Z</time>
      </trkpt>
      <trkpt lat="45.31704" lon="6.18363">
        <ele>2617.1999511719</ele>
        <time>2016-03-26T10:13:24.000Z</time>
      </trkpt>
      <trkpt lat="45.31705" lon="6.18354">
        <ele>2617.6000976562</ele>
        <time>2016-03-26T10:13:32.000Z</time>
      </trkpt>
      <trkpt lat="45.31706" lon="6.18351">
        <ele>2618.8000488281</ele>
        <time>2016-03-26T10:13:37.000Z</time>
      </trkpt>
      <trkpt lat="45.31705" lon="6.18349">
        <ele>2619.3999023438</ele>
        <time>2016-03-26T10:13:40.000Z</time>
      </trkpt>
      <trkpt lat="45.31705" lon="6.18345">
        <ele>2619.8000488281</ele>
        <time>2016-03-26T10:13:44.000Z</time>
      </trkpt>
      <trkpt lat="45.31705" lon="6.18341">
        <ele>2620.1999511719</ele>
        <time>2016-03-26T10:13:49.000Z</time>
      </trkpt>
      <trkpt lat="45.31704" lon="6.1834">
        <ele>2621</ele>
        <time>2016-03-26T10:13:53.000Z</time>
      </trkpt>
      <trkpt lat="45.31703" lon="6.18337">
        <ele>2621.6000976562</ele>
        <time>2016-03-26T10:13:55.000Z</time>
      </trkpt>
      <trkpt lat="45.31703" lon="6.18332">
        <ele>2622</ele>
        <time>2016-03-26T10:13:59.000Z</time>
      </trkpt>
      <trkpt lat="45.31703" lon="6.1833">
        <ele>2622.1999511719</ele>
        <time>2016-03-26T10:14:01.000Z</time>
      </trkpt>
      <trkpt lat="45.31703" lon="6.18328">
        <ele>2622.8000488281</ele>
        <time>2016-03-26T10:14:04.000Z</time>
      </trkpt>
      <trkpt lat="45.31703" lon="6.18328">
        <ele>2623.1999511719</ele>
        <time>2016-03-26T10:14:05.000Z</time>
      </trkpt>
      <trkpt lat="45.31703" lon="6.18325">
        <ele>2623.8000488281</ele>
        <time>2016-03-26T10:14:10.000Z</time>
      </trkpt>
      <trkpt lat="45.31702" lon="6.18323">
        <ele>2624.1999511719</ele>
        <time>2016-03-26T10:14:14.000Z</time>
      </trkpt>
      <trkpt lat="45.31702" lon="6.18322">
        <ele>2624.3999023438</ele>
        <time>2016-03-26T10:14:15.000Z</time>
      </trkpt>
      <trkpt lat="45.31702" lon="6.1832">
        <ele>2625.1999511719</ele>
        <time>2016-03-26T10:14:20.000Z</time>
      </trkpt>
      <trkpt lat="45.31702" lon="6.1832">
        <ele>2625.1999511719</ele>
        <time>2016-03-26T10:14:23.000Z</time>
      </trkpt>
      <trkpt lat="45.31704" lon="6.18321">
        <ele>2626.3999023438</ele>
        <time>2016-03-26T10:14:27.000Z</time>
      </trkpt>
      <trkpt lat="45.31705" lon="6.18321">
        <ele>2626.8000488281</ele>
        <time>2016-03-26T10:14:29.000Z</time>
      </trkpt>
      <trkpt lat="45.31711" lon="6.18326">
        <ele>2627.3999023438</ele>
        <time>2016-03-26T10:14:37.000Z</time>
      </trkpt>
      <trkpt lat="45.31712" lon="6.18327">
        <ele>2627.6000976562</ele>
        <time>2016-03-26T10:14:39.000Z</time>
      </trkpt>
      <trkpt lat="45.31715" lon="6.18329">
        <ele>2628.1999511719</ele>
        <time>2016-03-26T10:14:43.000Z</time>
      </trkpt>
      <trkpt lat="45.31717" lon="6.18331">
        <ele>2628.8000488281</ele>
        <time>2016-03-26T10:14:47.000Z</time>
      </trkpt>
      <trkpt lat="45.31718" lon="6.18334">
        <ele>2629.8000488281</ele>
        <time>2016-03-26T10:14:51.000Z</time>
      </trkpt>
      <trkpt lat="45.31722" lon="6.18336">
        <ele>2630.8000488281</ele>
        <time>2016-03-26T10:14:57.000Z</time>
      </trkpt>
      <trkpt lat="45.31723" lon="6.18338">
        <ele>2631</ele>
        <time>2016-03-26T10:14:59.000Z</time>
      </trkpt>
      <trkpt lat="45.31724" lon="6.1834">
        <ele>2631.6000976562</ele>
        <time>2016-03-26T10:15:03.000Z</time>
      </trkpt>
      <trkpt lat="45.31727" lon="6.18341">
        <ele>2632</ele>
        <time>2016-03-26T10:15:06.000Z</time>
      </trkpt>
      <trkpt lat="45.31727" lon="6.18341">
        <ele>2632.3999023438</ele>
        <time>2016-03-26T10:15:08.000Z</time>
      </trkpt>
      <trkpt lat="45.31727" lon="6.18343">
        <ele>2633.3999023438</ele>
        <time>2016-03-26T10:15:12.000Z</time>
      </trkpt>
      <trkpt lat="45.31728" lon="6.18344">
        <ele>2633.6000976562</ele>
        <time>2016-03-26T10:15:13.000Z</time>
      </trkpt>
      <trkpt lat="45.31729" lon="6.18346">
        <ele>2634.1999511719</ele>
        <time>2016-03-26T10:15:18.000Z</time>
      </trkpt>
      <trkpt lat="45.31729" lon="6.18347">
        <ele>2634.6000976562</ele>
        <time>2016-03-26T10:15:20.000Z</time>
      </trkpt>
      <trkpt lat="45.31729" lon="6.18347">
        <ele>2635.6000976562</ele>
        <time>2016-03-26T10:15:24.000Z</time>
      </trkpt>
      <trkpt lat="45.31729" lon="6.18342">
        <ele>2636</ele>
        <time>2016-03-26T10:15:29.000Z</time>
      </trkpt>
      <trkpt lat="45.31729" lon="6.18337">
        <ele>2636.3999023438</ele>
        <time>2016-03-26T10:15:34.000Z</time>
      </trkpt>
      <trkpt lat="45.31729" lon="6.18336">
        <ele>2636.6000976562</ele>
        <time>2016-03-26T10:15:37.000Z</time>
      </trkpt>
      <trkpt lat="45.31729" lon="6.18335">
        <ele>2637</ele>
        <time>2016-03-26T10:15:39.000Z</time>
      </trkpt>
      <trkpt lat="45.31729" lon="6.18332">
        <ele>2637.8000488281</ele>
        <time>2016-03-26T10:15:42.000Z</time>
      </trkpt>
      <trkpt lat="45.31729" lon="6.1833">
        <ele>2638</ele>
        <time>2016-03-26T10:15:43.000Z</time>
      </trkpt>
      <trkpt lat="45.31729" lon="6.18329">
        <ele>2638</ele>
        <time>2016-03-26T10:15:44.000Z</time>
      </trkpt>
      <trkpt lat="45.31729" lon="6.18325">
        <ele>2638.3999023438</ele>
        <time>2016-03-26T10:15:48.000Z</time>
      </trkpt>
      <trkpt lat="45.31729" lon="6.18324">
        <ele>2639</ele>
        <time>2016-03-26T10:15:50.000Z</time>
      </trkpt>
      <trkpt lat="45.31729" lon="6.18319">
        <ele>2639.3999023438</ele>
        <time>2016-03-26T10:15:54.000Z</time>
      </trkpt>
      <trkpt lat="45.31729" lon="6.18316">
        <ele>2640</ele>
        <time>2016-03-26T10:15:58.000Z</time>
      </trkpt>
      <trkpt lat="45.31729" lon="6.18312">
        <ele>2640.1999511719</ele>
        <time>2016-03-26T10:16:00.000Z</time>
      </trkpt>
      <trkpt lat="45.31728" lon="6.18307">
        <ele>2640.8000488281</ele>
        <time>2016-03-26T10:16:06.000Z</time>
      </trkpt>
      <trkpt lat="45.31728" lon="6.18305">
        <ele>2641.1999511719</ele>
        <time>2016-03-26T10:16:08.000Z</time>
      </trkpt>
      <trkpt lat="45.31728" lon="6.18303">
        <ele>2641.6000976562</ele>
        <time>2016-03-26T10:16:11.000Z</time>
      </trkpt>
      <trkpt lat="45.31727" lon="6.18301">
        <ele>2642.1999511719</ele>
        <time>2016-03-26T10:16:15.000Z</time>
      </trkpt>
      <trkpt lat="45.31727" lon="6.183">
        <ele>2642.3999023438</ele>
        <time>2016-03-26T10:16:16.000Z</time>
      </trkpt>
      <trkpt lat="45.31727" lon="6.183">
        <ele>2642.8000488281</ele>
        <time>2016-03-26T10:16:20.000Z</time>
      </trkpt>
      <trkpt lat="45.31727" lon="6.183">
        <ele>2643.6000976562</ele>
        <time>2016-03-26T10:16:23.000Z</time>
      </trkpt>
      <trkpt lat="45.31729" lon="6.18303">
        <ele>2643.8000488281</ele>
        <time>2016-03-26T10:16:28.000Z</time>
      </trkpt>
      <trkpt lat="45.31733" lon="6.18308">
        <ele>2644.3999023438</ele>
        <time>2016-03-26T10:16:35.000Z</time>
      </trkpt>
      <trkpt lat="45.31734" lon="6.18309">
        <ele>2644.6000976562</ele>
        <time>2016-03-26T10:16:36.000Z</time>
      </trkpt>
      <trkpt lat="45.31736" lon="6.18314">
        <ele>2645.1999511719</ele>
        <time>2016-03-26T10:16:41.000Z</time>
      </trkpt>
      <trkpt lat="45.31738" lon="6.18315">
        <ele>2645.6000976562</ele>
        <time>2016-03-26T10:16:44.000Z</time>
      </trkpt>
      <trkpt lat="45.3174" lon="6.18317">
        <ele>2646.1999511719</ele>
        <time>2016-03-26T10:16:47.000Z</time>
      </trkpt>
      <trkpt lat="45.3174" lon="6.18318">
        <ele>2647</ele>
        <time>2016-03-26T10:16:49.000Z</time>
      </trkpt>
      <trkpt lat="45.31741" lon="6.18321">
        <ele>2647.6000976562</ele>
        <time>2016-03-26T10:16:53.000Z</time>
      </trkpt>
      <trkpt lat="45.31743" lon="6.18323">
        <ele>2648</ele>
        <time>2016-03-26T10:16:56.000Z</time>
      </trkpt>
      <trkpt lat="45.31744" lon="6.18326">
        <ele>2648.3999023438</ele>
        <time>2016-03-26T10:16:59.000Z</time>
      </trkpt>
      <trkpt lat="45.31744" lon="6.18328">
        <ele>2649</ele>
        <time>2016-03-26T10:17:02.000Z</time>
      </trkpt>
      <trkpt lat="45.31746" lon="6.1833">
        <ele>2649.6000976562</ele>
        <time>2016-03-26T10:17:05.000Z</time>
      </trkpt>
      <trkpt lat="45.31747" lon="6.18332">
        <ele>2650.1999511719</ele>
        <time>2016-03-26T10:17:08.000Z</time>
      </trkpt>
      <trkpt lat="45.31748" lon="6.18334">
        <ele>2650.8000488281</ele>
        <time>2016-03-26T10:17:11.000Z</time>
      </trkpt>
      <trkpt lat="45.31749" lon="6.18338">
        <ele>2651.3999023438</ele>
        <time>2016-03-26T10:17:14.000Z</time>
      </trkpt>
      <trkpt lat="45.3175" lon="6.18342">
        <ele>2652</ele>
        <time>2016-03-26T10:17:17.000Z</time>
      </trkpt>
      <trkpt lat="45.31751" lon="6.18342">
        <ele>2652.3999023438</ele>
        <time>2016-03-26T10:17:19.000Z</time>
      </trkpt>
      <trkpt lat="45.31753" lon="6.18344">
        <ele>2653</ele>
        <time>2016-03-26T10:17:23.000Z</time>
      </trkpt>
      <trkpt lat="45.31755" lon="6.18348">
        <ele>2653.3999023438</ele>
        <time>2016-03-26T10:17:26.000Z</time>
      </trkpt>
      <trkpt lat="45.31756" lon="6.1835">
        <ele>2654</ele>
        <time>2016-03-26T10:17:29.000Z</time>
      </trkpt>
      <trkpt lat="45.31757" lon="6.18351">
        <ele>2654.3999023438</ele>
        <time>2016-03-26T10:17:32.000Z</time>
      </trkpt>
      <trkpt lat="45.31758" lon="6.18354">
        <ele>2654.8000488281</ele>
        <time>2016-03-26T10:17:35.000Z</time>
      </trkpt>
      <trkpt lat="45.31759" lon="6.18356">
        <ele>2655.6000976562</ele>
        <time>2016-03-26T10:17:38.000Z</time>
      </trkpt>
      <trkpt lat="45.31761" lon="6.18359">
        <ele>2656</ele>
        <time>2016-03-26T10:17:41.000Z</time>
      </trkpt>
      <trkpt lat="45.31761" lon="6.18362">
        <ele>2656.6000976562</ele>
        <time>2016-03-26T10:17:46.000Z</time>
      </trkpt>
      <trkpt lat="45.31761" lon="6.18362">
        <ele>2656.8000488281</ele>
        <time>2016-03-26T10:17:47.000Z</time>
      </trkpt>
      <trkpt lat="45.31762" lon="6.18366">
        <ele>2657.8000488281</ele>
        <time>2016-03-26T10:17:52.000Z</time>
      </trkpt>
      <trkpt lat="45.31763" lon="6.18368">
        <ele>2658.6000976562</ele>
        <time>2016-03-26T10:17:55.000Z</time>
      </trkpt>
      <trkpt lat="45.31763" lon="6.1837">
        <ele>2659</ele>
        <time>2016-03-26T10:17:57.000Z</time>
      </trkpt>
      <trkpt lat="45.31763" lon="6.18374">
        <ele>2659.8000488281</ele>
        <time>2016-03-26T10:18:01.000Z</time>
      </trkpt>
      <trkpt lat="45.31764" lon="6.18375">
        <ele>2660</ele>
        <time>2016-03-26T10:18:03.000Z</time>
      </trkpt>
      <trkpt lat="45.31764" lon="6.18379">
        <ele>2660.6000976562</ele>
        <time>2016-03-26T10:18:07.000Z</time>
      </trkpt>
      <trkpt lat="45.31764" lon="6.18382">
        <ele>2661.1999511719</ele>
        <time>2016-03-26T10:18:10.000Z</time>
      </trkpt>
      <trkpt lat="45.31766" lon="6.18384">
        <ele>2661.6000976562</ele>
        <time>2016-03-26T10:18:15.000Z</time>
      </trkpt>
      <trkpt lat="45.31766" lon="6.18384">
        <ele>2662.1999511719</ele>
        <time>2016-03-26T10:18:18.000Z</time>
      </trkpt>
      <trkpt lat="45.31766" lon="6.18384">
        <ele>2662.3999023438</ele>
        <time>2016-03-26T10:18:25.000Z</time>
      </trkpt>
      <trkpt lat="45.31768" lon="6.18381">
        <ele>2663.1999511719</ele>
        <time>2016-03-26T10:18:32.000Z</time>
      </trkpt>
      <trkpt lat="45.31771" lon="6.18375">
        <ele>2663.8000488281</ele>
        <time>2016-03-26T10:18:36.000Z</time>
      </trkpt>
      <trkpt lat="45.31772" lon="6.1837">
        <ele>2664.3999023438</ele>
        <time>2016-03-26T10:18:40.000Z</time>
      </trkpt>
      <trkpt lat="45.31772" lon="6.18365">
        <ele>2665</ele>
        <time>2016-03-26T10:18:47.000Z</time>
      </trkpt>
      <trkpt lat="45.31772" lon="6.18365">
        <ele>2665.3999023438</ele>
        <time>2016-03-26T10:18:49.000Z</time>
      </trkpt>
      <trkpt lat="45.31772" lon="6.18362">
        <ele>2666</ele>
        <time>2016-03-26T10:18:53.000Z</time>
      </trkpt>
      <trkpt lat="45.31772" lon="6.18356">
        <ele>2666.3999023438</ele>
        <time>2016-03-26T10:18:57.000Z</time>
      </trkpt>
      <trkpt lat="45.31772" lon="6.18355">
        <ele>2666.6000976562</ele>
        <time>2016-03-26T10:18:58.000Z</time>
      </trkpt>
      <trkpt lat="45.31772" lon="6.18351">
        <ele>2667.1999511719</ele>
        <time>2016-03-26T10:19:03.000Z</time>
      </trkpt>
      <trkpt lat="45.31773" lon="6.18348">
        <ele>2667.6000976562</ele>
        <time>2016-03-26T10:19:04.000Z</time>
      </trkpt>
      <trkpt lat="45.31772" lon="6.18346">
        <ele>2668</ele>
        <time>2016-03-26T10:19:07.000Z</time>
      </trkpt>
      <trkpt lat="45.31772" lon="6.18341">
        <ele>2668.6000976562</ele>
        <time>2016-03-26T10:19:11.000Z</time>
      </trkpt>
      <trkpt lat="45.31772" lon="6.1834">
        <ele>2669</ele>
        <time>2016-03-26T10:19:13.000Z</time>
      </trkpt>
      <trkpt lat="45.31772" lon="6.18336">
        <ele>2669.8000488281</ele>
        <time>2016-03-26T10:19:17.000Z</time>
      </trkpt>
      <trkpt lat="45.31772" lon="6.18333">
        <ele>2670.3999023438</ele>
        <time>2016-03-26T10:19:20.000Z</time>
      </trkpt>
      <trkpt lat="45.31772" lon="6.1833">
        <ele>2670.8000488281</ele>
        <time>2016-03-26T10:19:25.000Z</time>
      </trkpt>
      <trkpt lat="45.31772" lon="6.1833">
        <ele>2670.8000488281</ele>
        <time>2016-03-26T10:19:26.000Z</time>
      </trkpt>
      <trkpt lat="45.31772" lon="6.18324">
        <ele>2671.8000488281</ele>
        <time>2016-03-26T10:19:32.000Z</time>
      </trkpt>
      <trkpt lat="45.31772" lon="6.18323">
        <ele>2672</ele>
        <time>2016-03-26T10:19:33.000Z</time>
      </trkpt>
      <trkpt lat="45.31771" lon="6.1832">
        <ele>2672.8000488281</ele>
        <time>2016-03-26T10:19:38.000Z</time>
      </trkpt>
      <trkpt lat="45.31771" lon="6.1832">
        <ele>2672.8000488281</ele>
        <time>2016-03-26T10:19:41.000Z</time>
      </trkpt>
      <trkpt lat="45.31771" lon="6.1832">
        <ele>2674</ele>
        <time>2016-03-26T10:19:45.000Z</time>
      </trkpt>
      <trkpt lat="45.31771" lon="6.1832">
        <ele>2673.8000488281</ele>
        <time>2016-03-26T10:19:55.000Z</time>
      </trkpt>
      <trkpt lat="45.31772" lon="6.18321">
        <ele>2673.8000488281</ele>
        <time>2016-03-26T10:20:06.000Z</time>
      </trkpt>
      <trkpt lat="45.31773" lon="6.18323">
        <ele>2675</ele>
        <time>2016-03-26T10:20:13.000Z</time>
      </trkpt>
      <trkpt lat="45.31774" lon="6.18321">
        <ele>2675.6000976562</ele>
        <time>2016-03-26T10:20:22.000Z</time>
      </trkpt>
      <trkpt lat="45.31774" lon="6.1832">
        <ele>2676.1999511719</ele>
        <time>2016-03-26T10:20:25.000Z</time>
      </trkpt>
      <trkpt lat="45.31773" lon="6.18319">
        <ele>2676.6000976562</ele>
        <time>2016-03-26T10:20:27.000Z</time>
      </trkpt>
      <trkpt lat="45.31774" lon="6.18316">
        <ele>2677.1999511719</ele>
        <time>2016-03-26T10:20:31.000Z</time>
      </trkpt>
      <trkpt lat="45.31774" lon="6.18315">
        <ele>2677.3999023438</ele>
        <time>2016-03-26T10:20:32.000Z</time>
      </trkpt>
      <trkpt lat="45.31774" lon="6.18313">
        <ele>2678.3999023438</ele>
        <time>2016-03-26T10:20:36.000Z</time>
      </trkpt>
      <trkpt lat="45.31774" lon="6.18311">
        <ele>2679</ele>
        <time>2016-03-26T10:20:39.000Z</time>
      </trkpt>
      <trkpt lat="45.31775" lon="6.18309">
        <ele>2679.6000976562</ele>
        <time>2016-03-26T10:20:42.000Z</time>
      </trkpt>
      <trkpt lat="45.31775" lon="6.18305">
        <ele>2680.6000976562</ele>
        <time>2016-03-26T10:20:48.000Z</time>
      </trkpt>
      <trkpt lat="45.31775" lon="6.18303">
        <ele>2681.8000488281</ele>
        <time>2016-03-26T10:20:51.000Z</time>
      </trkpt>
      <trkpt lat="45.31775" lon="6.18299">
        <ele>2682</ele>
        <time>2016-03-26T10:20:56.000Z</time>
      </trkpt>
      <trkpt lat="45.31776" lon="6.18298">
        <ele>2682.8000488281</ele>
        <time>2016-03-26T10:21:02.000Z</time>
      </trkpt>
      <trkpt lat="45.31776" lon="6.18298">
        <ele>2684</ele>
        <time>2016-03-26T10:21:05.000Z</time>
      </trkpt>
      <trkpt lat="45.31776" lon="6.18299">
        <ele>2683.3999023438</ele>
        <time>2016-03-26T10:21:12.000Z</time>
      </trkpt>
      <trkpt lat="45.31778" lon="6.18304">
        <ele>2683.6000976562</ele>
        <time>2016-03-26T10:21:17.000Z</time>
      </trkpt>
      <trkpt lat="45.3178" lon="6.18308">
        <ele>2685</ele>
        <time>2016-03-26T10:21:23.000Z</time>
      </trkpt>
      <trkpt lat="45.31781" lon="6.18309">
        <ele>2685.1999511719</ele>
        <time>2016-03-26T10:21:24.000Z</time>
      </trkpt>
      <trkpt lat="45.31782" lon="6.18312">
        <ele>2686</ele>
        <time>2016-03-26T10:21:29.000Z</time>
      </trkpt>
      <trkpt lat="45.31782" lon="6.18313">
        <ele>2686.3999023438</ele>
        <time>2016-03-26T10:21:31.000Z</time>
      </trkpt>
      <trkpt lat="45.31783" lon="6.18314">
        <ele>2687</ele>
        <time>2016-03-26T10:21:35.000Z</time>
      </trkpt>
      <trkpt lat="45.31783" lon="6.18314">
        <ele>2687.6000976562</ele>
        <time>2016-03-26T10:21:38.000Z</time>
      </trkpt>
      <trkpt lat="45.31784" lon="6.18311">
        <ele>2687.6000976562</ele>
        <time>2016-03-26T10:21:44.000Z</time>
      </trkpt>
      <trkpt lat="45.31783" lon="6.18306">
        <ele>2688.1999511719</ele>
        <time>2016-03-26T10:21:51.000Z</time>
      </trkpt>
      <trkpt lat="45.31783" lon="6.18304">
        <ele>2688.6000976562</ele>
        <time>2016-03-26T10:21:54.000Z</time>
      </trkpt>
      <trkpt lat="45.31784" lon="6.18302">
        <ele>2689.1999511719</ele>
        <time>2016-03-26T10:21:57.000Z</time>
      </trkpt>
      <trkpt lat="45.31784" lon="6.183">
        <ele>2689.8000488281</ele>
        <time>2016-03-26T10:21:59.000Z</time>
      </trkpt>
      <trkpt lat="45.31784" lon="6.183">
        <ele>2690.3999023438</ele>
        <time>2016-03-26T10:22:03.000Z</time>
      </trkpt>
      <trkpt lat="45.31785" lon="6.183">
        <ele>2691</ele>
        <time>2016-03-26T10:22:05.000Z</time>
      </trkpt>
      <trkpt lat="45.31785" lon="6.18301">
        <ele>2691.8000488281</ele>
        <time>2016-03-26T10:22:09.000Z</time>
      </trkpt>
      <trkpt lat="45.31787" lon="6.18306">
        <ele>2691.1999511719</ele>
        <time>2016-03-26T10:22:15.000Z</time>
      </trkpt>
      <trkpt lat="45.3179" lon="6.18309">
        <ele>2692.1999511719</ele>
        <time>2016-03-26T10:22:20.000Z</time>
      </trkpt>
      <trkpt lat="45.31791" lon="6.18311">
        <ele>2692.3999023438</ele>
        <time>2016-03-26T10:22:22.000Z</time>
      </trkpt>
      <trkpt lat="45.31791" lon="6.18314">
        <ele>2693.1999511719</ele>
        <time>2016-03-26T10:22:26.000Z</time>
      </trkpt>
      <trkpt lat="45.31793" lon="6.18316">
        <ele>2694.3999023438</ele>
        <time>2016-03-26T10:22:30.000Z</time>
      </trkpt>
      <trkpt lat="45.31793" lon="6.18317">
        <ele>2694.6000976562</ele>
        <time>2016-03-26T10:22:31.000Z</time>
      </trkpt>
      <trkpt lat="45.31794" lon="6.18321">
        <ele>2695.6000976562</ele>
        <time>2016-03-26T10:22:38.000Z</time>
      </trkpt>
      <trkpt lat="45.31794" lon="6.18322">
        <ele>2696.6000976562</ele>
        <time>2016-03-26T10:22:43.000Z</time>
      </trkpt>
      <trkpt lat="45.31794" lon="6.18322">
        <ele>2696.6000976562</ele>
        <time>2016-03-26T10:22:47.000Z</time>
      </trkpt>
      <trkpt lat="45.31796" lon="6.18318">
        <ele>2696.8000488281</ele>
        <time>2016-03-26T10:22:53.000Z</time>
      </trkpt>
      <trkpt lat="45.31796" lon="6.18315">
        <ele>2697.8000488281</ele>
        <time>2016-03-26T10:22:57.000Z</time>
      </trkpt>
      <trkpt lat="45.31796" lon="6.18313">
        <ele>2698.3999023438</ele>
        <time>2016-03-26T10:23:02.000Z</time>
      </trkpt>
      <trkpt lat="45.31796" lon="6.18313">
        <ele>2698.8000488281</ele>
        <time>2016-03-26T10:23:08.000Z</time>
      </trkpt>
      <trkpt lat="45.31796" lon="6.18313">
        <ele>2699.1999511719</ele>
        <time>2016-03-26T10:23:11.000Z</time>
      </trkpt>
      <trkpt lat="45.31796" lon="6.18314">
        <ele>2699.8000488281</ele>
        <time>2016-03-26T10:23:20.000Z</time>
      </trkpt>
      <trkpt lat="45.31797" lon="6.18314">
        <ele>2700</ele>
        <time>2016-03-26T10:23:22.000Z</time>
      </trkpt>
      <trkpt lat="45.31797" lon="6.18314">
        <ele>2700</ele>
        <time>2016-03-26T10:23:26.000Z</time>
      </trkpt>
      <trkpt lat="45.31798" lon="6.18315">
        <ele>2700.8000488281</ele>
        <time>2016-03-26T10:23:34.000Z</time>
      </trkpt>
      <trkpt lat="45.31798" lon="6.18315">
        <ele>2701.1999511719</ele>
        <time>2016-03-26T10:23:36.000Z</time>
      </trkpt>
      <trkpt lat="45.31798" lon="6.18315">
        <ele>2702.1999511719</ele>
        <time>2016-03-26T10:23:39.000Z</time>
      </trkpt>
      <trkpt lat="45.31799" lon="6.18317">
        <ele>2702.6000976562</ele>
        <time>2016-03-26T10:23:43.000Z</time>
      </trkpt>
      <trkpt lat="45.31801" lon="6.1832">
        <ele>2703.1999511719</ele>
        <time>2016-03-26T10:23:49.000Z</time>
      </trkpt>
      <trkpt lat="45.31801" lon="6.1832">
        <ele>2703.3999023438</ele>
        <time>2016-03-26T10:23:50.000Z</time>
      </trkpt>
      <trkpt lat="45.31801" lon="6.1832">
        <ele>2704.6000976562</ele>
        <time>2016-03-26T10:23:53.000Z</time>
      </trkpt>
      <trkpt lat="45.31801" lon="6.18321">
        <ele>2705.3999023438</ele>
        <time>2016-03-26T10:23:58.000Z</time>
      </trkpt>
      <trkpt lat="45.31801" lon="6.18321">
        <ele>2705.8000488281</ele>
        <time>2016-03-26T10:24:03.000Z</time>
      </trkpt>
      <trkpt lat="45.31801" lon="6.18322">
        <ele>2705.8000488281</ele>
        <time>2016-03-26T10:24:06.000Z</time>
      </trkpt>
      <trkpt lat="45.31801" lon="6.18324">
        <ele>2705.8000488281</ele>
        <time>2016-03-26T10:24:13.000Z</time>
      </trkpt>
      <trkpt lat="45.318" lon="6.18325">
        <ele>2706.8000488281</ele>
        <time>2016-03-26T10:24:20.000Z</time>
      </trkpt>
      <trkpt lat="45.318" lon="6.18325">
        <ele>2706.8000488281</ele>
        <time>2016-03-26T10:24:21.000Z</time>
      </trkpt>
      <trkpt lat="45.31801" lon="6.18326">
        <ele>2707.6000976562</ele>
        <time>2016-03-26T10:24:28.000Z</time>
      </trkpt>
      <trkpt lat="45.31801" lon="6.18326">
        <ele>2707.8000488281</ele>
        <time>2016-03-26T10:24:37.000Z</time>
      </trkpt>
      <trkpt lat="45.31801" lon="6.18326">
        <ele>2707.8000488281</ele>
        <time>2016-03-26T10:24:38.000Z</time>
      </trkpt>
      <trkpt lat="45.31801" lon="6.18326">
        <ele>2707.8000488281</ele>
        <time>2016-03-26T10:24:50.000Z</time>
      </trkpt>
      <trkpt lat="45.31801" lon="6.18326">
        <ele>2707.6000976562</ele>
        <time>2016-03-26T10:25:05.000Z</time>
      </trkpt>
      <trkpt lat="45.31802" lon="6.18326">
        <ele>2708</ele>
        <time>2016-03-26T10:25:18.000Z</time>
      </trkpt>
      <trkpt lat="45.31802" lon="6.18326">
        <ele>2708</ele>
        <time>2016-03-26T10:25:31.000Z</time>
      </trkpt>
      <trkpt lat="45.31802" lon="6.18326">
        <ele>2707.8000488281</ele>
        <time>2016-03-26T10:25:44.000Z</time>
      </trkpt>
      <trkpt lat="45.31802" lon="6.18327">
        <ele>2707.6000976562</ele>
        <time>2016-03-26T10:25:54.000Z</time>
      </trkpt>
      <trkpt lat="45.31802" lon="6.18327">
        <ele>2707.1999511719</ele>
        <time>2016-03-26T10:26:06.000Z</time>
      </trkpt>
      <trkpt lat="45.31802" lon="6.18327">
        <ele>2707.3999023438</ele>
        <time>2016-03-26T10:26:18.000Z</time>
      </trkpt>
      <trkpt lat="45.31802" lon="6.18329">
        <ele>2708.1999511719</ele>
        <time>2016-03-26T10:26:26.000Z</time>
      </trkpt>
      <trkpt lat="45.31802" lon="6.18329">
        <ele>2708.1999511719</ele>
        <time>2016-03-26T10:26:35.000Z</time>
      </trkpt>
      <trkpt lat="45.31803" lon="6.1833">
        <ele>2708.6000976562</ele>
        <time>2016-03-26T10:26:43.000Z</time>
      </trkpt>
      <trkpt lat="45.31803" lon="6.1833">
        <ele>2708.8000488281</ele>
        <time>2016-03-26T10:26:44.000Z</time>
      </trkpt>
      <trkpt lat="45.31803" lon="6.1833">
        <ele>2710.3999023438</ele>
        <time>2016-03-26T10:26:50.000Z</time>
      </trkpt>
      <trkpt lat="45.31803" lon="6.1833">
        <ele>2710.8000488281</ele>
        <time>2016-03-26T10:26:53.000Z</time>
      </trkpt>
      <trkpt lat="45.31803" lon="6.1833">
        <ele>2711.6000976562</ele>
        <time>2016-03-26T10:27:06.000Z</time>
      </trkpt>
      <trkpt lat="45.31803" lon="6.1833">
        <ele>2711.3999023438</ele>
        <time>2016-03-26T10:27:19.000Z</time>
      </trkpt>
      <trkpt lat="45.31803" lon="6.18332">
        <ele>2711.6000976562</ele>
        <time>2016-03-26T10:27:36.000Z</time>
      </trkpt>
      <trkpt lat="45.31803" lon="6.18332">
        <ele>2710.1999511719</ele>
        <time>2016-03-26T10:27:44.000Z</time>
      </trkpt>
      <trkpt lat="45.31803" lon="6.18332">
        <ele>2712.1999511719</ele>
        <time>2016-03-26T10:27:49.000Z</time>
      </trkpt>
      <trkpt lat="45.31803" lon="6.18332">
        <ele>2713</ele>
        <time>2016-03-26T10:27:51.000Z</time>
      </trkpt>
      <trkpt lat="45.31803" lon="6.18332">
        <ele>2713.1999511719</ele>
        <time>2016-03-26T10:27:52.000Z</time>
      </trkpt>
      <trkpt lat="45.31803" lon="6.18332">
        <ele>2712</ele>
        <time>2016-03-26T10:27:55.000Z</time>
      </trkpt>
      <trkpt lat="45.31803" lon="6.18332">
        <ele>2711.6000976562</ele>
        <time>2016-03-26T10:28:05.000Z</time>
      </trkpt>
      <trkpt lat="45.31804" lon="6.18332">
        <ele>2711.6000976562</ele>
        <time>2016-03-26T10:28:18.000Z</time>
      </trkpt>
      <trkpt lat="45.31804" lon="6.18332">
        <ele>2711.6000976562</ele>
        <time>2016-03-26T10:28:26.000Z</time>
      </trkpt>
      <trkpt lat="45.31804" lon="6.18332">
        <ele>2710.6000976562</ele>
        <time>2016-03-26T10:28:34.000Z</time>
      </trkpt>
      <trkpt lat="45.31804" lon="6.18332">
        <ele>2712</ele>
        <time>2016-03-26T10:28:40.000Z</time>
      </trkpt>
      <trkpt lat="45.31804" lon="6.18332">
        <ele>2711</ele>
        <time>2016-03-26T10:28:45.000Z</time>
      </trkpt>
      <trkpt lat="45.31804" lon="6.18332">
        <ele>2709.8000488281</ele>
        <time>2016-03-26T10:28:49.000Z</time>
      </trkpt>
      <trkpt lat="45.31803" lon="6.18332">
        <ele>2709</ele>
        <time>2016-03-26T10:29:02.000Z</time>
      </trkpt>
      <trkpt lat="45.31803" lon="6.18332">
        <ele>2709.1999511719</ele>
        <time>2016-03-26T10:29:23.000Z</time>
      </trkpt>
      <trkpt lat="45.31803" lon="6.18332">
        <ele>2708.6000976562</ele>
        <time>2016-03-26T10:29:31.000Z</time>
      </trkpt>
      <trkpt lat="45.31803" lon="6.18332">
        <ele>2708.6000976562</ele>
        <time>2016-03-26T10:29:32.000Z</time>
      </trkpt>
      <trkpt lat="45.31803" lon="6.18332">
        <ele>2708</ele>
        <time>2016-03-26T10:29:44.000Z</time>
      </trkpt>
      <trkpt lat="45.31803" lon="6.18332">
        <ele>2708</ele>
        <time>2016-03-26T10:29:54.000Z</time>
      </trkpt>
      <trkpt lat="45.31803" lon="6.18332">
        <ele>2708.1999511719</ele>
        <time>2016-03-26T10:30:08.000Z</time>
      </trkpt>
      <trkpt lat="45.31803" lon="6.18332">
        <ele>2708</ele>
        <time>2016-03-26T10:30:23.000Z</time>
      </trkpt>
      <trkpt lat="45.31803" lon="6.18332">
        <ele>2708.1999511719</ele>
        <time>2016-03-26T10:30:39.000Z</time>
      </trkpt>
      <trkpt lat="45.31803" lon="6.18332">
        <ele>2708.1999511719</ele>
        <time>2016-03-26T10:31:01.000Z</time>
      </trkpt>
      <trkpt lat="45.31803" lon="6.18332">
        <ele>2708.3999023438</ele>
        <time>2016-03-26T10:31:16.000Z</time>
      </trkpt>
      <trkpt lat="45.31803" lon="6.18332">
        <ele>2708.1999511719</ele>
        <time>2016-03-26T10:31:35.000Z</time>
      </trkpt>
      <trkpt lat="45.31803" lon="6.18332">
        <ele>2708.1999511719</ele>
        <time>2016-03-26T10:31:53.000Z</time>
      </trkpt>
      <trkpt lat="45.31803" lon="6.18332">
        <ele>2708.1999511719</ele>
        <time>2016-03-26T10:32:06.000Z</time>
      </trkpt>
      <trkpt lat="45.31803" lon="6.18332">
        <ele>2708.1999511719</ele>
        <time>2016-03-26T10:32:23.000Z</time>
      </trkpt>
      <trkpt lat="45.31803" lon="6.18332">
        <ele>2708</ele>
        <time>2016-03-26T10:32:40.000Z</time>
      </trkpt>
      <trkpt lat="45.31804" lon="6.18333">
        <ele>2708.6000976562</ele>
        <time>2016-03-26T10:32:56.000Z</time>
      </trkpt>
      <trkpt lat="45.31804" lon="6.18333">
        <ele>2708.1999511719</ele>
        <time>2016-03-26T10:33:12.000Z</time>
      </trkpt>
      <trkpt lat="45.31804" lon="6.18333">
        <ele>2708.1999511719</ele>
        <time>2016-03-26T10:33:31.000Z</time>
      </trkpt>
      <trkpt lat="45.31804" lon="6.18333">
        <ele>2708.1999511719</ele>
        <time>2016-03-26T10:33:46.000Z</time>
      </trkpt>
      <trkpt lat="45.31804" lon="6.18333">
        <ele>2707.8000488281</ele>
        <time>2016-03-26T10:34:07.000Z</time>
      </trkpt>
      <trkpt lat="45.31804" lon="6.18333">
        <ele>2708</ele>
        <time>2016-03-26T10:34:19.000Z</time>
      </trkpt>
      <trkpt lat="45.31804" lon="6.18333">
        <ele>2707.6000976562</ele>
        <time>2016-03-26T10:34:21.000Z</time>
      </trkpt>
      <trkpt lat="45.31804" lon="6.18333">
        <ele>2707.3999023438</ele>
        <time>2016-03-26T10:34:25.000Z</time>
      </trkpt>
      <trkpt lat="45.31804" lon="6.18333">
        <ele>2708.1999511719</ele>
        <time>2016-03-26T10:34:45.000Z</time>
      </trkpt>
      <trkpt lat="45.31804" lon="6.18333">
        <ele>2707.6000976562</ele>
        <time>2016-03-26T10:34:57.000Z</time>
      </trkpt>
      <trkpt lat="45.31804" lon="6.18333">
        <ele>2708.1999511719</ele>
        <time>2016-03-26T10:35:03.000Z</time>
      </trkpt>
      <trkpt lat="45.31803" lon="6.18332">
        <ele>2707.6000976562</ele>
        <time>2016-03-26T10:35:14.000Z</time>
      </trkpt>
      <trkpt lat="45.31803" lon="6.18332">
        <ele>2707.6000976562</ele>
        <time>2016-03-26T10:35:29.000Z</time>
      </trkpt>
      <trkpt lat="45.31803" lon="6.18333">
        <ele>2707.3999023438</ele>
        <time>2016-03-26T10:35:34.000Z</time>
      </trkpt>
      <trkpt lat="45.31803" lon="6.18333">
        <ele>2708</ele>
        <time>2016-03-26T10:35:50.000Z</time>
      </trkpt>
      <trkpt lat="45.31803" lon="6.18333">
        <ele>2708.1999511719</ele>
        <time>2016-03-26T10:36:11.000Z</time>
      </trkpt>
      <trkpt lat="45.31803" lon="6.18333">
        <ele>2708.1999511719</ele>
        <time>2016-03-26T10:36:26.000Z</time>
      </trkpt>
      <trkpt lat="45.31803" lon="6.18333">
        <ele>2708</ele>
        <time>2016-03-26T10:36:45.000Z</time>
      </trkpt>
      <trkpt lat="45.31803" lon="6.18332">
        <ele>2708</ele>
        <time>2016-03-26T10:36:56.000Z</time>
      </trkpt>
      <trkpt lat="45.31803" lon="6.18332">
        <ele>2708.1999511719</ele>
        <time>2016-03-26T10:37:04.000Z</time>
      </trkpt>
      <trkpt lat="45.31803" lon="6.18332">
        <ele>2707.6000976562</ele>
        <time>2016-03-26T10:37:20.000Z</time>
      </trkpt>
      <trkpt lat="45.31803" lon="6.18332">
        <ele>2707.6000976562</ele>
        <time>2016-03-26T10:37:35.000Z</time>
      </trkpt>
      <trkpt lat="45.31803" lon="6.18332">
        <ele>2708.1999511719</ele>
        <time>2016-03-26T10:37:49.000Z</time>
      </trkpt>
      <trkpt lat="45.31803" lon="6.18332">
        <ele>2707.6000976562</ele>
        <time>2016-03-26T10:38:04.000Z</time>
      </trkpt>
      <trkpt lat="45.31804" lon="6.18334">
        <ele>2707.6000976562</ele>
        <time>2016-03-26T10:38:19.000Z</time>
      </trkpt>
      <trkpt lat="45.31807" lon="6.18335">
        <ele>2707.3999023438</ele>
        <time>2016-03-26T10:38:26.000Z</time>
      </trkpt>
      <trkpt lat="45.31807" lon="6.18335">
        <ele>2708</ele>
        <time>2016-03-26T10:38:37.000Z</time>
      </trkpt>
      <trkpt lat="45.31807" lon="6.18335">
        <ele>2708.1999511719</ele>
        <time>2016-03-26T10:38:55.000Z</time>
      </trkpt>
      <trkpt lat="45.31807" lon="6.18335">
        <ele>2708.1999511719</ele>
        <time>2016-03-26T10:39:14.000Z</time>
      </trkpt>
      <trkpt lat="45.31807" lon="6.18335">
        <ele>2708</ele>
        <time>2016-03-26T10:39:35.000Z</time>
      </trkpt>
      <trkpt lat="45.31806" lon="6.18335">
        <ele>2708</ele>
        <time>2016-03-26T10:39:52.000Z</time>
      </trkpt>
      <trkpt lat="45.31806" lon="6.18335">
        <ele>2707.8000488281</ele>
        <time>2016-03-26T10:40:11.000Z</time>
      </trkpt>
      <trkpt lat="45.31806" lon="6.18335">
        <ele>2707.6000976562</ele>
        <time>2016-03-26T10:40:25.000Z</time>
      </trkpt>
      <trkpt lat="45.31806" lon="6.18335">
        <ele>2707.3999023438</ele>
        <time>2016-03-26T10:40:39.000Z</time>
      </trkpt>
      <trkpt lat="45.31806" lon="6.18335">
        <ele>2706.6000976562</ele>
        <time>2016-03-26T10:40:42.000Z</time>
      </trkpt>
      <trkpt lat="45.31806" lon="6.18335">
        <ele>2707.6000976562</ele>
        <time>2016-03-26T10:40:50.000Z</time>
      </trkpt>
      <trkpt lat="45.31806" lon="6.18335">
        <ele>2707.8000488281</ele>
        <time>2016-03-26T10:40:56.000Z</time>
      </trkpt>
      <trkpt lat="45.31806" lon="6.18335">
        <ele>2707.3999023438</ele>
        <time>2016-03-26T10:41:03.000Z</time>
      </trkpt>
      <trkpt lat="45.31806" lon="6.18335">
        <ele>2707.3999023438</ele>
        <time>2016-03-26T10:41:22.000Z</time>
      </trkpt>
      <trkpt lat="45.31806" lon="6.18335">
        <ele>2707.1999511719</ele>
        <time>2016-03-26T10:41:37.000Z</time>
      </trkpt>
      <trkpt lat="45.31806" lon="6.18335">
        <ele>2706.6000976562</ele>
        <time>2016-03-26T10:41:51.000Z</time>
      </trkpt>
      <trkpt lat="45.31806" lon="6.18335">
        <ele>2706</ele>
        <time>2016-03-26T10:41:53.000Z</time>
      </trkpt>
      <trkpt lat="45.31806" lon="6.18335">
        <ele>2708.6000976562</ele>
        <time>2016-03-26T10:41:56.000Z</time>
      </trkpt>
      <trkpt lat="45.31806" lon="6.18335">
        <ele>2707.6000976562</ele>
        <time>2016-03-26T10:42:04.000Z</time>
      </trkpt>
      <trkpt lat="45.31806" lon="6.18337">
        <ele>2707.6000976562</ele>
        <time>2016-03-26T10:42:07.000Z</time>
      </trkpt>
      <trkpt lat="45.31807" lon="6.1834">
        <ele>2707.6000976562</ele>
        <time>2016-03-26T10:42:08.000Z</time>
      </trkpt>
      <trkpt lat="45.31808" lon="6.18343">
        <ele>2706.1999511719</ele>
        <time>2016-03-26T10:42:12.000Z</time>
      </trkpt>
      <trkpt lat="45.31807" lon="6.18344">
        <ele>2705.6000976562</ele>
        <time>2016-03-26T10:42:13.000Z</time>
      </trkpt>
      <trkpt lat="45.31807" lon="6.18345">
        <ele>2705</ele>
        <time>2016-03-26T10:42:14.000Z</time>
      </trkpt>
      <trkpt lat="45.31807" lon="6.18343">
        <ele>2704</ele>
        <time>2016-03-26T10:42:16.000Z</time>
      </trkpt>
      <trkpt lat="45.31804" lon="6.1834">
        <ele>2702.8000488281</ele>
        <time>2016-03-26T10:42:18.000Z</time>
      </trkpt>
      <trkpt lat="45.31802" lon="6.18344">
        <ele>2702.1999511719</ele>
        <time>2016-03-26T10:42:21.000Z</time>
      </trkpt>
      <trkpt lat="45.31802" lon="6.18349">
        <ele>2702</ele>
        <time>2016-03-26T10:42:23.000Z</time>
      </trkpt>
      <trkpt lat="45.31801" lon="6.18351">
        <ele>2701.6000976562</ele>
        <time>2016-03-26T10:42:24.000Z</time>
      </trkpt>
      <trkpt lat="45.318" lon="6.18348">
        <ele>2699.6000976562</ele>
        <time>2016-03-26T10:42:26.000Z</time>
      </trkpt>
      <trkpt lat="45.318" lon="6.18347">
        <ele>2697.6000976562</ele>
        <time>2016-03-26T10:42:27.000Z</time>
      </trkpt>
      <trkpt lat="45.31799" lon="6.18345">
        <ele>2696.3999023438</ele>
        <time>2016-03-26T10:42:29.000Z</time>
      </trkpt>
      <trkpt lat="45.31798" lon="6.18345">
        <ele>2695.3999023438</ele>
        <time>2016-03-26T10:42:32.000Z</time>
      </trkpt>
      <trkpt lat="45.31796" lon="6.18345">
        <ele>2694.1999511719</ele>
        <time>2016-03-26T10:42:34.000Z</time>
      </trkpt>
      <trkpt lat="45.31795" lon="6.18345">
        <ele>2692.8000488281</ele>
        <time>2016-03-26T10:42:35.000Z</time>
      </trkpt>
      <trkpt lat="45.31795" lon="6.18345">
        <ele>2691.6000976562</ele>
        <time>2016-03-26T10:42:36.000Z</time>
      </trkpt>
      <trkpt lat="45.31793" lon="6.18345">
        <ele>2690.1999511719</ele>
        <time>2016-03-26T10:42:38.000Z</time>
      </trkpt>
      <trkpt lat="45.31792" lon="6.18348">
        <ele>2689.8000488281</ele>
        <time>2016-03-26T10:42:39.000Z</time>
      </trkpt>
      <trkpt lat="45.31791" lon="6.18351">
        <ele>2689.3999023438</ele>
        <time>2016-03-26T10:42:40.000Z</time>
      </trkpt>
      <trkpt lat="45.31791" lon="6.18353">
        <ele>2689</ele>
        <time>2016-03-26T10:42:42.000Z</time>
      </trkpt>
      <trkpt lat="45.31789" lon="6.18352">
        <ele>2688</ele>
        <time>2016-03-26T10:42:43.000Z</time>
      </trkpt>
      <trkpt lat="45.31789" lon="6.18353">
        <ele>2686.6000976562</ele>
        <time>2016-03-26T10:42:44.000Z</time>
      </trkpt>
      <trkpt lat="45.31788" lon="6.18355">
        <ele>2685.3999023438</ele>
        <time>2016-03-26T10:42:45.000Z</time>
      </trkpt>
      <trkpt lat="45.31786" lon="6.1836">
        <ele>2684.1999511719</ele>
        <time>2016-03-26T10:42:46.000Z</time>
      </trkpt>
      <trkpt lat="45.31785" lon="6.18367">
        <ele>2682</ele>
        <time>2016-03-26T10:42:48.000Z</time>
      </trkpt>
      <trkpt lat="45.31785" lon="6.18369">
        <ele>2680</ele>
        <time>2016-03-26T10:42:49.000Z</time>
      </trkpt>
      <trkpt lat="45.31785" lon="6.18371">
        <ele>2677.8000488281</ele>
        <time>2016-03-26T10:42:50.000Z</time>
      </trkpt>
      <trkpt lat="45.31784" lon="6.18373">
        <ele>2675</ele>
        <time>2016-03-26T10:42:51.000Z</time>
      </trkpt>
      <trkpt lat="45.31783" lon="6.18378">
        <ele>2672.8000488281</ele>
        <time>2016-03-26T10:42:53.000Z</time>
      </trkpt>
      <trkpt lat="45.31782" lon="6.18376">
        <ele>2670.8000488281</ele>
        <time>2016-03-26T10:42:54.000Z</time>
      </trkpt>
      <trkpt lat="45.31782" lon="6.18376">
        <ele>2668.6000976562</ele>
        <time>2016-03-26T10:42:55.000Z</time>
      </trkpt>
      <trkpt lat="45.31782" lon="6.18376">
        <ele>2667</ele>
        <time>2016-03-26T10:42:56.000Z</time>
      </trkpt>
      <trkpt lat="45.31782" lon="6.18376">
        <ele>2666</ele>
        <time>2016-03-26T10:42:57.000Z</time>
      </trkpt>
      <trkpt lat="45.31782" lon="6.18376">
        <ele>2664.8000488281</ele>
        <time>2016-03-26T10:43:00.000Z</time>
      </trkpt>
      <trkpt lat="45.3178" lon="6.18377">
        <ele>2664.6000976562</ele>
        <time>2016-03-26T10:43:02.000Z</time>
      </trkpt>
      <trkpt lat="45.3178" lon="6.18379">
        <ele>2664.6000976562</ele>
        <time>2016-03-26T10:43:03.000Z</time>
      </trkpt>
      <trkpt lat="45.31774" lon="6.1838">
        <ele>2663</ele>
        <time>2016-03-26T10:43:06.000Z</time>
      </trkpt>
      <trkpt lat="45.31771" lon="6.18381">
        <ele>2661.3999023438</ele>
        <time>2016-03-26T10:43:07.000Z</time>
      </trkpt>
      <trkpt lat="45.31769" lon="6.18383">
        <ele>2660</ele>
        <time>2016-03-26T10:43:08.000Z</time>
      </trkpt>
      <trkpt lat="45.31766" lon="6.1838">
        <ele>2658.1999511719</ele>
        <time>2016-03-26T10:43:10.000Z</time>
      </trkpt>
      <trkpt lat="45.31764" lon="6.18377">
        <ele>2657</ele>
        <time>2016-03-26T10:43:11.000Z</time>
      </trkpt>
      <trkpt lat="45.31763" lon="6.18375">
        <ele>2655.1999511719</ele>
        <time>2016-03-26T10:43:12.000Z</time>
      </trkpt>
      <trkpt lat="45.31761" lon="6.18375">
        <ele>2653.3999023438</ele>
        <time>2016-03-26T10:43:13.000Z</time>
      </trkpt>
      <trkpt lat="45.31759" lon="6.18375">
        <ele>2652.3999023438</ele>
        <time>2016-03-26T10:43:14.000Z</time>
      </trkpt>
      <trkpt lat="45.31758" lon="6.18377">
        <ele>2650.6000976562</ele>
        <time>2016-03-26T10:43:15.000Z</time>
      </trkpt>
      <trkpt lat="45.31756" lon="6.18377">
        <ele>2649.1999511719</ele>
        <time>2016-03-26T10:43:16.000Z</time>
      </trkpt>
      <trkpt lat="45.31755" lon="6.18377">
        <ele>2647.3999023438</ele>
        <time>2016-03-26T10:43:17.000Z</time>
      </trkpt>
      <trkpt lat="45.31754" lon="6.18376">
        <ele>2645.8000488281</ele>
        <time>2016-03-26T10:43:18.000Z</time>
      </trkpt>
      <trkpt lat="45.31754" lon="6.18375">
        <ele>2644.6000976562</ele>
        <time>2016-03-26T10:43:19.000Z</time>
      </trkpt>
      <trkpt lat="45.31752" lon="6.18373">
        <ele>2643</ele>
        <time>2016-03-26T10:43:21.000Z</time>
      </trkpt>
      <trkpt lat="45.3175" lon="6.18365">
        <ele>2642.3999023438</ele>
        <time>2016-03-26T10:43:23.000Z</time>
      </trkpt>
      <trkpt lat="45.31748" lon="6.18357">
        <ele>2641.3999023438</ele>
        <time>2016-03-26T10:43:25.000Z</time>
      </trkpt>
      <trkpt lat="45.31746" lon="6.1835">
        <ele>2639.3999023438</ele>
        <time>2016-03-26T10:43:27.000Z</time>
      </trkpt>
      <trkpt lat="45.31743" lon="6.18342">
        <ele>2638</ele>
        <time>2016-03-26T10:43:29.000Z</time>
      </trkpt>
      <trkpt lat="45.31741" lon="6.18337">
        <ele>2636.8000488281</ele>
        <time>2016-03-26T10:43:31.000Z</time>
      </trkpt>
      <trkpt lat="45.31741" lon="6.18337">
        <ele>2636.6000976562</ele>
        <time>2016-03-26T10:43:32.000Z</time>
      </trkpt>
      <trkpt lat="45.31735" lon="6.18334">
        <ele>2636.6000976562</ele>
        <time>2016-03-26T10:43:40.000Z</time>
      </trkpt>
      <trkpt lat="45.3173" lon="6.18337">
        <ele>2635.6000976562</ele>
        <time>2016-03-26T10:43:42.000Z</time>
      </trkpt>
      <trkpt lat="45.31728" lon="6.18336">
        <ele>2634.1999511719</ele>
        <time>2016-03-26T10:43:43.000Z</time>
      </trkpt>
      <trkpt lat="45.31725" lon="6.18339">
        <ele>2632.6000976562</ele>
        <time>2016-03-26T10:43:44.000Z</time>
      </trkpt>
      <trkpt lat="45.31722" lon="6.18339">
        <ele>2631.1999511719</ele>
        <time>2016-03-26T10:43:45.000Z</time>
      </trkpt>
      <trkpt lat="45.3172" lon="6.18343">
        <ele>2630</ele>
        <time>2016-03-26T10:43:46.000Z</time>
      </trkpt>
      <trkpt lat="45.31717" lon="6.18346">
        <ele>2628.8000488281</ele>
        <time>2016-03-26T10:43:47.000Z</time>
      </trkpt>
      <trkpt lat="45.31715" lon="6.18349">
        <ele>2627</ele>
        <time>2016-03-26T10:43:48.000Z</time>
      </trkpt>
      <trkpt lat="45.31713" lon="6.18353">
        <ele>2625.1999511719</ele>
        <time>2016-03-26T10:43:49.000Z</time>
      </trkpt>
      <trkpt lat="45.31711" lon="6.18357">
        <ele>2623.6000976562</ele>
        <time>2016-03-26T10:43:50.000Z</time>
      </trkpt>
      <trkpt lat="45.31709" lon="6.18362">
        <ele>2622.3999023438</ele>
        <time>2016-03-26T10:43:51.000Z</time>
      </trkpt>
      <trkpt lat="45.31707" lon="6.1836">
        <ele>2620.8000488281</ele>
        <time>2016-03-26T10:43:52.000Z</time>
      </trkpt>
      <trkpt lat="45.31705" lon="6.18361">
        <ele>2618.8000488281</ele>
        <time>2016-03-26T10:43:53.000Z</time>
      </trkpt>
      <trkpt lat="45.31703" lon="6.18365">
        <ele>2616.8000488281</ele>
        <time>2016-03-26T10:43:54.000Z</time>
      </trkpt>
      <trkpt lat="45.31701" lon="6.18368">
        <ele>2615.8000488281</ele>
        <time>2016-03-26T10:43:55.000Z</time>
      </trkpt>
      <trkpt lat="45.317" lon="6.18372">
        <ele>2614.8000488281</ele>
        <time>2016-03-26T10:43:56.000Z</time>
      </trkpt>
      <trkpt lat="45.31698" lon="6.18374">
        <ele>2613.3999023438</ele>
        <time>2016-03-26T10:43:57.000Z</time>
      </trkpt>
      <trkpt lat="45.31696" lon="6.18378">
        <ele>2611.6000976562</ele>
        <time>2016-03-26T10:43:58.000Z</time>
      </trkpt>
      <trkpt lat="45.31695" lon="6.18382">
        <ele>2609.8000488281</ele>
        <time>2016-03-26T10:43:59.000Z</time>
      </trkpt>
      <trkpt lat="45.31693" lon="6.18386">
        <ele>2608.8000488281</ele>
        <time>2016-03-26T10:44:00.000Z</time>
      </trkpt>
      <trkpt lat="45.31689" lon="6.18395">
        <ele>2607.3999023438</ele>
        <time>2016-03-26T10:44:02.000Z</time>
      </trkpt>
      <trkpt lat="45.31687" lon="6.184">
        <ele>2605.8000488281</ele>
        <time>2016-03-26T10:44:03.000Z</time>
      </trkpt>
      <trkpt lat="45.31684" lon="6.18406">
        <ele>2604.3999023438</ele>
        <time>2016-03-26T10:44:05.000Z</time>
      </trkpt>
      <trkpt lat="45.31682" lon="6.18409">
        <ele>2603.6000976562</ele>
        <time>2016-03-26T10:44:06.000Z</time>
      </trkpt>
      <trkpt lat="45.3168" lon="6.18411">
        <ele>2603</ele>
        <time>2016-03-26T10:44:07.000Z</time>
      </trkpt>
      <trkpt lat="45.31676" lon="6.18419">
        <ele>2601.8000488281</ele>
        <time>2016-03-26T10:44:10.000Z</time>
      </trkpt>
      <trkpt lat="45.31673" lon="6.18425">
        <ele>2600.8000488281</ele>
        <time>2016-03-26T10:44:12.000Z</time>
      </trkpt>
      <trkpt lat="45.31667" lon="6.18431">
        <ele>2599.3999023438</ele>
        <time>2016-03-26T10:44:14.000Z</time>
      </trkpt>
      <trkpt lat="45.31663" lon="6.18434">
        <ele>2599</ele>
        <time>2016-03-26T10:44:15.000Z</time>
      </trkpt>
      <trkpt lat="45.31659" lon="6.18437">
        <ele>2598.1999511719</ele>
        <time>2016-03-26T10:44:16.000Z</time>
      </trkpt>
      <trkpt lat="45.31655" lon="6.1844">
        <ele>2597.1999511719</ele>
        <time>2016-03-26T10:44:17.000Z</time>
      </trkpt>
      <trkpt lat="45.31651" lon="6.18442">
        <ele>2595.8000488281</ele>
        <time>2016-03-26T10:44:18.000Z</time>
      </trkpt>
      <trkpt lat="45.31647" lon="6.18445">
        <ele>2594.3999023438</ele>
        <time>2016-03-26T10:44:19.000Z</time>
      </trkpt>
      <trkpt lat="45.31647" lon="6.1844">
        <ele>2593.6000976562</ele>
        <time>2016-03-26T10:44:20.000Z</time>
      </trkpt>
      <trkpt lat="45.31647" lon="6.18436">
        <ele>2593.1999511719</ele>
        <time>2016-03-26T10:44:21.000Z</time>
      </trkpt>
      <trkpt lat="45.31647" lon="6.18433">
        <ele>2592.6000976562</ele>
        <time>2016-03-26T10:44:25.000Z</time>
      </trkpt>
      <trkpt lat="45.31647" lon="6.18433">
        <ele>2592.6000976562</ele>
        <time>2016-03-26T10:44:40.000Z</time>
      </trkpt>
      <trkpt lat="45.31647" lon="6.18433">
        <ele>2592.3999023438</ele>
        <time>2016-03-26T10:44:55.000Z</time>
      </trkpt>
      <trkpt lat="45.31647" lon="6.18433">
        <ele>2592.1999511719</ele>
        <time>2016-03-26T10:45:11.000Z</time>
      </trkpt>
      <trkpt lat="45.31647" lon="6.18433">
        <ele>2592.1999511719</ele>
        <time>2016-03-26T10:45:15.000Z</time>
      </trkpt>
      <trkpt lat="45.31647" lon="6.18433">
        <ele>2592.1999511719</ele>
        <time>2016-03-26T10:45:24.000Z</time>
      </trkpt>
      <trkpt lat="45.31647" lon="6.18433">
        <ele>2592.1999511719</ele>
        <time>2016-03-26T10:45:38.000Z</time>
      </trkpt>
      <trkpt lat="45.31647" lon="6.18434">
        <ele>2592.1999511719</ele>
        <time>2016-03-26T10:45:54.000Z</time>
      </trkpt>
      <trkpt lat="45.31647" lon="6.18434">
        <ele>2592.1999511719</ele>
        <time>2016-03-26T10:46:06.000Z</time>
      </trkpt>
      <trkpt lat="45.31648" lon="6.18433">
        <ele>2592.1999511719</ele>
        <time>2016-03-26T10:46:24.000Z</time>
      </trkpt>
      <trkpt lat="45.31648" lon="6.18433">
        <ele>2592.1999511719</ele>
        <time>2016-03-26T10:46:42.000Z</time>
      </trkpt>
      <trkpt lat="45.31648" lon="6.18433">
        <ele>2592</ele>
        <time>2016-03-26T10:47:03.000Z</time>
      </trkpt>
      <trkpt lat="45.31648" lon="6.18433">
        <ele>2592</ele>
        <time>2016-03-26T10:47:24.000Z</time>
      </trkpt>
      <trkpt lat="45.31648" lon="6.18433">
        <ele>2592</ele>
        <time>2016-03-26T10:47:31.000Z</time>
      </trkpt>
      <trkpt lat="45.31648" lon="6.18433">
        <ele>2592</ele>
        <time>2016-03-26T10:47:39.000Z</time>
      </trkpt>
      <trkpt lat="45.31648" lon="6.18433">
        <ele>2592.1999511719</ele>
        <time>2016-03-26T10:47:55.000Z</time>
      </trkpt>
      <trkpt lat="45.31648" lon="6.18433">
        <ele>2592</ele>
        <time>2016-03-26T10:48:13.000Z</time>
      </trkpt>
      <trkpt lat="45.31648" lon="6.18432">
        <ele>2592</ele>
        <time>2016-03-26T10:48:30.000Z</time>
      </trkpt>
      <trkpt lat="45.31648" lon="6.18432">
        <ele>2592</ele>
        <time>2016-03-26T10:48:48.000Z</time>
      </trkpt>
      <trkpt lat="45.31649" lon="6.1843">
        <ele>2592</ele>
        <time>2016-03-26T10:49:03.000Z</time>
      </trkpt>
      <trkpt lat="45.31649" lon="6.1843">
        <ele>2592</ele>
        <time>2016-03-26T10:49:15.000Z</time>
      </trkpt>
      <trkpt lat="45.31649" lon="6.1843">
        <ele>2592</ele>
        <time>2016-03-26T10:49:28.000Z</time>
      </trkpt>
      <trkpt lat="45.31649" lon="6.1843">
        <ele>2591.8000488281</ele>
        <time>2016-03-26T10:49:46.000Z</time>
      </trkpt>
      <trkpt lat="45.31649" lon="6.1843">
        <ele>2591.8000488281</ele>
        <time>2016-03-26T10:50:02.000Z</time>
      </trkpt>
      <trkpt lat="45.31649" lon="6.1843">
        <ele>2591.8000488281</ele>
        <time>2016-03-26T10:50:09.000Z</time>
      </trkpt>
      <trkpt lat="45.31649" lon="6.1843">
        <ele>2591.3999023438</ele>
        <time>2016-03-26T10:50:27.000Z</time>
      </trkpt>
      <trkpt lat="45.31649" lon="6.1843">
        <ele>2592.1999511719</ele>
        <time>2016-03-26T10:50:42.000Z</time>
      </trkpt>
      <trkpt lat="45.31649" lon="6.1843">
        <ele>2592.1999511719</ele>
        <time>2016-03-26T10:50:58.000Z</time>
      </trkpt>
      <trkpt lat="45.3165" lon="6.18429">
        <ele>2590.8000488281</ele>
        <time>2016-03-26T10:51:12.000Z</time>
      </trkpt>
      <trkpt lat="45.3165" lon="6.18429">
        <ele>2592.1999511719</ele>
        <time>2016-03-26T10:51:16.000Z</time>
      </trkpt>
      <trkpt lat="45.3165" lon="6.18429">
        <ele>2592</ele>
        <time>2016-03-26T10:51:25.000Z</time>
      </trkpt>
      <trkpt lat="45.31651" lon="6.18433">
        <ele>2592</ele>
        <time>2016-03-26T10:51:37.000Z</time>
      </trkpt>
      <trkpt lat="45.31651" lon="6.18433">
        <ele>2592</ele>
        <time>2016-03-26T10:51:46.000Z</time>
      </trkpt>
      <trkpt lat="45.31651" lon="6.18433">
        <ele>2592.1999511719</ele>
        <time>2016-03-26T10:51:57.000Z</time>
      </trkpt>
      <trkpt lat="45.31651" lon="6.18433">
        <ele>2592.3999023438</ele>
        <time>2016-03-26T10:52:12.000Z</time>
      </trkpt>
      <trkpt lat="45.31651" lon="6.18433">
        <ele>2592.8000488281</ele>
        <time>2016-03-26T10:52:24.000Z</time>
      </trkpt>
      <trkpt lat="45.31651" lon="6.18433">
        <ele>2592.3999023438</ele>
        <time>2016-03-26T10:52:33.000Z</time>
      </trkpt>
      <trkpt lat="45.3165" lon="6.18433">
        <ele>2592.3999023438</ele>
        <time>2016-03-26T10:52:37.000Z</time>
      </trkpt>
      <trkpt lat="45.3165" lon="6.18435">
        <ele>2592.8000488281</ele>
        <time>2016-03-26T10:52:49.000Z</time>
      </trkpt>
      <trkpt lat="45.3165" lon="6.18435">
        <ele>2593.3999023438</ele>
        <time>2016-03-26T10:52:54.000Z</time>
      </trkpt>
      <trkpt lat="45.3165" lon="6.18435">
        <ele>2593.6000976562</ele>
        <time>2016-03-26T10:52:55.000Z</time>
      </trkpt>
      <trkpt lat="45.31649" lon="6.18435">
        <ele>2594.3999023438</ele>
        <time>2016-03-26T10:52:58.000Z</time>
      </trkpt>
      <trkpt lat="45.31649" lon="6.18436">
        <ele>2594.6000976562</ele>
        <time>2016-03-26T10:53:01.000Z</time>
      </trkpt>
      <trkpt lat="45.31648" lon="6.1844">
        <ele>2595.1999511719</ele>
        <time>2016-03-26T10:53:07.000Z</time>
      </trkpt>
      <trkpt lat="45.31647" lon="6.18441">
        <ele>2595.3999023438</ele>
        <time>2016-03-26T10:53:08.000Z</time>
      </trkpt>
      <trkpt lat="45.31646" lon="6.18443">
        <ele>2596.1999511719</ele>
        <time>2016-03-26T10:53:12.000Z</time>
      </trkpt>
      <trkpt lat="45.31646" lon="6.18443">
        <ele>2596.3999023438</ele>
        <time>2016-03-26T10:53:13.000Z</time>
      </trkpt>
      <trkpt lat="45.31644" lon="6.18446">
        <ele>2597</ele>
        <time>2016-03-26T10:53:17.000Z</time>
      </trkpt>
      <trkpt lat="45.31644" lon="6.18447">
        <ele>2597.6000976562</ele>
        <time>2016-03-26T10:53:20.000Z</time>
      </trkpt>
      <trkpt lat="45.31644" lon="6.18447">
        <ele>2597.8000488281</ele>
        <time>2016-03-26T10:53:27.000Z</time>
      </trkpt>
      <trkpt lat="45.31643" lon="6.18449">
        <ele>2598</ele>
        <time>2016-03-26T10:53:36.000Z</time>
      </trkpt>
      <trkpt lat="45.31641" lon="6.18452">
        <ele>2598.8000488281</ele>
        <time>2016-03-26T10:53:43.000Z</time>
      </trkpt>
      <trkpt lat="45.3164" lon="6.18455">
        <ele>2600</ele>
        <time>2016-03-26T10:53:47.000Z</time>
      </trkpt>
      <trkpt lat="45.31639" lon="6.18455">
        <ele>2600.1999511719</ele>
        <time>2016-03-26T10:53:49.000Z</time>
      </trkpt>
      <trkpt lat="45.31637" lon="6.18458">
        <ele>2601.1999511719</ele>
        <time>2016-03-26T10:53:54.000Z</time>
      </trkpt>
      <trkpt lat="45.31636" lon="6.18459">
        <ele>2601.6000976562</ele>
        <time>2016-03-26T10:53:56.000Z</time>
      </trkpt>
      <trkpt lat="45.31635" lon="6.18462">
        <ele>2602.1999511719</ele>
        <time>2016-03-26T10:54:01.000Z</time>
      </trkpt>
      <trkpt lat="45.31632" lon="6.18466">
        <ele>2603</ele>
        <time>2016-03-26T10:54:08.000Z</time>
      </trkpt>
      <trkpt lat="45.31632" lon="6.18467">
        <ele>2603.1999511719</ele>
        <time>2016-03-26T10:54:10.000Z</time>
      </trkpt>
      <trkpt lat="45.3163" lon="6.18469">
        <ele>2604.1999511719</ele>
        <time>2016-03-26T10:54:13.000Z</time>
      </trkpt>
      <trkpt lat="45.3163" lon="6.18469">
        <ele>2604.3999023438</ele>
        <time>2016-03-26T10:54:14.000Z</time>
      </trkpt>
      <trkpt lat="45.3163" lon="6.1847">
        <ele>2604.8000488281</ele>
        <time>2016-03-26T10:54:22.000Z</time>
      </trkpt>
      <trkpt lat="45.3163" lon="6.1847">
        <ele>2605.1999511719</ele>
        <time>2016-03-26T10:54:28.000Z</time>
      </trkpt>
      <trkpt lat="45.31631" lon="6.18471">
        <ele>2605</ele>
        <time>2016-03-26T10:54:31.000Z</time>
      </trkpt>
      <trkpt lat="45.31639" lon="6.18474">
        <ele>2605.6000976562</ele>
        <time>2016-03-26T10:54:39.000Z</time>
      </trkpt>
      <trkpt lat="45.31643" lon="6.18475">
        <ele>2606.3999023438</ele>
        <time>2016-03-26T10:54:42.000Z</time>
      </trkpt>
      <trkpt lat="45.31646" lon="6.18475">
        <ele>2607</ele>
        <time>2016-03-26T10:54:46.000Z</time>
      </trkpt>
      <trkpt lat="45.31649" lon="6.18475">
        <ele>2607.3999023438</ele>
        <time>2016-03-26T10:54:51.000Z</time>
      </trkpt>
      <trkpt lat="45.31651" lon="6.18475">
        <ele>2608</ele>
        <time>2016-03-26T10:54:55.000Z</time>
      </trkpt>
      <trkpt lat="45.31651" lon="6.18475">
        <ele>2608.3999023438</ele>
        <time>2016-03-26T10:54:58.000Z</time>
      </trkpt>
      <trkpt lat="45.31653" lon="6.18476">
        <ele>2609.6000976562</ele>
        <time>2016-03-26T10:55:04.000Z</time>
      </trkpt>
      <trkpt lat="45.31653" lon="6.18476">
        <ele>2609.6000976562</ele>
        <time>2016-03-26T10:55:05.000Z</time>
      </trkpt>
      <trkpt lat="45.31656" lon="6.18474">
        <ele>2610.6000976562</ele>
        <time>2016-03-26T10:55:09.000Z</time>
      </trkpt>
      <trkpt lat="45.31657" lon="6.18474">
        <ele>2611.1999511719</ele>
        <time>2016-03-26T10:55:13.000Z</time>
      </trkpt>
      <trkpt lat="45.3166" lon="6.18474">
        <ele>2611.6000976562</ele>
        <time>2016-03-26T10:55:17.000Z</time>
      </trkpt>
      <trkpt lat="45.31664" lon="6.18473">
        <ele>2612.6000976562</ele>
        <time>2016-03-26T10:55:22.000Z</time>
      </trkpt>
      <trkpt lat="45.31664" lon="6.18473">
        <ele>2612.8000488281</ele>
        <time>2016-03-26T10:55:23.000Z</time>
      </trkpt>
      <trkpt lat="45.31669" lon="6.18471">
        <ele>2613.8000488281</ele>
        <time>2016-03-26T10:55:29.000Z</time>
      </trkpt>
      <trkpt lat="45.3167" lon="6.18471">
        <ele>2614</ele>
        <time>2016-03-26T10:55:31.000Z</time>
      </trkpt>
      <trkpt lat="45.31673" lon="6.1847">
        <ele>2614.6000976562</ele>
        <time>2016-03-26T10:55:38.000Z</time>
      </trkpt>
      <trkpt lat="45.31673" lon="6.1847">
        <ele>2615</ele>
        <time>2016-03-26T10:55:41.000Z</time>
      </trkpt>
      <trkpt lat="45.3167" lon="6.18474">
        <ele>2616</ele>
        <time>2016-03-26T10:55:46.000Z</time>
      </trkpt>
      <trkpt lat="45.31664" lon="6.18478">
        <ele>2616.1999511719</ele>
        <time>2016-03-26T10:55:51.000Z</time>
      </trkpt>
      <trkpt lat="45.31662" lon="6.18482">
        <ele>2616.8000488281</ele>
        <time>2016-03-26T10:55:57.000Z</time>
      </trkpt>
      <trkpt lat="45.3166" lon="6.18485">
        <ele>2617</ele>
        <time>2016-03-26T10:56:00.000Z</time>
      </trkpt>
      <trkpt lat="45.31657" lon="6.18487">
        <ele>2617.3999023438</ele>
        <time>2016-03-26T10:56:03.000Z</time>
      </trkpt>
      <trkpt lat="45.31654" lon="6.18489">
        <ele>2618</ele>
        <time>2016-03-26T10:56:06.000Z</time>
      </trkpt>
      <trkpt lat="45.31653" lon="6.18492">
        <ele>2618.1999511719</ele>
        <time>2016-03-26T10:56:09.000Z</time>
      </trkpt>
      <trkpt lat="45.3165" lon="6.18493">
        <ele>2619</ele>
        <time>2016-03-26T10:56:13.000Z</time>
      </trkpt>
      <trkpt lat="45.31648" lon="6.18494">
        <ele>2619.6000976562</ele>
        <time>2016-03-26T10:56:17.000Z</time>
      </trkpt>
      <trkpt lat="45.31647" lon="6.18495">
        <ele>2620.1999511719</ele>
        <time>2016-03-26T10:56:21.000Z</time>
      </trkpt>
      <trkpt lat="45.31645" lon="6.18497">
        <ele>2620.3999023438</ele>
        <time>2016-03-26T10:56:24.000Z</time>
      </trkpt>
      <trkpt lat="45.31643" lon="6.185">
        <ele>2621.1999511719</ele>
        <time>2016-03-26T10:56:30.000Z</time>
      </trkpt>
      <trkpt lat="45.31642" lon="6.18501">
        <ele>2621.3999023438</ele>
        <time>2016-03-26T10:56:31.000Z</time>
      </trkpt>
      <trkpt lat="45.3164" lon="6.18504">
        <ele>2622.3999023438</ele>
        <time>2016-03-26T10:56:37.000Z</time>
      </trkpt>
      <trkpt lat="45.3164" lon="6.18504">
        <ele>2622.6000976562</ele>
        <time>2016-03-26T10:56:39.000Z</time>
      </trkpt>
      <trkpt lat="45.31639" lon="6.18505">
        <ele>2623.1999511719</ele>
        <time>2016-03-26T10:56:45.000Z</time>
      </trkpt>
      <trkpt lat="45.31639" lon="6.18505">
        <ele>2623.3999023438</ele>
        <time>2016-03-26T10:56:46.000Z</time>
      </trkpt>
      <trkpt lat="45.31639" lon="6.18505">
        <ele>2623.6000976562</ele>
        <time>2016-03-26T10:56:57.000Z</time>
      </trkpt>
      <trkpt lat="45.3164" lon="6.18507">
        <ele>2624.3999023438</ele>
        <time>2016-03-26T10:57:05.000Z</time>
      </trkpt>
      <trkpt lat="45.31641" lon="6.18507">
        <ele>2624.3999023438</ele>
        <time>2016-03-26T10:57:06.000Z</time>
      </trkpt>
      <trkpt lat="45.31646" lon="6.18509">
        <ele>2625</ele>
        <time>2016-03-26T10:57:13.000Z</time>
      </trkpt>
      <trkpt lat="45.31648" lon="6.18509">
        <ele>2625.6000976562</ele>
        <time>2016-03-26T10:57:16.000Z</time>
      </trkpt>
      <trkpt lat="45.31651" lon="6.18509">
        <ele>2626</ele>
        <time>2016-03-26T10:57:19.000Z</time>
      </trkpt>
      <trkpt lat="45.31655" lon="6.18509">
        <ele>2626.6000976562</ele>
        <time>2016-03-26T10:57:25.000Z</time>
      </trkpt>
      <trkpt lat="45.31656" lon="6.18509">
        <ele>2626.6000976562</ele>
        <time>2016-03-26T10:57:26.000Z</time>
      </trkpt>
      <trkpt lat="45.31661" lon="6.18508">
        <ele>2627.6000976562</ele>
        <time>2016-03-26T10:57:34.000Z</time>
      </trkpt>
      <trkpt lat="45.31661" lon="6.18508">
        <ele>2627.8000488281</ele>
        <time>2016-03-26T10:57:35.000Z</time>
      </trkpt>
      <trkpt lat="45.31668" lon="6.18507">
        <ele>2628.1999511719</ele>
        <time>2016-03-26T10:57:43.000Z</time>
      </trkpt>
      <trkpt lat="45.31672" lon="6.18506">
        <ele>2628.8000488281</ele>
        <time>2016-03-26T10:57:49.000Z</time>
      </trkpt>
      <trkpt lat="45.31672" lon="6.18506">
        <ele>2628.8000488281</ele>
        <time>2016-03-26T10:57:50.000Z</time>
      </trkpt>
      <trkpt lat="45.31678" lon="6.18505">
        <ele>2629.6000976562</ele>
        <time>2016-03-26T10:57:58.000Z</time>
      </trkpt>
      <trkpt lat="45.3168" lon="6.18504">
        <ele>2630</ele>
        <time>2016-03-26T10:58:01.000Z</time>
      </trkpt>
      <trkpt lat="45.31681" lon="6.18504">
        <ele>2630.1999511719</ele>
        <time>2016-03-26T10:58:06.000Z</time>
      </trkpt>
      <trkpt lat="45.31681" lon="6.18504">
        <ele>2631.1999511719</ele>
        <time>2016-03-26T10:58:10.000Z</time>
      </trkpt>
      <trkpt lat="45.31679" lon="6.18506">
        <ele>2631</ele>
        <time>2016-03-26T10:58:15.000Z</time>
      </trkpt>
      <trkpt lat="45.31676" lon="6.18507">
        <ele>2631.3999023438</ele>
        <time>2016-03-26T10:58:21.000Z</time>
      </trkpt>
      <trkpt lat="45.31669" lon="6.18511">
        <ele>2631.8000488281</ele>
        <time>2016-03-26T10:58:29.000Z</time>
      </trkpt>
      <trkpt lat="45.31668" lon="6.18512">
        <ele>2632.1999511719</ele>
        <time>2016-03-26T10:58:31.000Z</time>
      </trkpt>
      <trkpt lat="45.31664" lon="6.18515">
        <ele>2632.8000488281</ele>
        <time>2016-03-26T10:58:36.000Z</time>
      </trkpt>
      <trkpt lat="45.3166" lon="6.18517">
        <ele>2633.3999023438</ele>
        <time>2016-03-26T10:58:41.000Z</time>
      </trkpt>
      <trkpt lat="45.31659" lon="6.18517">
        <ele>2633.8000488281</ele>
        <time>2016-03-26T10:58:44.000Z</time>
      </trkpt>
      <trkpt lat="45.31658" lon="6.18519">
        <ele>2634.3999023438</ele>
        <time>2016-03-26T10:58:51.000Z</time>
      </trkpt>
      <trkpt lat="45.31658" lon="6.18519">
        <ele>2634.6000976562</ele>
        <time>2016-03-26T10:58:53.000Z</time>
      </trkpt>
      <trkpt lat="45.31661" lon="6.18521">
        <ele>2634.1999511719</ele>
        <time>2016-03-26T10:58:59.000Z</time>
      </trkpt>
      <trkpt lat="45.31666" lon="6.18521">
        <ele>2635.6000976562</ele>
        <time>2016-03-26T10:59:04.000Z</time>
      </trkpt>
      <trkpt lat="45.31668" lon="6.18521">
        <ele>2635.8000488281</ele>
        <time>2016-03-26T10:59:06.000Z</time>
      </trkpt>
      <trkpt lat="45.31674" lon="6.18519">
        <ele>2636.1999511719</ele>
        <time>2016-03-26T10:59:14.000Z</time>
      </trkpt>
      <trkpt lat="45.31679" lon="6.18518">
        <ele>2636.8000488281</ele>
        <time>2016-03-26T10:59:18.000Z</time>
      </trkpt>
      <trkpt lat="45.31681" lon="6.18517">
        <ele>2637.1999511719</ele>
        <time>2016-03-26T10:59:21.000Z</time>
      </trkpt>
      <trkpt lat="45.31683" lon="6.18517">
        <ele>2637.8000488281</ele>
        <time>2016-03-26T10:59:27.000Z</time>
      </trkpt>
      <trkpt lat="45.31684" lon="6.18516">
        <ele>2638</ele>
        <time>2016-03-26T10:59:28.000Z</time>
      </trkpt>
      <trkpt lat="45.31686" lon="6.18516">
        <ele>2638.6000976562</ele>
        <time>2016-03-26T10:59:35.000Z</time>
      </trkpt>
      <trkpt lat="45.31686" lon="6.18516">
        <ele>2639</ele>
        <time>2016-03-26T10:59:36.000Z</time>
      </trkpt>
      <trkpt lat="45.31685" lon="6.18516">
        <ele>2640</ele>
        <time>2016-03-26T10:59:41.000Z</time>
      </trkpt>
      <trkpt lat="45.31684" lon="6.18517">
        <ele>2640</ele>
        <time>2016-03-26T10:59:42.000Z</time>
      </trkpt>
      <trkpt lat="45.31681" lon="6.18521">
        <ele>2640.1999511719</ele>
        <time>2016-03-26T10:59:48.000Z</time>
      </trkpt>
      <trkpt lat="45.31679" lon="6.18524">
        <ele>2640.8000488281</ele>
        <time>2016-03-26T10:59:53.000Z</time>
      </trkpt>
      <trkpt lat="45.31678" lon="6.18525">
        <ele>2641.1999511719</ele>
        <time>2016-03-26T10:59:56.000Z</time>
      </trkpt>
      <trkpt lat="45.31677" lon="6.18526">
        <ele>2641.8000488281</ele>
        <time>2016-03-26T10:59:59.000Z</time>
      </trkpt>
      <trkpt lat="45.31676" lon="6.18528">
        <ele>2642</ele>
        <time>2016-03-26T11:00:05.000Z</time>
      </trkpt>
      <trkpt lat="45.31676" lon="6.18529">
        <ele>2642.1999511719</ele>
        <time>2016-03-26T11:00:07.000Z</time>
      </trkpt>
      <trkpt lat="45.31675" lon="6.18531">
        <ele>2643</ele>
        <time>2016-03-26T11:00:12.000Z</time>
      </trkpt>
      <trkpt lat="45.31675" lon="6.18531">
        <ele>2643.1999511719</ele>
        <time>2016-03-26T11:00:15.000Z</time>
      </trkpt>
      <trkpt lat="45.31675" lon="6.18531">
        <ele>2644</ele>
        <time>2016-03-26T11:00:22.000Z</time>
      </trkpt>
      <trkpt lat="45.31675" lon="6.18531">
        <ele>2643.8000488281</ele>
        <time>2016-03-26T11:00:29.000Z</time>
      </trkpt>
      <trkpt lat="45.31676" lon="6.18531">
        <ele>2644.1999511719</ele>
        <time>2016-03-26T11:00:33.000Z</time>
      </trkpt>
      <trkpt lat="45.3168" lon="6.1853">
        <ele>2645</ele>
        <time>2016-03-26T11:00:38.000Z</time>
      </trkpt>
      <trkpt lat="45.31682" lon="6.1853">
        <ele>2645.1999511719</ele>
        <time>2016-03-26T11:00:40.000Z</time>
      </trkpt>
      <trkpt lat="45.31683" lon="6.1853">
        <ele>2646</ele>
        <time>2016-03-26T11:00:47.000Z</time>
      </trkpt>
      <trkpt lat="45.31683" lon="6.1853">
        <ele>2646.1999511719</ele>
        <time>2016-03-26T11:00:51.000Z</time>
      </trkpt>
      <trkpt lat="45.31685" lon="6.18529">
        <ele>2647</ele>
        <time>2016-03-26T11:00:56.000Z</time>
      </trkpt>
      <trkpt lat="45.31689" lon="6.18526">
        <ele>2647.1999511719</ele>
        <time>2016-03-26T11:01:05.000Z</time>
      </trkpt>
      <trkpt lat="45.31692" lon="6.18524">
        <ele>2647.3999023438</ele>
        <time>2016-03-26T11:01:09.000Z</time>
      </trkpt>
      <trkpt lat="45.31693" lon="6.18525">
        <ele>2647.3999023438</ele>
        <time>2016-03-26T11:01:11.000Z</time>
      </trkpt>
      <trkpt lat="45.31693" lon="6.18525">
        <ele>2648.6000976562</ele>
        <time>2016-03-26T11:01:17.000Z</time>
      </trkpt>
      <trkpt lat="45.31693" lon="6.18525">
        <ele>2648.8000488281</ele>
        <time>2016-03-26T11:01:20.000Z</time>
      </trkpt>
      <trkpt lat="45.31691" lon="6.1853">
        <ele>2649.6000976562</ele>
        <time>2016-03-26T11:01:27.000Z</time>
      </trkpt>
      <trkpt lat="45.3169" lon="6.18531">
        <ele>2649.8000488281</ele>
        <time>2016-03-26T11:01:28.000Z</time>
      </trkpt>
      <trkpt lat="45.3169" lon="6.18532">
        <ele>2650.8000488281</ele>
        <time>2016-03-26T11:01:32.000Z</time>
      </trkpt>
      <trkpt lat="45.3169" lon="6.18532">
        <ele>2651</ele>
        <time>2016-03-26T11:01:36.000Z</time>
      </trkpt>
      <trkpt lat="45.31692" lon="6.18531">
        <ele>2651.3999023438</ele>
        <time>2016-03-26T11:01:43.000Z</time>
      </trkpt>
      <trkpt lat="45.31694" lon="6.1853">
        <ele>2652</ele>
        <time>2016-03-26T11:01:46.000Z</time>
      </trkpt>
      <trkpt lat="45.31695" lon="6.1853">
        <ele>2652.3999023438</ele>
        <time>2016-03-26T11:01:52.000Z</time>
      </trkpt>
      <trkpt lat="45.31695" lon="6.1853">
        <ele>2653.3999023438</ele>
        <time>2016-03-26T11:01:59.000Z</time>
      </trkpt>
      <trkpt lat="45.31695" lon="6.1853">
        <ele>2654</ele>
        <time>2016-03-26T11:02:01.000Z</time>
      </trkpt>
      <trkpt lat="45.31695" lon="6.18534">
        <ele>2653.8000488281</ele>
        <time>2016-03-26T11:02:08.000Z</time>
      </trkpt>
      <trkpt lat="45.31695" lon="6.18537">
        <ele>2654.3999023438</ele>
        <time>2016-03-26T11:02:14.000Z</time>
      </trkpt>
      <trkpt lat="45.31695" lon="6.18537">
        <ele>2655</ele>
        <time>2016-03-26T11:02:17.000Z</time>
      </trkpt>
      <trkpt lat="45.31695" lon="6.18537">
        <ele>2655.3999023438</ele>
        <time>2016-03-26T11:02:20.000Z</time>
      </trkpt>
      <trkpt lat="45.31695" lon="6.18537">
        <ele>2655</ele>
        <time>2016-03-26T11:02:25.000Z</time>
      </trkpt>
      <trkpt lat="45.31695" lon="6.18536">
        <ele>2656.1999511719</ele>
        <time>2016-03-26T11:02:31.000Z</time>
      </trkpt>
      <trkpt lat="45.31695" lon="6.18536">
        <ele>2656.6000976562</ele>
        <time>2016-03-26T11:02:33.000Z</time>
      </trkpt>
      <trkpt lat="45.31695" lon="6.18536">
        <ele>2657.6000976562</ele>
        <time>2016-03-26T11:02:36.000Z</time>
      </trkpt>
      <trkpt lat="45.31696" lon="6.18537">
        <ele>2658</ele>
        <time>2016-03-26T11:02:38.000Z</time>
      </trkpt>
      <trkpt lat="45.31696" lon="6.18537">
        <ele>2658</ele>
        <time>2016-03-26T11:02:44.000Z</time>
      </trkpt>
      <trkpt lat="45.31696" lon="6.18536">
        <ele>2658.6000976562</ele>
        <time>2016-03-26T11:02:53.000Z</time>
      </trkpt>
      <trkpt lat="45.31696" lon="6.18536">
        <ele>2659.6000976562</ele>
        <time>2016-03-26T11:02:58.000Z</time>
      </trkpt>
      <trkpt lat="45.31697" lon="6.18539">
        <ele>2660.1999511719</ele>
        <time>2016-03-26T11:03:02.000Z</time>
      </trkpt>
      <trkpt lat="45.31697" lon="6.18539">
        <ele>2660.8000488281</ele>
        <time>2016-03-26T11:03:08.000Z</time>
      </trkpt>
      <trkpt lat="45.31699" lon="6.1854">
        <ele>2660.8000488281</ele>
        <time>2016-03-26T11:03:11.000Z</time>
      </trkpt>
      <trkpt lat="45.317" lon="6.1854">
        <ele>2660.6000976562</ele>
        <time>2016-03-26T11:03:16.000Z</time>
      </trkpt>
      <trkpt lat="45.317" lon="6.1854">
        <ele>2661.8000488281</ele>
        <time>2016-03-26T11:03:18.000Z</time>
      </trkpt>
      <trkpt lat="45.317" lon="6.18541">
        <ele>2662.8000488281</ele>
        <time>2016-03-26T11:03:22.000Z</time>
      </trkpt>
      <trkpt lat="45.317" lon="6.18541">
        <ele>2663</ele>
        <time>2016-03-26T11:03:23.000Z</time>
      </trkpt>
      <trkpt lat="45.31701" lon="6.1854">
        <ele>2662.8000488281</ele>
        <time>2016-03-26T11:03:33.000Z</time>
      </trkpt>
      <trkpt lat="45.31702" lon="6.18539">
        <ele>2664</ele>
        <time>2016-03-26T11:03:38.000Z</time>
      </trkpt>
      <trkpt lat="45.31703" lon="6.18539">
        <ele>2664.1999511719</ele>
        <time>2016-03-26T11:03:40.000Z</time>
      </trkpt>
      <trkpt lat="45.31703" lon="6.18539">
        <ele>2665</ele>
        <time>2016-03-26T11:03:53.000Z</time>
      </trkpt>
      <trkpt lat="45.31703" lon="6.18539">
        <ele>2665.3999023438</ele>
        <time>2016-03-26T11:04:02.000Z</time>
      </trkpt>
      <trkpt lat="45.31703" lon="6.18539">
        <ele>2664.8000488281</ele>
        <time>2016-03-26T11:04:16.000Z</time>
      </trkpt>
      <trkpt lat="45.31703" lon="6.18539">
        <ele>2664.1999511719</ele>
        <time>2016-03-26T11:04:29.000Z</time>
      </trkpt>
      <trkpt lat="45.31704" lon="6.18539">
        <ele>2664.8000488281</ele>
        <time>2016-03-26T11:04:39.000Z</time>
      </trkpt>
      <trkpt lat="45.31704" lon="6.18539">
        <ele>2665.1999511719</ele>
        <time>2016-03-26T11:04:51.000Z</time>
      </trkpt>
      <trkpt lat="45.31704" lon="6.18539">
        <ele>2665.6000976562</ele>
        <time>2016-03-26T11:05:05.000Z</time>
      </trkpt>
      <trkpt lat="45.31705" lon="6.18539">
        <ele>2665.8000488281</ele>
        <time>2016-03-26T11:05:19.000Z</time>
      </trkpt>
      <trkpt lat="45.31705" lon="6.18539">
        <ele>2665.8000488281</ele>
        <time>2016-03-26T11:05:36.000Z</time>
      </trkpt>
      <trkpt lat="45.31705" lon="6.18539">
        <ele>2665.8000488281</ele>
        <time>2016-03-26T11:05:49.000Z</time>
      </trkpt>
      <trkpt lat="45.31705" lon="6.18539">
        <ele>2666</ele>
        <time>2016-03-26T11:05:58.000Z</time>
      </trkpt>
      <trkpt lat="45.31705" lon="6.18539">
        <ele>2666</ele>
        <time>2016-03-26T11:06:02.000Z</time>
      </trkpt>
      <trkpt lat="45.31705" lon="6.18539">
        <ele>2666.8000488281</ele>
        <time>2016-03-26T11:06:16.000Z</time>
      </trkpt>
      <trkpt lat="45.31705" lon="6.18539">
        <ele>2666</ele>
        <time>2016-03-26T11:06:35.000Z</time>
      </trkpt>
      <trkpt lat="45.31705" lon="6.18539">
        <ele>2666.1999511719</ele>
        <time>2016-03-26T11:06:47.000Z</time>
      </trkpt>
      <trkpt lat="45.31705" lon="6.18539">
        <ele>2666</ele>
        <time>2016-03-26T11:07:03.000Z</time>
      </trkpt>
      <trkpt lat="45.31705" lon="6.18539">
        <ele>2666</ele>
        <time>2016-03-26T11:07:18.000Z</time>
      </trkpt>
      <trkpt lat="45.31705" lon="6.18538">
        <ele>2666.6000976562</ele>
        <time>2016-03-26T11:07:35.000Z</time>
      </trkpt>
      <trkpt lat="45.31705" lon="6.18538">
        <ele>2667</ele>
        <time>2016-03-26T11:07:47.000Z</time>
      </trkpt>
      <trkpt lat="45.31705" lon="6.18538">
        <ele>2666</ele>
        <time>2016-03-26T11:08:01.000Z</time>
      </trkpt>
      <trkpt lat="45.31705" lon="6.18538">
        <ele>2665.6000976562</ele>
        <time>2016-03-26T11:08:17.000Z</time>
      </trkpt>
      <trkpt lat="45.31705" lon="6.18539">
        <ele>2665.1999511719</ele>
        <time>2016-03-26T11:08:24.000Z</time>
      </trkpt>
      <trkpt lat="45.31705" lon="6.18539">
        <ele>2665.3999023438</ele>
        <time>2016-03-26T11:08:32.000Z</time>
      </trkpt>
      <trkpt lat="45.31705" lon="6.18539">
        <ele>2665.1999511719</ele>
        <time>2016-03-26T11:08:49.000Z</time>
      </trkpt>
      <trkpt lat="45.31705" lon="6.18539">
        <ele>2665</ele>
        <time>2016-03-26T11:09:03.000Z</time>
      </trkpt>
      <trkpt lat="45.31705" lon="6.18541">
        <ele>2664.6000976562</ele>
        <time>2016-03-26T11:09:09.000Z</time>
      </trkpt>
      <trkpt lat="45.31705" lon="6.18541">
        <ele>2665.6000976562</ele>
        <time>2016-03-26T11:09:18.000Z</time>
      </trkpt>
      <trkpt lat="45.31705" lon="6.18541">
        <ele>2665.1999511719</ele>
        <time>2016-03-26T11:09:34.000Z</time>
      </trkpt>
      <trkpt lat="45.31705" lon="6.18542">
        <ele>2665.1999511719</ele>
        <time>2016-03-26T11:09:49.000Z</time>
      </trkpt>
      <trkpt lat="45.31705" lon="6.18542">
        <ele>2665.1999511719</ele>
        <time>2016-03-26T11:10:02.000Z</time>
      </trkpt>
      <trkpt lat="45.31705" lon="6.18542">
        <ele>2665</ele>
        <time>2016-03-26T11:10:25.000Z</time>
      </trkpt>
      <trkpt lat="45.31705" lon="6.18542">
        <ele>2665</ele>
        <time>2016-03-26T11:10:47.000Z</time>
      </trkpt>
      <trkpt lat="45.31706" lon="6.18542">
        <ele>2665.1999511719</ele>
        <time>2016-03-26T11:11:00.000Z</time>
      </trkpt>
      <trkpt lat="45.31705" lon="6.18543">
        <ele>2665.8000488281</ele>
        <time>2016-03-26T11:11:11.000Z</time>
      </trkpt>
      <trkpt lat="45.31705" lon="6.18543">
        <ele>2666</ele>
        <time>2016-03-26T11:11:24.000Z</time>
      </trkpt>
      <trkpt lat="45.31705" lon="6.18543">
        <ele>2665.6000976562</ele>
        <time>2016-03-26T11:11:38.000Z</time>
      </trkpt>
      <trkpt lat="45.31705" lon="6.18543">
        <ele>2666</ele>
        <time>2016-03-26T11:11:46.000Z</time>
      </trkpt>
      <trkpt lat="45.31705" lon="6.18543">
        <ele>2665.6000976562</ele>
        <time>2016-03-26T11:11:53.000Z</time>
      </trkpt>
      <trkpt lat="45.31705" lon="6.18543">
        <ele>2665</ele>
        <time>2016-03-26T11:12:02.000Z</time>
      </trkpt>
      <trkpt lat="45.31705" lon="6.18543">
        <ele>2665.3999023438</ele>
        <time>2016-03-26T11:12:06.000Z</time>
      </trkpt>
      <trkpt lat="45.31705" lon="6.18543">
        <ele>2666.1999511719</ele>
        <time>2016-03-26T11:12:08.000Z</time>
      </trkpt>
      <trkpt lat="45.31705" lon="6.18543">
        <ele>2665.3999023438</ele>
        <time>2016-03-26T11:12:21.000Z</time>
      </trkpt>
      <trkpt lat="45.31705" lon="6.18543">
        <ele>2665.1999511719</ele>
        <time>2016-03-26T11:12:36.000Z</time>
      </trkpt>
      <trkpt lat="45.31705" lon="6.18543">
        <ele>2665</ele>
        <time>2016-03-26T11:12:38.000Z</time>
      </trkpt>
      <trkpt lat="45.31705" lon="6.18543">
        <ele>2665.1999511719</ele>
        <time>2016-03-26T11:12:55.000Z</time>
      </trkpt>
      <trkpt lat="45.31705" lon="6.18544">
        <ele>2665.1999511719</ele>
        <time>2016-03-26T11:13:12.000Z</time>
      </trkpt>
      <trkpt lat="45.31705" lon="6.18544">
        <ele>2665.3999023438</ele>
        <time>2016-03-26T11:13:19.000Z</time>
      </trkpt>
      <trkpt lat="45.31705" lon="6.18544">
        <ele>2666.1999511719</ele>
        <time>2016-03-26T11:13:22.000Z</time>
      </trkpt>
      <trkpt lat="45.31705" lon="6.18544">
        <ele>2666.1999511719</ele>
        <time>2016-03-26T11:13:34.000Z</time>
      </trkpt>
      <trkpt lat="45.31705" lon="6.18544">
        <ele>2666.1999511719</ele>
        <time>2016-03-26T11:13:44.000Z</time>
      </trkpt>
      <trkpt lat="45.31708" lon="6.18544">
        <ele>2665.8000488281</ele>
        <time>2016-03-26T11:13:53.000Z</time>
      </trkpt>
      <trkpt lat="45.31708" lon="6.18545">
        <ele>2665.1999511719</ele>
        <time>2016-03-26T11:13:57.000Z</time>
      </trkpt>
      <trkpt lat="45.3171" lon="6.18547">
        <ele>2664.6000976562</ele>
        <time>2016-03-26T11:13:59.000Z</time>
      </trkpt>
      <trkpt lat="45.31713" lon="6.18549">
        <ele>2664</ele>
        <time>2016-03-26T11:14:01.000Z</time>
      </trkpt>
      <trkpt lat="45.31716" lon="6.18552">
        <ele>2662.1999511719</ele>
        <time>2016-03-26T11:14:04.000Z</time>
      </trkpt>
      <trkpt lat="45.31715" lon="6.18553">
        <ele>2661.1999511719</ele>
        <time>2016-03-26T11:14:05.000Z</time>
      </trkpt>
      <trkpt lat="45.31715" lon="6.18553">
        <ele>2660</ele>
        <time>2016-03-26T11:14:06.000Z</time>
      </trkpt>
      <trkpt lat="45.31714" lon="6.18554">
        <ele>2658.1999511719</ele>
        <time>2016-03-26T11:14:07.000Z</time>
      </trkpt>
      <trkpt lat="45.31715" lon="6.18556">
        <ele>2657.1999511719</ele>
        <time>2016-03-26T11:14:10.000Z</time>
      </trkpt>
      <trkpt lat="45.31717" lon="6.18557">
        <ele>2657</ele>
        <time>2016-03-26T11:14:11.000Z</time>
      </trkpt>
      <trkpt lat="45.3172" lon="6.18557">
        <ele>2656.1999511719</ele>
        <time>2016-03-26T11:14:14.000Z</time>
      </trkpt>
      <trkpt lat="45.31721" lon="6.18561">
        <ele>2654.1999511719</ele>
        <time>2016-03-26T11:14:16.000Z</time>
      </trkpt>
      <trkpt lat="45.31721" lon="6.18562">
        <ele>2653</ele>
        <time>2016-03-26T11:14:17.000Z</time>
      </trkpt>
      <trkpt lat="45.31721" lon="6.18563">
        <ele>2651.8000488281</ele>
        <time>2016-03-26T11:14:18.000Z</time>
      </trkpt>
      <trkpt lat="45.31721" lon="6.18564">
        <ele>2650.8000488281</ele>
        <time>2016-03-26T11:14:19.000Z</time>
      </trkpt>
      <trkpt lat="45.31723" lon="6.18565">
        <ele>2649.8000488281</ele>
        <time>2016-03-26T11:14:21.000Z</time>
      </trkpt>
      <trkpt lat="45.31725" lon="6.18565">
        <ele>2649.6000976562</ele>
        <time>2016-03-26T11:14:22.000Z</time>
      </trkpt>
      <trkpt lat="45.31728" lon="6.18566">
        <ele>2648.3999023438</ele>
        <time>2016-03-26T11:14:25.000Z</time>
      </trkpt>
      <trkpt lat="45.31729" lon="6.18568">
        <ele>2647.1999511719</ele>
        <time>2016-03-26T11:14:26.000Z</time>
      </trkpt>
      <trkpt lat="45.31728" lon="6.18571">
        <ele>2646</ele>
        <time>2016-03-26T11:14:27.000Z</time>
      </trkpt>
      <trkpt lat="45.31727" lon="6.18573">
        <ele>2644.8000488281</ele>
        <time>2016-03-26T11:14:28.000Z</time>
      </trkpt>
      <trkpt lat="45.31728" lon="6.18576">
        <ele>2643.6000976562</ele>
        <time>2016-03-26T11:14:29.000Z</time>
      </trkpt>
      <trkpt lat="45.31729" lon="6.18578">
        <ele>2642.6000976562</ele>
        <time>2016-03-26T11:14:30.000Z</time>
      </trkpt>
      <trkpt lat="45.31731" lon="6.1858">
        <ele>2641.6000976562</ele>
        <time>2016-03-26T11:14:31.000Z</time>
      </trkpt>
      <trkpt lat="45.31735" lon="6.18581">
        <ele>2640.6000976562</ele>
        <time>2016-03-26T11:14:33.000Z</time>
      </trkpt>
      <trkpt lat="45.31737" lon="6.18582">
        <ele>2639.3999023438</ele>
        <time>2016-03-26T11:14:34.000Z</time>
      </trkpt>
      <trkpt lat="45.31738" lon="6.18583">
        <ele>2638.1999511719</ele>
        <time>2016-03-26T11:14:35.000Z</time>
      </trkpt>
      <trkpt lat="45.31738" lon="6.18585">
        <ele>2636.8000488281</ele>
        <time>2016-03-26T11:14:36.000Z</time>
      </trkpt>
      <trkpt lat="45.31737" lon="6.18588">
        <ele>2635.6000976562</ele>
        <time>2016-03-26T11:14:37.000Z</time>
      </trkpt>
      <trkpt lat="45.31736" lon="6.1859">
        <ele>2634.1999511719</ele>
        <time>2016-03-26T11:14:38.000Z</time>
      </trkpt>
      <trkpt lat="45.31735" lon="6.18591">
        <ele>2633</ele>
        <time>2016-03-26T11:14:39.000Z</time>
      </trkpt>
      <trkpt lat="45.31734" lon="6.18592">
        <ele>2631.8000488281</ele>
        <time>2016-03-26T11:14:40.000Z</time>
      </trkpt>
      <trkpt lat="45.31732" lon="6.18593">
        <ele>2630.6000976562</ele>
        <time>2016-03-26T11:14:42.000Z</time>
      </trkpt>
      <trkpt lat="45.31731" lon="6.18593">
        <ele>2630.3999023438</ele>
        <time>2016-03-26T11:14:52.000Z</time>
      </trkpt>
      <trkpt lat="45.31729" lon="6.18591">
        <ele>2630.3999023438</ele>
        <time>2016-03-26T11:15:05.000Z</time>
      </trkpt>
      <trkpt lat="45.31729" lon="6.18591">
        <ele>2630.1999511719</ele>
        <time>2016-03-26T11:15:22.000Z</time>
      </trkpt>
      <trkpt lat="45.31729" lon="6.18591">
        <ele>2630.6000976562</ele>
        <time>2016-03-26T11:15:39.000Z</time>
      </trkpt>
      <trkpt lat="45.31729" lon="6.18591">
        <ele>2630.6000976562</ele>
        <time>2016-03-26T11:15:57.000Z</time>
      </trkpt>
      <trkpt lat="45.31727" lon="6.18594">
        <ele>2630.6000976562</ele>
        <time>2016-03-26T11:16:00.000Z</time>
      </trkpt>
      <trkpt lat="45.31729" lon="6.18595">
        <ele>2630</ele>
        <time>2016-03-26T11:16:02.000Z</time>
      </trkpt>
      <trkpt lat="45.31729" lon="6.18602">
        <ele>2628.8000488281</ele>
        <time>2016-03-26T11:16:04.000Z</time>
      </trkpt>
      <trkpt lat="45.31729" lon="6.18606">
        <ele>2627.1999511719</ele>
        <time>2016-03-26T11:16:05.000Z</time>
      </trkpt>
      <trkpt lat="45.31729" lon="6.18607">
        <ele>2625.3999023438</ele>
        <time>2016-03-26T11:16:06.000Z</time>
      </trkpt>
      <trkpt lat="45.31729" lon="6.18608">
        <ele>2622.6000976562</ele>
        <time>2016-03-26T11:16:07.000Z</time>
      </trkpt>
      <trkpt lat="45.3173" lon="6.1861">
        <ele>2621.6000976562</ele>
        <time>2016-03-26T11:16:09.000Z</time>
      </trkpt>
      <trkpt lat="45.3173" lon="6.18613">
        <ele>2621.3999023438</ele>
        <time>2016-03-26T11:16:10.000Z</time>
      </trkpt>
      <trkpt lat="45.31729" lon="6.18619">
        <ele>2619.6000976562</ele>
        <time>2016-03-26T11:16:13.000Z</time>
      </trkpt>
      <trkpt lat="45.31729" lon="6.18622">
        <ele>2618.8000488281</ele>
        <time>2016-03-26T11:16:14.000Z</time>
      </trkpt>
      <trkpt lat="45.31728" lon="6.18624">
        <ele>2618.1999511719</ele>
        <time>2016-03-26T11:16:15.000Z</time>
      </trkpt>
      <trkpt lat="45.31727" lon="6.18626">
        <ele>2616.6000976562</ele>
        <time>2016-03-26T11:16:17.000Z</time>
      </trkpt>
      <trkpt lat="45.31727" lon="6.18626">
        <ele>2615.6000976562</ele>
        <time>2016-03-26T11:16:19.000Z</time>
      </trkpt>
      <trkpt lat="45.31727" lon="6.18626">
        <ele>2615.3999023438</ele>
        <time>2016-03-26T11:16:20.000Z</time>
      </trkpt>
      <trkpt lat="45.31729" lon="6.18628">
        <ele>2615.3999023438</ele>
        <time>2016-03-26T11:16:22.000Z</time>
      </trkpt>
      <trkpt lat="45.31732" lon="6.18626">
        <ele>2615.6000976562</ele>
        <time>2016-03-26T11:16:24.000Z</time>
      </trkpt>
      <trkpt lat="45.31734" lon="6.18635">
        <ele>2613.3999023438</ele>
        <time>2016-03-26T11:16:27.000Z</time>
      </trkpt>
      <trkpt lat="45.31736" lon="6.18637">
        <ele>2611.3999023438</ele>
        <time>2016-03-26T11:16:28.000Z</time>
      </trkpt>
      <trkpt lat="45.31738" lon="6.18636">
        <ele>2609.3999023438</ele>
        <time>2016-03-26T11:16:29.000Z</time>
      </trkpt>
      <trkpt lat="45.3174" lon="6.18635">
        <ele>2608.1999511719</ele>
        <time>2016-03-26T11:16:30.000Z</time>
      </trkpt>
      <trkpt lat="45.31742" lon="6.18635">
        <ele>2605.8000488281</ele>
        <time>2016-03-26T11:16:31.000Z</time>
      </trkpt>
      <trkpt lat="45.31743" lon="6.18637">
        <ele>2604.6000976562</ele>
        <time>2016-03-26T11:16:32.000Z</time>
      </trkpt>
      <trkpt lat="45.31743" lon="6.18639">
        <ele>2603.6000976562</ele>
        <time>2016-03-26T11:16:33.000Z</time>
      </trkpt>
      <trkpt lat="45.31743" lon="6.18642">
        <ele>2602.1999511719</ele>
        <time>2016-03-26T11:16:34.000Z</time>
      </trkpt>
      <trkpt lat="45.31743" lon="6.18642">
        <ele>2600.8000488281</ele>
        <time>2016-03-26T11:16:35.000Z</time>
      </trkpt>
      <trkpt lat="45.31744" lon="6.18644">
        <ele>2599</ele>
        <time>2016-03-26T11:16:37.000Z</time>
      </trkpt>
      <trkpt lat="45.31743" lon="6.18646">
        <ele>2597.8000488281</ele>
        <time>2016-03-26T11:16:38.000Z</time>
      </trkpt>
      <trkpt lat="45.31742" lon="6.1865">
        <ele>2596.1999511719</ele>
        <time>2016-03-26T11:16:39.000Z</time>
      </trkpt>
      <trkpt lat="45.31743" lon="6.18652">
        <ele>2594.8000488281</ele>
        <time>2016-03-26T11:16:40.000Z</time>
      </trkpt>
      <trkpt lat="45.31743" lon="6.18653">
        <ele>2593.6000976562</ele>
        <time>2016-03-26T11:16:41.000Z</time>
      </trkpt>
      <trkpt lat="45.31746" lon="6.18655">
        <ele>2592.8000488281</ele>
        <time>2016-03-26T11:16:42.000Z</time>
      </trkpt>
      <trkpt lat="45.31747" lon="6.18658">
        <ele>2591.8000488281</ele>
        <time>2016-03-26T11:16:43.000Z</time>
      </trkpt>
      <trkpt lat="45.31748" lon="6.18661">
        <ele>2590.3999023438</ele>
        <time>2016-03-26T11:16:44.000Z</time>
      </trkpt>
      <trkpt lat="45.3175" lon="6.18662">
        <ele>2588.8000488281</ele>
        <time>2016-03-26T11:16:45.000Z</time>
      </trkpt>
      <trkpt lat="45.31753" lon="6.18664">
        <ele>2587.1999511719</ele>
        <time>2016-03-26T11:16:46.000Z</time>
      </trkpt>
      <trkpt lat="45.31755" lon="6.18666">
        <ele>2585.8000488281</ele>
        <time>2016-03-26T11:16:47.000Z</time>
      </trkpt>
      <trkpt lat="45.31758" lon="6.18669">
        <ele>2584.3999023438</ele>
        <time>2016-03-26T11:16:48.000Z</time>
      </trkpt>
      <trkpt lat="45.31761" lon="6.1867">
        <ele>2582.6000976562</ele>
        <time>2016-03-26T11:16:49.000Z</time>
      </trkpt>
      <trkpt lat="45.31765" lon="6.18672">
        <ele>2580.8000488281</ele>
        <time>2016-03-26T11:16:50.000Z</time>
      </trkpt>
      <trkpt lat="45.31768" lon="6.18674">
        <ele>2579.1999511719</ele>
        <time>2016-03-26T11:16:51.000Z</time>
      </trkpt>
      <trkpt lat="45.31771" lon="6.18676">
        <ele>2577.8000488281</ele>
        <time>2016-03-26T11:16:52.000Z</time>
      </trkpt>
      <trkpt lat="45.31773" lon="6.18679">
        <ele>2576.1999511719</ele>
        <time>2016-03-26T11:16:53.000Z</time>
      </trkpt>
      <trkpt lat="45.31773" lon="6.18684">
        <ele>2574.3999023438</ele>
        <time>2016-03-26T11:16:54.000Z</time>
      </trkpt>
      <trkpt lat="45.31774" lon="6.18686">
        <ele>2571</ele>
        <time>2016-03-26T11:16:55.000Z</time>
      </trkpt>
      <trkpt lat="45.31776" lon="6.18687">
        <ele>2569.8000488281</ele>
        <time>2016-03-26T11:16:56.000Z</time>
      </trkpt>
      <trkpt lat="45.31779" lon="6.18688">
        <ele>2568.8000488281</ele>
        <time>2016-03-26T11:16:57.000Z</time>
      </trkpt>
      <trkpt lat="45.31781" lon="6.18691">
        <ele>2567.8000488281</ele>
        <time>2016-03-26T11:16:58.000Z</time>
      </trkpt>
      <trkpt lat="45.31782" lon="6.18693">
        <ele>2566.1999511719</ele>
        <time>2016-03-26T11:16:59.000Z</time>
      </trkpt>
      <trkpt lat="45.31783" lon="6.18696">
        <ele>2564.6000976562</ele>
        <time>2016-03-26T11:17:00.000Z</time>
      </trkpt>
      <trkpt lat="45.31785" lon="6.18698">
        <ele>2563.3999023438</ele>
        <time>2016-03-26T11:17:01.000Z</time>
      </trkpt>
      <trkpt lat="45.31788" lon="6.18701">
        <ele>2562.1999511719</ele>
        <time>2016-03-26T11:17:02.000Z</time>
      </trkpt>
      <trkpt lat="45.31789" lon="6.18704">
        <ele>2560.6000976562</ele>
        <time>2016-03-26T11:17:03.000Z</time>
      </trkpt>
      <trkpt lat="45.31791" lon="6.1871">
        <ele>2558.6000976562</ele>
        <time>2016-03-26T11:17:04.000Z</time>
      </trkpt>
      <trkpt lat="45.31793" lon="6.18713">
        <ele>2556.6000976562</ele>
        <time>2016-03-26T11:17:05.000Z</time>
      </trkpt>
      <trkpt lat="45.31795" lon="6.18719">
        <ele>2555</ele>
        <time>2016-03-26T11:17:06.000Z</time>
      </trkpt>
      <trkpt lat="45.31798" lon="6.18725">
        <ele>2553.8000488281</ele>
        <time>2016-03-26T11:17:07.000Z</time>
      </trkpt>
      <trkpt lat="45.31801" lon="6.18731">
        <ele>2552.1999511719</ele>
        <time>2016-03-26T11:17:08.000Z</time>
      </trkpt>
      <trkpt lat="45.31803" lon="6.18736">
        <ele>2550.3999023438</ele>
        <time>2016-03-26T11:17:09.000Z</time>
      </trkpt>
      <trkpt lat="45.31804" lon="6.18743">
        <ele>2548.1999511719</ele>
        <time>2016-03-26T11:17:10.000Z</time>
      </trkpt>
      <trkpt lat="45.31805" lon="6.1875">
        <ele>2546.1999511719</ele>
        <time>2016-03-26T11:17:11.000Z</time>
      </trkpt>
      <trkpt lat="45.31807" lon="6.18758">
        <ele>2544.6000976562</ele>
        <time>2016-03-26T11:17:12.000Z</time>
      </trkpt>
      <trkpt lat="45.31808" lon="6.18764">
        <ele>2543.3999023438</ele>
        <time>2016-03-26T11:17:13.000Z</time>
      </trkpt>
      <trkpt lat="45.31809" lon="6.18771">
        <ele>2542.1999511719</ele>
        <time>2016-03-26T11:17:14.000Z</time>
      </trkpt>
      <trkpt lat="45.31811" lon="6.1878">
        <ele>2540.8000488281</ele>
        <time>2016-03-26T11:17:15.000Z</time>
      </trkpt>
      <trkpt lat="45.31813" lon="6.18788">
        <ele>2539.3999023438</ele>
        <time>2016-03-26T11:17:16.000Z</time>
      </trkpt>
      <trkpt lat="45.31813" lon="6.18797">
        <ele>2538.1999511719</ele>
        <time>2016-03-26T11:17:17.000Z</time>
      </trkpt>
      <trkpt lat="45.31814" lon="6.18806">
        <ele>2536.6000976562</ele>
        <time>2016-03-26T11:17:18.000Z</time>
      </trkpt>
      <trkpt lat="45.31815" lon="6.18814">
        <ele>2533.6000976562</ele>
        <time>2016-03-26T11:17:19.000Z</time>
      </trkpt>
      <trkpt lat="45.31815" lon="6.18822">
        <ele>2532.1999511719</ele>
        <time>2016-03-26T11:17:20.000Z</time>
      </trkpt>
      <trkpt lat="45.31813" lon="6.1883">
        <ele>2531</ele>
        <time>2016-03-26T11:17:21.000Z</time>
      </trkpt>
      <trkpt lat="45.3181" lon="6.18844">
        <ele>2529.6000976562</ele>
        <time>2016-03-26T11:17:23.000Z</time>
      </trkpt>
      <trkpt lat="45.31808" lon="6.1885">
        <ele>2529.1999511719</ele>
        <time>2016-03-26T11:17:24.000Z</time>
      </trkpt>
      <trkpt lat="45.31804" lon="6.18855">
        <ele>2528.8000488281</ele>
        <time>2016-03-26T11:17:25.000Z</time>
      </trkpt>
      <trkpt lat="45.31802" lon="6.18858">
        <ele>2528.6000976562</ele>
        <time>2016-03-26T11:17:26.000Z</time>
      </trkpt>
      <trkpt lat="45.318" lon="6.1886">
        <ele>2528.1999511719</ele>
        <time>2016-03-26T11:17:27.000Z</time>
      </trkpt>
      <trkpt lat="45.31795" lon="6.18861">
        <ele>2527.6000976562</ele>
        <time>2016-03-26T11:17:32.000Z</time>
      </trkpt>
      <trkpt lat="45.31795" lon="6.18861">
        <ele>2527.6000976562</ele>
        <time>2016-03-26T11:17:46.000Z</time>
      </trkpt>
      <trkpt lat="45.31795" lon="6.18861">
        <ele>2527.6000976562</ele>
        <time>2016-03-26T11:17:47.000Z</time>
      </trkpt>
      <trkpt lat="45.31795" lon="6.18861">
        <ele>2527.6000976562</ele>
        <time>2016-03-26T11:17:59.000Z</time>
      </trkpt>
      <trkpt lat="45.31795" lon="6.18861">
        <ele>2527.3999023438</ele>
        <time>2016-03-26T11:18:07.000Z</time>
      </trkpt>
      <trkpt lat="45.31795" lon="6.18862">
        <ele>2527.6000976562</ele>
        <time>2016-03-26T11:18:13.000Z</time>
      </trkpt>
      <trkpt lat="45.31795" lon="6.18862">
        <ele>2527.1999511719</ele>
        <time>2016-03-26T11:18:30.000Z</time>
      </trkpt>
      <trkpt lat="45.31795" lon="6.18862">
        <ele>2527.1999511719</ele>
        <time>2016-03-26T11:18:46.000Z</time>
      </trkpt>
      <trkpt lat="45.31795" lon="6.18862">
        <ele>2527</ele>
        <time>2016-03-26T11:19:04.000Z</time>
      </trkpt>
      <trkpt lat="45.31794" lon="6.18864">
        <ele>2527</ele>
        <time>2016-03-26T11:19:07.000Z</time>
      </trkpt>
      <trkpt lat="45.31792" lon="6.18873">
        <ele>2526.8000488281</ele>
        <time>2016-03-26T11:19:10.000Z</time>
      </trkpt>
      <trkpt lat="45.31791" lon="6.18884">
        <ele>2525.8000488281</ele>
        <time>2016-03-26T11:19:12.000Z</time>
      </trkpt>
      <trkpt lat="45.31792" lon="6.18891">
        <ele>2525.1999511719</ele>
        <time>2016-03-26T11:19:13.000Z</time>
      </trkpt>
      <trkpt lat="45.31791" lon="6.18898">
        <ele>2524.3999023438</ele>
        <time>2016-03-26T11:19:14.000Z</time>
      </trkpt>
      <trkpt lat="45.31789" lon="6.1891">
        <ele>2522.3999023438</ele>
        <time>2016-03-26T11:19:16.000Z</time>
      </trkpt>
      <trkpt lat="45.3179" lon="6.18917">
        <ele>2521.1999511719</ele>
        <time>2016-03-26T11:19:17.000Z</time>
      </trkpt>
      <trkpt lat="45.31788" lon="6.18923">
        <ele>2520.1999511719</ele>
        <time>2016-03-26T11:19:18.000Z</time>
      </trkpt>
      <trkpt lat="45.31787" lon="6.1893">
        <ele>2519</ele>
        <time>2016-03-26T11:19:19.000Z</time>
      </trkpt>
      <trkpt lat="45.31788" lon="6.18936">
        <ele>2515.8000488281</ele>
        <time>2016-03-26T11:19:20.000Z</time>
      </trkpt>
      <trkpt lat="45.3179" lon="6.18944">
        <ele>2514.1999511719</ele>
        <time>2016-03-26T11:19:21.000Z</time>
      </trkpt>
      <trkpt lat="45.3179" lon="6.1895">
        <ele>2512.6000976562</ele>
        <time>2016-03-26T11:19:22.000Z</time>
      </trkpt>
      <trkpt lat="45.31791" lon="6.18957">
        <ele>2511.1999511719</ele>
        <time>2016-03-26T11:19:23.000Z</time>
      </trkpt>
      <trkpt lat="45.31792" lon="6.18965">
        <ele>2509.6000976562</ele>
        <time>2016-03-26T11:19:24.000Z</time>
      </trkpt>
      <trkpt lat="45.31793" lon="6.18975">
        <ele>2507.8000488281</ele>
        <time>2016-03-26T11:19:25.000Z</time>
      </trkpt>
      <trkpt lat="45.31794" lon="6.18983">
        <ele>2506</ele>
        <time>2016-03-26T11:19:26.000Z</time>
      </trkpt>
      <trkpt lat="45.31794" lon="6.1899">
        <ele>2503.8000488281</ele>
        <time>2016-03-26T11:19:27.000Z</time>
      </trkpt>
      <trkpt lat="45.31793" lon="6.18997">
        <ele>2501.6000976562</ele>
        <time>2016-03-26T11:19:28.000Z</time>
      </trkpt>
      <trkpt lat="45.31791" lon="6.19001">
        <ele>2499.8000488281</ele>
        <time>2016-03-26T11:19:29.000Z</time>
      </trkpt>
      <trkpt lat="45.31791" lon="6.19005">
        <ele>2498.6000976562</ele>
        <time>2016-03-26T11:19:30.000Z</time>
      </trkpt>
      <trkpt lat="45.31792" lon="6.19012">
        <ele>2497</ele>
        <time>2016-03-26T11:19:32.000Z</time>
      </trkpt>
      <trkpt lat="45.31802" lon="6.19016">
        <ele>2496.1999511719</ele>
        <time>2016-03-26T11:19:34.000Z</time>
      </trkpt>
      <trkpt lat="45.31807" lon="6.19019">
        <ele>2495.3999023438</ele>
        <time>2016-03-26T11:19:35.000Z</time>
      </trkpt>
      <trkpt lat="45.31811" lon="6.19022">
        <ele>2494.1999511719</ele>
        <time>2016-03-26T11:19:36.000Z</time>
      </trkpt>
      <trkpt lat="45.31815" lon="6.19026">
        <ele>2492.8000488281</ele>
        <time>2016-03-26T11:19:37.000Z</time>
      </trkpt>
      <trkpt lat="45.31816" lon="6.19028">
        <ele>2491.6000976562</ele>
        <time>2016-03-26T11:19:38.000Z</time>
      </trkpt>
      <trkpt lat="45.31819" lon="6.19032">
        <ele>2490.6000976562</ele>
        <time>2016-03-26T11:19:39.000Z</time>
      </trkpt>
      <trkpt lat="45.31821" lon="6.19036">
        <ele>2489.8000488281</ele>
        <time>2016-03-26T11:19:40.000Z</time>
      </trkpt>
      <trkpt lat="45.31821" lon="6.19042">
        <ele>2489</ele>
        <time>2016-03-26T11:19:41.000Z</time>
      </trkpt>
      <trkpt lat="45.31821" lon="6.19049">
        <ele>2487.8000488281</ele>
        <time>2016-03-26T11:19:42.000Z</time>
      </trkpt>
      <trkpt lat="45.31822" lon="6.19056">
        <ele>2486</ele>
        <time>2016-03-26T11:19:43.000Z</time>
      </trkpt>
      <trkpt lat="45.31822" lon="6.19062">
        <ele>2483</ele>
        <time>2016-03-26T11:19:44.000Z</time>
      </trkpt>
      <trkpt lat="45.31823" lon="6.1907">
        <ele>2481.6000976562</ele>
        <time>2016-03-26T11:19:45.000Z</time>
      </trkpt>
      <trkpt lat="45.31821" lon="6.19078">
        <ele>2480</ele>
        <time>2016-03-26T11:19:46.000Z</time>
      </trkpt>
      <trkpt lat="45.31821" lon="6.19088">
        <ele>2478.3999023438</ele>
        <time>2016-03-26T11:19:47.000Z</time>
      </trkpt>
      <trkpt lat="45.31819" lon="6.19097">
        <ele>2477.1999511719</ele>
        <time>2016-03-26T11:19:48.000Z</time>
      </trkpt>
      <trkpt lat="45.31817" lon="6.19106">
        <ele>2476</ele>
        <time>2016-03-26T11:19:49.000Z</time>
      </trkpt>
      <trkpt lat="45.31816" lon="6.19116">
        <ele>2475</ele>
        <time>2016-03-26T11:19:50.000Z</time>
      </trkpt>
      <trkpt lat="45.31814" lon="6.19125">
        <ele>2474</ele>
        <time>2016-03-26T11:19:51.000Z</time>
      </trkpt>
      <trkpt lat="45.31813" lon="6.19135">
        <ele>2473.1999511719</ele>
        <time>2016-03-26T11:19:52.000Z</time>
      </trkpt>
      <trkpt lat="45.31811" lon="6.19153">
        <ele>2471.1999511719</ele>
        <time>2016-03-26T11:19:54.000Z</time>
      </trkpt>
      <trkpt lat="45.31809" lon="6.19162">
        <ele>2470</ele>
        <time>2016-03-26T11:19:55.000Z</time>
      </trkpt>
      <trkpt lat="45.31806" lon="6.19181">
        <ele>2468</ele>
        <time>2016-03-26T11:19:57.000Z</time>
      </trkpt>
      <trkpt lat="45.31804" lon="6.19189">
        <ele>2466.8000488281</ele>
        <time>2016-03-26T11:19:58.000Z</time>
      </trkpt>
      <trkpt lat="45.31802" lon="6.19198">
        <ele>2465.8000488281</ele>
        <time>2016-03-26T11:19:59.000Z</time>
      </trkpt>
      <trkpt lat="45.31801" lon="6.19207">
        <ele>2464.6000976562</ele>
        <time>2016-03-26T11:20:00.000Z</time>
      </trkpt>
      <trkpt lat="45.31797" lon="6.19225">
        <ele>2463</ele>
        <time>2016-03-26T11:20:02.000Z</time>
      </trkpt>
      <trkpt lat="45.3179" lon="6.19243">
        <ele>2461.6000976562</ele>
        <time>2016-03-26T11:20:04.000Z</time>
      </trkpt>
      <trkpt lat="45.31785" lon="6.19257">
        <ele>2459.8000488281</ele>
        <time>2016-03-26T11:20:06.000Z</time>
      </trkpt>
      <trkpt lat="45.31782" lon="6.19266">
        <ele>2458.3999023438</ele>
        <time>2016-03-26T11:20:08.000Z</time>
      </trkpt>
      <trkpt lat="45.31778" lon="6.19272">
        <ele>2458.3999023438</ele>
        <time>2016-03-26T11:20:11.000Z</time>
      </trkpt>
      <trkpt lat="45.31777" lon="6.19272">
        <ele>2458.6000976562</ele>
        <time>2016-03-26T11:20:16.000Z</time>
      </trkpt>
      <trkpt lat="45.31776" lon="6.19275">
        <ele>2458.3999023438</ele>
        <time>2016-03-26T11:20:27.000Z</time>
      </trkpt>
      <trkpt lat="45.31777" lon="6.19276">
        <ele>2458.6000976562</ele>
        <time>2016-03-26T11:20:32.000Z</time>
      </trkpt>
      <trkpt lat="45.31775" lon="6.19276">
        <ele>2458.3999023438</ele>
        <time>2016-03-26T11:20:43.000Z</time>
      </trkpt>
      <trkpt lat="45.31775" lon="6.19276">
        <ele>2458.1999511719</ele>
        <time>2016-03-26T11:20:55.000Z</time>
      </trkpt>
      <trkpt lat="45.31775" lon="6.19276">
        <ele>2458.1999511719</ele>
        <time>2016-03-26T11:21:09.000Z</time>
      </trkpt>
      <trkpt lat="45.31775" lon="6.19276">
        <ele>2458.3999023438</ele>
        <time>2016-03-26T11:21:19.000Z</time>
      </trkpt>
      <trkpt lat="45.31776" lon="6.19278">
        <ele>2458.3999023438</ele>
        <time>2016-03-26T11:21:21.000Z</time>
      </trkpt>
      <trkpt lat="45.31776" lon="6.19278">
        <ele>2458.1999511719</ele>
        <time>2016-03-26T11:21:37.000Z</time>
      </trkpt>
      <trkpt lat="45.31776" lon="6.19278">
        <ele>2458.1999511719</ele>
        <time>2016-03-26T11:21:51.000Z</time>
      </trkpt>
      <trkpt lat="45.31777" lon="6.19277">
        <ele>2458.3999023438</ele>
        <time>2016-03-26T11:22:11.000Z</time>
      </trkpt>
      <trkpt lat="45.31777" lon="6.19277">
        <ele>2457.6000976562</ele>
        <time>2016-03-26T11:22:29.000Z</time>
      </trkpt>
      <trkpt lat="45.31776" lon="6.19277">
        <ele>2458.3999023438</ele>
        <time>2016-03-26T11:22:43.000Z</time>
      </trkpt>
      <trkpt lat="45.31776" lon="6.19277">
        <ele>2458.1999511719</ele>
        <time>2016-03-26T11:22:56.000Z</time>
      </trkpt>
      <trkpt lat="45.31776" lon="6.19277">
        <ele>2458.1999511719</ele>
        <time>2016-03-26T11:23:11.000Z</time>
      </trkpt>
      <trkpt lat="45.31776" lon="6.19277">
        <ele>2458.1999511719</ele>
        <time>2016-03-26T11:23:29.000Z</time>
      </trkpt>
      <trkpt lat="45.31776" lon="6.19277">
        <ele>2458.3999023438</ele>
        <time>2016-03-26T11:23:42.000Z</time>
      </trkpt>
      <trkpt lat="45.31776" lon="6.19277">
        <ele>2457.8000488281</ele>
        <time>2016-03-26T11:23:53.000Z</time>
      </trkpt>
      <trkpt lat="45.31775" lon="6.19277">
        <ele>2457.8000488281</ele>
        <time>2016-03-26T11:24:08.000Z</time>
      </trkpt>
      <trkpt lat="45.31775" lon="6.19277">
        <ele>2458</ele>
        <time>2016-03-26T11:24:21.000Z</time>
      </trkpt>
      <trkpt lat="45.31775" lon="6.19277">
        <ele>2457.8000488281</ele>
        <time>2016-03-26T11:24:35.000Z</time>
      </trkpt>
      <trkpt lat="45.31775" lon="6.19276">
        <ele>2458.1999511719</ele>
        <time>2016-03-26T11:24:48.000Z</time>
      </trkpt>
      <trkpt lat="45.31775" lon="6.19276">
        <ele>2458</ele>
        <time>2016-03-26T11:25:02.000Z</time>
      </trkpt>
      <trkpt lat="45.31775" lon="6.19276">
        <ele>2458</ele>
        <time>2016-03-26T11:25:14.000Z</time>
      </trkpt>
      <trkpt lat="45.31775" lon="6.19276">
        <ele>2458</ele>
        <time>2016-03-26T11:25:27.000Z</time>
      </trkpt>
      <trkpt lat="45.31775" lon="6.19276">
        <ele>2458.1999511719</ele>
        <time>2016-03-26T11:25:44.000Z</time>
      </trkpt>
      <trkpt lat="45.31775" lon="6.19276">
        <ele>2457.3999023438</ele>
        <time>2016-03-26T11:25:54.000Z</time>
      </trkpt>
      <trkpt lat="45.31775" lon="6.19276">
        <ele>2457.1999511719</ele>
        <time>2016-03-26T11:25:56.000Z</time>
      </trkpt>
      <trkpt lat="45.31775" lon="6.19276">
        <ele>2458.6000976562</ele>
        <time>2016-03-26T11:26:06.000Z</time>
      </trkpt>
      <trkpt lat="45.31775" lon="6.19276">
        <ele>2458.3999023438</ele>
        <time>2016-03-26T11:26:12.000Z</time>
      </trkpt>
      <trkpt lat="45.31775" lon="6.19276">
        <ele>2458</ele>
        <time>2016-03-26T11:26:25.000Z</time>
      </trkpt>
      <trkpt lat="45.31776" lon="6.19276">
        <ele>2458</ele>
        <time>2016-03-26T11:26:42.000Z</time>
      </trkpt>
      <trkpt lat="45.31776" lon="6.19276">
        <ele>2458</ele>
        <time>2016-03-26T11:26:57.000Z</time>
      </trkpt>
      <trkpt lat="45.31776" lon="6.19276">
        <ele>2458</ele>
        <time>2016-03-26T11:27:09.000Z</time>
      </trkpt>
      <trkpt lat="45.31776" lon="6.19275">
        <ele>2458.3999023438</ele>
        <time>2016-03-26T11:27:21.000Z</time>
      </trkpt>
      <trkpt lat="45.31776" lon="6.19275">
        <ele>2457.8000488281</ele>
        <time>2016-03-26T11:27:39.000Z</time>
      </trkpt>
      <trkpt lat="45.31776" lon="6.19275">
        <ele>2457.8000488281</ele>
        <time>2016-03-26T11:27:54.000Z</time>
      </trkpt>
      <trkpt lat="45.31776" lon="6.19276">
        <ele>2457.8000488281</ele>
        <time>2016-03-26T11:28:08.000Z</time>
      </trkpt>
      <trkpt lat="45.31776" lon="6.19276">
        <ele>2457.8000488281</ele>
        <time>2016-03-26T11:28:24.000Z</time>
      </trkpt>
      <trkpt lat="45.31776" lon="6.19276">
        <ele>2457.8000488281</ele>
        <time>2016-03-26T11:28:40.000Z</time>
      </trkpt>
      <trkpt lat="45.31776" lon="6.19276">
        <ele>2457.8000488281</ele>
        <time>2016-03-26T11:29:01.000Z</time>
      </trkpt>
      <trkpt lat="45.31776" lon="6.19277">
        <ele>2458</ele>
        <time>2016-03-26T11:29:12.000Z</time>
      </trkpt>
      <trkpt lat="45.31777" lon="6.19279">
        <ele>2458.1999511719</ele>
        <time>2016-03-26T11:29:17.000Z</time>
      </trkpt>
      <trkpt lat="45.31776" lon="6.19283">
        <ele>2458.8000488281</ele>
        <time>2016-03-26T11:29:22.000Z</time>
      </trkpt>
      <trkpt lat="45.31777" lon="6.19287">
        <ele>2459.6000976562</ele>
        <time>2016-03-26T11:29:28.000Z</time>
      </trkpt>
      <trkpt lat="45.31777" lon="6.19288">
        <ele>2459.6000976562</ele>
        <time>2016-03-26T11:29:29.000Z</time>
      </trkpt>
      <trkpt lat="45.31777" lon="6.19296">
        <ele>2460.1999511719</ele>
        <time>2016-03-26T11:29:35.000Z</time>
      </trkpt>
      <trkpt lat="45.31777" lon="6.19296">
        <ele>2460.6000976562</ele>
        <time>2016-03-26T11:29:37.000Z</time>
      </trkpt>
      <trkpt lat="45.31777" lon="6.19298">
        <ele>2461.3999023438</ele>
        <time>2016-03-26T11:29:42.000Z</time>
      </trkpt>
      <trkpt lat="45.31777" lon="6.19299">
        <ele>2462</ele>
        <time>2016-03-26T11:29:44.000Z</time>
      </trkpt>
      <trkpt lat="45.31777" lon="6.19303">
        <ele>2463</ele>
        <time>2016-03-26T11:29:48.000Z</time>
      </trkpt>
      <trkpt lat="45.31776" lon="6.19306">
        <ele>2463.3999023438</ele>
        <time>2016-03-26T11:29:52.000Z</time>
      </trkpt>
      <trkpt lat="45.31776" lon="6.1931">
        <ele>2464.1999511719</ele>
        <time>2016-03-26T11:29:57.000Z</time>
      </trkpt>
      <trkpt lat="45.31776" lon="6.1931">
        <ele>2464.3999023438</ele>
        <time>2016-03-26T11:29:59.000Z</time>
      </trkpt>
      <trkpt lat="45.31775" lon="6.19314">
        <ele>2465.1999511719</ele>
        <time>2016-03-26T11:30:04.000Z</time>
      </trkpt>
      <trkpt lat="45.31775" lon="6.19316">
        <ele>2466.3999023438</ele>
        <time>2016-03-26T11:30:07.000Z</time>
      </trkpt>
      <trkpt lat="45.31776" lon="6.19319">
        <ele>2466.8000488281</ele>
        <time>2016-03-26T11:30:11.000Z</time>
      </trkpt>
      <trkpt lat="45.31776" lon="6.1932">
        <ele>2467.6000976562</ele>
        <time>2016-03-26T11:30:14.000Z</time>
      </trkpt>
      <trkpt lat="45.31776" lon="6.19322">
        <ele>2467.8000488281</ele>
        <time>2016-03-26T11:30:16.000Z</time>
      </trkpt>
      <trkpt lat="45.31777" lon="6.19324">
        <ele>2468.6000976562</ele>
        <time>2016-03-26T11:30:19.000Z</time>
      </trkpt>
      <trkpt lat="45.31778" lon="6.19325">
        <ele>2469</ele>
        <time>2016-03-26T11:30:21.000Z</time>
      </trkpt>
      <trkpt lat="45.31778" lon="6.19326">
        <ele>2469.6000976562</ele>
        <time>2016-03-26T11:30:25.000Z</time>
      </trkpt>
      <trkpt lat="45.31778" lon="6.19326">
        <ele>2470</ele>
        <time>2016-03-26T11:30:29.000Z</time>
      </trkpt>
      <trkpt lat="45.31781" lon="6.19328">
        <ele>2470.1999511719</ele>
        <time>2016-03-26T11:30:37.000Z</time>
      </trkpt>
      <trkpt lat="45.31782" lon="6.1933">
        <ele>2470.6000976562</ele>
        <time>2016-03-26T11:30:41.000Z</time>
      </trkpt>
      <trkpt lat="45.31782" lon="6.19333">
        <ele>2471</ele>
        <time>2016-03-26T11:30:45.000Z</time>
      </trkpt>
      <trkpt lat="45.31782" lon="6.19335">
        <ele>2471.1999511719</ele>
        <time>2016-03-26T11:30:49.000Z</time>
      </trkpt>
      <trkpt lat="45.31781" lon="6.19344">
        <ele>2471.6000976562</ele>
        <time>2016-03-26T11:30:53.000Z</time>
      </trkpt>
      <trkpt lat="45.31781" lon="6.19343">
        <ele>2471.6000976562</ele>
        <time>2016-03-26T11:30:54.000Z</time>
      </trkpt>
      <trkpt lat="45.31782" lon="6.19358">
        <ele>2470.3999023438</ele>
        <time>2016-03-26T11:31:01.000Z</time>
      </trkpt>
      <trkpt lat="45.31782" lon="6.19366">
        <ele>2469.6000976562</ele>
        <time>2016-03-26T11:31:04.000Z</time>
      </trkpt>
      <trkpt lat="45.31783" lon="6.19375">
        <ele>2468.3999023438</ele>
        <time>2016-03-26T11:31:08.000Z</time>
      </trkpt>
      <trkpt lat="45.31784" lon="6.19378">
        <ele>2468.1999511719</ele>
        <time>2016-03-26T11:31:09.000Z</time>
      </trkpt>
      <trkpt lat="45.31783" lon="6.19392">
        <ele>2467.3999023438</ele>
        <time>2016-03-26T11:31:15.000Z</time>
      </trkpt>
      <trkpt lat="45.31783" lon="6.19403">
        <ele>2466.8000488281</ele>
        <time>2016-03-26T11:31:21.000Z</time>
      </trkpt>
      <trkpt lat="45.31784" lon="6.19409">
        <ele>2467.1999511719</ele>
        <time>2016-03-26T11:31:27.000Z</time>
      </trkpt>
      <trkpt lat="45.31783" lon="6.19411">
        <ele>2467.6000976562</ele>
        <time>2016-03-26T11:31:34.000Z</time>
      </trkpt>
      <trkpt lat="45.31783" lon="6.19415">
        <ele>2467.3999023438</ele>
        <time>2016-03-26T11:31:42.000Z</time>
      </trkpt>
      <trkpt lat="45.31784" lon="6.19418">
        <ele>2467.6000976562</ele>
        <time>2016-03-26T11:31:48.000Z</time>
      </trkpt>
      <trkpt lat="45.31785" lon="6.19424">
        <ele>2468</ele>
        <time>2016-03-26T11:31:53.000Z</time>
      </trkpt>
      <trkpt lat="45.31786" lon="6.19429">
        <ele>2468.3999023438</ele>
        <time>2016-03-26T11:31:57.000Z</time>
      </trkpt>
      <trkpt lat="45.31786" lon="6.19429">
        <ele>2468.6000976562</ele>
        <time>2016-03-26T11:31:58.000Z</time>
      </trkpt>
      <trkpt lat="45.31787" lon="6.19441">
        <ele>2468.6000976562</ele>
        <time>2016-03-26T11:32:04.000Z</time>
      </trkpt>
      <trkpt lat="45.31786" lon="6.19457">
        <ele>2466.6000976562</ele>
        <time>2016-03-26T11:32:08.000Z</time>
      </trkpt>
      <trkpt lat="45.31786" lon="6.1946">
        <ele>2466</ele>
        <time>2016-03-26T11:32:09.000Z</time>
      </trkpt>
      <trkpt lat="45.31786" lon="6.19462">
        <ele>2465.3999023438</ele>
        <time>2016-03-26T11:32:11.000Z</time>
      </trkpt>
      <trkpt lat="45.31785" lon="6.19466">
        <ele>2465</ele>
        <time>2016-03-26T11:32:14.000Z</time>
      </trkpt>
      <trkpt lat="45.31783" lon="6.1947">
        <ele>2465.8000488281</ele>
        <time>2016-03-26T11:32:20.000Z</time>
      </trkpt>
      <trkpt lat="45.31783" lon="6.19469">
        <ele>2466.1999511719</ele>
        <time>2016-03-26T11:32:28.000Z</time>
      </trkpt>
      <trkpt lat="45.31783" lon="6.1947">
        <ele>2466.1999511719</ele>
        <time>2016-03-26T11:32:39.000Z</time>
      </trkpt>
      <trkpt lat="45.31783" lon="6.1947">
        <ele>2464.8000488281</ele>
        <time>2016-03-26T11:32:49.000Z</time>
      </trkpt>
      <trkpt lat="45.31783" lon="6.1947">
        <ele>2465.8000488281</ele>
        <time>2016-03-26T11:33:09.000Z</time>
      </trkpt>
      <trkpt lat="45.31783" lon="6.1947">
        <ele>2466.1999511719</ele>
        <time>2016-03-26T11:33:14.000Z</time>
      </trkpt>
      <trkpt lat="45.31783" lon="6.1947">
        <ele>2466</ele>
        <time>2016-03-26T11:33:19.000Z</time>
      </trkpt>
      <trkpt lat="45.31783" lon="6.1947">
        <ele>2466</ele>
        <time>2016-03-26T11:33:33.000Z</time>
      </trkpt>
      <trkpt lat="45.31784" lon="6.19469">
        <ele>2466</ele>
        <time>2016-03-26T11:33:49.000Z</time>
      </trkpt>
      <trkpt lat="45.31784" lon="6.19469">
        <ele>2465.8000488281</ele>
        <time>2016-03-26T11:34:06.000Z</time>
      </trkpt>
      <trkpt lat="45.31784" lon="6.19469">
        <ele>2465.8000488281</ele>
        <time>2016-03-26T11:34:17.000Z</time>
      </trkpt>
      <trkpt lat="45.31784" lon="6.19469">
        <ele>2465.8000488281</ele>
        <time>2016-03-26T11:34:35.000Z</time>
      </trkpt>
      <trkpt lat="45.31784" lon="6.19469">
        <ele>2465.6000976562</ele>
        <time>2016-03-26T11:34:52.000Z</time>
      </trkpt>
      <trkpt lat="45.31784" lon="6.19469">
        <ele>2465.6000976562</ele>
        <time>2016-03-26T11:35:02.000Z</time>
      </trkpt>
      <trkpt lat="45.31783" lon="6.19469">
        <ele>2465.8000488281</ele>
        <time>2016-03-26T11:35:15.000Z</time>
      </trkpt>
      <trkpt lat="45.31783" lon="6.19469">
        <ele>2466.3999023438</ele>
        <time>2016-03-26T11:35:23.000Z</time>
      </trkpt>
      <trkpt lat="45.31783" lon="6.19469">
        <ele>2466</ele>
        <time>2016-03-26T11:35:27.000Z</time>
      </trkpt>
      <trkpt lat="45.31783" lon="6.19469">
        <ele>2466</ele>
        <time>2016-03-26T11:35:42.000Z</time>
      </trkpt>
      <trkpt lat="45.31783" lon="6.19469">
        <ele>2465.8000488281</ele>
        <time>2016-03-26T11:35:50.000Z</time>
      </trkpt>
      <trkpt lat="45.31783" lon="6.19469">
        <ele>2466.1999511719</ele>
        <time>2016-03-26T11:35:57.000Z</time>
      </trkpt>
      <trkpt lat="45.31783" lon="6.19469">
        <ele>2466</ele>
        <time>2016-03-26T11:36:03.000Z</time>
      </trkpt>
      <trkpt lat="45.31782" lon="6.19474">
        <ele>2466</ele>
        <time>2016-03-26T11:36:10.000Z</time>
      </trkpt>
      <trkpt lat="45.31781" lon="6.19478">
        <ele>2466.3999023438</ele>
        <time>2016-03-26T11:36:16.000Z</time>
      </trkpt>
      <trkpt lat="45.31781" lon="6.1948">
        <ele>2466.6000976562</ele>
        <time>2016-03-26T11:36:23.000Z</time>
      </trkpt>
      <trkpt lat="45.3178" lon="6.19491">
        <ele>2466.6000976562</ele>
        <time>2016-03-26T11:36:27.000Z</time>
      </trkpt>
      <trkpt lat="45.3178" lon="6.19496">
        <ele>2467.3999023438</ele>
        <time>2016-03-26T11:36:31.000Z</time>
      </trkpt>
      <trkpt lat="45.3178" lon="6.19497">
        <ele>2467.6000976562</ele>
        <time>2016-03-26T11:36:32.000Z</time>
      </trkpt>
      <trkpt lat="45.31781" lon="6.195">
        <ele>2467.8000488281</ele>
        <time>2016-03-26T11:36:36.000Z</time>
      </trkpt>
      <trkpt lat="45.3178" lon="6.19502">
        <ele>2468.3999023438</ele>
        <time>2016-03-26T11:36:40.000Z</time>
      </trkpt>
      <trkpt lat="45.3178" lon="6.19503">
        <ele>2468.6000976562</ele>
        <time>2016-03-26T11:36:41.000Z</time>
      </trkpt>
      <trkpt lat="45.31781" lon="6.19504">
        <ele>2469.1999511719</ele>
        <time>2016-03-26T11:36:44.000Z</time>
      </trkpt>
      <trkpt lat="45.31784" lon="6.19506">
        <ele>2469.3999023438</ele>
        <time>2016-03-26T11:36:49.000Z</time>
      </trkpt>
      <trkpt lat="45.31785" lon="6.1951">
        <ele>2469.8000488281</ele>
        <time>2016-03-26T11:36:54.000Z</time>
      </trkpt>
      <trkpt lat="45.31785" lon="6.19513">
        <ele>2470.3999023438</ele>
        <time>2016-03-26T11:36:58.000Z</time>
      </trkpt>
      <trkpt lat="45.31786" lon="6.19515">
        <ele>2470.8000488281</ele>
        <time>2016-03-26T11:37:00.000Z</time>
      </trkpt>
      <trkpt lat="45.31786" lon="6.19517">
        <ele>2471.1999511719</ele>
        <time>2016-03-26T11:37:03.000Z</time>
      </trkpt>
      <trkpt lat="45.31786" lon="6.1952">
        <ele>2471.6000976562</ele>
        <time>2016-03-26T11:37:07.000Z</time>
      </trkpt>
      <trkpt lat="45.31786" lon="6.19522">
        <ele>2472</ele>
        <time>2016-03-26T11:37:10.000Z</time>
      </trkpt>
      <trkpt lat="45.31786" lon="6.19523">
        <ele>2472</ele>
        <time>2016-03-26T11:37:12.000Z</time>
      </trkpt>
      <trkpt lat="45.31786" lon="6.19524">
        <ele>2472.6000976562</ele>
        <time>2016-03-26T11:37:17.000Z</time>
      </trkpt>
      <trkpt lat="45.31786" lon="6.19525">
        <ele>2473</ele>
        <time>2016-03-26T11:37:20.000Z</time>
      </trkpt>
      <trkpt lat="45.31786" lon="6.19525">
        <ele>2473.1999511719</ele>
        <time>2016-03-26T11:37:21.000Z</time>
      </trkpt>
      <trkpt lat="45.31789" lon="6.19532">
        <ele>2473.6000976562</ele>
        <time>2016-03-26T11:37:26.000Z</time>
      </trkpt>
      <trkpt lat="45.31789" lon="6.19535">
        <ele>2474</ele>
        <time>2016-03-26T11:37:29.000Z</time>
      </trkpt>
      <trkpt lat="45.31789" lon="6.19535">
        <ele>2474.1999511719</ele>
        <time>2016-03-26T11:37:30.000Z</time>
      </trkpt>
      <trkpt lat="45.31789" lon="6.19539">
        <ele>2474.6000976562</ele>
        <time>2016-03-26T11:37:34.000Z</time>
      </trkpt>
      <trkpt lat="45.3179" lon="6.19543">
        <ele>2475.1999511719</ele>
        <time>2016-03-26T11:37:38.000Z</time>
      </trkpt>
      <trkpt lat="45.3179" lon="6.19544">
        <ele>2475.6000976562</ele>
        <time>2016-03-26T11:37:40.000Z</time>
      </trkpt>
      <trkpt lat="45.31791" lon="6.19546">
        <ele>2475.8000488281</ele>
        <time>2016-03-26T11:37:44.000Z</time>
      </trkpt>
      <trkpt lat="45.31792" lon="6.19548">
        <ele>2476.3999023438</ele>
        <time>2016-03-26T11:37:47.000Z</time>
      </trkpt>
      <trkpt lat="45.31793" lon="6.1955">
        <ele>2476.6000976562</ele>
        <time>2016-03-26T11:37:50.000Z</time>
      </trkpt>
      <trkpt lat="45.31793" lon="6.19554">
        <ele>2477.3999023438</ele>
        <time>2016-03-26T11:37:54.000Z</time>
      </trkpt>
      <trkpt lat="45.31795" lon="6.19557">
        <ele>2477.6000976562</ele>
        <time>2016-03-26T11:37:58.000Z</time>
      </trkpt>
      <trkpt lat="45.31795" lon="6.1956">
        <ele>2478.6000976562</ele>
        <time>2016-03-26T11:38:03.000Z</time>
      </trkpt>
      <trkpt lat="45.31795" lon="6.19561">
        <ele>2478.6000976562</ele>
        <time>2016-03-26T11:38:04.000Z</time>
      </trkpt>
      <trkpt lat="45.31796" lon="6.19563">
        <ele>2478.8000488281</ele>
        <time>2016-03-26T11:38:08.000Z</time>
      </trkpt>
      <trkpt lat="45.31796" lon="6.19565">
        <ele>2479.6000976562</ele>
        <time>2016-03-26T11:38:11.000Z</time>
      </trkpt>
      <trkpt lat="45.31797" lon="6.19566">
        <ele>2479.8000488281</ele>
        <time>2016-03-26T11:38:13.000Z</time>
      </trkpt>
      <trkpt lat="45.31797" lon="6.19568">
        <ele>2480.1999511719</ele>
        <time>2016-03-26T11:38:17.000Z</time>
      </trkpt>
      <trkpt lat="45.31797" lon="6.19569">
        <ele>2480.6000976562</ele>
        <time>2016-03-26T11:38:19.000Z</time>
      </trkpt>
      <trkpt lat="45.31797" lon="6.1957">
        <ele>2480.8000488281</ele>
        <time>2016-03-26T11:38:20.000Z</time>
      </trkpt>
      <trkpt lat="45.31798" lon="6.19572">
        <ele>2480.8000488281</ele>
        <time>2016-03-26T11:38:24.000Z</time>
      </trkpt>
      <trkpt lat="45.31799" lon="6.19574">
        <ele>2481.6000976562</ele>
        <time>2016-03-26T11:38:29.000Z</time>
      </trkpt>
      <trkpt lat="45.31799" lon="6.19575">
        <ele>2481.6000976562</ele>
        <time>2016-03-26T11:38:30.000Z</time>
      </trkpt>
      <trkpt lat="45.318" lon="6.19578">
        <ele>2482.1999511719</ele>
        <time>2016-03-26T11:38:33.000Z</time>
      </trkpt>
      <trkpt lat="45.31801" lon="6.19581">
        <ele>2482.8000488281</ele>
        <time>2016-03-26T11:38:36.000Z</time>
      </trkpt>
      <trkpt lat="45.31801" lon="6.19583">
        <ele>2483</ele>
        <time>2016-03-26T11:38:38.000Z</time>
      </trkpt>
      <trkpt lat="45.31801" lon="6.19584">
        <ele>2483.8000488281</ele>
        <time>2016-03-26T11:38:42.000Z</time>
      </trkpt>
      <trkpt lat="45.31803" lon="6.19587">
        <ele>2484.6000976562</ele>
        <time>2016-03-26T11:38:48.000Z</time>
      </trkpt>
      <trkpt lat="45.31804" lon="6.1959">
        <ele>2484.1999511719</ele>
        <time>2016-03-26T11:38:56.000Z</time>
      </trkpt>
      <trkpt lat="45.31804" lon="6.19591">
        <ele>2484.8000488281</ele>
        <time>2016-03-26T11:39:01.000Z</time>
      </trkpt>
      <trkpt lat="45.31804" lon="6.19591">
        <ele>2485.3999023438</ele>
        <time>2016-03-26T11:39:02.000Z</time>
      </trkpt>
      <trkpt lat="45.31805" lon="6.19595">
        <ele>2486</ele>
        <time>2016-03-26T11:39:08.000Z</time>
      </trkpt>
      <trkpt lat="45.31807" lon="6.19599">
        <ele>2486.1999511719</ele>
        <time>2016-03-26T11:39:13.000Z</time>
      </trkpt>
      <trkpt lat="45.31807" lon="6.196">
        <ele>2486.6000976562</ele>
        <time>2016-03-26T11:39:16.000Z</time>
      </trkpt>
      <trkpt lat="45.31809" lon="6.19603">
        <ele>2487</ele>
        <time>2016-03-26T11:39:21.000Z</time>
      </trkpt>
      <trkpt lat="45.3181" lon="6.19605">
        <ele>2487.6000976562</ele>
        <time>2016-03-26T11:39:26.000Z</time>
      </trkpt>
      <trkpt lat="45.3181" lon="6.19609">
        <ele>2488.1999511719</ele>
        <time>2016-03-26T11:39:30.000Z</time>
      </trkpt>
      <trkpt lat="45.3181" lon="6.19609">
        <ele>2488.3999023438</ele>
        <time>2016-03-26T11:39:31.000Z</time>
      </trkpt>
      <trkpt lat="45.31811" lon="6.19612">
        <ele>2489</ele>
        <time>2016-03-26T11:39:37.000Z</time>
      </trkpt>
      <trkpt lat="45.31812" lon="6.19614">
        <ele>2489.1999511719</ele>
        <time>2016-03-26T11:39:39.000Z</time>
      </trkpt>
      <trkpt lat="45.31812" lon="6.19615">
        <ele>2489.3999023438</ele>
        <time>2016-03-26T11:39:42.000Z</time>
      </trkpt>
      <trkpt lat="45.31813" lon="6.19618">
        <ele>2490</ele>
        <time>2016-03-26T11:39:48.000Z</time>
      </trkpt>
      <trkpt lat="45.31814" lon="6.19619">
        <ele>2490.1999511719</ele>
        <time>2016-03-26T11:39:50.000Z</time>
      </trkpt>
      <trkpt lat="45.31815" lon="6.19622">
        <ele>2491.1999511719</ele>
        <time>2016-03-26T11:39:56.000Z</time>
      </trkpt>
      <trkpt lat="45.31815" lon="6.19623">
        <ele>2491.3999023438</ele>
        <time>2016-03-26T11:39:57.000Z</time>
      </trkpt>
      <trkpt lat="45.31816" lon="6.19625">
        <ele>2492</ele>
        <time>2016-03-26T11:40:01.000Z</time>
      </trkpt>
      <trkpt lat="45.31816" lon="6.19627">
        <ele>2492.1999511719</ele>
        <time>2016-03-26T11:40:05.000Z</time>
      </trkpt>
      <trkpt lat="45.31818" lon="6.1963">
        <ele>2492.6000976562</ele>
        <time>2016-03-26T11:40:08.000Z</time>
      </trkpt>
      <trkpt lat="45.31818" lon="6.19631">
        <ele>2492.3999023438</ele>
        <time>2016-03-26T11:40:11.000Z</time>
      </trkpt>
      <trkpt lat="45.31819" lon="6.19633">
        <ele>2493</ele>
        <time>2016-03-26T11:40:15.000Z</time>
      </trkpt>
      <trkpt lat="45.3182" lon="6.19635">
        <ele>2493.3999023438</ele>
        <time>2016-03-26T11:40:20.000Z</time>
      </trkpt>
      <trkpt lat="45.3182" lon="6.19635">
        <ele>2493.6000976562</ele>
        <time>2016-03-26T11:40:23.000Z</time>
      </trkpt>
      <trkpt lat="45.31821" lon="6.19637">
        <ele>2494.1999511719</ele>
        <time>2016-03-26T11:40:26.000Z</time>
      </trkpt>
      <trkpt lat="45.31821" lon="6.19638">
        <ele>2494.6000976562</ele>
        <time>2016-03-26T11:40:28.000Z</time>
      </trkpt>
      <trkpt lat="45.31822" lon="6.1964">
        <ele>2495</ele>
        <time>2016-03-26T11:40:31.000Z</time>
      </trkpt>
      <trkpt lat="45.31822" lon="6.19643">
        <ele>2495.3999023438</ele>
        <time>2016-03-26T11:40:36.000Z</time>
      </trkpt>
      <trkpt lat="45.31823" lon="6.19644">
        <ele>2495.6000976562</ele>
        <time>2016-03-26T11:40:41.000Z</time>
      </trkpt>
      <trkpt lat="45.31824" lon="6.19647">
        <ele>2496</ele>
        <time>2016-03-26T11:40:48.000Z</time>
      </trkpt>
      <trkpt lat="45.31824" lon="6.1965">
        <ele>2496.6000976562</ele>
        <time>2016-03-26T11:40:54.000Z</time>
      </trkpt>
      <trkpt lat="45.31824" lon="6.1965">
        <ele>2496.8000488281</ele>
        <time>2016-03-26T11:40:55.000Z</time>
      </trkpt>
      <trkpt lat="45.31826" lon="6.19653">
        <ele>2497.8000488281</ele>
        <time>2016-03-26T11:41:00.000Z</time>
      </trkpt>
      <trkpt lat="45.31826" lon="6.19653">
        <ele>2498</ele>
        <time>2016-03-26T11:41:03.000Z</time>
      </trkpt>
      <trkpt lat="45.31826" lon="6.19654">
        <ele>2498.3999023438</ele>
        <time>2016-03-26T11:41:06.000Z</time>
      </trkpt>
      <trkpt lat="45.31827" lon="6.1966">
        <ele>2498.8000488281</ele>
        <time>2016-03-26T11:41:13.000Z</time>
      </trkpt>
      <trkpt lat="45.31828" lon="6.19662">
        <ele>2498.3999023438</ele>
        <time>2016-03-26T11:41:20.000Z</time>
      </trkpt>
      <trkpt lat="45.31828" lon="6.19662">
        <ele>2499.1999511719</ele>
        <time>2016-03-26T11:41:22.000Z</time>
      </trkpt>
      <trkpt lat="45.31829" lon="6.19663">
        <ele>2499.6000976562</ele>
        <time>2016-03-26T11:41:28.000Z</time>
      </trkpt>
      <trkpt lat="45.31831" lon="6.19664">
        <ele>2499.1999511719</ele>
        <time>2016-03-26T11:41:37.000Z</time>
      </trkpt>
      <trkpt lat="45.31833" lon="6.19667">
        <ele>2499</ele>
        <time>2016-03-26T11:41:42.000Z</time>
      </trkpt>
      <trkpt lat="45.31835" lon="6.19668">
        <ele>2500.1999511719</ele>
        <time>2016-03-26T11:41:47.000Z</time>
      </trkpt>
      <trkpt lat="45.31835" lon="6.19668">
        <ele>2500.3999023438</ele>
        <time>2016-03-26T11:41:48.000Z</time>
      </trkpt>
      <trkpt lat="45.31837" lon="6.1967">
        <ele>2501.1999511719</ele>
        <time>2016-03-26T11:41:54.000Z</time>
      </trkpt>
      <trkpt lat="45.31838" lon="6.19674">
        <ele>2501.1999511719</ele>
        <time>2016-03-26T11:42:02.000Z</time>
      </trkpt>
      <trkpt lat="45.31838" lon="6.19674">
        <ele>2501.3999023438</ele>
        <time>2016-03-26T11:42:03.000Z</time>
      </trkpt>
      <trkpt lat="45.31839" lon="6.19675">
        <ele>2501.8000488281</ele>
        <time>2016-03-26T11:42:06.000Z</time>
      </trkpt>
      <trkpt lat="45.3184" lon="6.19678">
        <ele>2502.6000976562</ele>
        <time>2016-03-26T11:42:10.000Z</time>
      </trkpt>
      <trkpt lat="45.3184" lon="6.19678">
        <ele>2502.6000976562</ele>
        <time>2016-03-26T11:42:11.000Z</time>
      </trkpt>
      <trkpt lat="45.31841" lon="6.1968">
        <ele>2503</ele>
        <time>2016-03-26T11:42:16.000Z</time>
      </trkpt>
      <trkpt lat="45.31841" lon="6.19681">
        <ele>2503.6000976562</ele>
        <time>2016-03-26T11:42:18.000Z</time>
      </trkpt>
      <trkpt lat="45.31841" lon="6.19681">
        <ele>2504.1999511719</ele>
        <time>2016-03-26T11:42:20.000Z</time>
      </trkpt>
      <trkpt lat="45.31843" lon="6.19685">
        <ele>2504.6000976562</ele>
        <time>2016-03-26T11:42:25.000Z</time>
      </trkpt>
      <trkpt lat="45.31844" lon="6.19686">
        <ele>2504.6000976562</ele>
        <time>2016-03-26T11:42:26.000Z</time>
      </trkpt>
      <trkpt lat="45.31845" lon="6.19689">
        <ele>2505.3999023438</ele>
        <time>2016-03-26T11:42:31.000Z</time>
      </trkpt>
      <trkpt lat="45.31846" lon="6.1969">
        <ele>2505.6000976562</ele>
        <time>2016-03-26T11:42:34.000Z</time>
      </trkpt>
      <trkpt lat="45.31846" lon="6.1969">
        <ele>2505.8000488281</ele>
        <time>2016-03-26T11:42:35.000Z</time>
      </trkpt>
      <trkpt lat="45.31847" lon="6.19692">
        <ele>2506.1999511719</ele>
        <time>2016-03-26T11:42:42.000Z</time>
      </trkpt>
      <trkpt lat="45.31848" lon="6.19695">
        <ele>2506.6000976562</ele>
        <time>2016-03-26T11:42:46.000Z</time>
      </trkpt>
      <trkpt lat="45.31849" lon="6.19696">
        <ele>2506.6000976562</ele>
        <time>2016-03-26T11:42:47.000Z</time>
      </trkpt>
      <trkpt lat="45.3185" lon="6.19698">
        <ele>2507.1999511719</ele>
        <time>2016-03-26T11:42:51.000Z</time>
      </trkpt>
      <trkpt lat="45.31851" lon="6.197">
        <ele>2507.6000976562</ele>
        <time>2016-03-26T11:42:56.000Z</time>
      </trkpt>
      <trkpt lat="45.31852" lon="6.19701">
        <ele>2507.8000488281</ele>
        <time>2016-03-26T11:42:57.000Z</time>
      </trkpt>
      <trkpt lat="45.31853" lon="6.19702">
        <ele>2508.1999511719</ele>
        <time>2016-03-26T11:43:01.000Z</time>
      </trkpt>
      <trkpt lat="45.31854" lon="6.19703">
        <ele>2508.8000488281</ele>
        <time>2016-03-26T11:43:06.000Z</time>
      </trkpt>
      <trkpt lat="45.31856" lon="6.19705">
        <ele>2508.8000488281</ele>
        <time>2016-03-26T11:43:09.000Z</time>
      </trkpt>
      <trkpt lat="45.31856" lon="6.19705">
        <ele>2509.3999023438</ele>
        <time>2016-03-26T11:43:11.000Z</time>
      </trkpt>
      <trkpt lat="45.31858" lon="6.19707">
        <ele>2510</ele>
        <time>2016-03-26T11:43:16.000Z</time>
      </trkpt>
      <trkpt lat="45.31858" lon="6.19708">
        <ele>2510.1999511719</ele>
        <time>2016-03-26T11:43:17.000Z</time>
      </trkpt>
      <trkpt lat="45.3186" lon="6.19712">
        <ele>2511</ele>
        <time>2016-03-26T11:43:22.000Z</time>
      </trkpt>
      <trkpt lat="45.31861" lon="6.19713">
        <ele>2511.3999023438</ele>
        <time>2016-03-26T11:43:24.000Z</time>
      </trkpt>
      <trkpt lat="45.31863" lon="6.19715">
        <ele>2511.8000488281</ele>
        <time>2016-03-26T11:43:31.000Z</time>
      </trkpt>
      <trkpt lat="45.31864" lon="6.19717">
        <ele>2512.1999511719</ele>
        <time>2016-03-26T11:43:33.000Z</time>
      </trkpt>
      <trkpt lat="45.31866" lon="6.1972">
        <ele>2513</ele>
        <time>2016-03-26T11:43:38.000Z</time>
      </trkpt>
      <trkpt lat="45.31869" lon="6.19721">
        <ele>2512.3999023438</ele>
        <time>2016-03-26T11:43:45.000Z</time>
      </trkpt>
      <trkpt lat="45.31871" lon="6.19722">
        <ele>2513.3999023438</ele>
        <time>2016-03-26T11:43:50.000Z</time>
      </trkpt>
      <trkpt lat="45.31871" lon="6.19722">
        <ele>2513.8000488281</ele>
        <time>2016-03-26T11:43:52.000Z</time>
      </trkpt>
      <trkpt lat="45.31872" lon="6.19723">
        <ele>2514.3999023438</ele>
        <time>2016-03-26T11:44:01.000Z</time>
      </trkpt>
      <trkpt lat="45.31872" lon="6.19723">
        <ele>2514.6000976562</ele>
        <time>2016-03-26T11:44:02.000Z</time>
      </trkpt>
      <trkpt lat="45.31872" lon="6.19723">
        <ele>2514.8000488281</ele>
        <time>2016-03-26T11:44:13.000Z</time>
      </trkpt>
      <trkpt lat="45.3187" lon="6.19723">
        <ele>2515.1999511719</ele>
        <time>2016-03-26T11:44:18.000Z</time>
      </trkpt>
      <trkpt lat="45.31869" lon="6.19723">
        <ele>2515.6000976562</ele>
        <time>2016-03-26T11:44:20.000Z</time>
      </trkpt>
      <trkpt lat="45.31868" lon="6.19724">
        <ele>2516</ele>
        <time>2016-03-26T11:44:24.000Z</time>
      </trkpt>
      <trkpt lat="45.31866" lon="6.19724">
        <ele>2516.6000976562</ele>
        <time>2016-03-26T11:44:28.000Z</time>
      </trkpt>
      <trkpt lat="45.31865" lon="6.19724">
        <ele>2516.6000976562</ele>
        <time>2016-03-26T11:44:29.000Z</time>
      </trkpt>
      <trkpt lat="45.31864" lon="6.19724">
        <ele>2517</ele>
        <time>2016-03-26T11:44:33.000Z</time>
      </trkpt>
      <trkpt lat="45.31862" lon="6.19726">
        <ele>2517.6000976562</ele>
        <time>2016-03-26T11:44:38.000Z</time>
      </trkpt>
      <trkpt lat="45.31861" lon="6.19726">
        <ele>2517.6000976562</ele>
        <time>2016-03-26T11:44:39.000Z</time>
      </trkpt>
      <trkpt lat="45.3186" lon="6.19728">
        <ele>2518</ele>
        <time>2016-03-26T11:44:44.000Z</time>
      </trkpt>
      <trkpt lat="45.31858" lon="6.19726">
        <ele>2518.6000976562</ele>
        <time>2016-03-26T11:44:49.000Z</time>
      </trkpt>
      <trkpt lat="45.31858" lon="6.19726">
        <ele>2518.8000488281</ele>
        <time>2016-03-26T11:44:50.000Z</time>
      </trkpt>
      <trkpt lat="45.31857" lon="6.19727">
        <ele>2519.3999023438</ele>
        <time>2016-03-26T11:44:54.000Z</time>
      </trkpt>
      <trkpt lat="45.31856" lon="6.19727">
        <ele>2519.8000488281</ele>
        <time>2016-03-26T11:44:56.000Z</time>
      </trkpt>
      <trkpt lat="45.31855" lon="6.19727">
        <ele>2520.1999511719</ele>
        <time>2016-03-26T11:44:58.000Z</time>
      </trkpt>
      <trkpt lat="45.31855" lon="6.19727">
        <ele>2520.6000976562</ele>
        <time>2016-03-26T11:45:10.000Z</time>
      </trkpt>
      <trkpt lat="45.31855" lon="6.19727">
        <ele>2520.8000488281</ele>
        <time>2016-03-26T11:45:19.000Z</time>
      </trkpt>
      <trkpt lat="45.31854" lon="6.19725">
        <ele>2521</ele>
        <time>2016-03-26T11:45:21.000Z</time>
      </trkpt>
      <trkpt lat="45.31854" lon="6.19726">
        <ele>2521.8000488281</ele>
        <time>2016-03-26T11:45:27.000Z</time>
      </trkpt>
      <trkpt lat="45.31854" lon="6.19726">
        <ele>2522.1999511719</ele>
        <time>2016-03-26T11:45:28.000Z</time>
      </trkpt>
      <trkpt lat="45.31854" lon="6.19729">
        <ele>2522.6000976562</ele>
        <time>2016-03-26T11:45:33.000Z</time>
      </trkpt>
      <trkpt lat="45.31855" lon="6.1973">
        <ele>2523</ele>
        <time>2016-03-26T11:45:37.000Z</time>
      </trkpt>
      <trkpt lat="45.31856" lon="6.19731">
        <ele>2523.1999511719</ele>
        <time>2016-03-26T11:45:38.000Z</time>
      </trkpt>
      <trkpt lat="45.31857" lon="6.19732">
        <ele>2523.3999023438</ele>
        <time>2016-03-26T11:45:41.000Z</time>
      </trkpt>
      <trkpt lat="45.31857" lon="6.19733">
        <ele>2524</ele>
        <time>2016-03-26T11:45:46.000Z</time>
      </trkpt>
      <trkpt lat="45.31857" lon="6.19734">
        <ele>2524.1999511719</ele>
        <time>2016-03-26T11:45:47.000Z</time>
      </trkpt>
      <trkpt lat="45.31857" lon="6.19736">
        <ele>2524.6000976562</ele>
        <time>2016-03-26T11:45:52.000Z</time>
      </trkpt>
      <trkpt lat="45.31858" lon="6.19736">
        <ele>2525.1999511719</ele>
        <time>2016-03-26T11:45:56.000Z</time>
      </trkpt>
      <trkpt lat="45.31858" lon="6.19736">
        <ele>2526</ele>
        <time>2016-03-26T11:46:00.000Z</time>
      </trkpt>
      <trkpt lat="45.31859" lon="6.19738">
        <ele>2526.3999023438</ele>
        <time>2016-03-26T11:46:06.000Z</time>
      </trkpt>
      <trkpt lat="45.31863" lon="6.19742">
        <ele>2527</ele>
        <time>2016-03-26T11:46:12.000Z</time>
      </trkpt>
      <trkpt lat="45.31864" lon="6.19743">
        <ele>2527.3999023438</ele>
        <time>2016-03-26T11:46:15.000Z</time>
      </trkpt>
      <trkpt lat="45.31864" lon="6.19743">
        <ele>2527.6000976562</ele>
        <time>2016-03-26T11:46:16.000Z</time>
      </trkpt>
      <trkpt lat="45.31866" lon="6.19746">
        <ele>2528.6000976562</ele>
        <time>2016-03-26T11:46:22.000Z</time>
      </trkpt>
      <trkpt lat="45.31868" lon="6.19749">
        <ele>2529</ele>
        <time>2016-03-26T11:46:26.000Z</time>
      </trkpt>
      <trkpt lat="45.31868" lon="6.19749">
        <ele>2529.6000976562</ele>
        <time>2016-03-26T11:46:29.000Z</time>
      </trkpt>
      <trkpt lat="45.31869" lon="6.19751">
        <ele>2530</ele>
        <time>2016-03-26T11:46:36.000Z</time>
      </trkpt>
      <trkpt lat="45.3187" lon="6.19753">
        <ele>2530.3999023438</ele>
        <time>2016-03-26T11:46:41.000Z</time>
      </trkpt>
      <trkpt lat="45.3187" lon="6.19754">
        <ele>2530.8000488281</ele>
        <time>2016-03-26T11:46:42.000Z</time>
      </trkpt>
      <trkpt lat="45.3187" lon="6.19755">
        <ele>2531.6000976562</ele>
        <time>2016-03-26T11:46:45.000Z</time>
      </trkpt>
      <trkpt lat="45.31871" lon="6.19759">
        <ele>2532</ele>
        <time>2016-03-26T11:46:50.000Z</time>
      </trkpt>
      <trkpt lat="45.31872" lon="6.1976">
        <ele>2532.3999023438</ele>
        <time>2016-03-26T11:46:52.000Z</time>
      </trkpt>
      <trkpt lat="45.31872" lon="6.19762">
        <ele>2533</ele>
        <time>2016-03-26T11:46:55.000Z</time>
      </trkpt>
      <trkpt lat="45.31872" lon="6.19762">
        <ele>2533</ele>
        <time>2016-03-26T11:46:56.000Z</time>
      </trkpt>
      <trkpt lat="45.31872" lon="6.19764">
        <ele>2534</ele>
        <time>2016-03-26T11:47:01.000Z</time>
      </trkpt>
      <trkpt lat="45.31873" lon="6.19769">
        <ele>2534.8000488281</ele>
        <time>2016-03-26T11:47:07.000Z</time>
      </trkpt>
      <trkpt lat="45.31873" lon="6.1977">
        <ele>2535.1999511719</ele>
        <time>2016-03-26T11:47:09.000Z</time>
      </trkpt>
      <trkpt lat="45.31874" lon="6.19772">
        <ele>2535.8000488281</ele>
        <time>2016-03-26T11:47:12.000Z</time>
      </trkpt>
      <trkpt lat="45.31875" lon="6.19777">
        <ele>2536.1999511719</ele>
        <time>2016-03-26T11:47:17.000Z</time>
      </trkpt>
      <trkpt lat="45.31875" lon="6.19779">
        <ele>2536.8000488281</ele>
        <time>2016-03-26T11:47:21.000Z</time>
      </trkpt>
      <trkpt lat="45.31875" lon="6.1978">
        <ele>2537.3999023438</ele>
        <time>2016-03-26T11:47:24.000Z</time>
      </trkpt>
      <trkpt lat="45.31876" lon="6.19781">
        <ele>2538</ele>
        <time>2016-03-26T11:47:27.000Z</time>
      </trkpt>
      <trkpt lat="45.31877" lon="6.19784">
        <ele>2538.3999023438</ele>
        <time>2016-03-26T11:47:31.000Z</time>
      </trkpt>
      <trkpt lat="45.31877" lon="6.19784">
        <ele>2538.6000976562</ele>
        <time>2016-03-26T11:47:32.000Z</time>
      </trkpt>
      <trkpt lat="45.31879" lon="6.19786">
        <ele>2539</ele>
        <time>2016-03-26T11:47:37.000Z</time>
      </trkpt>
      <trkpt lat="45.31879" lon="6.19789">
        <ele>2539.6000976562</ele>
        <time>2016-03-26T11:47:41.000Z</time>
      </trkpt>
      <trkpt lat="45.31883" lon="6.19793">
        <ele>2540.1999511719</ele>
        <time>2016-03-26T11:47:47.000Z</time>
      </trkpt>
      <trkpt lat="45.31884" lon="6.19796">
        <ele>2540.8000488281</ele>
        <time>2016-03-26T11:47:50.000Z</time>
      </trkpt>
      <trkpt lat="45.31884" lon="6.19797">
        <ele>2541.3999023438</ele>
        <time>2016-03-26T11:47:53.000Z</time>
      </trkpt>
      <trkpt lat="45.31885" lon="6.19798">
        <ele>2541.8000488281</ele>
        <time>2016-03-26T11:47:59.000Z</time>
      </trkpt>
      <trkpt lat="45.31887" lon="6.19801">
        <ele>2542.3999023438</ele>
        <time>2016-03-26T11:48:05.000Z</time>
      </trkpt>
      <trkpt lat="45.31888" lon="6.19804">
        <ele>2542.6000976562</ele>
        <time>2016-03-26T11:48:09.000Z</time>
      </trkpt>
      <trkpt lat="45.31889" lon="6.19804">
        <ele>2542.8000488281</ele>
        <time>2016-03-26T11:48:10.000Z</time>
      </trkpt>
      <trkpt lat="45.31891" lon="6.19807">
        <ele>2543.6000976562</ele>
        <time>2016-03-26T11:48:14.000Z</time>
      </trkpt>
      <trkpt lat="45.31894" lon="6.19809">
        <ele>2544</ele>
        <time>2016-03-26T11:48:17.000Z</time>
      </trkpt>
      <trkpt lat="45.31895" lon="6.1981">
        <ele>2544.3999023438</ele>
        <time>2016-03-26T11:48:20.000Z</time>
      </trkpt>
      <trkpt lat="45.31896" lon="6.19813">
        <ele>2545</ele>
        <time>2016-03-26T11:48:25.000Z</time>
      </trkpt>
      <trkpt lat="45.31898" lon="6.19816">
        <ele>2545.8000488281</ele>
        <time>2016-03-26T11:48:30.000Z</time>
      </trkpt>
      <trkpt lat="45.31899" lon="6.19817">
        <ele>2546</ele>
        <time>2016-03-26T11:48:32.000Z</time>
      </trkpt>
      <trkpt lat="45.31901" lon="6.19819">
        <ele>2546.6000976562</ele>
        <time>2016-03-26T11:48:36.000Z</time>
      </trkpt>
      <trkpt lat="45.31901" lon="6.1982">
        <ele>2547.1999511719</ele>
        <time>2016-03-26T11:48:43.000Z</time>
      </trkpt>
      <trkpt lat="45.31902" lon="6.1982">
        <ele>2547.6000976562</ele>
        <time>2016-03-26T11:48:44.000Z</time>
      </trkpt>
      <trkpt lat="45.31905" lon="6.19823">
        <ele>2548.1999511719</ele>
        <time>2016-03-26T11:48:51.000Z</time>
      </trkpt>
      <trkpt lat="45.31906" lon="6.19823">
        <ele>2548.3999023438</ele>
        <time>2016-03-26T11:48:53.000Z</time>
      </trkpt>
      <trkpt lat="45.31908" lon="6.19824">
        <ele>2549.3999023438</ele>
        <time>2016-03-26T11:48:58.000Z</time>
      </trkpt>
      <trkpt lat="45.31908" lon="6.19824">
        <ele>2549.6000976562</ele>
        <time>2016-03-26T11:48:59.000Z</time>
      </trkpt>
      <trkpt lat="45.31908" lon="6.19824">
        <ele>2549.8000488281</ele>
        <time>2016-03-26T11:49:06.000Z</time>
      </trkpt>
      <trkpt lat="45.31908" lon="6.19824">
        <ele>2550.6000976562</ele>
        <time>2016-03-26T11:49:11.000Z</time>
      </trkpt>
      <trkpt lat="45.31908" lon="6.19824">
        <ele>2550.3999023438</ele>
        <time>2016-03-26T11:49:16.000Z</time>
      </trkpt>
      <trkpt lat="45.31906" lon="6.19826">
        <ele>2550.3999023438</ele>
        <time>2016-03-26T11:49:22.000Z</time>
      </trkpt>
      <trkpt lat="45.31906" lon="6.19826">
        <ele>2551.1999511719</ele>
        <time>2016-03-26T11:49:35.000Z</time>
      </trkpt>
      <trkpt lat="45.31906" lon="6.19826">
        <ele>2551.1999511719</ele>
        <time>2016-03-26T11:49:54.000Z</time>
      </trkpt>
      <trkpt lat="45.31904" lon="6.19826">
        <ele>2551.1999511719</ele>
        <time>2016-03-26T11:50:00.000Z</time>
      </trkpt>
      <trkpt lat="45.31902" lon="6.19828">
        <ele>2551.8000488281</ele>
        <time>2016-03-26T11:50:03.000Z</time>
      </trkpt>
      <trkpt lat="45.319" lon="6.1983">
        <ele>2552.1999511719</ele>
        <time>2016-03-26T11:50:06.000Z</time>
      </trkpt>
      <trkpt lat="45.31898" lon="6.19832">
        <ele>2552.8000488281</ele>
        <time>2016-03-26T11:50:09.000Z</time>
      </trkpt>
      <trkpt lat="45.31898" lon="6.19832">
        <ele>2553</ele>
        <time>2016-03-26T11:50:10.000Z</time>
      </trkpt>
      <trkpt lat="45.31896" lon="6.19833">
        <ele>2553.8000488281</ele>
        <time>2016-03-26T11:50:14.000Z</time>
      </trkpt>
      <trkpt lat="45.31894" lon="6.19832">
        <ele>2554</ele>
        <time>2016-03-26T11:50:17.000Z</time>
      </trkpt>
      <trkpt lat="45.31894" lon="6.19831">
        <ele>2554.6000976562</ele>
        <time>2016-03-26T11:50:25.000Z</time>
      </trkpt>
      <trkpt lat="45.31892" lon="6.1983">
        <ele>2554.6000976562</ele>
        <time>2016-03-26T11:50:30.000Z</time>
      </trkpt>
      <trkpt lat="45.31892" lon="6.1983">
        <ele>2554.8000488281</ele>
        <time>2016-03-26T11:50:31.000Z</time>
      </trkpt>
      <trkpt lat="45.31892" lon="6.1983">
        <ele>2555.3999023438</ele>
        <time>2016-03-26T11:50:42.000Z</time>
      </trkpt>
      <trkpt lat="45.31892" lon="6.1983">
        <ele>2555.6000976562</ele>
        <time>2016-03-26T11:50:48.000Z</time>
      </trkpt>
      <trkpt lat="45.31892" lon="6.1983">
        <ele>2555.8000488281</ele>
        <time>2016-03-26T11:50:51.000Z</time>
      </trkpt>
      <trkpt lat="45.31891" lon="6.1983">
        <ele>2556</ele>
        <time>2016-03-26T11:50:58.000Z</time>
      </trkpt>
      <trkpt lat="45.31892" lon="6.19833">
        <ele>2556.3999023438</ele>
        <time>2016-03-26T11:51:04.000Z</time>
      </trkpt>
      <trkpt lat="45.31894" lon="6.19834">
        <ele>2556.6000976562</ele>
        <time>2016-03-26T11:51:08.000Z</time>
      </trkpt>
      <trkpt lat="45.31894" lon="6.19835">
        <ele>2557</ele>
        <time>2016-03-26T11:51:09.000Z</time>
      </trkpt>
      <trkpt lat="45.31895" lon="6.19837">
        <ele>2558</ele>
        <time>2016-03-26T11:51:12.000Z</time>
      </trkpt>
      <trkpt lat="45.31896" lon="6.1984">
        <ele>2558.1999511719</ele>
        <time>2016-03-26T11:51:15.000Z</time>
      </trkpt>
      <trkpt lat="45.31899" lon="6.19844">
        <ele>2559</ele>
        <time>2016-03-26T11:51:21.000Z</time>
      </trkpt>
      <trkpt lat="45.31899" lon="6.19845">
        <ele>2559.3999023438</ele>
        <time>2016-03-26T11:51:22.000Z</time>
      </trkpt>
      <trkpt lat="45.31899" lon="6.19846">
        <ele>2560</ele>
        <time>2016-03-26T11:51:28.000Z</time>
      </trkpt>
      <trkpt lat="45.31899" lon="6.19846">
        <ele>2560.3999023438</ele>
        <time>2016-03-26T11:51:32.000Z</time>
      </trkpt>
      <trkpt lat="45.31899" lon="6.19846">
        <ele>2561</ele>
        <time>2016-03-26T11:51:37.000Z</time>
      </trkpt>
      <trkpt lat="45.319" lon="6.19846">
        <ele>2561.1999511719</ele>
        <time>2016-03-26T11:51:42.000Z</time>
      </trkpt>
      <trkpt lat="45.319" lon="6.19847">
        <ele>2561.3999023438</ele>
        <time>2016-03-26T11:51:45.000Z</time>
      </trkpt>
      <trkpt lat="45.31902" lon="6.19849">
        <ele>2562</ele>
        <time>2016-03-26T11:51:48.000Z</time>
      </trkpt>
      <trkpt lat="45.31903" lon="6.19849">
        <ele>2562.3999023438</ele>
        <time>2016-03-26T11:51:50.000Z</time>
      </trkpt>
      <trkpt lat="45.31903" lon="6.19849">
        <ele>2562.6000976562</ele>
        <time>2016-03-26T11:51:51.000Z</time>
      </trkpt>
      <trkpt lat="45.31905" lon="6.19849">
        <ele>2563</ele>
        <time>2016-03-26T11:51:54.000Z</time>
      </trkpt>
      <trkpt lat="45.31905" lon="6.19851">
        <ele>2563.6000976562</ele>
        <time>2016-03-26T11:51:57.000Z</time>
      </trkpt>
      <trkpt lat="45.31906" lon="6.19853">
        <ele>2564</ele>
        <time>2016-03-26T11:51:59.000Z</time>
      </trkpt>
      <trkpt lat="45.31908" lon="6.19855">
        <ele>2564.8000488281</ele>
        <time>2016-03-26T11:52:05.000Z</time>
      </trkpt>
      <trkpt lat="45.31908" lon="6.19856">
        <ele>2565</ele>
        <time>2016-03-26T11:52:06.000Z</time>
      </trkpt>
      <trkpt lat="45.31909" lon="6.19858">
        <ele>2566</ele>
        <time>2016-03-26T11:52:11.000Z</time>
      </trkpt>
      <trkpt lat="45.31909" lon="6.19858">
        <ele>2566.1999511719</ele>
        <time>2016-03-26T11:52:12.000Z</time>
      </trkpt>
      <trkpt lat="45.31911" lon="6.19861">
        <ele>2566.6000976562</ele>
        <time>2016-03-26T11:52:23.000Z</time>
      </trkpt>
      <trkpt lat="45.31914" lon="6.19864">
        <ele>2567.1999511719</ele>
        <time>2016-03-26T11:52:31.000Z</time>
      </trkpt>
      <trkpt lat="45.31917" lon="6.19863">
        <ele>2568.1999511719</ele>
        <time>2016-03-26T11:52:40.000Z</time>
      </trkpt>
      <trkpt lat="45.31922" lon="6.19866">
        <ele>2569.1999511719</ele>
        <time>2016-03-26T11:52:48.000Z</time>
      </trkpt>
      <trkpt lat="45.31922" lon="6.19865">
        <ele>2569.6000976562</ele>
        <time>2016-03-26T11:52:50.000Z</time>
      </trkpt>
      <trkpt lat="45.31923" lon="6.19866">
        <ele>2570.6000976562</ele>
        <time>2016-03-26T11:52:54.000Z</time>
      </trkpt>
      <trkpt lat="45.31923" lon="6.19865">
        <ele>2571.6000976562</ele>
        <time>2016-03-26T11:53:02.000Z</time>
      </trkpt>
      <trkpt lat="45.31923" lon="6.19865">
        <ele>2571.6000976562</ele>
        <time>2016-03-26T11:53:04.000Z</time>
      </trkpt>
      <trkpt lat="45.31923" lon="6.19865">
        <ele>2572</ele>
        <time>2016-03-26T11:53:17.000Z</time>
      </trkpt>
      <trkpt lat="45.31923" lon="6.19865">
        <ele>2572.1999511719</ele>
        <time>2016-03-26T11:53:24.000Z</time>
      </trkpt>
      <trkpt lat="45.31923" lon="6.19865">
        <ele>2573</ele>
        <time>2016-03-26T11:53:29.000Z</time>
      </trkpt>
      <trkpt lat="45.31923" lon="6.19865">
        <ele>2573.6000976562</ele>
        <time>2016-03-26T11:53:32.000Z</time>
      </trkpt>
      <trkpt lat="45.31923" lon="6.19866">
        <ele>2573.8000488281</ele>
        <time>2016-03-26T11:53:39.000Z</time>
      </trkpt>
      <trkpt lat="45.31923" lon="6.19866">
        <ele>2574</ele>
        <time>2016-03-26T11:53:40.000Z</time>
      </trkpt>
      <trkpt lat="45.31923" lon="6.19866">
        <ele>2574.8000488281</ele>
        <time>2016-03-26T11:53:46.000Z</time>
      </trkpt>
      <trkpt lat="45.31923" lon="6.19866">
        <ele>2575</ele>
        <time>2016-03-26T11:53:47.000Z</time>
      </trkpt>
      <trkpt lat="45.31923" lon="6.19866">
        <ele>2576</ele>
        <time>2016-03-26T11:53:57.000Z</time>
      </trkpt>
      <trkpt lat="45.31923" lon="6.19866">
        <ele>2576.1999511719</ele>
        <time>2016-03-26T11:53:58.000Z</time>
      </trkpt>
      <trkpt lat="45.31923" lon="6.19866">
        <ele>2576.8000488281</ele>
        <time>2016-03-26T11:54:08.000Z</time>
      </trkpt>
      <trkpt lat="45.31924" lon="6.19867">
        <ele>2576.6000976562</ele>
        <time>2016-03-26T11:54:18.000Z</time>
      </trkpt>
      <trkpt lat="45.31924" lon="6.19867">
        <ele>2577.1999511719</ele>
        <time>2016-03-26T11:54:27.000Z</time>
      </trkpt>
      <trkpt lat="45.31924" lon="6.19867">
        <ele>2577.8000488281</ele>
        <time>2016-03-26T11:54:29.000Z</time>
      </trkpt>
      <trkpt lat="45.31924" lon="6.19867">
        <ele>2578.1999511719</ele>
        <time>2016-03-26T11:54:32.000Z</time>
      </trkpt>
      <trkpt lat="45.31924" lon="6.19867">
        <ele>2578.8000488281</ele>
        <time>2016-03-26T11:54:37.000Z</time>
      </trkpt>
      <trkpt lat="45.31924" lon="6.19867">
        <ele>2579.3999023438</ele>
        <time>2016-03-26T11:54:40.000Z</time>
      </trkpt>
      <trkpt lat="45.31924" lon="6.19867">
        <ele>2579.8000488281</ele>
        <time>2016-03-26T11:54:44.000Z</time>
      </trkpt>
      <trkpt lat="45.31924" lon="6.19867">
        <ele>2580.3999023438</ele>
        <time>2016-03-26T11:54:48.000Z</time>
      </trkpt>
      <trkpt lat="45.31924" lon="6.19867">
        <ele>2580.6000976562</ele>
        <time>2016-03-26T11:55:00.000Z</time>
      </trkpt>
      <trkpt lat="45.31924" lon="6.19867">
        <ele>2581</ele>
        <time>2016-03-26T11:55:06.000Z</time>
      </trkpt>
      <trkpt lat="45.31924" lon="6.19867">
        <ele>2581.3999023438</ele>
        <time>2016-03-26T11:55:08.000Z</time>
      </trkpt>
      <trkpt lat="45.31924" lon="6.19867">
        <ele>2582.1999511719</ele>
        <time>2016-03-26T11:55:12.000Z</time>
      </trkpt>
      <trkpt lat="45.31924" lon="6.19867">
        <ele>2582.6000976562</ele>
        <time>2016-03-26T11:55:14.000Z</time>
      </trkpt>
      <trkpt lat="45.31924" lon="6.19867">
        <ele>2583.6000976562</ele>
        <time>2016-03-26T11:55:18.000Z</time>
      </trkpt>
      <trkpt lat="45.31924" lon="6.19867">
        <ele>2583.6000976562</ele>
        <time>2016-03-26T11:55:19.000Z</time>
      </trkpt>
      <trkpt lat="45.31924" lon="6.19867">
        <ele>2583.1999511719</ele>
        <time>2016-03-26T11:55:24.000Z</time>
      </trkpt>
      <trkpt lat="45.31924" lon="6.19868">
        <ele>2583.8000488281</ele>
        <time>2016-03-26T11:55:36.000Z</time>
      </trkpt>
      <trkpt lat="45.31924" lon="6.19868">
        <ele>2584.6000976562</ele>
        <time>2016-03-26T11:55:40.000Z</time>
      </trkpt>
      <trkpt lat="45.31924" lon="6.19868">
        <ele>2584.1999511719</ele>
        <time>2016-03-26T11:55:47.000Z</time>
      </trkpt>
      <trkpt lat="45.31924" lon="6.19868">
        <ele>2585</ele>
        <time>2016-03-26T11:55:57.000Z</time>
      </trkpt>
      <trkpt lat="45.31924" lon="6.19868">
        <ele>2585.8000488281</ele>
        <time>2016-03-26T11:56:00.000Z</time>
      </trkpt>
      <trkpt lat="45.31924" lon="6.19868">
        <ele>2586.1999511719</ele>
        <time>2016-03-26T11:56:03.000Z</time>
      </trkpt>
      <trkpt lat="45.31924" lon="6.19868">
        <ele>2586.8000488281</ele>
        <time>2016-03-26T11:56:06.000Z</time>
      </trkpt>
      <trkpt lat="45.31924" lon="6.19868">
        <ele>2587</ele>
        <time>2016-03-26T11:56:09.000Z</time>
      </trkpt>
      <trkpt lat="45.31924" lon="6.19868">
        <ele>2587.3999023438</ele>
        <time>2016-03-26T11:56:17.000Z</time>
      </trkpt>
      <trkpt lat="45.31924" lon="6.19868">
        <ele>2587.8000488281</ele>
        <time>2016-03-26T11:56:19.000Z</time>
      </trkpt>
      <trkpt lat="45.31924" lon="6.19868">
        <ele>2588.8000488281</ele>
        <time>2016-03-26T11:56:23.000Z</time>
      </trkpt>
      <trkpt lat="45.31924" lon="6.19868">
        <ele>2590</ele>
        <time>2016-03-26T11:56:30.000Z</time>
      </trkpt>
      <trkpt lat="45.31924" lon="6.19868">
        <ele>2590.8000488281</ele>
        <time>2016-03-26T11:56:37.000Z</time>
      </trkpt>
      <trkpt lat="45.31924" lon="6.19868">
        <ele>2591</ele>
        <time>2016-03-26T11:56:38.000Z</time>
      </trkpt>
      <trkpt lat="45.31924" lon="6.19868">
        <ele>2591.6000976562</ele>
        <time>2016-03-26T11:56:46.000Z</time>
      </trkpt>
      <trkpt lat="45.31924" lon="6.19868">
        <ele>2592.1999511719</ele>
        <time>2016-03-26T11:56:50.000Z</time>
      </trkpt>
      <trkpt lat="45.31924" lon="6.19868">
        <ele>2592.6000976562</ele>
        <time>2016-03-26T11:56:52.000Z</time>
      </trkpt>
      <trkpt lat="45.31923" lon="6.19868">
        <ele>2592.3999023438</ele>
        <time>2016-03-26T11:57:12.000Z</time>
      </trkpt>
      <trkpt lat="45.31923" lon="6.19868">
        <ele>2592.3999023438</ele>
        <time>2016-03-26T11:57:21.000Z</time>
      </trkpt>
      <trkpt lat="45.31923" lon="6.19872">
        <ele>2593.3999023438</ele>
        <time>2016-03-26T11:57:25.000Z</time>
      </trkpt>
      <trkpt lat="45.31923" lon="6.19873">
        <ele>2594.1999511719</ele>
        <time>2016-03-26T11:57:28.000Z</time>
      </trkpt>
      <trkpt lat="45.31923" lon="6.19873">
        <ele>2594.6000976562</ele>
        <time>2016-03-26T11:57:35.000Z</time>
      </trkpt>
      <trkpt lat="45.31923" lon="6.19873">
        <ele>2594.6000976562</ele>
        <time>2016-03-26T11:57:47.000Z</time>
      </trkpt>
      <trkpt lat="45.31923" lon="6.19874">
        <ele>2594.8000488281</ele>
        <time>2016-03-26T11:58:09.000Z</time>
      </trkpt>
      <trkpt lat="45.31922" lon="6.1988">
        <ele>2595</ele>
        <time>2016-03-26T11:58:19.000Z</time>
      </trkpt>
      <trkpt lat="45.31922" lon="6.1988">
        <ele>2594.8000488281</ele>
        <time>2016-03-26T11:58:33.000Z</time>
      </trkpt>
      <trkpt lat="45.31922" lon="6.1988">
        <ele>2594.6000976562</ele>
        <time>2016-03-26T11:58:50.000Z</time>
      </trkpt>
      <trkpt lat="45.31921" lon="6.19882">
        <ele>2594.6000976562</ele>
        <time>2016-03-26T11:59:03.000Z</time>
      </trkpt>
      <trkpt lat="45.31921" lon="6.19882">
        <ele>2594.6000976562</ele>
        <time>2016-03-26T11:59:14.000Z</time>
      </trkpt>
      <trkpt lat="45.31921" lon="6.19882">
        <ele>2594.3999023438</ele>
        <time>2016-03-26T11:59:24.000Z</time>
      </trkpt>
      <trkpt lat="45.31921" lon="6.19882">
        <ele>2594.6000976562</ele>
        <time>2016-03-26T11:59:36.000Z</time>
      </trkpt>
      <trkpt lat="45.3192" lon="6.19882">
        <ele>2593.8000488281</ele>
        <time>2016-03-26T11:59:49.000Z</time>
      </trkpt>
      <trkpt lat="45.3192" lon="6.19882">
        <ele>2594.3999023438</ele>
        <time>2016-03-26T12:00:02.000Z</time>
      </trkpt>
      <trkpt lat="45.31918" lon="6.19882">
        <ele>2594</ele>
        <time>2016-03-26T12:00:19.000Z</time>
      </trkpt>
      <trkpt lat="45.31918" lon="6.19882">
        <ele>2593.6000976562</ele>
        <time>2016-03-26T12:00:32.000Z</time>
      </trkpt>
      <trkpt lat="45.31918" lon="6.19882">
        <ele>2593.8000488281</ele>
        <time>2016-03-26T12:00:43.000Z</time>
      </trkpt>
      <trkpt lat="45.31918" lon="6.19882">
        <ele>2593.1999511719</ele>
        <time>2016-03-26T12:00:50.000Z</time>
      </trkpt>
      <trkpt lat="45.31918" lon="6.19882">
        <ele>2592.1999511719</ele>
        <time>2016-03-26T12:00:53.000Z</time>
      </trkpt>
      <trkpt lat="45.31918" lon="6.19882">
        <ele>2592.1999511719</ele>
        <time>2016-03-26T12:00:54.000Z</time>
      </trkpt>
      <trkpt lat="45.31918" lon="6.19882">
        <ele>2593.6000976562</ele>
        <time>2016-03-26T12:00:56.000Z</time>
      </trkpt>
      <trkpt lat="45.31918" lon="6.19883">
        <ele>2593.6000976562</ele>
        <time>2016-03-26T12:01:08.000Z</time>
      </trkpt>
      <trkpt lat="45.31918" lon="6.19883">
        <ele>2593.8000488281</ele>
        <time>2016-03-26T12:01:24.000Z</time>
      </trkpt>
      <trkpt lat="45.31918" lon="6.19883">
        <ele>2594.8000488281</ele>
        <time>2016-03-26T12:01:33.000Z</time>
      </trkpt>
      <trkpt lat="45.31918" lon="6.19883">
        <ele>2595</ele>
        <time>2016-03-26T12:01:36.000Z</time>
      </trkpt>
      <trkpt lat="45.31917" lon="6.19883">
        <ele>2593.8000488281</ele>
        <time>2016-03-26T12:01:44.000Z</time>
      </trkpt>
      <trkpt lat="45.31917" lon="6.19883">
        <ele>2593.8000488281</ele>
        <time>2016-03-26T12:01:52.000Z</time>
      </trkpt>
      <trkpt lat="45.31917" lon="6.19883">
        <ele>2593.6000976562</ele>
        <time>2016-03-26T12:02:07.000Z</time>
      </trkpt>
      <trkpt lat="45.31918" lon="6.19883">
        <ele>2593.8000488281</ele>
        <time>2016-03-26T12:02:20.000Z</time>
      </trkpt>
      <trkpt lat="45.31918" lon="6.19883">
        <ele>2593.6000976562</ele>
        <time>2016-03-26T12:02:24.000Z</time>
      </trkpt>
      <trkpt lat="45.31918" lon="6.19883">
        <ele>2593.6000976562</ele>
        <time>2016-03-26T12:02:33.000Z</time>
      </trkpt>
      <trkpt lat="45.31918" lon="6.19883">
        <ele>2593.8000488281</ele>
        <time>2016-03-26T12:02:48.000Z</time>
      </trkpt>
      <trkpt lat="45.31918" lon="6.19883">
        <ele>2592.6000976562</ele>
        <time>2016-03-26T12:02:58.000Z</time>
      </trkpt>
      <trkpt lat="45.31917" lon="6.19883">
        <ele>2593.6000976562</ele>
        <time>2016-03-26T12:03:07.000Z</time>
      </trkpt>
      <trkpt lat="45.31917" lon="6.19883">
        <ele>2593.1999511719</ele>
        <time>2016-03-26T12:03:13.000Z</time>
      </trkpt>
      <trkpt lat="45.31917" lon="6.19883">
        <ele>2594.8000488281</ele>
        <time>2016-03-26T12:03:21.000Z</time>
      </trkpt>
      <trkpt lat="45.31917" lon="6.19883">
        <ele>2593.8000488281</ele>
        <time>2016-03-26T12:03:28.000Z</time>
      </trkpt>
      <trkpt lat="45.31917" lon="6.19883">
        <ele>2593.3999023438</ele>
        <time>2016-03-26T12:03:31.000Z</time>
      </trkpt>
      <trkpt lat="45.31917" lon="6.19883">
        <ele>2593.3999023438</ele>
        <time>2016-03-26T12:03:42.000Z</time>
      </trkpt>
      <trkpt lat="45.31917" lon="6.19883">
        <ele>2593.3999023438</ele>
        <time>2016-03-26T12:03:56.000Z</time>
      </trkpt>
      <trkpt lat="45.31917" lon="6.19883">
        <ele>2593.6000976562</ele>
        <time>2016-03-26T12:04:16.000Z</time>
      </trkpt>
      <trkpt lat="45.31917" lon="6.19883">
        <ele>2593.6000976562</ele>
        <time>2016-03-26T12:04:31.000Z</time>
      </trkpt>
      <trkpt lat="45.31917" lon="6.19883">
        <ele>2593.1999511719</ele>
        <time>2016-03-26T12:04:50.000Z</time>
      </trkpt>
      <trkpt lat="45.31917" lon="6.19884">
        <ele>2593.3999023438</ele>
        <time>2016-03-26T12:05:10.000Z</time>
      </trkpt>
      <trkpt lat="45.31917" lon="6.19884">
        <ele>2593.3999023438</ele>
        <time>2016-03-26T12:05:24.000Z</time>
      </trkpt>
      <trkpt lat="45.31917" lon="6.19884">
        <ele>2593.1999511719</ele>
        <time>2016-03-26T12:05:45.000Z</time>
      </trkpt>
      <trkpt lat="45.31917" lon="6.19884">
        <ele>2593.3999023438</ele>
        <time>2016-03-26T12:05:58.000Z</time>
      </trkpt>
      <trkpt lat="45.31917" lon="6.19884">
        <ele>2593.1999511719</ele>
        <time>2016-03-26T12:06:01.000Z</time>
      </trkpt>
      <trkpt lat="45.31917" lon="6.19884">
        <ele>2593.1999511719</ele>
        <time>2016-03-26T12:06:19.000Z</time>
      </trkpt>
      <trkpt lat="45.31917" lon="6.19884">
        <ele>2593.1999511719</ele>
        <time>2016-03-26T12:06:36.000Z</time>
      </trkpt>
      <trkpt lat="45.31917" lon="6.19884">
        <ele>2593.3999023438</ele>
        <time>2016-03-26T12:06:58.000Z</time>
      </trkpt>
      <trkpt lat="45.31917" lon="6.19885">
        <ele>2593.3999023438</ele>
        <time>2016-03-26T12:07:20.000Z</time>
      </trkpt>
      <trkpt lat="45.31917" lon="6.19885">
        <ele>2593.3999023438</ele>
        <time>2016-03-26T12:07:33.000Z</time>
      </trkpt>
      <trkpt lat="45.31916" lon="6.19886">
        <ele>2594</ele>
        <time>2016-03-26T12:07:44.000Z</time>
      </trkpt>
      <trkpt lat="45.31916" lon="6.19886">
        <ele>2593.1999511719</ele>
        <time>2016-03-26T12:08:00.000Z</time>
      </trkpt>
      <trkpt lat="45.31914" lon="6.19886">
        <ele>2593.1999511719</ele>
        <time>2016-03-26T12:08:21.000Z</time>
      </trkpt>
      <trkpt lat="45.31914" lon="6.19886">
        <ele>2593</ele>
        <time>2016-03-26T12:08:40.000Z</time>
      </trkpt>
      <trkpt lat="45.31914" lon="6.19886">
        <ele>2592.3999023438</ele>
        <time>2016-03-26T12:08:54.000Z</time>
      </trkpt>
      <trkpt lat="45.31914" lon="6.19886">
        <ele>2592.8000488281</ele>
        <time>2016-03-26T12:09:02.000Z</time>
      </trkpt>
      <trkpt lat="45.31914" lon="6.19886">
        <ele>2592.8000488281</ele>
        <time>2016-03-26T12:09:17.000Z</time>
      </trkpt>
      <trkpt lat="45.31914" lon="6.19886">
        <ele>2593</ele>
        <time>2016-03-26T12:09:29.000Z</time>
      </trkpt>
      <trkpt lat="45.31913" lon="6.19887">
        <ele>2593.3999023438</ele>
        <time>2016-03-26T12:09:42.000Z</time>
      </trkpt>
      <trkpt lat="45.31913" lon="6.19887">
        <ele>2593</ele>
        <time>2016-03-26T12:09:51.000Z</time>
      </trkpt>
      <trkpt lat="45.31913" lon="6.19887">
        <ele>2592.8000488281</ele>
        <time>2016-03-26T12:10:12.000Z</time>
      </trkpt>
      <trkpt lat="45.31913" lon="6.19887">
        <ele>2592.1999511719</ele>
        <time>2016-03-26T12:10:20.000Z</time>
      </trkpt>
      <trkpt lat="45.31913" lon="6.19887">
        <ele>2592.6000976562</ele>
        <time>2016-03-26T12:10:28.000Z</time>
      </trkpt>
      <trkpt lat="45.31913" lon="6.19887">
        <ele>2592.8000488281</ele>
        <time>2016-03-26T12:10:42.000Z</time>
      </trkpt>
      <trkpt lat="45.31913" lon="6.19887">
        <ele>2592.6000976562</ele>
        <time>2016-03-26T12:10:58.000Z</time>
      </trkpt>
      <trkpt lat="45.31912" lon="6.19887">
        <ele>2592.8000488281</ele>
        <time>2016-03-26T12:11:10.000Z</time>
      </trkpt>
      <trkpt lat="45.31912" lon="6.19887">
        <ele>2592.6000976562</ele>
        <time>2016-03-26T12:11:18.000Z</time>
      </trkpt>
      <trkpt lat="45.31912" lon="6.19887">
        <ele>2592.6000976562</ele>
        <time>2016-03-26T12:11:31.000Z</time>
      </trkpt>
      <trkpt lat="45.31912" lon="6.19887">
        <ele>2592.3999023438</ele>
        <time>2016-03-26T12:11:44.000Z</time>
      </trkpt>
      <trkpt lat="45.31912" lon="6.19887">
        <ele>2592.6000976562</ele>
        <time>2016-03-26T12:11:56.000Z</time>
      </trkpt>
      <trkpt lat="45.31912" lon="6.19887">
        <ele>2592.6000976562</ele>
        <time>2016-03-26T12:12:12.000Z</time>
      </trkpt>
      <trkpt lat="45.31912" lon="6.19886">
        <ele>2592.6000976562</ele>
        <time>2016-03-26T12:12:31.000Z</time>
      </trkpt>
      <trkpt lat="45.31912" lon="6.19886">
        <ele>2592.6000976562</ele>
        <time>2016-03-26T12:12:47.000Z</time>
      </trkpt>
      <trkpt lat="45.31912" lon="6.19886">
        <ele>2592.6000976562</ele>
        <time>2016-03-26T12:12:54.000Z</time>
      </trkpt>
      <trkpt lat="45.3191" lon="6.19886">
        <ele>2592.3999023438</ele>
        <time>2016-03-26T12:13:05.000Z</time>
      </trkpt>
      <trkpt lat="45.31908" lon="6.19883">
        <ele>2592.3999023438</ele>
        <time>2016-03-26T12:13:10.000Z</time>
      </trkpt>
      <trkpt lat="45.31907" lon="6.19881">
        <ele>2592.1999511719</ele>
        <time>2016-03-26T12:13:11.000Z</time>
      </trkpt>
      <trkpt lat="45.31904" lon="6.19879">
        <ele>2591.3999023438</ele>
        <time>2016-03-26T12:13:15.000Z</time>
      </trkpt>
      <trkpt lat="45.31904" lon="6.19879">
        <ele>2591</ele>
        <time>2016-03-26T12:13:16.000Z</time>
      </trkpt>
      <trkpt lat="45.31904" lon="6.19879">
        <ele>2590.3999023438</ele>
        <time>2016-03-26T12:13:28.000Z</time>
      </trkpt>
      <trkpt lat="45.31906" lon="6.19884">
        <ele>2590.1999511719</ele>
        <time>2016-03-26T12:13:36.000Z</time>
      </trkpt>
      <trkpt lat="45.31908" lon="6.19886">
        <ele>2590</ele>
        <time>2016-03-26T12:13:39.000Z</time>
      </trkpt>
      <trkpt lat="45.31909" lon="6.19888">
        <ele>2589.1999511719</ele>
        <time>2016-03-26T12:13:43.000Z</time>
      </trkpt>
      <trkpt lat="45.31912" lon="6.19887">
        <ele>2589.6000976562</ele>
        <time>2016-03-26T12:13:47.000Z</time>
      </trkpt>
      <trkpt lat="45.31916" lon="6.19889">
        <ele>2589.6000976562</ele>
        <time>2016-03-26T12:13:48.000Z</time>
      </trkpt>
      <trkpt lat="45.3192" lon="6.1989">
        <ele>2588.8000488281</ele>
        <time>2016-03-26T12:13:49.000Z</time>
      </trkpt>
      <trkpt lat="45.31921" lon="6.19891">
        <ele>2587.8000488281</ele>
        <time>2016-03-26T12:13:50.000Z</time>
      </trkpt>
      <trkpt lat="45.31921" lon="6.1989">
        <ele>2586.3999023438</ele>
        <time>2016-03-26T12:13:52.000Z</time>
      </trkpt>
      <trkpt lat="45.31921" lon="6.1989">
        <ele>2585.1999511719</ele>
        <time>2016-03-26T12:13:55.000Z</time>
      </trkpt>
      <trkpt lat="45.31922" lon="6.19887">
        <ele>2585</ele>
        <time>2016-03-26T12:13:56.000Z</time>
      </trkpt>
      <trkpt lat="45.31921" lon="6.19884">
        <ele>2584.8000488281</ele>
        <time>2016-03-26T12:13:57.000Z</time>
      </trkpt>
      <trkpt lat="45.31918" lon="6.19876">
        <ele>2584</ele>
        <time>2016-03-26T12:14:00.000Z</time>
      </trkpt>
      <trkpt lat="45.31918" lon="6.19874">
        <ele>2582.8000488281</ele>
        <time>2016-03-26T12:14:01.000Z</time>
      </trkpt>
      <trkpt lat="45.3192" lon="6.19875">
        <ele>2581.1999511719</ele>
        <time>2016-03-26T12:14:02.000Z</time>
      </trkpt>
      <trkpt lat="45.31921" lon="6.19876">
        <ele>2579.8000488281</ele>
        <time>2016-03-26T12:14:03.000Z</time>
      </trkpt>
      <trkpt lat="45.31924" lon="6.19877">
        <ele>2578.3999023438</ele>
        <time>2016-03-26T12:14:04.000Z</time>
      </trkpt>
      <trkpt lat="45.31925" lon="6.19875">
        <ele>2577.3999023438</ele>
        <time>2016-03-26T12:14:05.000Z</time>
      </trkpt>
      <trkpt lat="45.31925" lon="6.19871">
        <ele>2576</ele>
        <time>2016-03-26T12:14:07.000Z</time>
      </trkpt>
      <trkpt lat="45.31925" lon="6.1987">
        <ele>2574.8000488281</ele>
        <time>2016-03-26T12:14:09.000Z</time>
      </trkpt>
      <trkpt lat="45.31925" lon="6.19869">
        <ele>2573.8000488281</ele>
        <time>2016-03-26T12:14:10.000Z</time>
      </trkpt>
      <trkpt lat="45.31925" lon="6.19868">
        <ele>2572.3999023438</ele>
        <time>2016-03-26T12:14:11.000Z</time>
      </trkpt>
      <trkpt lat="45.31925" lon="6.19868">
        <ele>2571.3999023438</ele>
        <time>2016-03-26T12:14:12.000Z</time>
      </trkpt>
      <trkpt lat="45.31925" lon="6.19868">
        <ele>2570.3999023438</ele>
        <time>2016-03-26T12:14:13.000Z</time>
      </trkpt>
      <trkpt lat="45.31925" lon="6.19868">
        <ele>2570.1999511719</ele>
        <time>2016-03-26T12:14:14.000Z</time>
      </trkpt>
      <trkpt lat="45.31925" lon="6.19868">
        <ele>2570.1999511719</ele>
        <time>2016-03-26T12:14:26.000Z</time>
      </trkpt>
      <trkpt lat="45.31925" lon="6.19868">
        <ele>2570</ele>
        <time>2016-03-26T12:14:40.000Z</time>
      </trkpt>
      <trkpt lat="45.31925" lon="6.19868">
        <ele>2570</ele>
        <time>2016-03-26T12:14:55.000Z</time>
      </trkpt>
      <trkpt lat="45.31924" lon="6.19866">
        <ele>2569.8000488281</ele>
        <time>2016-03-26T12:15:11.000Z</time>
      </trkpt>
      <trkpt lat="45.31923" lon="6.19864">
        <ele>2569.6000976562</ele>
        <time>2016-03-26T12:15:19.000Z</time>
      </trkpt>
      <trkpt lat="45.31923" lon="6.19864">
        <ele>2569.6000976562</ele>
        <time>2016-03-26T12:15:32.000Z</time>
      </trkpt>
      <trkpt lat="45.31923" lon="6.19864">
        <ele>2569.3999023438</ele>
        <time>2016-03-26T12:15:50.000Z</time>
      </trkpt>
      <trkpt lat="45.3192" lon="6.19863">
        <ele>2569.3999023438</ele>
        <time>2016-03-26T12:15:54.000Z</time>
      </trkpt>
      <trkpt lat="45.31917" lon="6.19862">
        <ele>2569.1999511719</ele>
        <time>2016-03-26T12:15:55.000Z</time>
      </trkpt>
      <trkpt lat="45.31915" lon="6.19861">
        <ele>2569.1999511719</ele>
        <time>2016-03-26T12:15:56.000Z</time>
      </trkpt>
      <trkpt lat="45.31907" lon="6.19857">
        <ele>2567.6000976562</ele>
        <time>2016-03-26T12:15:59.000Z</time>
      </trkpt>
      <trkpt lat="45.31902" lon="6.19853">
        <ele>2566.1999511719</ele>
        <time>2016-03-26T12:16:01.000Z</time>
      </trkpt>
      <trkpt lat="45.319" lon="6.19851">
        <ele>2565.6000976562</ele>
        <time>2016-03-26T12:16:02.000Z</time>
      </trkpt>
      <trkpt lat="45.31899" lon="6.19848">
        <ele>2565</ele>
        <time>2016-03-26T12:16:03.000Z</time>
      </trkpt>
      <trkpt lat="45.31897" lon="6.19846">
        <ele>2563.8000488281</ele>
        <time>2016-03-26T12:16:05.000Z</time>
      </trkpt>
      <trkpt lat="45.31897" lon="6.19845">
        <ele>2562.8000488281</ele>
        <time>2016-03-26T12:16:07.000Z</time>
      </trkpt>
      <trkpt lat="45.31897" lon="6.19845">
        <ele>2561.6000976562</ele>
        <time>2016-03-26T12:16:11.000Z</time>
      </trkpt>
      <trkpt lat="45.31899" lon="6.19843">
        <ele>2561</ele>
        <time>2016-03-26T12:16:13.000Z</time>
      </trkpt>
      <trkpt lat="45.319" lon="6.19842">
        <ele>2560.8000488281</ele>
        <time>2016-03-26T12:16:14.000Z</time>
      </trkpt>
      <trkpt lat="45.31901" lon="6.1984">
        <ele>2560.6000976562</ele>
        <time>2016-03-26T12:16:15.000Z</time>
      </trkpt>
      <trkpt lat="45.31902" lon="6.19839">
        <ele>2559.3999023438</ele>
        <time>2016-03-26T12:16:18.000Z</time>
      </trkpt>
      <trkpt lat="45.31902" lon="6.19839">
        <ele>2559</ele>
        <time>2016-03-26T12:16:21.000Z</time>
      </trkpt>
      <trkpt lat="45.31902" lon="6.19839">
        <ele>2558.6000976562</ele>
        <time>2016-03-26T12:16:41.000Z</time>
      </trkpt>
      <trkpt lat="45.31908" lon="6.19835">
        <ele>2558.3999023438</ele>
        <time>2016-03-26T12:16:44.000Z</time>
      </trkpt>
      <trkpt lat="45.31909" lon="6.19834">
        <ele>2558.1999511719</ele>
        <time>2016-03-26T12:16:45.000Z</time>
      </trkpt>
      <trkpt lat="45.31911" lon="6.1983">
        <ele>2557.6000976562</ele>
        <time>2016-03-26T12:16:46.000Z</time>
      </trkpt>
      <trkpt lat="45.31909" lon="6.19827">
        <ele>2557.1999511719</ele>
        <time>2016-03-26T12:16:47.000Z</time>
      </trkpt>
      <trkpt lat="45.31906" lon="6.19824">
        <ele>2556.8000488281</ele>
        <time>2016-03-26T12:16:48.000Z</time>
      </trkpt>
      <trkpt lat="45.31903" lon="6.1982">
        <ele>2556.1999511719</ele>
        <time>2016-03-26T12:16:49.000Z</time>
      </trkpt>
      <trkpt lat="45.319" lon="6.19816">
        <ele>2555</ele>
        <time>2016-03-26T12:16:50.000Z</time>
      </trkpt>
      <trkpt lat="45.31898" lon="6.19813">
        <ele>2553.3999023438</ele>
        <time>2016-03-26T12:16:51.000Z</time>
      </trkpt>
      <trkpt lat="45.31897" lon="6.19812">
        <ele>2551.6000976562</ele>
        <time>2016-03-26T12:16:52.000Z</time>
      </trkpt>
      <trkpt lat="45.31896" lon="6.1981">
        <ele>2550</ele>
        <time>2016-03-26T12:16:53.000Z</time>
      </trkpt>
      <trkpt lat="45.31895" lon="6.19809">
        <ele>2548.8000488281</ele>
        <time>2016-03-26T12:16:54.000Z</time>
      </trkpt>
      <trkpt lat="45.31897" lon="6.1981">
        <ele>2547</ele>
        <time>2016-03-26T12:16:56.000Z</time>
      </trkpt>
      <trkpt lat="45.31899" lon="6.1981">
        <ele>2546.3999023438</ele>
        <time>2016-03-26T12:16:57.000Z</time>
      </trkpt>
      <trkpt lat="45.31899" lon="6.19808">
        <ele>2545.8000488281</ele>
        <time>2016-03-26T12:16:58.000Z</time>
      </trkpt>
      <trkpt lat="45.31898" lon="6.19804">
        <ele>2544.6000976562</ele>
        <time>2016-03-26T12:17:00.000Z</time>
      </trkpt>
      <trkpt lat="45.319" lon="6.19799">
        <ele>2541.3999023438</ele>
        <time>2016-03-26T12:17:02.000Z</time>
      </trkpt>
      <trkpt lat="45.31902" lon="6.19797">
        <ele>2540</ele>
        <time>2016-03-26T12:17:03.000Z</time>
      </trkpt>
      <trkpt lat="45.31904" lon="6.19794">
        <ele>2538.6000976562</ele>
        <time>2016-03-26T12:17:04.000Z</time>
      </trkpt>
      <trkpt lat="45.31903" lon="6.19789">
        <ele>2536.8000488281</ele>
        <time>2016-03-26T12:17:06.000Z</time>
      </trkpt>
      <trkpt lat="45.31902" lon="6.19786">
        <ele>2535.3999023438</ele>
        <time>2016-03-26T12:17:07.000Z</time>
      </trkpt>
      <trkpt lat="45.319" lon="6.19783">
        <ele>2533.8000488281</ele>
        <time>2016-03-26T12:17:08.000Z</time>
      </trkpt>
      <trkpt lat="45.31899" lon="6.19781">
        <ele>2531.8000488281</ele>
        <time>2016-03-26T12:17:09.000Z</time>
      </trkpt>
      <trkpt lat="45.31898" lon="6.19778">
        <ele>2530.1999511719</ele>
        <time>2016-03-26T12:17:10.000Z</time>
      </trkpt>
      <trkpt lat="45.31898" lon="6.19776">
        <ele>2529</ele>
        <time>2016-03-26T12:17:11.000Z</time>
      </trkpt>
      <trkpt lat="45.31898" lon="6.19775">
        <ele>2528</ele>
        <time>2016-03-26T12:17:12.000Z</time>
      </trkpt>
      <trkpt lat="45.31899" lon="6.19777">
        <ele>2527.3999023438</ele>
        <time>2016-03-26T12:17:13.000Z</time>
      </trkpt>
      <trkpt lat="45.31899" lon="6.19775">
        <ele>2526.3999023438</ele>
        <time>2016-03-26T12:17:20.000Z</time>
      </trkpt>
      <trkpt lat="45.31901" lon="6.19772">
        <ele>2526.1999511719</ele>
        <time>2016-03-26T12:17:31.000Z</time>
      </trkpt>
      <trkpt lat="45.31903" lon="6.19771">
        <ele>2525.8000488281</ele>
        <time>2016-03-26T12:17:32.000Z</time>
      </trkpt>
      <trkpt lat="45.31904" lon="6.19767">
        <ele>2524.8000488281</ele>
        <time>2016-03-26T12:17:34.000Z</time>
      </trkpt>
      <trkpt lat="45.31905" lon="6.19764">
        <ele>2523</ele>
        <time>2016-03-26T12:17:36.000Z</time>
      </trkpt>
      <trkpt lat="45.31905" lon="6.19762">
        <ele>2521.1999511719</ele>
        <time>2016-03-26T12:17:37.000Z</time>
      </trkpt>
      <trkpt lat="45.31904" lon="6.19761">
        <ele>2519.3999023438</ele>
        <time>2016-03-26T12:17:38.000Z</time>
      </trkpt>
      <trkpt lat="45.31904" lon="6.19761">
        <ele>2518</ele>
        <time>2016-03-26T12:17:39.000Z</time>
      </trkpt>
      <trkpt lat="45.31904" lon="6.19762">
        <ele>2516.6000976562</ele>
        <time>2016-03-26T12:17:41.000Z</time>
      </trkpt>
      <trkpt lat="45.31904" lon="6.19762">
        <ele>2516</ele>
        <time>2016-03-26T12:17:47.000Z</time>
      </trkpt>
      <trkpt lat="45.31905" lon="6.19762">
        <ele>2515.3999023438</ele>
        <time>2016-03-26T12:17:49.000Z</time>
      </trkpt>
      <trkpt lat="45.31906" lon="6.19762">
        <ele>2515</ele>
        <time>2016-03-26T12:17:57.000Z</time>
      </trkpt>
      <trkpt lat="45.31906" lon="6.19762">
        <ele>2514.8000488281</ele>
        <time>2016-03-26T12:18:12.000Z</time>
      </trkpt>
      <trkpt lat="45.31906" lon="6.19762">
        <ele>2515.3999023438</ele>
        <time>2016-03-26T12:18:29.000Z</time>
      </trkpt>
      <trkpt lat="45.31911" lon="6.19763">
        <ele>2514.3999023438</ele>
        <time>2016-03-26T12:18:38.000Z</time>
      </trkpt>
      <trkpt lat="45.31912" lon="6.19761">
        <ele>2514.1999511719</ele>
        <time>2016-03-26T12:18:39.000Z</time>
      </trkpt>
      <trkpt lat="45.3191" lon="6.1975">
        <ele>2513</ele>
        <time>2016-03-26T12:18:42.000Z</time>
      </trkpt>
      <trkpt lat="45.31912" lon="6.19747">
        <ele>2511.3999023438</ele>
        <time>2016-03-26T12:18:43.000Z</time>
      </trkpt>
      <trkpt lat="45.31915" lon="6.19745">
        <ele>2509.6000976562</ele>
        <time>2016-03-26T12:18:44.000Z</time>
      </trkpt>
      <trkpt lat="45.31917" lon="6.19742">
        <ele>2508</ele>
        <time>2016-03-26T12:18:45.000Z</time>
      </trkpt>
      <trkpt lat="45.31917" lon="6.19739">
        <ele>2506.8000488281</ele>
        <time>2016-03-26T12:18:46.000Z</time>
      </trkpt>
      <trkpt lat="45.31916" lon="6.19735">
        <ele>2504.6000976562</ele>
        <time>2016-03-26T12:18:48.000Z</time>
      </trkpt>
      <trkpt lat="45.31915" lon="6.19732">
        <ele>2503</ele>
        <time>2016-03-26T12:18:49.000Z</time>
      </trkpt>
      <trkpt lat="45.31918" lon="6.19731">
        <ele>2501.1999511719</ele>
        <time>2016-03-26T12:18:50.000Z</time>
      </trkpt>
      <trkpt lat="45.3192" lon="6.1973">
        <ele>2499.3999023438</ele>
        <time>2016-03-26T12:18:51.000Z</time>
      </trkpt>
      <trkpt lat="45.3192" lon="6.19728">
        <ele>2498.1999511719</ele>
        <time>2016-03-26T12:18:52.000Z</time>
      </trkpt>
      <trkpt lat="45.31919" lon="6.19726">
        <ele>2497.1999511719</ele>
        <time>2016-03-26T12:18:53.000Z</time>
      </trkpt>
      <trkpt lat="45.31918" lon="6.19725">
        <ele>2496.1999511719</ele>
        <time>2016-03-26T12:18:54.000Z</time>
      </trkpt>
      <trkpt lat="45.31917" lon="6.1972">
        <ele>2494.6000976562</ele>
        <time>2016-03-26T12:18:55.000Z</time>
      </trkpt>
      <trkpt lat="45.31917" lon="6.19718">
        <ele>2492.6000976562</ele>
        <time>2016-03-26T12:18:56.000Z</time>
      </trkpt>
      <trkpt lat="45.31917" lon="6.19716">
        <ele>2490.6000976562</ele>
        <time>2016-03-26T12:18:57.000Z</time>
      </trkpt>
      <trkpt lat="45.31918" lon="6.19715">
        <ele>2489</ele>
        <time>2016-03-26T12:18:58.000Z</time>
      </trkpt>
      <trkpt lat="45.31917" lon="6.19715">
        <ele>2487.8000488281</ele>
        <time>2016-03-26T12:18:59.000Z</time>
      </trkpt>
      <trkpt lat="45.31916" lon="6.19715">
        <ele>2486.1999511719</ele>
        <time>2016-03-26T12:19:01.000Z</time>
      </trkpt>
      <trkpt lat="45.31915" lon="6.19714">
        <ele>2485.1999511719</ele>
        <time>2016-03-26T12:19:02.000Z</time>
      </trkpt>
      <trkpt lat="45.31913" lon="6.19713">
        <ele>2484.6000976562</ele>
        <time>2016-03-26T12:19:06.000Z</time>
      </trkpt>
      <trkpt lat="45.31918" lon="6.19707">
        <ele>2484.8000488281</ele>
        <time>2016-03-26T12:19:12.000Z</time>
      </trkpt>
      <trkpt lat="45.31917" lon="6.19706">
        <ele>2483</ele>
        <time>2016-03-26T12:19:14.000Z</time>
      </trkpt>
      <trkpt lat="45.31917" lon="6.19705">
        <ele>2481.3999023438</ele>
        <time>2016-03-26T12:19:15.000Z</time>
      </trkpt>
      <trkpt lat="45.31917" lon="6.19701">
        <ele>2480</ele>
        <time>2016-03-26T12:19:16.000Z</time>
      </trkpt>
      <trkpt lat="45.31918" lon="6.19701">
        <ele>2478.3999023438</ele>
        <time>2016-03-26T12:19:17.000Z</time>
      </trkpt>
      <trkpt lat="45.31918" lon="6.19699">
        <ele>2477.1999511719</ele>
        <time>2016-03-26T12:19:18.000Z</time>
      </trkpt>
      <trkpt lat="45.31918" lon="6.19699">
        <ele>2476.1999511719</ele>
        <time>2016-03-26T12:19:19.000Z</time>
      </trkpt>
      <trkpt lat="45.31919" lon="6.19698">
        <ele>2475.1999511719</ele>
        <time>2016-03-26T12:19:21.000Z</time>
      </trkpt>
      <trkpt lat="45.3192" lon="6.19698">
        <ele>2474.3999023438</ele>
        <time>2016-03-26T12:19:23.000Z</time>
      </trkpt>
      <trkpt lat="45.31921" lon="6.19699">
        <ele>2474</ele>
        <time>2016-03-26T12:19:25.000Z</time>
      </trkpt>
      <trkpt lat="45.31924" lon="6.19695">
        <ele>2474.1999511719</ele>
        <time>2016-03-26T12:19:30.000Z</time>
      </trkpt>
      <trkpt lat="45.31924" lon="6.1969">
        <ele>2474.1999511719</ele>
        <time>2016-03-26T12:19:31.000Z</time>
      </trkpt>
      <trkpt lat="45.31923" lon="6.19676">
        <ele>2471.8000488281</ele>
        <time>2016-03-26T12:19:34.000Z</time>
      </trkpt>
      <trkpt lat="45.31925" lon="6.19674">
        <ele>2470.1999511719</ele>
        <time>2016-03-26T12:19:35.000Z</time>
      </trkpt>
      <trkpt lat="45.31926" lon="6.19673">
        <ele>2468.8000488281</ele>
        <time>2016-03-26T12:19:36.000Z</time>
      </trkpt>
      <trkpt lat="45.31925" lon="6.19673">
        <ele>2467.8000488281</ele>
        <time>2016-03-26T12:19:38.000Z</time>
      </trkpt>
      <trkpt lat="45.31924" lon="6.19668">
        <ele>2467.6000976562</ele>
        <time>2016-03-26T12:19:40.000Z</time>
      </trkpt>
      <trkpt lat="45.31923" lon="6.19664">
        <ele>2466.8000488281</ele>
        <time>2016-03-26T12:19:44.000Z</time>
      </trkpt>
      <trkpt lat="45.31923" lon="6.19662">
        <ele>2466.6000976562</ele>
        <time>2016-03-26T12:19:45.000Z</time>
      </trkpt>
      <trkpt lat="45.31924" lon="6.1966">
        <ele>2466</ele>
        <time>2016-03-26T12:19:47.000Z</time>
      </trkpt>
      <trkpt lat="45.31924" lon="6.19657">
        <ele>2465.3999023438</ele>
        <time>2016-03-26T12:19:48.000Z</time>
      </trkpt>
      <trkpt lat="45.31925" lon="6.19654">
        <ele>2465</ele>
        <time>2016-03-26T12:19:49.000Z</time>
      </trkpt>
      <trkpt lat="45.31925" lon="6.19651">
        <ele>2464</ele>
        <time>2016-03-26T12:19:50.000Z</time>
      </trkpt>
      <trkpt lat="45.31927" lon="6.19651">
        <ele>2461.6000976562</ele>
        <time>2016-03-26T12:19:52.000Z</time>
      </trkpt>
      <trkpt lat="45.31929" lon="6.1965">
        <ele>2460.1999511719</ele>
        <time>2016-03-26T12:19:53.000Z</time>
      </trkpt>
      <trkpt lat="45.3193" lon="6.19648">
        <ele>2459</ele>
        <time>2016-03-26T12:19:54.000Z</time>
      </trkpt>
      <trkpt lat="45.3193" lon="6.19646">
        <ele>2457.6000976562</ele>
        <time>2016-03-26T12:19:55.000Z</time>
      </trkpt>
      <trkpt lat="45.31932" lon="6.19643">
        <ele>2455.8000488281</ele>
        <time>2016-03-26T12:19:56.000Z</time>
      </trkpt>
      <trkpt lat="45.31934" lon="6.19638">
        <ele>2453.3999023438</ele>
        <time>2016-03-26T12:19:57.000Z</time>
      </trkpt>
      <trkpt lat="45.31935" lon="6.19634">
        <ele>2451.1999511719</ele>
        <time>2016-03-26T12:19:58.000Z</time>
      </trkpt>
      <trkpt lat="45.31936" lon="6.1963">
        <ele>2449.6000976562</ele>
        <time>2016-03-26T12:19:59.000Z</time>
      </trkpt>
      <trkpt lat="45.31937" lon="6.19625">
        <ele>2448.1999511719</ele>
        <time>2016-03-26T12:20:00.000Z</time>
      </trkpt>
      <trkpt lat="45.31938" lon="6.19622">
        <ele>2446.6000976562</ele>
        <time>2016-03-26T12:20:01.000Z</time>
      </trkpt>
      <trkpt lat="45.31937" lon="6.1962">
        <ele>2444.6000976562</ele>
        <time>2016-03-26T12:20:02.000Z</time>
      </trkpt>
      <trkpt lat="45.31937" lon="6.1962">
        <ele>2442.8000488281</ele>
        <time>2016-03-26T12:20:03.000Z</time>
      </trkpt>
      <trkpt lat="45.31937" lon="6.19622">
        <ele>2441.6000976562</ele>
        <time>2016-03-26T12:20:04.000Z</time>
      </trkpt>
      <trkpt lat="45.31937" lon="6.19623">
        <ele>2440.3999023438</ele>
        <time>2016-03-26T12:20:06.000Z</time>
      </trkpt>
      <trkpt lat="45.3194" lon="6.19624">
        <ele>2439.6000976562</ele>
        <time>2016-03-26T12:20:09.000Z</time>
      </trkpt>
      <trkpt lat="45.31943" lon="6.19623">
        <ele>2439</ele>
        <time>2016-03-26T12:20:10.000Z</time>
      </trkpt>
      <trkpt lat="45.31945" lon="6.19621">
        <ele>2438</ele>
        <time>2016-03-26T12:20:11.000Z</time>
      </trkpt>
      <trkpt lat="45.31945" lon="6.19618">
        <ele>2436.8000488281</ele>
        <time>2016-03-26T12:20:12.000Z</time>
      </trkpt>
      <trkpt lat="45.31944" lon="6.19614">
        <ele>2436</ele>
        <time>2016-03-26T12:20:13.000Z</time>
      </trkpt>
      <trkpt lat="45.31943" lon="6.19611">
        <ele>2433</ele>
        <time>2016-03-26T12:20:14.000Z</time>
      </trkpt>
      <trkpt lat="45.31943" lon="6.19609">
        <ele>2430.6000976562</ele>
        <time>2016-03-26T12:20:15.000Z</time>
      </trkpt>
      <trkpt lat="45.31944" lon="6.1961">
        <ele>2428.1999511719</ele>
        <time>2016-03-26T12:20:16.000Z</time>
      </trkpt>
      <trkpt lat="45.31946" lon="6.1961">
        <ele>2426.3999023438</ele>
        <time>2016-03-26T12:20:17.000Z</time>
      </trkpt>
      <trkpt lat="45.31948" lon="6.19609">
        <ele>2425.1999511719</ele>
        <time>2016-03-26T12:20:18.000Z</time>
      </trkpt>
      <trkpt lat="45.3195" lon="6.19607">
        <ele>2424</ele>
        <time>2016-03-26T12:20:19.000Z</time>
      </trkpt>
      <trkpt lat="45.31951" lon="6.19604">
        <ele>2422.6000976562</ele>
        <time>2016-03-26T12:20:20.000Z</time>
      </trkpt>
      <trkpt lat="45.31951" lon="6.196">
        <ele>2421.1999511719</ele>
        <time>2016-03-26T12:20:21.000Z</time>
      </trkpt>
      <trkpt lat="45.3195" lon="6.19598">
        <ele>2419.6000976562</ele>
        <time>2016-03-26T12:20:22.000Z</time>
      </trkpt>
      <trkpt lat="45.3195" lon="6.19593">
        <ele>2417.8000488281</ele>
        <time>2016-03-26T12:20:23.000Z</time>
      </trkpt>
      <trkpt lat="45.3195" lon="6.1959">
        <ele>2416</ele>
        <time>2016-03-26T12:20:24.000Z</time>
      </trkpt>
      <trkpt lat="45.31953" lon="6.19587">
        <ele>2414.1999511719</ele>
        <time>2016-03-26T12:20:25.000Z</time>
      </trkpt>
      <trkpt lat="45.31953" lon="6.19585">
        <ele>2412.6000976562</ele>
        <time>2016-03-26T12:20:26.000Z</time>
      </trkpt>
      <trkpt lat="45.31952" lon="6.1958">
        <ele>2411.6000976562</ele>
        <time>2016-03-26T12:20:27.000Z</time>
      </trkpt>
      <trkpt lat="45.31953" lon="6.19577">
        <ele>2410.3999023438</ele>
        <time>2016-03-26T12:20:28.000Z</time>
      </trkpt>
      <trkpt lat="45.31955" lon="6.19575">
        <ele>2408.8000488281</ele>
        <time>2016-03-26T12:20:29.000Z</time>
      </trkpt>
      <trkpt lat="45.31957" lon="6.19573">
        <ele>2406.6000976562</ele>
        <time>2016-03-26T12:20:30.000Z</time>
      </trkpt>
      <trkpt lat="45.31959" lon="6.19571">
        <ele>2404.8000488281</ele>
        <time>2016-03-26T12:20:31.000Z</time>
      </trkpt>
      <trkpt lat="45.31959" lon="6.19568">
        <ele>2403.1999511719</ele>
        <time>2016-03-26T12:20:32.000Z</time>
      </trkpt>
      <trkpt lat="45.3196" lon="6.19564">
        <ele>2401.6000976562</ele>
        <time>2016-03-26T12:20:33.000Z</time>
      </trkpt>
      <trkpt lat="45.31961" lon="6.19561">
        <ele>2399.3999023438</ele>
        <time>2016-03-26T12:20:34.000Z</time>
      </trkpt>
      <trkpt lat="45.31962" lon="6.19554">
        <ele>2396.8000488281</ele>
        <time>2016-03-26T12:20:35.000Z</time>
      </trkpt>
      <trkpt lat="45.31964" lon="6.19549">
        <ele>2394.3999023438</ele>
        <time>2016-03-26T12:20:36.000Z</time>
      </trkpt>
      <trkpt lat="45.31964" lon="6.19543">
        <ele>2392.6000976562</ele>
        <time>2016-03-26T12:20:37.000Z</time>
      </trkpt>
      <trkpt lat="45.31965" lon="6.19538">
        <ele>2389.6000976562</ele>
        <time>2016-03-26T12:20:38.000Z</time>
      </trkpt>
      <trkpt lat="45.31966" lon="6.19535">
        <ele>2387.8000488281</ele>
        <time>2016-03-26T12:20:39.000Z</time>
      </trkpt>
      <trkpt lat="45.31967" lon="6.19533">
        <ele>2386.1999511719</ele>
        <time>2016-03-26T12:20:40.000Z</time>
      </trkpt>
      <trkpt lat="45.31968" lon="6.19531">
        <ele>2385</ele>
        <time>2016-03-26T12:20:41.000Z</time>
      </trkpt>
      <trkpt lat="45.31969" lon="6.19529">
        <ele>2383.8000488281</ele>
        <time>2016-03-26T12:20:43.000Z</time>
      </trkpt>
      <trkpt lat="45.31971" lon="6.1953">
        <ele>2383</ele>
        <time>2016-03-26T12:20:47.000Z</time>
      </trkpt>
      <trkpt lat="45.31973" lon="6.19528">
        <ele>2382.6000976562</ele>
        <time>2016-03-26T12:20:51.000Z</time>
      </trkpt>
      <trkpt lat="45.31975" lon="6.19521">
        <ele>2381.6000976562</ele>
        <time>2016-03-26T12:20:53.000Z</time>
      </trkpt>
      <trkpt lat="45.31977" lon="6.19522">
        <ele>2380.8000488281</ele>
        <time>2016-03-26T12:20:54.000Z</time>
      </trkpt>
      <trkpt lat="45.31978" lon="6.19518">
        <ele>2379.3999023438</ele>
        <time>2016-03-26T12:20:55.000Z</time>
      </trkpt>
      <trkpt lat="45.31979" lon="6.19515">
        <ele>2377.8000488281</ele>
        <time>2016-03-26T12:20:56.000Z</time>
      </trkpt>
      <trkpt lat="45.31981" lon="6.19512">
        <ele>2376.1999511719</ele>
        <time>2016-03-26T12:20:57.000Z</time>
      </trkpt>
      <trkpt lat="45.31983" lon="6.19509">
        <ele>2374.3999023438</ele>
        <time>2016-03-26T12:20:58.000Z</time>
      </trkpt>
      <trkpt lat="45.31984" lon="6.19505">
        <ele>2372.6000976562</ele>
        <time>2016-03-26T12:20:59.000Z</time>
      </trkpt>
      <trkpt lat="45.31986" lon="6.19501">
        <ele>2370.6000976562</ele>
        <time>2016-03-26T12:21:00.000Z</time>
      </trkpt>
      <trkpt lat="45.31987" lon="6.19497">
        <ele>2369</ele>
        <time>2016-03-26T12:21:01.000Z</time>
      </trkpt>
      <trkpt lat="45.31988" lon="6.19492">
        <ele>2365.6000976562</ele>
        <time>2016-03-26T12:21:02.000Z</time>
      </trkpt>
      <trkpt lat="45.31989" lon="6.19489">
        <ele>2364</ele>
        <time>2016-03-26T12:21:03.000Z</time>
      </trkpt>
      <trkpt lat="45.31993" lon="6.19486">
        <ele>2362</ele>
        <time>2016-03-26T12:21:04.000Z</time>
      </trkpt>
      <trkpt lat="45.31993" lon="6.19482">
        <ele>2359.8000488281</ele>
        <time>2016-03-26T12:21:05.000Z</time>
      </trkpt>
      <trkpt lat="45.31993" lon="6.19477">
        <ele>2357.8000488281</ele>
        <time>2016-03-26T12:21:06.000Z</time>
      </trkpt>
      <trkpt lat="45.31994" lon="6.19473">
        <ele>2356.6000976562</ele>
        <time>2016-03-26T12:21:07.000Z</time>
      </trkpt>
      <trkpt lat="45.31995" lon="6.19469">
        <ele>2355.1999511719</ele>
        <time>2016-03-26T12:21:08.000Z</time>
      </trkpt>
      <trkpt lat="45.32" lon="6.19468">
        <ele>2353.6000976562</ele>
        <time>2016-03-26T12:21:09.000Z</time>
      </trkpt>
      <trkpt lat="45.32001" lon="6.19462">
        <ele>2352</ele>
        <time>2016-03-26T12:21:10.000Z</time>
      </trkpt>
      <trkpt lat="45.32001" lon="6.19457">
        <ele>2350.8000488281</ele>
        <time>2016-03-26T12:21:11.000Z</time>
      </trkpt>
      <trkpt lat="45.32002" lon="6.19457">
        <ele>2349.3999023438</ele>
        <time>2016-03-26T12:21:12.000Z</time>
      </trkpt>
      <trkpt lat="45.32006" lon="6.19454">
        <ele>2347.8000488281</ele>
        <time>2016-03-26T12:21:13.000Z</time>
      </trkpt>
      <trkpt lat="45.32008" lon="6.1945">
        <ele>2346.1999511719</ele>
        <time>2016-03-26T12:21:14.000Z</time>
      </trkpt>
      <trkpt lat="45.32009" lon="6.19445">
        <ele>2344.6000976562</ele>
        <time>2016-03-26T12:21:15.000Z</time>
      </trkpt>
      <trkpt lat="45.32011" lon="6.19441">
        <ele>2343</ele>
        <time>2016-03-26T12:21:16.000Z</time>
      </trkpt>
      <trkpt lat="45.32013" lon="6.19436">
        <ele>2341.1999511719</ele>
        <time>2016-03-26T12:21:17.000Z</time>
      </trkpt>
      <trkpt lat="45.32015" lon="6.19431">
        <ele>2339.6000976562</ele>
        <time>2016-03-26T12:21:18.000Z</time>
      </trkpt>
      <trkpt lat="45.32021" lon="6.19429">
        <ele>2338.1999511719</ele>
        <time>2016-03-26T12:21:19.000Z</time>
      </trkpt>
      <trkpt lat="45.32026" lon="6.19426">
        <ele>2336.6000976562</ele>
        <time>2016-03-26T12:21:20.000Z</time>
      </trkpt>
      <trkpt lat="45.32026" lon="6.19423">
        <ele>2335</ele>
        <time>2016-03-26T12:21:21.000Z</time>
      </trkpt>
      <trkpt lat="45.3203" lon="6.19422">
        <ele>2333.8000488281</ele>
        <time>2016-03-26T12:21:22.000Z</time>
      </trkpt>
      <trkpt lat="45.32035" lon="6.19422">
        <ele>2333.1999511719</ele>
        <time>2016-03-26T12:21:23.000Z</time>
      </trkpt>
      <trkpt lat="45.32037" lon="6.19421">
        <ele>2332.8000488281</ele>
        <time>2016-03-26T12:21:24.000Z</time>
      </trkpt>
      <trkpt lat="45.32047" lon="6.19416">
        <ele>2332.1999511719</ele>
        <time>2016-03-26T12:21:34.000Z</time>
      </trkpt>
      <trkpt lat="45.32047" lon="6.19416">
        <ele>2332.1999511719</ele>
        <time>2016-03-26T12:21:45.000Z</time>
      </trkpt>
      <trkpt lat="45.32047" lon="6.19416">
        <ele>2332.1999511719</ele>
        <time>2016-03-26T12:22:00.000Z</time>
      </trkpt>
      <trkpt lat="45.32048" lon="6.19415">
        <ele>2332.1999511719</ele>
        <time>2016-03-26T12:22:12.000Z</time>
      </trkpt>
      <trkpt lat="45.32048" lon="6.19415">
        <ele>2332.1999511719</ele>
        <time>2016-03-26T12:22:24.000Z</time>
      </trkpt>
      <trkpt lat="45.32048" lon="6.19415">
        <ele>2332.1999511719</ele>
        <time>2016-03-26T12:22:44.000Z</time>
      </trkpt>
      <trkpt lat="45.32048" lon="6.19415">
        <ele>2332</ele>
        <time>2016-03-26T12:23:00.000Z</time>
      </trkpt>
      <trkpt lat="45.32048" lon="6.19415">
        <ele>2331.6000976562</ele>
        <time>2016-03-26T12:23:06.000Z</time>
      </trkpt>
      <trkpt lat="45.32048" lon="6.19415">
        <ele>2332.1999511719</ele>
        <time>2016-03-26T12:23:13.000Z</time>
      </trkpt>
      <trkpt lat="45.32048" lon="6.19415">
        <ele>2332.1999511719</ele>
        <time>2016-03-26T12:23:28.000Z</time>
      </trkpt>
      <trkpt lat="45.32049" lon="6.19413">
        <ele>2332.1999511719</ele>
        <time>2016-03-26T12:23:40.000Z</time>
      </trkpt>
      <trkpt lat="45.32049" lon="6.19413">
        <ele>2331.6000976562</ele>
        <time>2016-03-26T12:23:56.000Z</time>
      </trkpt>
      <trkpt lat="45.32049" lon="6.19413">
        <ele>2332</ele>
        <time>2016-03-26T12:24:10.000Z</time>
      </trkpt>
      <trkpt lat="45.32049" lon="6.19414">
        <ele>2332</ele>
        <time>2016-03-26T12:24:27.000Z</time>
      </trkpt>
      <trkpt lat="45.32049" lon="6.19414">
        <ele>2332.1999511719</ele>
        <time>2016-03-26T12:24:38.000Z</time>
      </trkpt>
      <trkpt lat="45.3205" lon="6.19415">
        <ele>2331.8000488281</ele>
        <time>2016-03-26T12:24:54.000Z</time>
      </trkpt>
      <trkpt lat="45.3205" lon="6.19415">
        <ele>2332</ele>
        <time>2016-03-26T12:25:10.000Z</time>
      </trkpt>
      <trkpt lat="45.3205" lon="6.19415">
        <ele>2332</ele>
        <time>2016-03-26T12:25:24.000Z</time>
      </trkpt>
      <trkpt lat="45.32051" lon="6.19416">
        <ele>2331.8000488281</ele>
        <time>2016-03-26T12:25:37.000Z</time>
      </trkpt>
      <trkpt lat="45.32051" lon="6.19416">
        <ele>2331.8000488281</ele>
        <time>2016-03-26T12:25:50.000Z</time>
      </trkpt>
      <trkpt lat="45.32051" lon="6.19416">
        <ele>2331.6000976562</ele>
        <time>2016-03-26T12:26:08.000Z</time>
      </trkpt>
      <trkpt lat="45.32051" lon="6.19416">
        <ele>2331.8000488281</ele>
        <time>2016-03-26T12:26:22.000Z</time>
      </trkpt>
      <trkpt lat="45.32051" lon="6.19416">
        <ele>2331.8000488281</ele>
        <time>2016-03-26T12:26:35.000Z</time>
      </trkpt>
      <trkpt lat="45.32052" lon="6.19415">
        <ele>2331.3999023438</ele>
        <time>2016-03-26T12:26:52.000Z</time>
      </trkpt>
      <trkpt lat="45.32051" lon="6.19415">
        <ele>2331.6000976562</ele>
        <time>2016-03-26T12:26:59.000Z</time>
      </trkpt>
      <trkpt lat="45.32052" lon="6.19415">
        <ele>2331.8000488281</ele>
        <time>2016-03-26T12:27:12.000Z</time>
      </trkpt>
      <trkpt lat="45.32055" lon="6.19411">
        <ele>2331.6000976562</ele>
        <time>2016-03-26T12:27:23.000Z</time>
      </trkpt>
      <trkpt lat="45.32055" lon="6.19411">
        <ele>2331.6000976562</ele>
        <time>2016-03-26T12:27:35.000Z</time>
      </trkpt>
      <trkpt lat="45.32055" lon="6.19411">
        <ele>2331.3999023438</ele>
        <time>2016-03-26T12:27:55.000Z</time>
      </trkpt>
      <trkpt lat="45.32056" lon="6.19411">
        <ele>2331.6000976562</ele>
        <time>2016-03-26T12:28:07.000Z</time>
      </trkpt>
      <trkpt lat="45.32056" lon="6.19411">
        <ele>2331.3999023438</ele>
        <time>2016-03-26T12:28:22.000Z</time>
      </trkpt>
      <trkpt lat="45.32056" lon="6.19411">
        <ele>2331.1999511719</ele>
        <time>2016-03-26T12:28:39.000Z</time>
      </trkpt>
      <trkpt lat="45.32056" lon="6.19411">
        <ele>2331</ele>
        <time>2016-03-26T12:28:51.000Z</time>
      </trkpt>
      <trkpt lat="45.32056" lon="6.19411">
        <ele>2331.6000976562</ele>
        <time>2016-03-26T12:29:04.000Z</time>
      </trkpt>
      <trkpt lat="45.32056" lon="6.19411">
        <ele>2331.3999023438</ele>
        <time>2016-03-26T12:29:16.000Z</time>
      </trkpt>
      <trkpt lat="45.32055" lon="6.19411">
        <ele>2331.8000488281</ele>
        <time>2016-03-26T12:29:29.000Z</time>
      </trkpt>
      <trkpt lat="45.32055" lon="6.19411">
        <ele>2331.1999511719</ele>
        <time>2016-03-26T12:29:42.000Z</time>
      </trkpt>
      <trkpt lat="45.32055" lon="6.19411">
        <ele>2331.8000488281</ele>
        <time>2016-03-26T12:29:54.000Z</time>
      </trkpt>
      <trkpt lat="45.32054" lon="6.19413">
        <ele>2331.8000488281</ele>
        <time>2016-03-26T12:30:03.000Z</time>
      </trkpt>
      <trkpt lat="45.32054" lon="6.19413">
        <ele>2331.8000488281</ele>
        <time>2016-03-26T12:30:08.000Z</time>
      </trkpt>
      <trkpt lat="45.32054" lon="6.19412">
        <ele>2331.8000488281</ele>
        <time>2016-03-26T12:30:24.000Z</time>
      </trkpt>
      <trkpt lat="45.32054" lon="6.19408">
        <ele>2331.8000488281</ele>
        <time>2016-03-26T12:30:29.000Z</time>
      </trkpt>
      <trkpt lat="45.32056" lon="6.19404">
        <ele>2332.1999511719</ele>
        <time>2016-03-26T12:30:34.000Z</time>
      </trkpt>
      <trkpt lat="45.32057" lon="6.19401">
        <ele>2332.8000488281</ele>
        <time>2016-03-26T12:30:38.000Z</time>
      </trkpt>
      <trkpt lat="45.32057" lon="6.19399">
        <ele>2333.1999511719</ele>
        <time>2016-03-26T12:30:40.000Z</time>
      </trkpt>
      <trkpt lat="45.32057" lon="6.19395">
        <ele>2333.8000488281</ele>
        <time>2016-03-26T12:30:45.000Z</time>
      </trkpt>
      <trkpt lat="45.32057" lon="6.19394">
        <ele>2333.8000488281</ele>
        <time>2016-03-26T12:30:46.000Z</time>
      </trkpt>
      <trkpt lat="45.32057" lon="6.19391">
        <ele>2334.8000488281</ele>
        <time>2016-03-26T12:30:51.000Z</time>
      </trkpt>
      <trkpt lat="45.32056" lon="6.19391">
        <ele>2334.8000488281</ele>
        <time>2016-03-26T12:30:54.000Z</time>
      </trkpt>
      <trkpt lat="45.32055" lon="6.1939">
        <ele>2335</ele>
        <time>2016-03-26T12:30:56.000Z</time>
      </trkpt>
      <trkpt lat="45.32054" lon="6.19389">
        <ele>2335.8000488281</ele>
        <time>2016-03-26T12:31:00.000Z</time>
      </trkpt>
      <trkpt lat="45.32053" lon="6.19389">
        <ele>2336.1999511719</ele>
        <time>2016-03-26T12:31:01.000Z</time>
      </trkpt>
      <trkpt lat="45.32051" lon="6.19387">
        <ele>2337</ele>
        <time>2016-03-26T12:31:04.000Z</time>
      </trkpt>
      <trkpt lat="45.32047" lon="6.19384">
        <ele>2337</ele>
        <time>2016-03-26T12:31:10.000Z</time>
      </trkpt>
      <trkpt lat="45.32046" lon="6.19384">
        <ele>2337.1999511719</ele>
        <time>2016-03-26T12:31:11.000Z</time>
      </trkpt>
      <trkpt lat="45.32044" lon="6.19382">
        <ele>2338.1999511719</ele>
        <time>2016-03-26T12:31:15.000Z</time>
      </trkpt>
      <trkpt lat="45.32044" lon="6.19381">
        <ele>2338.8000488281</ele>
        <time>2016-03-26T12:31:17.000Z</time>
      </trkpt>
      <trkpt lat="45.32043" lon="6.19381">
        <ele>2339.1999511719</ele>
        <time>2016-03-26T12:31:19.000Z</time>
      </trkpt>
      <trkpt lat="45.32042" lon="6.1938">
        <ele>2339.3999023438</ele>
        <time>2016-03-26T12:31:22.000Z</time>
      </trkpt>
      <trkpt lat="45.3204" lon="6.19377">
        <ele>2340.6000976562</ele>
        <time>2016-03-26T12:31:27.000Z</time>
      </trkpt>
      <trkpt lat="45.32037" lon="6.19374">
        <ele>2341.3999023438</ele>
        <time>2016-03-26T12:31:32.000Z</time>
      </trkpt>
      <trkpt lat="45.32036" lon="6.19373">
        <ele>2341.6000976562</ele>
        <time>2016-03-26T12:31:36.000Z</time>
      </trkpt>
      <trkpt lat="45.32036" lon="6.19371">
        <ele>2342</ele>
        <time>2016-03-26T12:31:38.000Z</time>
      </trkpt>
      <trkpt lat="45.32035" lon="6.1937">
        <ele>2342.8000488281</ele>
        <time>2016-03-26T12:31:42.000Z</time>
      </trkpt>
      <trkpt lat="45.32033" lon="6.19369">
        <ele>2342.8000488281</ele>
        <time>2016-03-26T12:31:46.000Z</time>
      </trkpt>
      <trkpt lat="45.3203" lon="6.19366">
        <ele>2344.1999511719</ele>
        <time>2016-03-26T12:31:51.000Z</time>
      </trkpt>
      <trkpt lat="45.32029" lon="6.19365">
        <ele>2344.3999023438</ele>
        <time>2016-03-26T12:31:53.000Z</time>
      </trkpt>
      <trkpt lat="45.32027" lon="6.19364">
        <ele>2345.3999023438</ele>
        <time>2016-03-26T12:31:58.000Z</time>
      </trkpt>
      <trkpt lat="45.32027" lon="6.19362">
        <ele>2346.3999023438</ele>
        <time>2016-03-26T12:32:02.000Z</time>
      </trkpt>
      <trkpt lat="45.32025" lon="6.19358">
        <ele>2347</ele>
        <time>2016-03-26T12:32:07.000Z</time>
      </trkpt>
      <trkpt lat="45.32025" lon="6.19358">
        <ele>2347.3999023438</ele>
        <time>2016-03-26T12:32:09.000Z</time>
      </trkpt>
      <trkpt lat="45.32023" lon="6.19356">
        <ele>2348.6000976562</ele>
        <time>2016-03-26T12:32:13.000Z</time>
      </trkpt>
      <trkpt lat="45.32023" lon="6.19355">
        <ele>2348.6000976562</ele>
        <time>2016-03-26T12:32:14.000Z</time>
      </trkpt>
      <trkpt lat="45.32022" lon="6.19353">
        <ele>2349</ele>
        <time>2016-03-26T12:32:18.000Z</time>
      </trkpt>
      <trkpt lat="45.32021" lon="6.19351">
        <ele>2349.6000976562</ele>
        <time>2016-03-26T12:32:20.000Z</time>
      </trkpt>
      <trkpt lat="45.3202" lon="6.1935">
        <ele>2350.1999511719</ele>
        <time>2016-03-26T12:32:22.000Z</time>
      </trkpt>
      <trkpt lat="45.32019" lon="6.19347">
        <ele>2350.8000488281</ele>
        <time>2016-03-26T12:32:27.000Z</time>
      </trkpt>
      <trkpt lat="45.32019" lon="6.19347">
        <ele>2350.8000488281</ele>
        <time>2016-03-26T12:32:28.000Z</time>
      </trkpt>
      <trkpt lat="45.32017" lon="6.19343">
        <ele>2351.3999023438</ele>
        <time>2016-03-26T12:32:33.000Z</time>
      </trkpt>
      <trkpt lat="45.32015" lon="6.19341">
        <ele>2351.8000488281</ele>
        <time>2016-03-26T12:32:36.000Z</time>
      </trkpt>
      <trkpt lat="45.32015" lon="6.1934">
        <ele>2352.3999023438</ele>
        <time>2016-03-26T12:32:38.000Z</time>
      </trkpt>
      <trkpt lat="45.32015" lon="6.1934">
        <ele>2352.8000488281</ele>
        <time>2016-03-26T12:32:39.000Z</time>
      </trkpt>
      <trkpt lat="45.32013" lon="6.19338">
        <ele>2353.3999023438</ele>
        <time>2016-03-26T12:32:45.000Z</time>
      </trkpt>
      <trkpt lat="45.32012" lon="6.19337">
        <ele>2354.1999511719</ele>
        <time>2016-03-26T12:32:48.000Z</time>
      </trkpt>
      <trkpt lat="45.32011" lon="6.19336">
        <ele>2354.6000976562</ele>
        <time>2016-03-26T12:32:50.000Z</time>
      </trkpt>
      <trkpt lat="45.32011" lon="6.19336">
        <ele>2355.1999511719</ele>
        <time>2016-03-26T12:32:52.000Z</time>
      </trkpt>
      <trkpt lat="45.3201" lon="6.19335">
        <ele>2355.6000976562</ele>
        <time>2016-03-26T12:32:55.000Z</time>
      </trkpt>
      <trkpt lat="45.32008" lon="6.19332">
        <ele>2356.1999511719</ele>
        <time>2016-03-26T12:33:00.000Z</time>
      </trkpt>
      <trkpt lat="45.32008" lon="6.19332">
        <ele>2356.1999511719</ele>
        <time>2016-03-26T12:33:01.000Z</time>
      </trkpt>
      <trkpt lat="45.32006" lon="6.1933">
        <ele>2356.6000976562</ele>
        <time>2016-03-26T12:33:05.000Z</time>
      </trkpt>
      <trkpt lat="45.32005" lon="6.19327">
        <ele>2357.3999023438</ele>
        <time>2016-03-26T12:33:08.000Z</time>
      </trkpt>
      <trkpt lat="45.32004" lon="6.19326">
        <ele>2357.6000976562</ele>
        <time>2016-03-26T12:33:09.000Z</time>
      </trkpt>
      <trkpt lat="45.32003" lon="6.19323">
        <ele>2358.6000976562</ele>
        <time>2016-03-26T12:33:13.000Z</time>
      </trkpt>
      <trkpt lat="45.32001" lon="6.1932">
        <ele>2358.6000976562</ele>
        <time>2016-03-26T12:33:17.000Z</time>
      </trkpt>
      <trkpt lat="45.32" lon="6.19316">
        <ele>2359.3999023438</ele>
        <time>2016-03-26T12:33:22.000Z</time>
      </trkpt>
      <trkpt lat="45.31999" lon="6.19315">
        <ele>2359.6000976562</ele>
        <time>2016-03-26T12:33:23.000Z</time>
      </trkpt>
      <trkpt lat="45.31998" lon="6.19311">
        <ele>2361</ele>
        <time>2016-03-26T12:33:27.000Z</time>
      </trkpt>
      <trkpt lat="45.31995" lon="6.19306">
        <ele>2361.6000976562</ele>
        <time>2016-03-26T12:33:33.000Z</time>
      </trkpt>
      <trkpt lat="45.31993" lon="6.19301">
        <ele>2362.1999511719</ele>
        <time>2016-03-26T12:33:39.000Z</time>
      </trkpt>
      <trkpt lat="45.31992" lon="6.19301">
        <ele>2362.1999511719</ele>
        <time>2016-03-26T12:33:40.000Z</time>
      </trkpt>
      <trkpt lat="45.31993" lon="6.193">
        <ele>2363.1999511719</ele>
        <time>2016-03-26T12:33:44.000Z</time>
      </trkpt>
      <trkpt lat="45.31993" lon="6.193">
        <ele>2363.3999023438</ele>
        <time>2016-03-26T12:33:45.000Z</time>
      </trkpt>
      <trkpt lat="45.31993" lon="6.19299">
        <ele>2364.3999023438</ele>
        <time>2016-03-26T12:33:49.000Z</time>
      </trkpt>
      <trkpt lat="45.31993" lon="6.19299">
        <ele>2364.6000976562</ele>
        <time>2016-03-26T12:33:52.000Z</time>
      </trkpt>
      <trkpt lat="45.31993" lon="6.193">
        <ele>2364</ele>
        <time>2016-03-26T12:34:09.000Z</time>
      </trkpt>
      <trkpt lat="45.31997" lon="6.19301">
        <ele>2365.6000976562</ele>
        <time>2016-03-26T12:34:19.000Z</time>
      </trkpt>
      <trkpt lat="45.31999" lon="6.19302">
        <ele>2366.6000976562</ele>
        <time>2016-03-26T12:34:25.000Z</time>
      </trkpt>
      <trkpt lat="45.32001" lon="6.19302">
        <ele>2367</ele>
        <time>2016-03-26T12:34:29.000Z</time>
      </trkpt>
      <trkpt lat="45.32003" lon="6.19302">
        <ele>2368</ele>
        <time>2016-03-26T12:34:33.000Z</time>
      </trkpt>
      <trkpt lat="45.32005" lon="6.193">
        <ele>2368.3999023438</ele>
        <time>2016-03-26T12:34:36.000Z</time>
      </trkpt>
      <trkpt lat="45.32003" lon="6.19297">
        <ele>2369</ele>
        <time>2016-03-26T12:34:41.000Z</time>
      </trkpt>
      <trkpt lat="45.32002" lon="6.19294">
        <ele>2369.6000976562</ele>
        <time>2016-03-26T12:34:46.000Z</time>
      </trkpt>
      <trkpt lat="45.32001" lon="6.19289">
        <ele>2370.1999511719</ele>
        <time>2016-03-26T12:34:51.000Z</time>
      </trkpt>
      <trkpt lat="45.31999" lon="6.19285">
        <ele>2371.1999511719</ele>
        <time>2016-03-26T12:34:56.000Z</time>
      </trkpt>
      <trkpt lat="45.31998" lon="6.19285">
        <ele>2371.3999023438</ele>
        <time>2016-03-26T12:34:57.000Z</time>
      </trkpt>
      <trkpt lat="45.31997" lon="6.19281">
        <ele>2371.6000976562</ele>
        <time>2016-03-26T12:35:01.000Z</time>
      </trkpt>
      <trkpt lat="45.31995" lon="6.19279">
        <ele>2372.3999023438</ele>
        <time>2016-03-26T12:35:05.000Z</time>
      </trkpt>
      <trkpt lat="45.31995" lon="6.19279">
        <ele>2372.3999023438</ele>
        <time>2016-03-26T12:35:06.000Z</time>
      </trkpt>
      <trkpt lat="45.31992" lon="6.19273">
        <ele>2373</ele>
        <time>2016-03-26T12:35:12.000Z</time>
      </trkpt>
      <trkpt lat="45.31991" lon="6.19272">
        <ele>2373.6000976562</ele>
        <time>2016-03-26T12:35:15.000Z</time>
      </trkpt>
      <trkpt lat="45.31991" lon="6.19271">
        <ele>2373.6000976562</ele>
        <time>2016-03-26T12:35:16.000Z</time>
      </trkpt>
      <trkpt lat="45.31992" lon="6.19273">
        <ele>2374.6000976562</ele>
        <time>2016-03-26T12:35:22.000Z</time>
      </trkpt>
      <trkpt lat="45.31992" lon="6.19273">
        <ele>2375.1999511719</ele>
        <time>2016-03-26T12:35:24.000Z</time>
      </trkpt>
      <trkpt lat="45.31988" lon="6.19273">
        <ele>2375.8000488281</ele>
        <time>2016-03-26T12:35:31.000Z</time>
      </trkpt>
      <trkpt lat="45.31986" lon="6.19272">
        <ele>2375.8000488281</ele>
        <time>2016-03-26T12:35:32.000Z</time>
      </trkpt>
      <trkpt lat="45.31989" lon="6.19273">
        <ele>2376.8000488281</ele>
        <time>2016-03-26T12:35:39.000Z</time>
      </trkpt>
      <trkpt lat="45.3199" lon="6.19273">
        <ele>2377</ele>
        <time>2016-03-26T12:35:40.000Z</time>
      </trkpt>
      <trkpt lat="45.31998" lon="6.19276">
        <ele>2378</ele>
        <time>2016-03-26T12:35:47.000Z</time>
      </trkpt>
      <trkpt lat="45.32004" lon="6.19279">
        <ele>2378.8000488281</ele>
        <time>2016-03-26T12:35:54.000Z</time>
      </trkpt>
      <trkpt lat="45.32005" lon="6.19279">
        <ele>2379</ele>
        <time>2016-03-26T12:35:55.000Z</time>
      </trkpt>
      <trkpt lat="45.32004" lon="6.19278">
        <ele>2380.1999511719</ele>
        <time>2016-03-26T12:36:00.000Z</time>
      </trkpt>
      <trkpt lat="45.32004" lon="6.19277">
        <ele>2381</ele>
        <time>2016-03-26T12:36:03.000Z</time>
      </trkpt>
      <trkpt lat="45.32004" lon="6.19277">
        <ele>2381.1999511719</ele>
        <time>2016-03-26T12:36:05.000Z</time>
      </trkpt>
      <trkpt lat="45.32006" lon="6.19276">
        <ele>2381.3999023438</ele>
        <time>2016-03-26T12:36:09.000Z</time>
      </trkpt>
      <trkpt lat="45.32006" lon="6.19272">
        <ele>2381.6000976562</ele>
        <time>2016-03-26T12:36:14.000Z</time>
      </trkpt>
      <trkpt lat="45.32006" lon="6.1927">
        <ele>2382.1999511719</ele>
        <time>2016-03-26T12:36:16.000Z</time>
      </trkpt>
      <trkpt lat="45.32006" lon="6.19268">
        <ele>2382.6000976562</ele>
        <time>2016-03-26T12:36:18.000Z</time>
      </trkpt>
      <trkpt lat="45.32003" lon="6.19264">
        <ele>2383.1999511719</ele>
        <time>2016-03-26T12:36:22.000Z</time>
      </trkpt>
      <trkpt lat="45.32003" lon="6.19263">
        <ele>2383.3999023438</ele>
        <time>2016-03-26T12:36:24.000Z</time>
      </trkpt>
      <trkpt lat="45.32002" lon="6.1926">
        <ele>2383.6000976562</ele>
        <time>2016-03-26T12:36:27.000Z</time>
      </trkpt>
      <trkpt lat="45.32001" lon="6.19258">
        <ele>2384</ele>
        <time>2016-03-26T12:36:32.000Z</time>
      </trkpt>
      <trkpt lat="45.32" lon="6.19254">
        <ele>2384.3999023438</ele>
        <time>2016-03-26T12:36:36.000Z</time>
      </trkpt>
      <trkpt lat="45.31999" lon="6.19253">
        <ele>2384.6000976562</ele>
        <time>2016-03-26T12:36:38.000Z</time>
      </trkpt>
      <trkpt lat="45.31997" lon="6.19248">
        <ele>2385.6000976562</ele>
        <time>2016-03-26T12:36:44.000Z</time>
      </trkpt>
      <trkpt lat="45.31997" lon="6.19247">
        <ele>2385.8000488281</ele>
        <time>2016-03-26T12:36:45.000Z</time>
      </trkpt>
      <trkpt lat="45.31994" lon="6.19244">
        <ele>2386.3999023438</ele>
        <time>2016-03-26T12:36:50.000Z</time>
      </trkpt>
      <trkpt lat="45.31994" lon="6.19242">
        <ele>2386.6000976562</ele>
        <time>2016-03-26T12:36:52.000Z</time>
      </trkpt>
      <trkpt lat="45.31992" lon="6.19238">
        <ele>2387</ele>
        <time>2016-03-26T12:36:56.000Z</time>
      </trkpt>
      <trkpt lat="45.31988" lon="6.19235">
        <ele>2387.8000488281</ele>
        <time>2016-03-26T12:37:01.000Z</time>
      </trkpt>
      <trkpt lat="45.31987" lon="6.19233">
        <ele>2388.6000976562</ele>
        <time>2016-03-26T12:37:06.000Z</time>
      </trkpt>
      <trkpt lat="45.31985" lon="6.19233">
        <ele>2389</ele>
        <time>2016-03-26T12:37:10.000Z</time>
      </trkpt>
      <trkpt lat="45.31984" lon="6.19231">
        <ele>2389.3999023438</ele>
        <time>2016-03-26T12:37:13.000Z</time>
      </trkpt>
      <trkpt lat="45.31981" lon="6.19229">
        <ele>2390</ele>
        <time>2016-03-26T12:37:16.000Z</time>
      </trkpt>
      <trkpt lat="45.31981" lon="6.19229">
        <ele>2390.3999023438</ele>
        <time>2016-03-26T12:37:18.000Z</time>
      </trkpt>
      <trkpt lat="45.31981" lon="6.19229">
        <ele>2391.1999511719</ele>
        <time>2016-03-26T12:37:24.000Z</time>
      </trkpt>
      <trkpt lat="45.3198" lon="6.19228">
        <ele>2391.1999511719</ele>
        <time>2016-03-26T12:37:25.000Z</time>
      </trkpt>
      <trkpt lat="45.31978" lon="6.19227">
        <ele>2392.3999023438</ele>
        <time>2016-03-26T12:37:29.000Z</time>
      </trkpt>
      <trkpt lat="45.31976" lon="6.19227">
        <ele>2392.8000488281</ele>
        <time>2016-03-26T12:37:31.000Z</time>
      </trkpt>
      <trkpt lat="45.3197" lon="6.19226">
        <ele>2393.3999023438</ele>
        <time>2016-03-26T12:37:37.000Z</time>
      </trkpt>
      <trkpt lat="45.3197" lon="6.19226">
        <ele>2394</ele>
        <time>2016-03-26T12:37:44.000Z</time>
      </trkpt>
      <trkpt lat="45.3197" lon="6.19225">
        <ele>2394.6000976562</ele>
        <time>2016-03-26T12:37:46.000Z</time>
      </trkpt>
      <trkpt lat="45.31972" lon="6.19221">
        <ele>2395.3999023438</ele>
        <time>2016-03-26T12:37:51.000Z</time>
      </trkpt>
      <trkpt lat="45.31975" lon="6.19219">
        <ele>2395.8000488281</ele>
        <time>2016-03-26T12:37:55.000Z</time>
      </trkpt>
      <trkpt lat="45.31975" lon="6.19218">
        <ele>2395.6000976562</ele>
        <time>2016-03-26T12:37:56.000Z</time>
      </trkpt>
      <trkpt lat="45.31977" lon="6.19213">
        <ele>2396.8000488281</ele>
        <time>2016-03-26T12:38:02.000Z</time>
      </trkpt>
      <trkpt lat="45.31978" lon="6.19212">
        <ele>2397</ele>
        <time>2016-03-26T12:38:03.000Z</time>
      </trkpt>
      <trkpt lat="45.31982" lon="6.1921">
        <ele>2398</ele>
        <time>2016-03-26T12:38:08.000Z</time>
      </trkpt>
      <trkpt lat="45.31985" lon="6.19208">
        <ele>2399</ele>
        <time>2016-03-26T12:38:14.000Z</time>
      </trkpt>
      <trkpt lat="45.31986" lon="6.19206">
        <ele>2400</ele>
        <time>2016-03-26T12:38:18.000Z</time>
      </trkpt>
      <trkpt lat="45.31986" lon="6.19206">
        <ele>2400.6000976562</ele>
        <time>2016-03-26T12:38:20.000Z</time>
      </trkpt>
      <trkpt lat="45.31988" lon="6.19205">
        <ele>2401.1999511719</ele>
        <time>2016-03-26T12:38:23.000Z</time>
      </trkpt>
      <trkpt lat="45.31989" lon="6.19205">
        <ele>2401.6000976562</ele>
        <time>2016-03-26T12:38:26.000Z</time>
      </trkpt>
      <trkpt lat="45.31991" lon="6.19204">
        <ele>2402</ele>
        <time>2016-03-26T12:38:37.000Z</time>
      </trkpt>
      <trkpt lat="45.31991" lon="6.19203">
        <ele>2402.1999511719</ele>
        <time>2016-03-26T12:38:39.000Z</time>
      </trkpt>
      <trkpt lat="45.31994" lon="6.19201">
        <ele>2403.1999511719</ele>
        <time>2016-03-26T12:38:45.000Z</time>
      </trkpt>
      <trkpt lat="45.31995" lon="6.19201">
        <ele>2403.3999023438</ele>
        <time>2016-03-26T12:38:46.000Z</time>
      </trkpt>
      <trkpt lat="45.31996" lon="6.192">
        <ele>2404.6000976562</ele>
        <time>2016-03-26T12:38:50.000Z</time>
      </trkpt>
      <trkpt lat="45.31997" lon="6.19199">
        <ele>2405</ele>
        <time>2016-03-26T12:38:52.000Z</time>
      </trkpt>
      <trkpt lat="45.31999" lon="6.19197">
        <ele>2405.1999511719</ele>
        <time>2016-03-26T12:38:58.000Z</time>
      </trkpt>
      <trkpt lat="45.31997" lon="6.19193">
        <ele>2405.6000976562</ele>
        <time>2016-03-26T12:39:01.000Z</time>
      </trkpt>
      <trkpt lat="45.31995" lon="6.19191">
        <ele>2405.8000488281</ele>
        <time>2016-03-26T12:39:03.000Z</time>
      </trkpt>
      <trkpt lat="45.31994" lon="6.1919">
        <ele>2406.8000488281</ele>
        <time>2016-03-26T12:39:08.000Z</time>
      </trkpt>
      <trkpt lat="45.31994" lon="6.19188">
        <ele>2407.8000488281</ele>
        <time>2016-03-26T12:39:13.000Z</time>
      </trkpt>
      <trkpt lat="45.31993" lon="6.19186">
        <ele>2409</ele>
        <time>2016-03-26T12:39:18.000Z</time>
      </trkpt>
      <trkpt lat="45.31992" lon="6.19179">
        <ele>2410.1999511719</ele>
        <time>2016-03-26T12:39:24.000Z</time>
      </trkpt>
      <trkpt lat="45.3199" lon="6.19176">
        <ele>2411.1999511719</ele>
        <time>2016-03-26T12:39:29.000Z</time>
      </trkpt>
      <trkpt lat="45.31989" lon="6.19175">
        <ele>2411.3999023438</ele>
        <time>2016-03-26T12:39:31.000Z</time>
      </trkpt>
      <trkpt lat="45.31988" lon="6.19171">
        <ele>2411.8000488281</ele>
        <time>2016-03-26T12:39:36.000Z</time>
      </trkpt>
      <trkpt lat="45.31988" lon="6.19168">
        <ele>2412.1999511719</ele>
        <time>2016-03-26T12:39:39.000Z</time>
      </trkpt>
      <trkpt lat="45.31987" lon="6.19167">
        <ele>2412.1999511719</ele>
        <time>2016-03-26T12:39:41.000Z</time>
      </trkpt>
      <trkpt lat="45.31987" lon="6.19165">
        <ele>2412.3999023438</ele>
        <time>2016-03-26T12:39:45.000Z</time>
      </trkpt>
      <trkpt lat="45.31986" lon="6.19162">
        <ele>2412.8000488281</ele>
        <time>2016-03-26T12:39:49.000Z</time>
      </trkpt>
      <trkpt lat="45.31986" lon="6.19159">
        <ele>2413.3999023438</ele>
        <time>2016-03-26T12:39:51.000Z</time>
      </trkpt>
      <trkpt lat="45.31986" lon="6.19157">
        <ele>2413.8000488281</ele>
        <time>2016-03-26T12:39:53.000Z</time>
      </trkpt>
      <trkpt lat="45.31986" lon="6.19156">
        <ele>2414.3999023438</ele>
        <time>2016-03-26T12:39:56.000Z</time>
      </trkpt>
      <trkpt lat="45.31985" lon="6.19155">
        <ele>2414.8000488281</ele>
        <time>2016-03-26T12:39:58.000Z</time>
      </trkpt>
      <trkpt lat="45.31985" lon="6.19153">
        <ele>2415.6000976562</ele>
        <time>2016-03-26T12:40:01.000Z</time>
      </trkpt>
      <trkpt lat="45.31985" lon="6.19152">
        <ele>2416</ele>
        <time>2016-03-26T12:40:03.000Z</time>
      </trkpt>
      <trkpt lat="45.31984" lon="6.1915">
        <ele>2416.8000488281</ele>
        <time>2016-03-26T12:40:07.000Z</time>
      </trkpt>
      <trkpt lat="45.31983" lon="6.1915">
        <ele>2417</ele>
        <time>2016-03-26T12:40:09.000Z</time>
      </trkpt>
      <trkpt lat="45.31981" lon="6.19148">
        <ele>2417.8000488281</ele>
        <time>2016-03-26T12:40:14.000Z</time>
      </trkpt>
      <trkpt lat="45.31981" lon="6.19148">
        <ele>2417.8000488281</ele>
        <time>2016-03-26T12:40:15.000Z</time>
      </trkpt>
      <trkpt lat="45.31979" lon="6.19145">
        <ele>2418.3999023438</ele>
        <time>2016-03-26T12:40:19.000Z</time>
      </trkpt>
      <trkpt lat="45.31978" lon="6.19142">
        <ele>2418.8000488281</ele>
        <time>2016-03-26T12:40:22.000Z</time>
      </trkpt>
      <trkpt lat="45.31978" lon="6.1914">
        <ele>2419.6000976562</ele>
        <time>2016-03-26T12:40:25.000Z</time>
      </trkpt>
      <trkpt lat="45.31978" lon="6.1914">
        <ele>2420</ele>
        <time>2016-03-26T12:40:26.000Z</time>
      </trkpt>
      <trkpt lat="45.31976" lon="6.19137">
        <ele>2420.1999511719</ele>
        <time>2016-03-26T12:40:36.000Z</time>
      </trkpt>
      <trkpt lat="45.31973" lon="6.19133">
        <ele>2421</ele>
        <time>2016-03-26T12:40:41.000Z</time>
      </trkpt>
      <trkpt lat="45.31972" lon="6.19133">
        <ele>2421.1999511719</ele>
        <time>2016-03-26T12:40:42.000Z</time>
      </trkpt>
      <trkpt lat="45.31971" lon="6.19132">
        <ele>2422</ele>
        <time>2016-03-26T12:40:46.000Z</time>
      </trkpt>
      <trkpt lat="45.31969" lon="6.19131">
        <ele>2422.1999511719</ele>
        <time>2016-03-26T12:40:48.000Z</time>
      </trkpt>
      <trkpt lat="45.31966" lon="6.19129">
        <ele>2423</ele>
        <time>2016-03-26T12:40:53.000Z</time>
      </trkpt>
      <trkpt lat="45.31963" lon="6.19127">
        <ele>2423.6000976562</ele>
        <time>2016-03-26T12:40:56.000Z</time>
      </trkpt>
      <trkpt lat="45.31962" lon="6.19125">
        <ele>2423.6000976562</ele>
        <time>2016-03-26T12:40:58.000Z</time>
      </trkpt>
      <trkpt lat="45.31961" lon="6.19124">
        <ele>2424.8000488281</ele>
        <time>2016-03-26T12:41:03.000Z</time>
      </trkpt>
      <trkpt lat="45.31961" lon="6.19124">
        <ele>2424.8000488281</ele>
        <time>2016-03-26T12:41:04.000Z</time>
      </trkpt>
      <trkpt lat="45.31961" lon="6.19123">
        <ele>2425.8000488281</ele>
        <time>2016-03-26T12:41:08.000Z</time>
      </trkpt>
      <trkpt lat="45.3196" lon="6.19122">
        <ele>2426.1999511719</ele>
        <time>2016-03-26T12:41:10.000Z</time>
      </trkpt>
      <trkpt lat="45.31958" lon="6.19122">
        <ele>2427</ele>
        <time>2016-03-26T12:41:13.000Z</time>
      </trkpt>
      <trkpt lat="45.31957" lon="6.19121">
        <ele>2427.3999023438</ele>
        <time>2016-03-26T12:41:15.000Z</time>
      </trkpt>
      <trkpt lat="45.31955" lon="6.1912">
        <ele>2427.6000976562</ele>
        <time>2016-03-26T12:41:21.000Z</time>
      </trkpt>
      <trkpt lat="45.31954" lon="6.19119">
        <ele>2428</ele>
        <time>2016-03-26T12:41:25.000Z</time>
      </trkpt>
      <trkpt lat="45.31954" lon="6.19119">
        <ele>2429</ele>
        <time>2016-03-26T12:41:28.000Z</time>
      </trkpt>
      <trkpt lat="45.31956" lon="6.19115">
        <ele>2430.1999511719</ele>
        <time>2016-03-26T12:41:32.000Z</time>
      </trkpt>
      <trkpt lat="45.31959" lon="6.1911">
        <ele>2430.8000488281</ele>
        <time>2016-03-26T12:41:38.000Z</time>
      </trkpt>
      <trkpt lat="45.31959" lon="6.1911">
        <ele>2431.1999511719</ele>
        <time>2016-03-26T12:41:39.000Z</time>
      </trkpt>
      <trkpt lat="45.3196" lon="6.19108">
        <ele>2432.1999511719</ele>
        <time>2016-03-26T12:41:43.000Z</time>
      </trkpt>
      <trkpt lat="45.31962" lon="6.19106">
        <ele>2432.8000488281</ele>
        <time>2016-03-26T12:41:49.000Z</time>
      </trkpt>
      <trkpt lat="45.31963" lon="6.19105">
        <ele>2433.1999511719</ele>
        <time>2016-03-26T12:41:51.000Z</time>
      </trkpt>
      <trkpt lat="45.31963" lon="6.19102">
        <ele>2434</ele>
        <time>2016-03-26T12:41:57.000Z</time>
      </trkpt>
      <trkpt lat="45.31963" lon="6.19101">
        <ele>2434.3999023438</ele>
        <time>2016-03-26T12:42:00.000Z</time>
      </trkpt>
      <trkpt lat="45.31965" lon="6.19099">
        <ele>2435.1999511719</ele>
        <time>2016-03-26T12:42:04.000Z</time>
      </trkpt>
      <trkpt lat="45.31966" lon="6.19098">
        <ele>2435.6000976562</ele>
        <time>2016-03-26T12:42:06.000Z</time>
      </trkpt>
      <trkpt lat="45.3197" lon="6.19096">
        <ele>2435.8000488281</ele>
        <time>2016-03-26T12:42:11.000Z</time>
      </trkpt>
      <trkpt lat="45.31972" lon="6.19095">
        <ele>2436.6000976562</ele>
        <time>2016-03-26T12:42:15.000Z</time>
      </trkpt>
      <trkpt lat="45.31973" lon="6.19093">
        <ele>2437.8000488281</ele>
        <time>2016-03-26T12:42:19.000Z</time>
      </trkpt>
      <trkpt lat="45.31975" lon="6.19093">
        <ele>2438</ele>
        <time>2016-03-26T12:42:22.000Z</time>
      </trkpt>
      <trkpt lat="45.31978" lon="6.1909">
        <ele>2438.8000488281</ele>
        <time>2016-03-26T12:42:29.000Z</time>
      </trkpt>
      <trkpt lat="45.31978" lon="6.19088">
        <ele>2440</ele>
        <time>2016-03-26T12:42:37.000Z</time>
      </trkpt>
      <trkpt lat="45.31979" lon="6.19088">
        <ele>2440.1999511719</ele>
        <time>2016-03-26T12:42:39.000Z</time>
      </trkpt>
      <trkpt lat="45.31986" lon="6.19087">
        <ele>2441</ele>
        <time>2016-03-26T12:42:47.000Z</time>
      </trkpt>
      <trkpt lat="45.31986" lon="6.19087">
        <ele>2441.1999511719</ele>
        <time>2016-03-26T12:42:48.000Z</time>
      </trkpt>
      <trkpt lat="45.31989" lon="6.19087">
        <ele>2442</ele>
        <time>2016-03-26T12:42:54.000Z</time>
      </trkpt>
      <trkpt lat="45.31991" lon="6.19087">
        <ele>2442.1999511719</ele>
        <time>2016-03-26T12:42:56.000Z</time>
      </trkpt>
      <trkpt lat="45.31993" lon="6.19087">
        <ele>2443.1999511719</ele>
        <time>2016-03-26T12:43:00.000Z</time>
      </trkpt>
      <trkpt lat="45.31995" lon="6.19086">
        <ele>2443.3999023438</ele>
        <time>2016-03-26T12:43:04.000Z</time>
      </trkpt>
      <trkpt lat="45.31997" lon="6.19087">
        <ele>2444.1999511719</ele>
        <time>2016-03-26T12:43:09.000Z</time>
      </trkpt>
      <trkpt lat="45.31998" lon="6.19087">
        <ele>2444.3999023438</ele>
        <time>2016-03-26T12:43:13.000Z</time>
      </trkpt>
      <trkpt lat="45.31999" lon="6.19084">
        <ele>2445</ele>
        <time>2016-03-26T12:43:18.000Z</time>
      </trkpt>
      <trkpt lat="45.31999" lon="6.19083">
        <ele>2445.3999023438</ele>
        <time>2016-03-26T12:43:20.000Z</time>
      </trkpt>
      <trkpt lat="45.31998" lon="6.19081">
        <ele>2446</ele>
        <time>2016-03-26T12:43:23.000Z</time>
      </trkpt>
      <trkpt lat="45.31997" lon="6.19078">
        <ele>2446.3999023438</ele>
        <time>2016-03-26T12:43:26.000Z</time>
      </trkpt>
      <trkpt lat="45.31996" lon="6.19077">
        <ele>2446.8000488281</ele>
        <time>2016-03-26T12:43:28.000Z</time>
      </trkpt>
      <trkpt lat="45.31994" lon="6.19072">
        <ele>2447.3999023438</ele>
        <time>2016-03-26T12:43:35.000Z</time>
      </trkpt>
      <trkpt lat="45.31994" lon="6.19071">
        <ele>2447.6000976562</ele>
        <time>2016-03-26T12:43:36.000Z</time>
      </trkpt>
      <trkpt lat="45.31993" lon="6.19068">
        <ele>2448.6000976562</ele>
        <time>2016-03-26T12:43:40.000Z</time>
      </trkpt>
      <trkpt lat="45.31991" lon="6.19066">
        <ele>2449.1999511719</ele>
        <time>2016-03-26T12:43:44.000Z</time>
      </trkpt>
      <trkpt lat="45.3199" lon="6.19064">
        <ele>2449.8000488281</ele>
        <time>2016-03-26T12:43:48.000Z</time>
      </trkpt>
      <trkpt lat="45.31989" lon="6.19062">
        <ele>2450.1999511719</ele>
        <time>2016-03-26T12:43:52.000Z</time>
      </trkpt>
      <trkpt lat="45.31989" lon="6.19059">
        <ele>2451</ele>
        <time>2016-03-26T12:43:57.000Z</time>
      </trkpt>
      <trkpt lat="45.31985" lon="6.19056">
        <ele>2451.8000488281</ele>
        <time>2016-03-26T12:44:03.000Z</time>
      </trkpt>
      <trkpt lat="45.31984" lon="6.19054">
        <ele>2452</ele>
        <time>2016-03-26T12:44:05.000Z</time>
      </trkpt>
      <trkpt lat="45.31982" lon="6.19052">
        <ele>2453.1999511719</ele>
        <time>2016-03-26T12:44:09.000Z</time>
      </trkpt>
      <trkpt lat="45.31982" lon="6.19052">
        <ele>2453.3999023438</ele>
        <time>2016-03-26T12:44:18.000Z</time>
      </trkpt>
      <trkpt lat="45.31981" lon="6.19051">
        <ele>2453.6000976562</ele>
        <time>2016-03-26T12:44:34.000Z</time>
      </trkpt>
      <trkpt lat="45.31978" lon="6.19049">
        <ele>2453.8000488281</ele>
        <time>2016-03-26T12:44:39.000Z</time>
      </trkpt>
      <trkpt lat="45.31978" lon="6.19049">
        <ele>2454.1999511719</ele>
        <time>2016-03-26T12:44:40.000Z</time>
      </trkpt>
      <trkpt lat="45.31976" lon="6.19045">
        <ele>2455</ele>
        <time>2016-03-26T12:44:44.000Z</time>
      </trkpt>
      <trkpt lat="45.31975" lon="6.19045">
        <ele>2455.3999023438</ele>
        <time>2016-03-26T12:44:45.000Z</time>
      </trkpt>
      <trkpt lat="45.31973" lon="6.19042">
        <ele>2456.1999511719</ele>
        <time>2016-03-26T12:44:51.000Z</time>
      </trkpt>
      <trkpt lat="45.31973" lon="6.1904">
        <ele>2456.3999023438</ele>
        <time>2016-03-26T12:44:53.000Z</time>
      </trkpt>
      <trkpt lat="45.31971" lon="6.19038">
        <ele>2457</ele>
        <time>2016-03-26T12:44:58.000Z</time>
      </trkpt>
      <trkpt lat="45.31969" lon="6.19036">
        <ele>2457.3999023438</ele>
        <time>2016-03-26T12:45:00.000Z</time>
      </trkpt>
      <trkpt lat="45.31967" lon="6.19034">
        <ele>2458.6000976562</ele>
        <time>2016-03-26T12:45:05.000Z</time>
      </trkpt>
      <trkpt lat="45.31965" lon="6.19031">
        <ele>2459.3999023438</ele>
        <time>2016-03-26T12:45:10.000Z</time>
      </trkpt>
      <trkpt lat="45.31965" lon="6.1903">
        <ele>2459.8000488281</ele>
        <time>2016-03-26T12:45:12.000Z</time>
      </trkpt>
      <trkpt lat="45.31962" lon="6.19028">
        <ele>2460.3999023438</ele>
        <time>2016-03-26T12:45:15.000Z</time>
      </trkpt>
      <trkpt lat="45.31961" lon="6.19027">
        <ele>2460.8000488281</ele>
        <time>2016-03-26T12:45:17.000Z</time>
      </trkpt>
      <trkpt lat="45.31957" lon="6.19024">
        <ele>2461.6000976562</ele>
        <time>2016-03-26T12:45:25.000Z</time>
      </trkpt>
      <trkpt lat="45.31955" lon="6.19024">
        <ele>2462</ele>
        <time>2016-03-26T12:45:27.000Z</time>
      </trkpt>
      <trkpt lat="45.31955" lon="6.19024">
        <ele>2463.1999511719</ele>
        <time>2016-03-26T12:45:30.000Z</time>
      </trkpt>
      <trkpt lat="45.31956" lon="6.19022">
        <ele>2463.8000488281</ele>
        <time>2016-03-26T12:45:33.000Z</time>
      </trkpt>
      <trkpt lat="45.31956" lon="6.19021">
        <ele>2464.1999511719</ele>
        <time>2016-03-26T12:45:36.000Z</time>
      </trkpt>
      <trkpt lat="45.31957" lon="6.19021">
        <ele>2464.6000976562</ele>
        <time>2016-03-26T12:45:38.000Z</time>
      </trkpt>
      <trkpt lat="45.31957" lon="6.19021">
        <ele>2465.1999511719</ele>
        <time>2016-03-26T12:45:48.000Z</time>
      </trkpt>
      <trkpt lat="45.31957" lon="6.19021">
        <ele>2465</ele>
        <time>2016-03-26T12:46:01.000Z</time>
      </trkpt>
      <trkpt lat="45.31957" lon="6.19021">
        <ele>2465</ele>
        <time>2016-03-26T12:46:15.000Z</time>
      </trkpt>
      <trkpt lat="45.31956" lon="6.19021">
        <ele>2465</ele>
        <time>2016-03-26T12:46:30.000Z</time>
      </trkpt>
      <trkpt lat="45.31956" lon="6.19019">
        <ele>2465.3999023438</ele>
        <time>2016-03-26T12:46:34.000Z</time>
      </trkpt>
      <trkpt lat="45.31957" lon="6.19018">
        <ele>2466</ele>
        <time>2016-03-26T12:46:36.000Z</time>
      </trkpt>
      <trkpt lat="45.31961" lon="6.19015">
        <ele>2466.6000976562</ele>
        <time>2016-03-26T12:46:39.000Z</time>
      </trkpt>
      <trkpt lat="45.31963" lon="6.19013">
        <ele>2466.8000488281</ele>
        <time>2016-03-26T12:46:41.000Z</time>
      </trkpt>
      <trkpt lat="45.31967" lon="6.19009">
        <ele>2467.6000976562</ele>
        <time>2016-03-26T12:46:46.000Z</time>
      </trkpt>
      <trkpt lat="45.31967" lon="6.19009">
        <ele>2467.8000488281</ele>
        <time>2016-03-26T12:46:47.000Z</time>
      </trkpt>
      <trkpt lat="45.31968" lon="6.19006">
        <ele>2468.6000976562</ele>
        <time>2016-03-26T12:46:52.000Z</time>
      </trkpt>
      <trkpt lat="45.31968" lon="6.19006">
        <ele>2468.8000488281</ele>
        <time>2016-03-26T12:46:54.000Z</time>
      </trkpt>
      <trkpt lat="45.31969" lon="6.19005">
        <ele>2469.8000488281</ele>
        <time>2016-03-26T12:46:58.000Z</time>
      </trkpt>
      <trkpt lat="45.31969" lon="6.19005">
        <ele>2470</ele>
        <time>2016-03-26T12:46:59.000Z</time>
      </trkpt>
      <trkpt lat="45.3197" lon="6.19001">
        <ele>2470.6000976562</ele>
        <time>2016-03-26T12:47:04.000Z</time>
      </trkpt>
      <trkpt lat="45.3197" lon="6.19001">
        <ele>2471</ele>
        <time>2016-03-26T12:47:05.000Z</time>
      </trkpt>
      <trkpt lat="45.3197" lon="6.18997">
        <ele>2471.6000976562</ele>
        <time>2016-03-26T12:47:09.000Z</time>
      </trkpt>
      <trkpt lat="45.3197" lon="6.18996">
        <ele>2472.1999511719</ele>
        <time>2016-03-26T12:47:13.000Z</time>
      </trkpt>
      <trkpt lat="45.31969" lon="6.18992">
        <ele>2473.3999023438</ele>
        <time>2016-03-26T12:47:18.000Z</time>
      </trkpt>
      <trkpt lat="45.31969" lon="6.18987">
        <ele>2473.6000976562</ele>
        <time>2016-03-26T12:47:24.000Z</time>
      </trkpt>
      <trkpt lat="45.31967" lon="6.18985">
        <ele>2474.3999023438</ele>
        <time>2016-03-26T12:47:28.000Z</time>
      </trkpt>
      <trkpt lat="45.31966" lon="6.18983">
        <ele>2475.3999023438</ele>
        <time>2016-03-26T12:47:31.000Z</time>
      </trkpt>
      <trkpt lat="45.31965" lon="6.18982">
        <ele>2475.6000976562</ele>
        <time>2016-03-26T12:47:33.000Z</time>
      </trkpt>
      <trkpt lat="45.31964" lon="6.18979">
        <ele>2476.1999511719</ele>
        <time>2016-03-26T12:47:38.000Z</time>
      </trkpt>
      <trkpt lat="45.31963" lon="6.18976">
        <ele>2476.6000976562</ele>
        <time>2016-03-26T12:47:41.000Z</time>
      </trkpt>
      <trkpt lat="45.31962" lon="6.18975">
        <ele>2476.8000488281</ele>
        <time>2016-03-26T12:47:43.000Z</time>
      </trkpt>
      <trkpt lat="45.31962" lon="6.18974">
        <ele>2477.1999511719</ele>
        <time>2016-03-26T12:47:48.000Z</time>
      </trkpt>
      <trkpt lat="45.3196" lon="6.18972">
        <ele>2477.8000488281</ele>
        <time>2016-03-26T12:47:51.000Z</time>
      </trkpt>
      <trkpt lat="45.3196" lon="6.18971">
        <ele>2478.3999023438</ele>
        <time>2016-03-26T12:47:53.000Z</time>
      </trkpt>
      <trkpt lat="45.31959" lon="6.1897">
        <ele>2478.8000488281</ele>
        <time>2016-03-26T12:47:55.000Z</time>
      </trkpt>
      <trkpt lat="45.31954" lon="6.18965">
        <ele>2479.8000488281</ele>
        <time>2016-03-26T12:48:00.000Z</time>
      </trkpt>
      <trkpt lat="45.31954" lon="6.18964">
        <ele>2479.8000488281</ele>
        <time>2016-03-26T12:48:01.000Z</time>
      </trkpt>
      <trkpt lat="45.31953" lon="6.1896">
        <ele>2480.8000488281</ele>
        <time>2016-03-26T12:48:08.000Z</time>
      </trkpt>
      <trkpt lat="45.31953" lon="6.1896">
        <ele>2481.1999511719</ele>
        <time>2016-03-26T12:48:09.000Z</time>
      </trkpt>
      <trkpt lat="45.31955" lon="6.1896">
        <ele>2482.1999511719</ele>
        <time>2016-03-26T12:48:13.000Z</time>
      </trkpt>
      <trkpt lat="45.31956" lon="6.1896">
        <ele>2482.1999511719</ele>
        <time>2016-03-26T12:48:14.000Z</time>
      </trkpt>
      <trkpt lat="45.31959" lon="6.18958">
        <ele>2482.8000488281</ele>
        <time>2016-03-26T12:48:19.000Z</time>
      </trkpt>
      <trkpt lat="45.3196" lon="6.18957">
        <ele>2483.1999511719</ele>
        <time>2016-03-26T12:48:21.000Z</time>
      </trkpt>
      <trkpt lat="45.31962" lon="6.18957">
        <ele>2484.1999511719</ele>
        <time>2016-03-26T12:48:26.000Z</time>
      </trkpt>
      <trkpt lat="45.31963" lon="6.18956">
        <ele>2484.3999023438</ele>
        <time>2016-03-26T12:48:28.000Z</time>
      </trkpt>
      <trkpt lat="45.31965" lon="6.18955">
        <ele>2485.6000976562</ele>
        <time>2016-03-26T12:48:35.000Z</time>
      </trkpt>
      <trkpt lat="45.31967" lon="6.18954">
        <ele>2486.8000488281</ele>
        <time>2016-03-26T12:48:42.000Z</time>
      </trkpt>
      <trkpt lat="45.31967" lon="6.18954">
        <ele>2487.8000488281</ele>
        <time>2016-03-26T12:48:46.000Z</time>
      </trkpt>
      <trkpt lat="45.31969" lon="6.18953">
        <ele>2488</ele>
        <time>2016-03-26T12:48:49.000Z</time>
      </trkpt>
      <trkpt lat="45.31969" lon="6.18951">
        <ele>2489</ele>
        <time>2016-03-26T12:48:54.000Z</time>
      </trkpt>
      <trkpt lat="45.31969" lon="6.18951">
        <ele>2489</ele>
        <time>2016-03-26T12:48:55.000Z</time>
      </trkpt>
      <trkpt lat="45.31968" lon="6.18947">
        <ele>2489.8000488281</ele>
        <time>2016-03-26T12:49:01.000Z</time>
      </trkpt>
      <trkpt lat="45.31968" lon="6.18946">
        <ele>2490</ele>
        <time>2016-03-26T12:49:02.000Z</time>
      </trkpt>
      <trkpt lat="45.31968" lon="6.18943">
        <ele>2491.1999511719</ele>
        <time>2016-03-26T12:49:06.000Z</time>
      </trkpt>
      <trkpt lat="45.31968" lon="6.18942">
        <ele>2491.3999023438</ele>
        <time>2016-03-26T12:49:07.000Z</time>
      </trkpt>
      <trkpt lat="45.31966" lon="6.18936">
        <ele>2491.8000488281</ele>
        <time>2016-03-26T12:49:15.000Z</time>
      </trkpt>
      <trkpt lat="45.31965" lon="6.18934">
        <ele>2492.1999511719</ele>
        <time>2016-03-26T12:49:17.000Z</time>
      </trkpt>
      <trkpt lat="45.31965" lon="6.18929">
        <ele>2492.8000488281</ele>
        <time>2016-03-26T12:49:21.000Z</time>
      </trkpt>
      <trkpt lat="45.31963" lon="6.18926">
        <ele>2493.3999023438</ele>
        <time>2016-03-26T12:49:26.000Z</time>
      </trkpt>
      <trkpt lat="45.31962" lon="6.18924">
        <ele>2493.3999023438</ele>
        <time>2016-03-26T12:49:28.000Z</time>
      </trkpt>
      <trkpt lat="45.31962" lon="6.18923">
        <ele>2493.8000488281</ele>
        <time>2016-03-26T12:49:30.000Z</time>
      </trkpt>
      <trkpt lat="45.31961" lon="6.18922">
        <ele>2494.6000976562</ele>
        <time>2016-03-26T12:49:34.000Z</time>
      </trkpt>
      <trkpt lat="45.31961" lon="6.18921">
        <ele>2494.8000488281</ele>
        <time>2016-03-26T12:49:35.000Z</time>
      </trkpt>
      <trkpt lat="45.31959" lon="6.18919">
        <ele>2495.6000976562</ele>
        <time>2016-03-26T12:49:39.000Z</time>
      </trkpt>
      <trkpt lat="45.31957" lon="6.18915">
        <ele>2496</ele>
        <time>2016-03-26T12:49:43.000Z</time>
      </trkpt>
      <trkpt lat="45.31956" lon="6.18912">
        <ele>2496.6000976562</ele>
        <time>2016-03-26T12:49:47.000Z</time>
      </trkpt>
      <trkpt lat="45.31956" lon="6.18912">
        <ele>2496.6000976562</ele>
        <time>2016-03-26T12:49:48.000Z</time>
      </trkpt>
      <trkpt lat="45.31955" lon="6.18911">
        <ele>2497</ele>
        <time>2016-03-26T12:49:51.000Z</time>
      </trkpt>
      <trkpt lat="45.31954" lon="6.18909">
        <ele>2497.6000976562</ele>
        <time>2016-03-26T12:49:54.000Z</time>
      </trkpt>
      <trkpt lat="45.31953" lon="6.18908">
        <ele>2498</ele>
        <time>2016-03-26T12:49:56.000Z</time>
      </trkpt>
      <trkpt lat="45.31953" lon="6.18907">
        <ele>2498.6000976562</ele>
        <time>2016-03-26T12:50:00.000Z</time>
      </trkpt>
      <trkpt lat="45.31953" lon="6.18906">
        <ele>2498.6000976562</ele>
        <time>2016-03-26T12:50:01.000Z</time>
      </trkpt>
      <trkpt lat="45.31953" lon="6.18905">
        <ele>2499.6000976562</ele>
        <time>2016-03-26T12:50:04.000Z</time>
      </trkpt>
      <trkpt lat="45.31953" lon="6.18905">
        <ele>2500</ele>
        <time>2016-03-26T12:50:05.000Z</time>
      </trkpt>
      <trkpt lat="45.31954" lon="6.18903">
        <ele>2500.8000488281</ele>
        <time>2016-03-26T12:50:09.000Z</time>
      </trkpt>
      <trkpt lat="45.31956" lon="6.18902">
        <ele>2501</ele>
        <time>2016-03-26T12:50:14.000Z</time>
      </trkpt>
      <trkpt lat="45.31957" lon="6.189">
        <ele>2501.3999023438</ele>
        <time>2016-03-26T12:50:16.000Z</time>
      </trkpt>
      <trkpt lat="45.31958" lon="6.18899">
        <ele>2502</ele>
        <time>2016-03-26T12:50:19.000Z</time>
      </trkpt>
      <trkpt lat="45.31959" lon="6.18897">
        <ele>2502.8000488281</ele>
        <time>2016-03-26T12:50:22.000Z</time>
      </trkpt>
      <trkpt lat="45.31959" lon="6.18896">
        <ele>2503</ele>
        <time>2016-03-26T12:50:25.000Z</time>
      </trkpt>
      <trkpt lat="45.31959" lon="6.18895">
        <ele>2503.3999023438</ele>
        <time>2016-03-26T12:50:27.000Z</time>
      </trkpt>
      <trkpt lat="45.31959" lon="6.18894">
        <ele>2504.1999511719</ele>
        <time>2016-03-26T12:50:30.000Z</time>
      </trkpt>
      <trkpt lat="45.3196" lon="6.18892">
        <ele>2504.3999023438</ele>
        <time>2016-03-26T12:50:33.000Z</time>
      </trkpt>
      <trkpt lat="45.31962" lon="6.18891">
        <ele>2505.3999023438</ele>
        <time>2016-03-26T12:50:37.000Z</time>
      </trkpt>
      <trkpt lat="45.31963" lon="6.18891">
        <ele>2505.8000488281</ele>
        <time>2016-03-26T12:50:39.000Z</time>
      </trkpt>
      <trkpt lat="45.31963" lon="6.18888">
        <ele>2506.3999023438</ele>
        <time>2016-03-26T12:50:43.000Z</time>
      </trkpt>
      <trkpt lat="45.31961" lon="6.18885">
        <ele>2507</ele>
        <time>2016-03-26T12:50:45.000Z</time>
      </trkpt>
      <trkpt lat="45.31958" lon="6.1888">
        <ele>2507.3999023438</ele>
        <time>2016-03-26T12:50:51.000Z</time>
      </trkpt>
      <trkpt lat="45.31957" lon="6.18879">
        <ele>2507.6000976562</ele>
        <time>2016-03-26T12:50:53.000Z</time>
      </trkpt>
      <trkpt lat="45.31955" lon="6.18878">
        <ele>2508</ele>
        <time>2016-03-26T12:50:56.000Z</time>
      </trkpt>
      <trkpt lat="45.31953" lon="6.18876">
        <ele>2508.6000976562</ele>
        <time>2016-03-26T12:50:58.000Z</time>
      </trkpt>
      <trkpt lat="45.31953" lon="6.18876">
        <ele>2509.1999511719</ele>
        <time>2016-03-26T12:51:01.000Z</time>
      </trkpt>
      <trkpt lat="45.31953" lon="6.18876">
        <ele>2509.6000976562</ele>
        <time>2016-03-26T12:51:03.000Z</time>
      </trkpt>
      <trkpt lat="45.31951" lon="6.18875">
        <ele>2510</ele>
        <time>2016-03-26T12:51:06.000Z</time>
      </trkpt>
      <trkpt lat="45.31948" lon="6.18871">
        <ele>2510.1999511719</ele>
        <time>2016-03-26T12:51:11.000Z</time>
      </trkpt>
      <trkpt lat="45.31947" lon="6.1887">
        <ele>2510.6000976562</ele>
        <time>2016-03-26T12:51:15.000Z</time>
      </trkpt>
      <trkpt lat="45.31946" lon="6.1887">
        <ele>2511</ele>
        <time>2016-03-26T12:51:17.000Z</time>
      </trkpt>
      <trkpt lat="45.31946" lon="6.18869">
        <ele>2511.8000488281</ele>
        <time>2016-03-26T12:51:20.000Z</time>
      </trkpt>
      <trkpt lat="45.31946" lon="6.18867">
        <ele>2512.6000976562</ele>
        <time>2016-03-26T12:51:24.000Z</time>
      </trkpt>
      <trkpt lat="45.31946" lon="6.18866">
        <ele>2512.8000488281</ele>
        <time>2016-03-26T12:51:25.000Z</time>
      </trkpt>
      <trkpt lat="45.31946" lon="6.18864">
        <ele>2514.1999511719</ele>
        <time>2016-03-26T12:51:29.000Z</time>
      </trkpt>
      <trkpt lat="45.31946" lon="6.18863">
        <ele>2514.3999023438</ele>
        <time>2016-03-26T12:51:30.000Z</time>
      </trkpt>
      <trkpt lat="45.31947" lon="6.18862">
        <ele>2514.8000488281</ele>
        <time>2016-03-26T12:51:34.000Z</time>
      </trkpt>
      <trkpt lat="45.31946" lon="6.18861">
        <ele>2515.3999023438</ele>
        <time>2016-03-26T12:51:37.000Z</time>
      </trkpt>
      <trkpt lat="45.31946" lon="6.18859">
        <ele>2515.8000488281</ele>
        <time>2016-03-26T12:51:39.000Z</time>
      </trkpt>
      <trkpt lat="45.31946" lon="6.18858">
        <ele>2516.3999023438</ele>
        <time>2016-03-26T12:51:41.000Z</time>
      </trkpt>
      <trkpt lat="45.31945" lon="6.18856">
        <ele>2516.6000976562</ele>
        <time>2016-03-26T12:51:44.000Z</time>
      </trkpt>
      <trkpt lat="45.31944" lon="6.18853">
        <ele>2517.1999511719</ele>
        <time>2016-03-26T12:51:50.000Z</time>
      </trkpt>
      <trkpt lat="45.31944" lon="6.18853">
        <ele>2517.6000976562</ele>
        <time>2016-03-26T12:51:51.000Z</time>
      </trkpt>
      <trkpt lat="45.31944" lon="6.18849">
        <ele>2518</ele>
        <time>2016-03-26T12:51:54.000Z</time>
      </trkpt>
      <trkpt lat="45.31944" lon="6.18848">
        <ele>2518.6000976562</ele>
        <time>2016-03-26T12:51:59.000Z</time>
      </trkpt>
      <trkpt lat="45.31944" lon="6.18848">
        <ele>2518.8000488281</ele>
        <time>2016-03-26T12:52:00.000Z</time>
      </trkpt>
      <trkpt lat="45.31944" lon="6.18848">
        <ele>2519</ele>
        <time>2016-03-26T12:52:09.000Z</time>
      </trkpt>
      <trkpt lat="45.31944" lon="6.18848">
        <ele>2519.1999511719</ele>
        <time>2016-03-26T12:52:30.000Z</time>
      </trkpt>
      <trkpt lat="45.31944" lon="6.18848">
        <ele>2519</ele>
        <time>2016-03-26T12:52:46.000Z</time>
      </trkpt>
      <trkpt lat="45.31944" lon="6.18848">
        <ele>2519</ele>
        <time>2016-03-26T12:53:00.000Z</time>
      </trkpt>
      <trkpt lat="45.31944" lon="6.18848">
        <ele>2519.3999023438</ele>
        <time>2016-03-26T12:53:11.000Z</time>
      </trkpt>
      <trkpt lat="45.31944" lon="6.18848">
        <ele>2519.6000976562</ele>
        <time>2016-03-26T12:53:25.000Z</time>
      </trkpt>
      <trkpt lat="45.31944" lon="6.18848">
        <ele>2519.6000976562</ele>
        <time>2016-03-26T12:53:41.000Z</time>
      </trkpt>
      <trkpt lat="45.31944" lon="6.18848">
        <ele>2519.8000488281</ele>
        <time>2016-03-26T12:53:49.000Z</time>
      </trkpt>
      <trkpt lat="45.31944" lon="6.18848">
        <ele>2519.8000488281</ele>
        <time>2016-03-26T12:53:51.000Z</time>
      </trkpt>
      <trkpt lat="45.31944" lon="6.18842">
        <ele>2519.6000976562</ele>
        <time>2016-03-26T12:53:55.000Z</time>
      </trkpt>
      <trkpt lat="45.31944" lon="6.18834">
        <ele>2520.8000488281</ele>
        <time>2016-03-26T12:54:00.000Z</time>
      </trkpt>
      <trkpt lat="45.31944" lon="6.18829">
        <ele>2521.6000976562</ele>
        <time>2016-03-26T12:54:05.000Z</time>
      </trkpt>
      <trkpt lat="45.31944" lon="6.18829">
        <ele>2521.8000488281</ele>
        <time>2016-03-26T12:54:06.000Z</time>
      </trkpt>
      <trkpt lat="45.31943" lon="6.18824">
        <ele>2522.3999023438</ele>
        <time>2016-03-26T12:54:10.000Z</time>
      </trkpt>
      <trkpt lat="45.31943" lon="6.18822">
        <ele>2522.8000488281</ele>
        <time>2016-03-26T12:54:12.000Z</time>
      </trkpt>
      <trkpt lat="45.31943" lon="6.1882">
        <ele>2523.1999511719</ele>
        <time>2016-03-26T12:54:15.000Z</time>
      </trkpt>
      <trkpt lat="45.31942" lon="6.18816">
        <ele>2524</ele>
        <time>2016-03-26T12:54:19.000Z</time>
      </trkpt>
      <trkpt lat="45.31942" lon="6.18816">
        <ele>2524.1999511719</ele>
        <time>2016-03-26T12:54:20.000Z</time>
      </trkpt>
      <trkpt lat="45.31941" lon="6.1881">
        <ele>2524.8000488281</ele>
        <time>2016-03-26T12:54:26.000Z</time>
      </trkpt>
      <trkpt lat="45.3194" lon="6.18809">
        <ele>2525</ele>
        <time>2016-03-26T12:54:29.000Z</time>
      </trkpt>
      <trkpt lat="45.31939" lon="6.18806">
        <ele>2525.3999023438</ele>
        <time>2016-03-26T12:54:32.000Z</time>
      </trkpt>
      <trkpt lat="45.31938" lon="6.18801">
        <ele>2525.8000488281</ele>
        <time>2016-03-26T12:54:37.000Z</time>
      </trkpt>
      <trkpt lat="45.31938" lon="6.18799">
        <ele>2526</ele>
        <time>2016-03-26T12:54:39.000Z</time>
      </trkpt>
      <trkpt lat="45.31937" lon="6.18795">
        <ele>2526.6000976562</ele>
        <time>2016-03-26T12:54:42.000Z</time>
      </trkpt>
      <trkpt lat="45.31938" lon="6.18792">
        <ele>2527.1999511719</ele>
        <time>2016-03-26T12:54:46.000Z</time>
      </trkpt>
      <trkpt lat="45.31937" lon="6.1879">
        <ele>2527.6000976562</ele>
        <time>2016-03-26T12:54:48.000Z</time>
      </trkpt>
      <trkpt lat="45.31935" lon="6.18787">
        <ele>2528</ele>
        <time>2016-03-26T12:54:52.000Z</time>
      </trkpt>
      <trkpt lat="45.31935" lon="6.18786">
        <ele>2528.3999023438</ele>
        <time>2016-03-26T12:54:54.000Z</time>
      </trkpt>
      <trkpt lat="45.31934" lon="6.18781">
        <ele>2528.8000488281</ele>
        <time>2016-03-26T12:54:58.000Z</time>
      </trkpt>
      <trkpt lat="45.31933" lon="6.1878">
        <ele>2529.1999511719</ele>
        <time>2016-03-26T12:55:02.000Z</time>
      </trkpt>
      <trkpt lat="45.31933" lon="6.18778">
        <ele>2529.6000976562</ele>
        <time>2016-03-26T12:55:05.000Z</time>
      </trkpt>
      <trkpt lat="45.31933" lon="6.18775">
        <ele>2530.1999511719</ele>
        <time>2016-03-26T12:55:08.000Z</time>
      </trkpt>
      <trkpt lat="45.31931" lon="6.18771">
        <ele>2530.6000976562</ele>
        <time>2016-03-26T12:55:13.000Z</time>
      </trkpt>
      <trkpt lat="45.31931" lon="6.18766">
        <ele>2531.6000976562</ele>
        <time>2016-03-26T12:55:19.000Z</time>
      </trkpt>
      <trkpt lat="45.3193" lon="6.18763">
        <ele>2532.1999511719</ele>
        <time>2016-03-26T12:55:24.000Z</time>
      </trkpt>
      <trkpt lat="45.3193" lon="6.18761">
        <ele>2532.8000488281</ele>
        <time>2016-03-26T12:55:26.000Z</time>
      </trkpt>
      <trkpt lat="45.31929" lon="6.18757">
        <ele>2533.6000976562</ele>
        <time>2016-03-26T12:55:30.000Z</time>
      </trkpt>
      <trkpt lat="45.3193" lon="6.18756">
        <ele>2533.8000488281</ele>
        <time>2016-03-26T12:55:32.000Z</time>
      </trkpt>
      <trkpt lat="45.31931" lon="6.18755">
        <ele>2534.1999511719</ele>
        <time>2016-03-26T12:55:34.000Z</time>
      </trkpt>
      <trkpt lat="45.31931" lon="6.18752">
        <ele>2534.8000488281</ele>
        <time>2016-03-26T12:55:38.000Z</time>
      </trkpt>
      <trkpt lat="45.31931" lon="6.18752">
        <ele>2535</ele>
        <time>2016-03-26T12:55:44.000Z</time>
      </trkpt>
      <trkpt lat="45.31931" lon="6.18752">
        <ele>2535.1999511719</ele>
        <time>2016-03-26T12:55:46.000Z</time>
      </trkpt>
      <trkpt lat="45.31931" lon="6.18752">
        <ele>2535.1999511719</ele>
        <time>2016-03-26T12:56:00.000Z</time>
      </trkpt>
      <trkpt lat="45.31931" lon="6.18752">
        <ele>2535.3999023438</ele>
        <time>2016-03-26T12:56:17.000Z</time>
      </trkpt>
      <trkpt lat="45.31931" lon="6.18752">
        <ele>2535.3999023438</ele>
        <time>2016-03-26T12:56:31.000Z</time>
      </trkpt>
      <trkpt lat="45.31931" lon="6.18752">
        <ele>2535.3999023438</ele>
        <time>2016-03-26T12:56:48.000Z</time>
      </trkpt>
      <trkpt lat="45.31931" lon="6.18752">
        <ele>2535.1999511719</ele>
        <time>2016-03-26T12:57:05.000Z</time>
      </trkpt>
      <trkpt lat="45.31931" lon="6.18752">
        <ele>2535.1999511719</ele>
        <time>2016-03-26T12:57:23.000Z</time>
      </trkpt>
      <trkpt lat="45.31931" lon="6.18752">
        <ele>2535.3999023438</ele>
        <time>2016-03-26T12:57:37.000Z</time>
      </trkpt>
      <trkpt lat="45.31931" lon="6.18751">
        <ele>2535.3999023438</ele>
        <time>2016-03-26T12:57:54.000Z</time>
      </trkpt>
      <trkpt lat="45.31931" lon="6.18751">
        <ele>2535.1999511719</ele>
        <time>2016-03-26T12:58:11.000Z</time>
      </trkpt>
      <trkpt lat="45.31931" lon="6.18751">
        <ele>2535.3999023438</ele>
        <time>2016-03-26T12:58:27.000Z</time>
      </trkpt>
      <trkpt lat="45.31931" lon="6.18751">
        <ele>2535.3999023438</ele>
        <time>2016-03-26T12:58:47.000Z</time>
      </trkpt>
      <trkpt lat="45.31931" lon="6.18751">
        <ele>2535</ele>
        <time>2016-03-26T12:58:56.000Z</time>
      </trkpt>
      <trkpt lat="45.31931" lon="6.18751">
        <ele>2535.3999023438</ele>
        <time>2016-03-26T12:59:09.000Z</time>
      </trkpt>
      <trkpt lat="45.31931" lon="6.18751">
        <ele>2535.3999023438</ele>
        <time>2016-03-26T12:59:23.000Z</time>
      </trkpt>
      <trkpt lat="45.31928" lon="6.18751">
        <ele>2535.6000976562</ele>
        <time>2016-03-26T12:59:35.000Z</time>
      </trkpt>
      <trkpt lat="45.31926" lon="6.18744">
        <ele>2535.6000976562</ele>
        <time>2016-03-26T12:59:40.000Z</time>
      </trkpt>
      <trkpt lat="45.31927" lon="6.18743">
        <ele>2536</ele>
        <time>2016-03-26T12:59:42.000Z</time>
      </trkpt>
      <trkpt lat="45.31926" lon="6.18739">
        <ele>2536.3999023438</ele>
        <time>2016-03-26T12:59:45.000Z</time>
      </trkpt>
      <trkpt lat="45.31927" lon="6.18736">
        <ele>2537</ele>
        <time>2016-03-26T12:59:49.000Z</time>
      </trkpt>
      <trkpt lat="45.31927" lon="6.18733">
        <ele>2537.6000976562</ele>
        <time>2016-03-26T12:59:51.000Z</time>
      </trkpt>
      <trkpt lat="45.31925" lon="6.18728">
        <ele>2538.1999511719</ele>
        <time>2016-03-26T12:59:56.000Z</time>
      </trkpt>
      <trkpt lat="45.31924" lon="6.18726">
        <ele>2538.3999023438</ele>
        <time>2016-03-26T12:59:57.000Z</time>
      </trkpt>
      <trkpt lat="45.31924" lon="6.18722">
        <ele>2539.1999511719</ele>
        <time>2016-03-26T13:00:01.000Z</time>
      </trkpt>
      <trkpt lat="45.31923" lon="6.18722">
        <ele>2539.3999023438</ele>
        <time>2016-03-26T13:00:02.000Z</time>
      </trkpt>
      <trkpt lat="45.31923" lon="6.18716">
        <ele>2539.8000488281</ele>
        <time>2016-03-26T13:00:09.000Z</time>
      </trkpt>
      <trkpt lat="45.31923" lon="6.18709">
        <ele>2540.3999023438</ele>
        <time>2016-03-26T13:00:14.000Z</time>
      </trkpt>
      <trkpt lat="45.31921" lon="6.18706">
        <ele>2541.6000976562</ele>
        <time>2016-03-26T13:00:20.000Z</time>
      </trkpt>
      <trkpt lat="45.31917" lon="6.18699">
        <ele>2542.1999511719</ele>
        <time>2016-03-26T13:00:27.000Z</time>
      </trkpt>
      <trkpt lat="45.31916" lon="6.18697">
        <ele>2542.6000976562</ele>
        <time>2016-03-26T13:00:30.000Z</time>
      </trkpt>
      <trkpt lat="45.31916" lon="6.18697">
        <ele>2543</ele>
        <time>2016-03-26T13:00:32.000Z</time>
      </trkpt>
      <trkpt lat="45.31914" lon="6.18694">
        <ele>2543.1999511719</ele>
        <time>2016-03-26T13:00:39.000Z</time>
      </trkpt>
      <trkpt lat="45.31913" lon="6.18693">
        <ele>2543.6000976562</ele>
        <time>2016-03-26T13:00:41.000Z</time>
      </trkpt>
      <trkpt lat="45.31912" lon="6.18691">
        <ele>2544.1999511719</ele>
        <time>2016-03-26T13:00:44.000Z</time>
      </trkpt>
      <trkpt lat="45.3191" lon="6.18687">
        <ele>2544.8000488281</ele>
        <time>2016-03-26T13:00:49.000Z</time>
      </trkpt>
      <trkpt lat="45.31908" lon="6.18684">
        <ele>2545</ele>
        <time>2016-03-26T13:00:52.000Z</time>
      </trkpt>
      <trkpt lat="45.31904" lon="6.18681">
        <ele>2545.6000976562</ele>
        <time>2016-03-26T13:00:58.000Z</time>
      </trkpt>
      <trkpt lat="45.31904" lon="6.18681">
        <ele>2545.8000488281</ele>
        <time>2016-03-26T13:00:59.000Z</time>
      </trkpt>
      <trkpt lat="45.31901" lon="6.18678">
        <ele>2546</ele>
        <time>2016-03-26T13:01:04.000Z</time>
      </trkpt>
      <trkpt lat="45.319" lon="6.18675">
        <ele>2547</ele>
        <time>2016-03-26T13:01:10.000Z</time>
      </trkpt>
      <trkpt lat="45.31899" lon="6.18673">
        <ele>2547</ele>
        <time>2016-03-26T13:01:11.000Z</time>
      </trkpt>
      <trkpt lat="45.31896" lon="6.18669">
        <ele>2547.8000488281</ele>
        <time>2016-03-26T13:01:17.000Z</time>
      </trkpt>
      <trkpt lat="45.31896" lon="6.18669">
        <ele>2548.1999511719</ele>
        <time>2016-03-26T13:01:18.000Z</time>
      </trkpt>
      <trkpt lat="45.31895" lon="6.18667">
        <ele>2548.6000976562</ele>
        <time>2016-03-26T13:01:22.000Z</time>
      </trkpt>
      <trkpt lat="45.31895" lon="6.18664">
        <ele>2549.1999511719</ele>
        <time>2016-03-26T13:01:26.000Z</time>
      </trkpt>
      <trkpt lat="45.31895" lon="6.18664">
        <ele>2549.3999023438</ele>
        <time>2016-03-26T13:01:27.000Z</time>
      </trkpt>
      <trkpt lat="45.31893" lon="6.1866">
        <ele>2550.3999023438</ele>
        <time>2016-03-26T13:01:32.000Z</time>
      </trkpt>
      <trkpt lat="45.31892" lon="6.18659">
        <ele>2550.3999023438</ele>
        <time>2016-03-26T13:01:33.000Z</time>
      </trkpt>
      <trkpt lat="45.31892" lon="6.18656">
        <ele>2550.8000488281</ele>
        <time>2016-03-26T13:01:39.000Z</time>
      </trkpt>
      <trkpt lat="45.31891" lon="6.18653">
        <ele>2551.3999023438</ele>
        <time>2016-03-26T13:01:44.000Z</time>
      </trkpt>
      <trkpt lat="45.3189" lon="6.18652">
        <ele>2552</ele>
        <time>2016-03-26T13:01:46.000Z</time>
      </trkpt>
      <trkpt lat="45.31887" lon="6.18649">
        <ele>2552.6000976562</ele>
        <time>2016-03-26T13:01:50.000Z</time>
      </trkpt>
      <trkpt lat="45.31885" lon="6.18645">
        <ele>2553.1999511719</ele>
        <time>2016-03-26T13:01:59.000Z</time>
      </trkpt>
      <trkpt lat="45.31885" lon="6.18644">
        <ele>2553.8000488281</ele>
        <time>2016-03-26T13:02:01.000Z</time>
      </trkpt>
      <trkpt lat="45.31882" lon="6.18641">
        <ele>2554.8000488281</ele>
        <time>2016-03-26T13:02:06.000Z</time>
      </trkpt>
      <trkpt lat="45.31881" lon="6.18639">
        <ele>2555</ele>
        <time>2016-03-26T13:02:08.000Z</time>
      </trkpt>
      <trkpt lat="45.3188" lon="6.18635">
        <ele>2555.1999511719</ele>
        <time>2016-03-26T13:02:16.000Z</time>
      </trkpt>
      <trkpt lat="45.31879" lon="6.18634">
        <ele>2555.8000488281</ele>
        <time>2016-03-26T13:02:19.000Z</time>
      </trkpt>
      <trkpt lat="45.31878" lon="6.18633">
        <ele>2556.1999511719</ele>
        <time>2016-03-26T13:02:21.000Z</time>
      </trkpt>
      <trkpt lat="45.31876" lon="6.1863">
        <ele>2557</ele>
        <time>2016-03-26T13:02:24.000Z</time>
      </trkpt>
      <trkpt lat="45.31877" lon="6.18629">
        <ele>2557</ele>
        <time>2016-03-26T13:02:26.000Z</time>
      </trkpt>
      <trkpt lat="45.31875" lon="6.18627">
        <ele>2557.1999511719</ele>
        <time>2016-03-26T13:02:32.000Z</time>
      </trkpt>
      <trkpt lat="45.31874" lon="6.18625">
        <ele>2558</ele>
        <time>2016-03-26T13:02:35.000Z</time>
      </trkpt>
      <trkpt lat="45.31872" lon="6.18623">
        <ele>2558.6000976562</ele>
        <time>2016-03-26T13:02:39.000Z</time>
      </trkpt>
      <trkpt lat="45.3187" lon="6.18618">
        <ele>2559</ele>
        <time>2016-03-26T13:02:43.000Z</time>
      </trkpt>
      <trkpt lat="45.31869" lon="6.18617">
        <ele>2559.6000976562</ele>
        <time>2016-03-26T13:02:46.000Z</time>
      </trkpt>
      <trkpt lat="45.31865" lon="6.18613">
        <ele>2560.1999511719</ele>
        <time>2016-03-26T13:02:52.000Z</time>
      </trkpt>
      <trkpt lat="45.31865" lon="6.18613">
        <ele>2560.6000976562</ele>
        <time>2016-03-26T13:02:56.000Z</time>
      </trkpt>
      <trkpt lat="45.31862" lon="6.18612">
        <ele>2561.1999511719</ele>
        <time>2016-03-26T13:03:01.000Z</time>
      </trkpt>
      <trkpt lat="45.31862" lon="6.18612">
        <ele>2561.3999023438</ele>
        <time>2016-03-26T13:03:02.000Z</time>
      </trkpt>
      <trkpt lat="45.31857" lon="6.18612">
        <ele>2561.3999023438</ele>
        <time>2016-03-26T13:03:09.000Z</time>
      </trkpt>
      <trkpt lat="45.31853" lon="6.18609">
        <ele>2562.3999023438</ele>
        <time>2016-03-26T13:03:17.000Z</time>
      </trkpt>
      <trkpt lat="45.31852" lon="6.18609">
        <ele>2562.8000488281</ele>
        <time>2016-03-26T13:03:18.000Z</time>
      </trkpt>
      <trkpt lat="45.31849" lon="6.18608">
        <ele>2563.3999023438</ele>
        <time>2016-03-26T13:03:21.000Z</time>
      </trkpt>
      <trkpt lat="45.31848" lon="6.18606">
        <ele>2563.8000488281</ele>
        <time>2016-03-26T13:03:26.000Z</time>
      </trkpt>
      <trkpt lat="45.31844" lon="6.18605">
        <ele>2564.3999023438</ele>
        <time>2016-03-26T13:03:30.000Z</time>
      </trkpt>
      <trkpt lat="45.3184" lon="6.18604">
        <ele>2565.1999511719</ele>
        <time>2016-03-26T13:03:33.000Z</time>
      </trkpt>
      <trkpt lat="45.31837" lon="6.18604">
        <ele>2565.8000488281</ele>
        <time>2016-03-26T13:03:39.000Z</time>
      </trkpt>
      <trkpt lat="45.31835" lon="6.18603">
        <ele>2566.1999511719</ele>
        <time>2016-03-26T13:03:41.000Z</time>
      </trkpt>
      <trkpt lat="45.31832" lon="6.18602">
        <ele>2566.8000488281</ele>
        <time>2016-03-26T13:03:46.000Z</time>
      </trkpt>
      <trkpt lat="45.31832" lon="6.18602">
        <ele>2567</ele>
        <time>2016-03-26T13:03:47.000Z</time>
      </trkpt>
      <trkpt lat="45.31829" lon="6.18603">
        <ele>2567.8000488281</ele>
        <time>2016-03-26T13:03:52.000Z</time>
      </trkpt>
      <trkpt lat="45.31829" lon="6.18603">
        <ele>2567.8000488281</ele>
        <time>2016-03-26T13:03:53.000Z</time>
      </trkpt>
      <trkpt lat="45.31824" lon="6.18602">
        <ele>2569</ele>
        <time>2016-03-26T13:04:00.000Z</time>
      </trkpt>
      <trkpt lat="45.31819" lon="6.18601">
        <ele>2569.6000976562</ele>
        <time>2016-03-26T13:04:06.000Z</time>
      </trkpt>
      <trkpt lat="45.31818" lon="6.18602">
        <ele>2570</ele>
        <time>2016-03-26T13:04:08.000Z</time>
      </trkpt>
      <trkpt lat="45.31817" lon="6.18604">
        <ele>2570.6000976562</ele>
        <time>2016-03-26T13:04:14.000Z</time>
      </trkpt>
      <trkpt lat="45.31817" lon="6.18604">
        <ele>2571</ele>
        <time>2016-03-26T13:04:16.000Z</time>
      </trkpt>
      <trkpt lat="45.31817" lon="6.18604">
        <ele>2571.8000488281</ele>
        <time>2016-03-26T13:04:22.000Z</time>
      </trkpt>
      <trkpt lat="45.31816" lon="6.18604">
        <ele>2572</ele>
        <time>2016-03-26T13:04:24.000Z</time>
      </trkpt>
      <trkpt lat="45.31812" lon="6.18603">
        <ele>2572.6000976562</ele>
        <time>2016-03-26T13:04:27.000Z</time>
      </trkpt>
      <trkpt lat="45.31808" lon="6.18601">
        <ele>2573.3999023438</ele>
        <time>2016-03-26T13:04:32.000Z</time>
      </trkpt>
      <trkpt lat="45.31806" lon="6.18601">
        <ele>2573.6000976562</ele>
        <time>2016-03-26T13:04:34.000Z</time>
      </trkpt>
      <trkpt lat="45.31803" lon="6.18601">
        <ele>2574.3999023438</ele>
        <time>2016-03-26T13:04:40.000Z</time>
      </trkpt>
      <trkpt lat="45.318" lon="6.18606">
        <ele>2574.8000488281</ele>
        <time>2016-03-26T13:04:46.000Z</time>
      </trkpt>
      <trkpt lat="45.318" lon="6.18609">
        <ele>2575</ele>
        <time>2016-03-26T13:04:52.000Z</time>
      </trkpt>
      <trkpt lat="45.31796" lon="6.18608">
        <ele>2575.3999023438</ele>
        <time>2016-03-26T13:04:58.000Z</time>
      </trkpt>
      <trkpt lat="45.31796" lon="6.18608">
        <ele>2575.6000976562</ele>
        <time>2016-03-26T13:05:00.000Z</time>
      </trkpt>
      <trkpt lat="45.31796" lon="6.18608">
        <ele>2576.6000976562</ele>
        <time>2016-03-26T13:05:08.000Z</time>
      </trkpt>
      <trkpt lat="45.31797" lon="6.18608">
        <ele>2577.3999023438</ele>
        <time>2016-03-26T13:05:15.000Z</time>
      </trkpt>
      <trkpt lat="45.31796" lon="6.18604">
        <ele>2577.3999023438</ele>
        <time>2016-03-26T13:05:22.000Z</time>
      </trkpt>
      <trkpt lat="45.31796" lon="6.18604">
        <ele>2577.6000976562</ele>
        <time>2016-03-26T13:05:24.000Z</time>
      </trkpt>
      <trkpt lat="45.31797" lon="6.18602">
        <ele>2578.3999023438</ele>
        <time>2016-03-26T13:05:27.000Z</time>
      </trkpt>
      <trkpt lat="45.31798" lon="6.18602">
        <ele>2578.6000976562</ele>
        <time>2016-03-26T13:05:28.000Z</time>
      </trkpt>
      <trkpt lat="45.31799" lon="6.18602">
        <ele>2579.8000488281</ele>
        <time>2016-03-26T13:05:32.000Z</time>
      </trkpt>
      <trkpt lat="45.31799" lon="6.18602">
        <ele>2579.8000488281</ele>
        <time>2016-03-26T13:05:34.000Z</time>
      </trkpt>
      <trkpt lat="45.31795" lon="6.18601">
        <ele>2580.8000488281</ele>
        <time>2016-03-26T13:05:45.000Z</time>
      </trkpt>
      <trkpt lat="45.31791" lon="6.186">
        <ele>2581.1999511719</ele>
        <time>2016-03-26T13:05:53.000Z</time>
      </trkpt>
      <trkpt lat="45.31788" lon="6.186">
        <ele>2582</ele>
        <time>2016-03-26T13:05:57.000Z</time>
      </trkpt>
      <trkpt lat="45.31788" lon="6.186">
        <ele>2582.1999511719</ele>
        <time>2016-03-26T13:05:59.000Z</time>
      </trkpt>
      <trkpt lat="45.31787" lon="6.18599">
        <ele>2583</ele>
        <time>2016-03-26T13:06:05.000Z</time>
      </trkpt>
      <trkpt lat="45.31787" lon="6.18599">
        <ele>2583.1999511719</ele>
        <time>2016-03-26T13:06:06.000Z</time>
      </trkpt>
      <trkpt lat="45.31785" lon="6.186">
        <ele>2584.3999023438</ele>
        <time>2016-03-26T13:06:11.000Z</time>
      </trkpt>
      <trkpt lat="45.31783" lon="6.186">
        <ele>2584.3999023438</ele>
        <time>2016-03-26T13:06:12.000Z</time>
      </trkpt>
      <trkpt lat="45.31776" lon="6.186">
        <ele>2585.1999511719</ele>
        <time>2016-03-26T13:06:18.000Z</time>
      </trkpt>
      <trkpt lat="45.31776" lon="6.186">
        <ele>2585.3999023438</ele>
        <time>2016-03-26T13:06:19.000Z</time>
      </trkpt>
      <trkpt lat="45.31774" lon="6.18602">
        <ele>2585.8000488281</ele>
        <time>2016-03-26T13:06:23.000Z</time>
      </trkpt>
      <trkpt lat="45.31774" lon="6.18603">
        <ele>2586.3999023438</ele>
        <time>2016-03-26T13:06:29.000Z</time>
      </trkpt>
      <trkpt lat="45.31774" lon="6.18603">
        <ele>2586.8000488281</ele>
        <time>2016-03-26T13:06:31.000Z</time>
      </trkpt>
      <trkpt lat="45.31774" lon="6.18604">
        <ele>2586.6000976562</ele>
        <time>2016-03-26T13:06:40.000Z</time>
      </trkpt>
      <trkpt lat="45.31774" lon="6.18604">
        <ele>2587</ele>
        <time>2016-03-26T13:06:51.000Z</time>
      </trkpt>
      <trkpt lat="45.31774" lon="6.18604">
        <ele>2586.6000976562</ele>
        <time>2016-03-26T13:07:02.000Z</time>
      </trkpt>
      <trkpt lat="45.31774" lon="6.18604">
        <ele>2586.8000488281</ele>
        <time>2016-03-26T13:07:14.000Z</time>
      </trkpt>
      <trkpt lat="45.31774" lon="6.18604">
        <ele>2587.1999511719</ele>
        <time>2016-03-26T13:07:28.000Z</time>
      </trkpt>
      <trkpt lat="45.31774" lon="6.18604">
        <ele>2586</ele>
        <time>2016-03-26T13:07:41.000Z</time>
      </trkpt>
      <trkpt lat="45.31774" lon="6.18604">
        <ele>2587.1999511719</ele>
        <time>2016-03-26T13:07:51.000Z</time>
      </trkpt>
      <trkpt lat="45.31773" lon="6.18604">
        <ele>2587.6000976562</ele>
        <time>2016-03-26T13:08:00.000Z</time>
      </trkpt>
      <trkpt lat="45.31773" lon="6.18604">
        <ele>2588.6000976562</ele>
        <time>2016-03-26T13:08:02.000Z</time>
      </trkpt>
      <trkpt lat="45.31773" lon="6.18604">
        <ele>2587.1999511719</ele>
        <time>2016-03-26T13:08:08.000Z</time>
      </trkpt>
      <trkpt lat="45.31773" lon="6.18604">
        <ele>2588.1999511719</ele>
        <time>2016-03-26T13:08:21.000Z</time>
      </trkpt>
      <trkpt lat="45.31773" lon="6.18604">
        <ele>2588</ele>
        <time>2016-03-26T13:08:36.000Z</time>
      </trkpt>
      <trkpt lat="45.31774" lon="6.18604">
        <ele>2588</ele>
        <time>2016-03-26T13:08:50.000Z</time>
      </trkpt>
      <trkpt lat="45.31774" lon="6.18604">
        <ele>2588.1999511719</ele>
        <time>2016-03-26T13:09:06.000Z</time>
      </trkpt>
      <trkpt lat="45.31774" lon="6.18603">
        <ele>2588.1999511719</ele>
        <time>2016-03-26T13:09:23.000Z</time>
      </trkpt>
      <trkpt lat="45.31774" lon="6.18603">
        <ele>2587.8000488281</ele>
        <time>2016-03-26T13:09:35.000Z</time>
      </trkpt>
      <trkpt lat="45.31776" lon="6.18605">
        <ele>2588</ele>
        <time>2016-03-26T13:09:47.000Z</time>
      </trkpt>
      <trkpt lat="45.31776" lon="6.18605">
        <ele>2588.6000976562</ele>
        <time>2016-03-26T13:09:57.000Z</time>
      </trkpt>
      <trkpt lat="45.31776" lon="6.18605">
        <ele>2588.6000976562</ele>
        <time>2016-03-26T13:10:07.000Z</time>
      </trkpt>
      <trkpt lat="45.31776" lon="6.18605">
        <ele>2588.8000488281</ele>
        <time>2016-03-26T13:10:13.000Z</time>
      </trkpt>
      <trkpt lat="45.31771" lon="6.18603">
        <ele>2589</ele>
        <time>2016-03-26T13:10:19.000Z</time>
      </trkpt>
      <trkpt lat="45.31766" lon="6.186">
        <ele>2589.8000488281</ele>
        <time>2016-03-26T13:10:22.000Z</time>
      </trkpt>
      <trkpt lat="45.31765" lon="6.186">
        <ele>2590.3999023438</ele>
        <time>2016-03-26T13:10:24.000Z</time>
      </trkpt>
      <trkpt lat="45.31764" lon="6.186">
        <ele>2590.8000488281</ele>
        <time>2016-03-26T13:10:27.000Z</time>
      </trkpt>
      <trkpt lat="45.31763" lon="6.18601">
        <ele>2591.3999023438</ele>
        <time>2016-03-26T13:10:30.000Z</time>
      </trkpt>
      <trkpt lat="45.31763" lon="6.18601">
        <ele>2592</ele>
        <time>2016-03-26T13:10:35.000Z</time>
      </trkpt>
      <trkpt lat="45.31763" lon="6.18601">
        <ele>2592.1999511719</ele>
        <time>2016-03-26T13:10:38.000Z</time>
      </trkpt>
      <trkpt lat="45.31763" lon="6.18601">
        <ele>2593</ele>
        <time>2016-03-26T13:10:43.000Z</time>
      </trkpt>
      <trkpt lat="45.31763" lon="6.18601">
        <ele>2593</ele>
        <time>2016-03-26T13:10:48.000Z</time>
      </trkpt>
      <trkpt lat="45.31763" lon="6.18601">
        <ele>2594.8000488281</ele>
        <time>2016-03-26T13:10:54.000Z</time>
      </trkpt>
      <trkpt lat="45.31763" lon="6.18601">
        <ele>2594.3999023438</ele>
        <time>2016-03-26T13:11:00.000Z</time>
      </trkpt>
      <trkpt lat="45.31763" lon="6.18601">
        <ele>2594.1999511719</ele>
        <time>2016-03-26T13:11:11.000Z</time>
      </trkpt>
      <trkpt lat="45.31761" lon="6.18601">
        <ele>2595</ele>
        <time>2016-03-26T13:11:18.000Z</time>
      </trkpt>
      <trkpt lat="45.31758" lon="6.18599">
        <ele>2595.8000488281</ele>
        <time>2016-03-26T13:11:21.000Z</time>
      </trkpt>
      <trkpt lat="45.31755" lon="6.18599">
        <ele>2596.3999023438</ele>
        <time>2016-03-26T13:11:26.000Z</time>
      </trkpt>
      <trkpt lat="45.31755" lon="6.18599">
        <ele>2597</ele>
        <time>2016-03-26T13:11:29.000Z</time>
      </trkpt>
      <trkpt lat="45.31754" lon="6.18599">
        <ele>2597.8000488281</ele>
        <time>2016-03-26T13:11:33.000Z</time>
      </trkpt>
      <trkpt lat="45.31754" lon="6.18599">
        <ele>2598</ele>
        <time>2016-03-26T13:11:34.000Z</time>
      </trkpt>
      <trkpt lat="45.31755" lon="6.18598">
        <ele>2599</ele>
        <time>2016-03-26T13:11:39.000Z</time>
      </trkpt>
      <trkpt lat="45.31752" lon="6.18595">
        <ele>2599.6000976562</ele>
        <time>2016-03-26T13:11:42.000Z</time>
      </trkpt>
      <trkpt lat="45.31749" lon="6.18593">
        <ele>2600</ele>
        <time>2016-03-26T13:11:44.000Z</time>
      </trkpt>
      <trkpt lat="45.31748" lon="6.18591">
        <ele>2601</ele>
        <time>2016-03-26T13:11:50.000Z</time>
      </trkpt>
      <trkpt lat="45.31748" lon="6.18591">
        <ele>2602.1999511719</ele>
        <time>2016-03-26T13:11:56.000Z</time>
      </trkpt>
      <trkpt lat="45.31748" lon="6.18591">
        <ele>2602.6000976562</ele>
        <time>2016-03-26T13:12:00.000Z</time>
      </trkpt>
      <trkpt lat="45.31748" lon="6.18591">
        <ele>2603.3999023438</ele>
        <time>2016-03-26T13:12:05.000Z</time>
      </trkpt>
      <trkpt lat="45.31748" lon="6.18591">
        <ele>2604.3999023438</ele>
        <time>2016-03-26T13:12:08.000Z</time>
      </trkpt>
      <trkpt lat="45.31748" lon="6.18591">
        <ele>2605</ele>
        <time>2016-03-26T13:12:11.000Z</time>
      </trkpt>
      <trkpt lat="45.31748" lon="6.18591">
        <ele>2605.3999023438</ele>
        <time>2016-03-26T13:12:15.000Z</time>
      </trkpt>
      <trkpt lat="45.31748" lon="6.18591">
        <ele>2605.3999023438</ele>
        <time>2016-03-26T13:12:22.000Z</time>
      </trkpt>
      <trkpt lat="45.31747" lon="6.1859">
        <ele>2606.3999023438</ele>
        <time>2016-03-26T13:12:31.000Z</time>
      </trkpt>
      <trkpt lat="45.31746" lon="6.18589">
        <ele>2606.6000976562</ele>
        <time>2016-03-26T13:12:32.000Z</time>
      </trkpt>
      <trkpt lat="45.31744" lon="6.18586">
        <ele>2607.6000976562</ele>
        <time>2016-03-26T13:12:36.000Z</time>
      </trkpt>
      <trkpt lat="45.3174" lon="6.18582">
        <ele>2608</ele>
        <time>2016-03-26T13:12:40.000Z</time>
      </trkpt>
      <trkpt lat="45.3174" lon="6.1858">
        <ele>2609</ele>
        <time>2016-03-26T13:12:43.000Z</time>
      </trkpt>
      <trkpt lat="45.31741" lon="6.1858">
        <ele>2610</ele>
        <time>2016-03-26T13:12:48.000Z</time>
      </trkpt>
      <trkpt lat="45.31741" lon="6.1858">
        <ele>2610.3999023438</ele>
        <time>2016-03-26T13:12:50.000Z</time>
      </trkpt>
      <trkpt lat="45.31741" lon="6.1858">
        <ele>2611.1999511719</ele>
        <time>2016-03-26T13:12:54.000Z</time>
      </trkpt>
      <trkpt lat="45.31741" lon="6.1858">
        <ele>2611.6000976562</ele>
        <time>2016-03-26T13:12:57.000Z</time>
      </trkpt>
      <trkpt lat="45.31741" lon="6.1858">
        <ele>2612.3999023438</ele>
        <time>2016-03-26T13:13:02.000Z</time>
      </trkpt>
      <trkpt lat="45.31741" lon="6.1858">
        <ele>2613.1999511719</ele>
        <time>2016-03-26T13:13:06.000Z</time>
      </trkpt>
      <trkpt lat="45.31741" lon="6.1858">
        <ele>2613.6000976562</ele>
        <time>2016-03-26T13:13:07.000Z</time>
      </trkpt>
      <trkpt lat="45.31741" lon="6.1858">
        <ele>2614.6000976562</ele>
        <time>2016-03-26T13:13:16.000Z</time>
      </trkpt>
      <trkpt lat="45.31741" lon="6.1858">
        <ele>2614.8000488281</ele>
        <time>2016-03-26T13:13:18.000Z</time>
      </trkpt>
      <trkpt lat="45.31741" lon="6.1858">
        <ele>2615.6000976562</ele>
        <time>2016-03-26T13:13:23.000Z</time>
      </trkpt>
      <trkpt lat="45.31741" lon="6.1858">
        <ele>2615.8000488281</ele>
        <time>2016-03-26T13:13:25.000Z</time>
      </trkpt>
      <trkpt lat="45.31741" lon="6.1858">
        <ele>2617</ele>
        <time>2016-03-26T13:13:31.000Z</time>
      </trkpt>
      <trkpt lat="45.3174" lon="6.18578">
        <ele>2617.3999023438</ele>
        <time>2016-03-26T13:13:33.000Z</time>
      </trkpt>
      <trkpt lat="45.31738" lon="6.18575">
        <ele>2618</ele>
        <time>2016-03-26T13:13:40.000Z</time>
      </trkpt>
      <trkpt lat="45.31738" lon="6.18575">
        <ele>2618.8000488281</ele>
        <time>2016-03-26T13:13:43.000Z</time>
      </trkpt>
      <trkpt lat="45.31738" lon="6.18575">
        <ele>2619</ele>
        <time>2016-03-26T13:13:44.000Z</time>
      </trkpt>
      <trkpt lat="45.31738" lon="6.18575">
        <ele>2620.1999511719</ele>
        <time>2016-03-26T13:13:50.000Z</time>
      </trkpt>
      <trkpt lat="45.31738" lon="6.18575">
        <ele>2620.1999511719</ele>
        <time>2016-03-26T13:13:51.000Z</time>
      </trkpt>
      <trkpt lat="45.31738" lon="6.18575">
        <ele>2620.3999023438</ele>
        <time>2016-03-26T13:13:53.000Z</time>
      </trkpt>
      <trkpt lat="45.31736" lon="6.18573">
        <ele>2621.1999511719</ele>
        <time>2016-03-26T13:13:58.000Z</time>
      </trkpt>
      <trkpt lat="45.31736" lon="6.18573">
        <ele>2621.3999023438</ele>
        <time>2016-03-26T13:13:59.000Z</time>
      </trkpt>
      <trkpt lat="45.31736" lon="6.18573">
        <ele>2622.1999511719</ele>
        <time>2016-03-26T13:14:05.000Z</time>
      </trkpt>
      <trkpt lat="45.31735" lon="6.18571">
        <ele>2622.8000488281</ele>
        <time>2016-03-26T13:14:08.000Z</time>
      </trkpt>
      <trkpt lat="45.31735" lon="6.1857">
        <ele>2623.3999023438</ele>
        <time>2016-03-26T13:14:12.000Z</time>
      </trkpt>
      <trkpt lat="45.31732" lon="6.18567">
        <ele>2624</ele>
        <time>2016-03-26T13:14:16.000Z</time>
      </trkpt>
      <trkpt lat="45.31732" lon="6.18567">
        <ele>2624.3999023438</ele>
        <time>2016-03-26T13:14:17.000Z</time>
      </trkpt>
      <trkpt lat="45.31732" lon="6.18567">
        <ele>2625.3999023438</ele>
        <time>2016-03-26T13:14:24.000Z</time>
      </trkpt>
      <trkpt lat="45.31732" lon="6.18567">
        <ele>2626.1999511719</ele>
        <time>2016-03-26T13:14:27.000Z</time>
      </trkpt>
      <trkpt lat="45.31732" lon="6.18567">
        <ele>2626.6000976562</ele>
        <time>2016-03-26T13:14:29.000Z</time>
      </trkpt>
      <trkpt lat="45.3173" lon="6.18565">
        <ele>2627.1999511719</ele>
        <time>2016-03-26T13:14:38.000Z</time>
      </trkpt>
      <trkpt lat="45.3173" lon="6.18564">
        <ele>2627.6000976562</ele>
        <time>2016-03-26T13:14:41.000Z</time>
      </trkpt>
      <trkpt lat="45.3173" lon="6.18564">
        <ele>2628.6000976562</ele>
        <time>2016-03-26T13:14:45.000Z</time>
      </trkpt>
      <trkpt lat="45.3173" lon="6.18563">
        <ele>2629</ele>
        <time>2016-03-26T13:14:48.000Z</time>
      </trkpt>
      <trkpt lat="45.3173" lon="6.18562">
        <ele>2629.8000488281</ele>
        <time>2016-03-26T13:14:52.000Z</time>
      </trkpt>
      <trkpt lat="45.31729" lon="6.18561">
        <ele>2630.6000976562</ele>
        <time>2016-03-26T13:14:57.000Z</time>
      </trkpt>
      <trkpt lat="45.31729" lon="6.18561">
        <ele>2630.8000488281</ele>
        <time>2016-03-26T13:14:59.000Z</time>
      </trkpt>
      <trkpt lat="45.31728" lon="6.1856">
        <ele>2631.8000488281</ele>
        <time>2016-03-26T13:15:06.000Z</time>
      </trkpt>
      <trkpt lat="45.31728" lon="6.1856">
        <ele>2632</ele>
        <time>2016-03-26T13:15:07.000Z</time>
      </trkpt>
      <trkpt lat="45.31728" lon="6.1856">
        <ele>2633</ele>
        <time>2016-03-26T13:15:11.000Z</time>
      </trkpt>
      <trkpt lat="45.31728" lon="6.1856">
        <ele>2634.1999511719</ele>
        <time>2016-03-26T13:15:17.000Z</time>
      </trkpt>
      <trkpt lat="45.31728" lon="6.1856">
        <ele>2634.1999511719</ele>
        <time>2016-03-26T13:15:18.000Z</time>
      </trkpt>
      <trkpt lat="45.31728" lon="6.1856">
        <ele>2635.1999511719</ele>
        <time>2016-03-26T13:15:29.000Z</time>
      </trkpt>
      <trkpt lat="45.31728" lon="6.18559">
        <ele>2636</ele>
        <time>2016-03-26T13:15:41.000Z</time>
      </trkpt>
      <trkpt lat="45.31728" lon="6.18559">
        <ele>2636.1999511719</ele>
        <time>2016-03-26T13:15:43.000Z</time>
      </trkpt>
      <trkpt lat="45.31729" lon="6.18558">
        <ele>2637.3999023438</ele>
        <time>2016-03-26T13:15:50.000Z</time>
      </trkpt>
      <trkpt lat="45.31728" lon="6.18556">
        <ele>2638.6000976562</ele>
        <time>2016-03-26T13:15:55.000Z</time>
      </trkpt>
      <trkpt lat="45.31728" lon="6.18556">
        <ele>2639.1999511719</ele>
        <time>2016-03-26T13:15:58.000Z</time>
      </trkpt>
      <trkpt lat="45.31727" lon="6.18556">
        <ele>2639.6000976562</ele>
        <time>2016-03-26T13:16:05.000Z</time>
      </trkpt>
      <trkpt lat="45.31727" lon="6.18556">
        <ele>2639.8000488281</ele>
        <time>2016-03-26T13:16:06.000Z</time>
      </trkpt>
      <trkpt lat="45.31727" lon="6.18555">
        <ele>2640.3999023438</ele>
        <time>2016-03-26T13:16:12.000Z</time>
      </trkpt>
      <trkpt lat="45.31727" lon="6.18553">
        <ele>2640.6000976562</ele>
        <time>2016-03-26T13:16:13.000Z</time>
      </trkpt>
      <trkpt lat="45.31727" lon="6.18551">
        <ele>2641.8000488281</ele>
        <time>2016-03-26T13:16:17.000Z</time>
      </trkpt>
      <trkpt lat="45.31726" lon="6.1855">
        <ele>2642.3999023438</ele>
        <time>2016-03-26T13:16:19.000Z</time>
      </trkpt>
      <trkpt lat="45.31726" lon="6.1855">
        <ele>2642.8000488281</ele>
        <time>2016-03-26T13:16:21.000Z</time>
      </trkpt>
      <trkpt lat="45.31725" lon="6.1855">
        <ele>2643.8000488281</ele>
        <time>2016-03-26T13:16:28.000Z</time>
      </trkpt>
      <trkpt lat="45.31723" lon="6.18549">
        <ele>2644.8000488281</ele>
        <time>2016-03-26T13:16:37.000Z</time>
      </trkpt>
      <trkpt lat="45.31723" lon="6.18549">
        <ele>2644.8000488281</ele>
        <time>2016-03-26T13:16:38.000Z</time>
      </trkpt>
      <trkpt lat="45.31722" lon="6.18548">
        <ele>2645.3999023438</ele>
        <time>2016-03-26T13:16:47.000Z</time>
      </trkpt>
      <trkpt lat="45.31722" lon="6.18548">
        <ele>2645.8000488281</ele>
        <time>2016-03-26T13:16:51.000Z</time>
      </trkpt>
      <trkpt lat="45.3172" lon="6.18546">
        <ele>2646.1999511719</ele>
        <time>2016-03-26T13:16:58.000Z</time>
      </trkpt>
      <trkpt lat="45.3172" lon="6.18546">
        <ele>2646.8000488281</ele>
        <time>2016-03-26T13:17:05.000Z</time>
      </trkpt>
      <trkpt lat="45.3172" lon="6.18546">
        <ele>2646.8000488281</ele>
        <time>2016-03-26T13:17:11.000Z</time>
      </trkpt>
      <trkpt lat="45.31719" lon="6.18545">
        <ele>2648</ele>
        <time>2016-03-26T13:17:21.000Z</time>
      </trkpt>
      <trkpt lat="45.31719" lon="6.18545">
        <ele>2648.3999023438</ele>
        <time>2016-03-26T13:17:23.000Z</time>
      </trkpt>
      <trkpt lat="45.31719" lon="6.18544">
        <ele>2649</ele>
        <time>2016-03-26T13:17:30.000Z</time>
      </trkpt>
      <trkpt lat="45.31719" lon="6.18542">
        <ele>2649.3999023438</ele>
        <time>2016-03-26T13:17:32.000Z</time>
      </trkpt>
      <trkpt lat="45.31718" lon="6.18541">
        <ele>2650.1999511719</ele>
        <time>2016-03-26T13:17:38.000Z</time>
      </trkpt>
      <trkpt lat="45.31718" lon="6.18541">
        <ele>2650.3999023438</ele>
        <time>2016-03-26T13:17:40.000Z</time>
      </trkpt>
      <trkpt lat="45.31717" lon="6.1854">
        <ele>2651.1999511719</ele>
        <time>2016-03-26T13:17:44.000Z</time>
      </trkpt>
      <trkpt lat="45.31717" lon="6.1854">
        <ele>2652</ele>
        <time>2016-03-26T13:17:48.000Z</time>
      </trkpt>
      <trkpt lat="45.31717" lon="6.1854">
        <ele>2652.3999023438</ele>
        <time>2016-03-26T13:17:50.000Z</time>
      </trkpt>
      <trkpt lat="45.31717" lon="6.1854">
        <ele>2653.3999023438</ele>
        <time>2016-03-26T13:17:56.000Z</time>
      </trkpt>
      <trkpt lat="45.31717" lon="6.1854">
        <ele>2653.8000488281</ele>
        <time>2016-03-26T13:17:59.000Z</time>
      </trkpt>
      <trkpt lat="45.31717" lon="6.1854">
        <ele>2654.3999023438</ele>
        <time>2016-03-26T13:18:05.000Z</time>
      </trkpt>
      <trkpt lat="45.31717" lon="6.1854">
        <ele>2654.6000976562</ele>
        <time>2016-03-26T13:18:07.000Z</time>
      </trkpt>
      <trkpt lat="45.31717" lon="6.1854">
        <ele>2655.6000976562</ele>
        <time>2016-03-26T13:18:16.000Z</time>
      </trkpt>
      <trkpt lat="45.31717" lon="6.1854">
        <ele>2655.8000488281</ele>
        <time>2016-03-26T13:18:17.000Z</time>
      </trkpt>
      <trkpt lat="45.31717" lon="6.1854">
        <ele>2656.6000976562</ele>
        <time>2016-03-26T13:18:22.000Z</time>
      </trkpt>
      <trkpt lat="45.31716" lon="6.18539">
        <ele>2656.6000976562</ele>
        <time>2016-03-26T13:18:27.000Z</time>
      </trkpt>
      <trkpt lat="45.31716" lon="6.18539">
        <ele>2657.6000976562</ele>
        <time>2016-03-26T13:18:36.000Z</time>
      </trkpt>
      <trkpt lat="45.31716" lon="6.18539">
        <ele>2657.1999511719</ele>
        <time>2016-03-26T13:18:39.000Z</time>
      </trkpt>
      <trkpt lat="45.31716" lon="6.18539">
        <ele>2658.6000976562</ele>
        <time>2016-03-26T13:18:51.000Z</time>
      </trkpt>
      <trkpt lat="45.31716" lon="6.18539">
        <ele>2660</ele>
        <time>2016-03-26T13:19:02.000Z</time>
      </trkpt>
      <trkpt lat="45.31716" lon="6.18539">
        <ele>2659.8000488281</ele>
        <time>2016-03-26T13:19:05.000Z</time>
      </trkpt>
      <trkpt lat="45.31716" lon="6.18539">
        <ele>2660.1999511719</ele>
        <time>2016-03-26T13:19:16.000Z</time>
      </trkpt>
      <trkpt lat="45.31716" lon="6.18539">
        <ele>2661.3999023438</ele>
        <time>2016-03-26T13:19:22.000Z</time>
      </trkpt>
      <trkpt lat="45.31716" lon="6.18539">
        <ele>2661.8000488281</ele>
        <time>2016-03-26T13:19:28.000Z</time>
      </trkpt>
      <trkpt lat="45.31716" lon="6.18539">
        <ele>2662.6000976562</ele>
        <time>2016-03-26T13:19:31.000Z</time>
      </trkpt>
      <trkpt lat="45.31716" lon="6.18539">
        <ele>2663.6000976562</ele>
        <time>2016-03-26T13:19:36.000Z</time>
      </trkpt>
      <trkpt lat="45.31716" lon="6.18539">
        <ele>2663.6000976562</ele>
        <time>2016-03-26T13:19:37.000Z</time>
      </trkpt>
      <trkpt lat="45.31716" lon="6.18539">
        <ele>2664</ele>
        <time>2016-03-26T13:19:44.000Z</time>
      </trkpt>
      <trkpt lat="45.31716" lon="6.18539">
        <ele>2664.8000488281</ele>
        <time>2016-03-26T13:20:00.000Z</time>
      </trkpt>
      <trkpt lat="45.31716" lon="6.18539">
        <ele>2663.8000488281</ele>
        <time>2016-03-26T13:20:11.000Z</time>
      </trkpt>
      <trkpt lat="45.31714" lon="6.18538">
        <ele>2664</ele>
        <time>2016-03-26T13:20:29.000Z</time>
      </trkpt>
      <trkpt lat="45.31714" lon="6.18538">
        <ele>2664.3999023438</ele>
        <time>2016-03-26T13:20:46.000Z</time>
      </trkpt>
      <trkpt lat="45.31714" lon="6.18538">
        <ele>2664.1999511719</ele>
        <time>2016-03-26T13:20:58.000Z</time>
      </trkpt>
      <trkpt lat="45.31713" lon="6.18537">
        <ele>2664.3999023438</ele>
        <time>2016-03-26T13:21:12.000Z</time>
      </trkpt>
      <trkpt lat="45.31713" lon="6.18537">
        <ele>2664.3999023438</ele>
        <time>2016-03-26T13:21:21.000Z</time>
      </trkpt>
      <trkpt lat="45.31713" lon="6.18537">
        <ele>2663.6000976562</ele>
        <time>2016-03-26T13:21:25.000Z</time>
      </trkpt>
      <trkpt lat="45.31713" lon="6.18537">
        <ele>2663.8000488281</ele>
        <time>2016-03-26T13:21:34.000Z</time>
      </trkpt>
      <trkpt lat="45.31714" lon="6.18538">
        <ele>2664</ele>
        <time>2016-03-26T13:21:46.000Z</time>
      </trkpt>
      <trkpt lat="45.31714" lon="6.18538">
        <ele>2663.6000976562</ele>
        <time>2016-03-26T13:22:03.000Z</time>
      </trkpt>
      <trkpt lat="45.31714" lon="6.18538">
        <ele>2664</ele>
        <time>2016-03-26T13:22:13.000Z</time>
      </trkpt>
      <trkpt lat="45.31714" lon="6.18539">
        <ele>2663.8000488281</ele>
        <time>2016-03-26T13:22:27.000Z</time>
      </trkpt>
      <trkpt lat="45.31714" lon="6.18539">
        <ele>2663.8000488281</ele>
        <time>2016-03-26T13:22:39.000Z</time>
      </trkpt>
      <trkpt lat="45.31714" lon="6.18539">
        <ele>2664</ele>
        <time>2016-03-26T13:22:51.000Z</time>
      </trkpt>
      <trkpt lat="45.31714" lon="6.18539">
        <ele>2664</ele>
        <time>2016-03-26T13:23:03.000Z</time>
      </trkpt>
      <trkpt lat="45.31716" lon="6.18541">
        <ele>2663.8000488281</ele>
        <time>2016-03-26T13:23:18.000Z</time>
      </trkpt>
      <trkpt lat="45.31716" lon="6.18541">
        <ele>2664</ele>
        <time>2016-03-26T13:23:30.000Z</time>
      </trkpt>
      <trkpt lat="45.31717" lon="6.18542">
        <ele>2664</ele>
        <time>2016-03-26T13:23:45.000Z</time>
      </trkpt>
      <trkpt lat="45.31717" lon="6.18542">
        <ele>2663.8000488281</ele>
        <time>2016-03-26T13:23:59.000Z</time>
      </trkpt>
      <trkpt lat="45.31715" lon="6.18543">
        <ele>2663.8000488281</ele>
        <time>2016-03-26T13:24:10.000Z</time>
      </trkpt>
      <trkpt lat="45.31715" lon="6.18543">
        <ele>2663.6000976562</ele>
        <time>2016-03-26T13:24:24.000Z</time>
      </trkpt>
      <trkpt lat="45.31715" lon="6.18543">
        <ele>2663.8000488281</ele>
        <time>2016-03-26T13:24:40.000Z</time>
      </trkpt>
      <trkpt lat="45.31715" lon="6.18543">
        <ele>2663.6000976562</ele>
        <time>2016-03-26T13:24:57.000Z</time>
      </trkpt>
      <trkpt lat="45.31715" lon="6.18543">
        <ele>2663.8000488281</ele>
        <time>2016-03-26T13:25:15.000Z</time>
      </trkpt>
      <trkpt lat="45.31715" lon="6.18543">
        <ele>2663.6000976562</ele>
        <time>2016-03-26T13:25:36.000Z</time>
      </trkpt>
      <trkpt lat="45.31715" lon="6.18543">
        <ele>2663.6000976562</ele>
        <time>2016-03-26T13:25:54.000Z</time>
      </trkpt>
      <trkpt lat="45.31715" lon="6.18543">
        <ele>2663.6000976562</ele>
        <time>2016-03-26T13:26:08.000Z</time>
      </trkpt>
      <trkpt lat="45.31715" lon="6.18543">
        <ele>2663.6000976562</ele>
        <time>2016-03-26T13:26:25.000Z</time>
      </trkpt>
      <trkpt lat="45.31715" lon="6.18543">
        <ele>2664.6000976562</ele>
        <time>2016-03-26T13:26:32.000Z</time>
      </trkpt>
      <trkpt lat="45.31715" lon="6.18543">
        <ele>2664.3999023438</ele>
        <time>2016-03-26T13:26:34.000Z</time>
      </trkpt>
      <trkpt lat="45.31715" lon="6.18543">
        <ele>2664</ele>
        <time>2016-03-26T13:26:51.000Z</time>
      </trkpt>
      <trkpt lat="45.31715" lon="6.18543">
        <ele>2664.8000488281</ele>
        <time>2016-03-26T13:26:59.000Z</time>
      </trkpt>
      <trkpt lat="45.31715" lon="6.18543">
        <ele>2663.3999023438</ele>
        <time>2016-03-26T13:27:04.000Z</time>
      </trkpt>
      <trkpt lat="45.31715" lon="6.18543">
        <ele>2663.8000488281</ele>
        <time>2016-03-26T13:27:15.000Z</time>
      </trkpt>
      <trkpt lat="45.31715" lon="6.18543">
        <ele>2663.6000976562</ele>
        <time>2016-03-26T13:27:30.000Z</time>
      </trkpt>
      <trkpt lat="45.31715" lon="6.18543">
        <ele>2663.8000488281</ele>
        <time>2016-03-26T13:27:44.000Z</time>
      </trkpt>
      <trkpt lat="45.31715" lon="6.18543">
        <ele>2663.6000976562</ele>
        <time>2016-03-26T13:27:56.000Z</time>
      </trkpt>
      <trkpt lat="45.31715" lon="6.18543">
        <ele>2664.3999023438</ele>
        <time>2016-03-26T13:28:02.000Z</time>
      </trkpt>
      <trkpt lat="45.31716" lon="6.18543">
        <ele>2664</ele>
        <time>2016-03-26T13:28:06.000Z</time>
      </trkpt>
      <trkpt lat="45.31716" lon="6.18543">
        <ele>2663.1999511719</ele>
        <time>2016-03-26T13:28:07.000Z</time>
      </trkpt>
      <trkpt lat="45.31716" lon="6.18543">
        <ele>2664.3999023438</ele>
        <time>2016-03-26T13:28:12.000Z</time>
      </trkpt>
      <trkpt lat="45.31716" lon="6.18543">
        <ele>2663.6000976562</ele>
        <time>2016-03-26T13:28:24.000Z</time>
      </trkpt>
      <trkpt lat="45.31716" lon="6.18543">
        <ele>2663.3999023438</ele>
        <time>2016-03-26T13:28:27.000Z</time>
      </trkpt>
      <trkpt lat="45.31716" lon="6.18543">
        <ele>2662</ele>
        <time>2016-03-26T13:28:30.000Z</time>
      </trkpt>
      <trkpt lat="45.31716" lon="6.18543">
        <ele>2663</ele>
        <time>2016-03-26T13:28:35.000Z</time>
      </trkpt>
      <trkpt lat="45.31716" lon="6.18543">
        <ele>2664.1999511719</ele>
        <time>2016-03-26T13:28:37.000Z</time>
      </trkpt>
      <trkpt lat="45.31716" lon="6.18543">
        <ele>2664.3999023438</ele>
        <time>2016-03-26T13:28:39.000Z</time>
      </trkpt>
      <trkpt lat="45.31716" lon="6.18543">
        <ele>2663.8000488281</ele>
        <time>2016-03-26T13:28:54.000Z</time>
      </trkpt>
      <trkpt lat="45.31716" lon="6.18543">
        <ele>2663.8000488281</ele>
        <time>2016-03-26T13:29:05.000Z</time>
      </trkpt>
      <trkpt lat="45.31716" lon="6.18543">
        <ele>2663.8000488281</ele>
        <time>2016-03-26T13:29:19.000Z</time>
      </trkpt>
      <trkpt lat="45.31715" lon="6.18542">
        <ele>2663.6000976562</ele>
        <time>2016-03-26T13:29:38.000Z</time>
      </trkpt>
      <trkpt lat="45.31715" lon="6.18542">
        <ele>2663.6000976562</ele>
        <time>2016-03-26T13:30:00.000Z</time>
      </trkpt>
      <trkpt lat="45.31715" lon="6.18542">
        <ele>2663.3999023438</ele>
        <time>2016-03-26T13:30:27.000Z</time>
      </trkpt>
      <trkpt lat="45.31715" lon="6.18542">
        <ele>2663.6000976562</ele>
        <time>2016-03-26T13:30:48.000Z</time>
      </trkpt>
      <trkpt lat="45.31715" lon="6.18542">
        <ele>2663.3999023438</ele>
        <time>2016-03-26T13:31:14.000Z</time>
      </trkpt>
      <trkpt lat="45.31715" lon="6.18542">
        <ele>2663.1999511719</ele>
        <time>2016-03-26T13:31:34.000Z</time>
      </trkpt>
      <trkpt lat="45.31715" lon="6.18542">
        <ele>2663</ele>
        <time>2016-03-26T13:31:35.000Z</time>
      </trkpt>
      <trkpt lat="45.31715" lon="6.18542">
        <ele>2663.6000976562</ele>
        <time>2016-03-26T13:31:49.000Z</time>
      </trkpt>
      <trkpt lat="45.31715" lon="6.18541">
        <ele>2663.6000976562</ele>
        <time>2016-03-26T13:32:10.000Z</time>
      </trkpt>
      <trkpt lat="45.31715" lon="6.18541">
        <ele>2663.3999023438</ele>
        <time>2016-03-26T13:32:35.000Z</time>
      </trkpt>
      <trkpt lat="45.31715" lon="6.18541">
        <ele>2663.6000976562</ele>
        <time>2016-03-26T13:32:48.000Z</time>
      </trkpt>
      <trkpt lat="45.31715" lon="6.18541">
        <ele>2663.3999023438</ele>
        <time>2016-03-26T13:33:07.000Z</time>
      </trkpt>
      <trkpt lat="45.31715" lon="6.18541">
        <ele>2663.6000976562</ele>
        <time>2016-03-26T13:33:28.000Z</time>
      </trkpt>
      <trkpt lat="45.31712" lon="6.18541">
        <ele>2663.6000976562</ele>
        <time>2016-03-26T13:33:38.000Z</time>
      </trkpt>
      <trkpt lat="45.3171" lon="6.18541">
        <ele>2663.6000976562</ele>
        <time>2016-03-26T13:33:39.000Z</time>
      </trkpt>
      <trkpt lat="45.31703" lon="6.1854">
        <ele>2661.1999511719</ele>
        <time>2016-03-26T13:33:43.000Z</time>
      </trkpt>
      <trkpt lat="45.317" lon="6.18542">
        <ele>2659.8000488281</ele>
        <time>2016-03-26T13:33:44.000Z</time>
      </trkpt>
      <trkpt lat="45.31695" lon="6.18544">
        <ele>2658.3999023438</ele>
        <time>2016-03-26T13:33:46.000Z</time>
      </trkpt>
      <trkpt lat="45.31691" lon="6.18545">
        <ele>2656.8000488281</ele>
        <time>2016-03-26T13:33:48.000Z</time>
      </trkpt>
      <trkpt lat="45.31688" lon="6.18546">
        <ele>2655.3999023438</ele>
        <time>2016-03-26T13:33:49.000Z</time>
      </trkpt>
      <trkpt lat="45.31686" lon="6.18547">
        <ele>2653.8000488281</ele>
        <time>2016-03-26T13:33:51.000Z</time>
      </trkpt>
      <trkpt lat="45.31685" lon="6.18546">
        <ele>2653.3999023438</ele>
        <time>2016-03-26T13:33:52.000Z</time>
      </trkpt>
      <trkpt lat="45.31687" lon="6.18543">
        <ele>2653</ele>
        <time>2016-03-26T13:33:53.000Z</time>
      </trkpt>
      <trkpt lat="45.31688" lon="6.18539">
        <ele>2652.6000976562</ele>
        <time>2016-03-26T13:33:54.000Z</time>
      </trkpt>
      <trkpt lat="45.31685" lon="6.18536">
        <ele>2650.8000488281</ele>
        <time>2016-03-26T13:33:56.000Z</time>
      </trkpt>
      <trkpt lat="45.31682" lon="6.18536">
        <ele>2650.1999511719</ele>
        <time>2016-03-26T13:33:57.000Z</time>
      </trkpt>
      <trkpt lat="45.3168" lon="6.18537">
        <ele>2649</ele>
        <time>2016-03-26T13:33:58.000Z</time>
      </trkpt>
      <trkpt lat="45.3168" lon="6.18532">
        <ele>2646.3999023438</ele>
        <time>2016-03-26T13:34:00.000Z</time>
      </trkpt>
      <trkpt lat="45.3168" lon="6.18529">
        <ele>2644.8000488281</ele>
        <time>2016-03-26T13:34:01.000Z</time>
      </trkpt>
      <trkpt lat="45.31678" lon="6.18525">
        <ele>2643.6000976562</ele>
        <time>2016-03-26T13:34:02.000Z</time>
      </trkpt>
      <trkpt lat="45.31677" lon="6.18524">
        <ele>2642.8000488281</ele>
        <time>2016-03-26T13:34:03.000Z</time>
      </trkpt>
      <trkpt lat="45.31675" lon="6.18523">
        <ele>2641.8000488281</ele>
        <time>2016-03-26T13:34:04.000Z</time>
      </trkpt>
      <trkpt lat="45.31674" lon="6.1852">
        <ele>2640.1999511719</ele>
        <time>2016-03-26T13:34:05.000Z</time>
      </trkpt>
      <trkpt lat="45.31675" lon="6.18517">
        <ele>2638.3999023438</ele>
        <time>2016-03-26T13:34:06.000Z</time>
      </trkpt>
      <trkpt lat="45.31674" lon="6.18512">
        <ele>2636.6000976562</ele>
        <time>2016-03-26T13:34:07.000Z</time>
      </trkpt>
      <trkpt lat="45.31673" lon="6.18509">
        <ele>2635.6000976562</ele>
        <time>2016-03-26T13:34:08.000Z</time>
      </trkpt>
      <trkpt lat="45.31672" lon="6.18507">
        <ele>2634.6000976562</ele>
        <time>2016-03-26T13:34:09.000Z</time>
      </trkpt>
      <trkpt lat="45.3167" lon="6.18505">
        <ele>2633.1999511719</ele>
        <time>2016-03-26T13:34:10.000Z</time>
      </trkpt>
      <trkpt lat="45.31663" lon="6.18506">
        <ele>2631.3999023438</ele>
        <time>2016-03-26T13:34:11.000Z</time>
      </trkpt>
      <trkpt lat="45.31659" lon="6.18506">
        <ele>2629.3999023438</ele>
        <time>2016-03-26T13:34:12.000Z</time>
      </trkpt>
      <trkpt lat="45.31657" lon="6.18502">
        <ele>2627.8000488281</ele>
        <time>2016-03-26T13:34:13.000Z</time>
      </trkpt>
      <trkpt lat="45.31655" lon="6.18499">
        <ele>2626.3999023438</ele>
        <time>2016-03-26T13:34:14.000Z</time>
      </trkpt>
      <trkpt lat="45.31652" lon="6.18496">
        <ele>2625</ele>
        <time>2016-03-26T13:34:15.000Z</time>
      </trkpt>
      <trkpt lat="45.31648" lon="6.18495">
        <ele>2623.8000488281</ele>
        <time>2016-03-26T13:34:16.000Z</time>
      </trkpt>
      <trkpt lat="45.31645" lon="6.18494">
        <ele>2622.8000488281</ele>
        <time>2016-03-26T13:34:17.000Z</time>
      </trkpt>
      <trkpt lat="45.31644" lon="6.18486">
        <ele>2620.6000976562</ele>
        <time>2016-03-26T13:34:19.000Z</time>
      </trkpt>
      <trkpt lat="45.31645" lon="6.18484">
        <ele>2619</ele>
        <time>2016-03-26T13:34:20.000Z</time>
      </trkpt>
      <trkpt lat="45.31645" lon="6.18484">
        <ele>2617.1999511719</ele>
        <time>2016-03-26T13:34:21.000Z</time>
      </trkpt>
      <trkpt lat="45.31644" lon="6.18483">
        <ele>2615</ele>
        <time>2016-03-26T13:34:22.000Z</time>
      </trkpt>
      <trkpt lat="45.31644" lon="6.18483">
        <ele>2613.8000488281</ele>
        <time>2016-03-26T13:34:24.000Z</time>
      </trkpt>
      <trkpt lat="45.31644" lon="6.18483">
        <ele>2613</ele>
        <time>2016-03-26T13:34:27.000Z</time>
      </trkpt>
      <trkpt lat="45.31644" lon="6.18483">
        <ele>2612.8000488281</ele>
        <time>2016-03-26T13:34:29.000Z</time>
      </trkpt>
      <trkpt lat="45.31644" lon="6.18483">
        <ele>2612.3999023438</ele>
        <time>2016-03-26T13:34:42.000Z</time>
      </trkpt>
      <trkpt lat="45.31641" lon="6.18477">
        <ele>2612.1999511719</ele>
        <time>2016-03-26T13:34:49.000Z</time>
      </trkpt>
      <trkpt lat="45.31634" lon="6.18469">
        <ele>2611.6000976562</ele>
        <time>2016-03-26T13:34:52.000Z</time>
      </trkpt>
      <trkpt lat="45.31636" lon="6.18458">
        <ele>2609.3999023438</ele>
        <time>2016-03-26T13:34:54.000Z</time>
      </trkpt>
      <trkpt lat="45.31634" lon="6.18454">
        <ele>2608.3999023438</ele>
        <time>2016-03-26T13:34:55.000Z</time>
      </trkpt>
      <trkpt lat="45.3163" lon="6.18443">
        <ele>2606.3999023438</ele>
        <time>2016-03-26T13:34:57.000Z</time>
      </trkpt>
      <trkpt lat="45.31632" lon="6.18436">
        <ele>2604.8000488281</ele>
        <time>2016-03-26T13:34:58.000Z</time>
      </trkpt>
      <trkpt lat="45.31634" lon="6.18429">
        <ele>2602.8000488281</ele>
        <time>2016-03-26T13:34:59.000Z</time>
      </trkpt>
      <trkpt lat="45.31636" lon="6.1842">
        <ele>2600.6000976562</ele>
        <time>2016-03-26T13:35:00.000Z</time>
      </trkpt>
      <trkpt lat="45.31639" lon="6.1841">
        <ele>2599</ele>
        <time>2016-03-26T13:35:01.000Z</time>
      </trkpt>
      <trkpt lat="45.3164" lon="6.18399">
        <ele>2597.6000976562</ele>
        <time>2016-03-26T13:35:02.000Z</time>
      </trkpt>
      <trkpt lat="45.3164" lon="6.18388">
        <ele>2596.6000976562</ele>
        <time>2016-03-26T13:35:03.000Z</time>
      </trkpt>
      <trkpt lat="45.3164" lon="6.18379">
        <ele>2595</ele>
        <time>2016-03-26T13:35:04.000Z</time>
      </trkpt>
      <trkpt lat="45.31636" lon="6.18371">
        <ele>2592.8000488281</ele>
        <time>2016-03-26T13:35:05.000Z</time>
      </trkpt>
      <trkpt lat="45.31633" lon="6.18364">
        <ele>2590.3999023438</ele>
        <time>2016-03-26T13:35:06.000Z</time>
      </trkpt>
      <trkpt lat="45.3163" lon="6.1836">
        <ele>2587.8000488281</ele>
        <time>2016-03-26T13:35:07.000Z</time>
      </trkpt>
      <trkpt lat="45.31627" lon="6.18355">
        <ele>2586</ele>
        <time>2016-03-26T13:35:08.000Z</time>
      </trkpt>
      <trkpt lat="45.31621" lon="6.18355">
        <ele>2584.3999023438</ele>
        <time>2016-03-26T13:35:09.000Z</time>
      </trkpt>
      <trkpt lat="45.31616" lon="6.18355">
        <ele>2580</ele>
        <time>2016-03-26T13:35:10.000Z</time>
      </trkpt>
      <trkpt lat="45.3161" lon="6.18355">
        <ele>2577.6000976562</ele>
        <time>2016-03-26T13:35:11.000Z</time>
      </trkpt>
      <trkpt lat="45.31603" lon="6.18359">
        <ele>2575.6000976562</ele>
        <time>2016-03-26T13:35:12.000Z</time>
      </trkpt>
      <trkpt lat="45.31596" lon="6.18367">
        <ele>2574</ele>
        <time>2016-03-26T13:35:13.000Z</time>
      </trkpt>
      <trkpt lat="45.31589" lon="6.18375">
        <ele>2572.6000976562</ele>
        <time>2016-03-26T13:35:14.000Z</time>
      </trkpt>
      <trkpt lat="45.31582" lon="6.18383">
        <ele>2571.1999511719</ele>
        <time>2016-03-26T13:35:15.000Z</time>
      </trkpt>
      <trkpt lat="45.31574" lon="6.18386">
        <ele>2570</ele>
        <time>2016-03-26T13:35:16.000Z</time>
      </trkpt>
      <trkpt lat="45.31567" lon="6.18388">
        <ele>2568.8000488281</ele>
        <time>2016-03-26T13:35:17.000Z</time>
      </trkpt>
      <trkpt lat="45.31563" lon="6.18389">
        <ele>2567.8000488281</ele>
        <time>2016-03-26T13:35:18.000Z</time>
      </trkpt>
      <trkpt lat="45.31561" lon="6.18392">
        <ele>2566.6000976562</ele>
        <time>2016-03-26T13:35:19.000Z</time>
      </trkpt>
      <trkpt lat="45.3156" lon="6.18397">
        <ele>2565</ele>
        <time>2016-03-26T13:35:21.000Z</time>
      </trkpt>
      <trkpt lat="45.31558" lon="6.18397">
        <ele>2564.1999511719</ele>
        <time>2016-03-26T13:35:31.000Z</time>
      </trkpt>
      <trkpt lat="45.31552" lon="6.18396">
        <ele>2564.1999511719</ele>
        <time>2016-03-26T13:35:33.000Z</time>
      </trkpt>
      <trkpt lat="45.31551" lon="6.18392">
        <ele>2563.8000488281</ele>
        <time>2016-03-26T13:35:34.000Z</time>
      </trkpt>
      <trkpt lat="45.31545" lon="6.1839">
        <ele>2562.6000976562</ele>
        <time>2016-03-26T13:35:36.000Z</time>
      </trkpt>
      <trkpt lat="45.31539" lon="6.18384">
        <ele>2560.8000488281</ele>
        <time>2016-03-26T13:35:38.000Z</time>
      </trkpt>
      <trkpt lat="45.31535" lon="6.18382">
        <ele>2559.1999511719</ele>
        <time>2016-03-26T13:35:39.000Z</time>
      </trkpt>
      <trkpt lat="45.31531" lon="6.1838">
        <ele>2557.6000976562</ele>
        <time>2016-03-26T13:35:40.000Z</time>
      </trkpt>
      <trkpt lat="45.31527" lon="6.18378">
        <ele>2556</ele>
        <time>2016-03-26T13:35:41.000Z</time>
      </trkpt>
      <trkpt lat="45.31523" lon="6.18375">
        <ele>2554</ele>
        <time>2016-03-26T13:35:42.000Z</time>
      </trkpt>
      <trkpt lat="45.31519" lon="6.18373">
        <ele>2551.8000488281</ele>
        <time>2016-03-26T13:35:43.000Z</time>
      </trkpt>
      <trkpt lat="45.31515" lon="6.18369">
        <ele>2549.8000488281</ele>
        <time>2016-03-26T13:35:44.000Z</time>
      </trkpt>
      <trkpt lat="45.31511" lon="6.18365">
        <ele>2547.8000488281</ele>
        <time>2016-03-26T13:35:45.000Z</time>
      </trkpt>
      <trkpt lat="45.31506" lon="6.18365">
        <ele>2546</ele>
        <time>2016-03-26T13:35:46.000Z</time>
      </trkpt>
      <trkpt lat="45.31502" lon="6.18363">
        <ele>2544</ele>
        <time>2016-03-26T13:35:47.000Z</time>
      </trkpt>
      <trkpt lat="45.31496" lon="6.1836">
        <ele>2542.1999511719</ele>
        <time>2016-03-26T13:35:48.000Z</time>
      </trkpt>
      <trkpt lat="45.31491" lon="6.18357">
        <ele>2540.1999511719</ele>
        <time>2016-03-26T13:35:49.000Z</time>
      </trkpt>
      <trkpt lat="45.31486" lon="6.18355">
        <ele>2538</ele>
        <time>2016-03-26T13:35:50.000Z</time>
      </trkpt>
      <trkpt lat="45.31484" lon="6.18353">
        <ele>2536.3999023438</ele>
        <time>2016-03-26T13:35:51.000Z</time>
      </trkpt>
      <trkpt lat="45.31482" lon="6.1835">
        <ele>2535</ele>
        <time>2016-03-26T13:35:52.000Z</time>
      </trkpt>
      <trkpt lat="45.31481" lon="6.18349">
        <ele>2533.6000976562</ele>
        <time>2016-03-26T13:35:53.000Z</time>
      </trkpt>
      <trkpt lat="45.3148" lon="6.18349">
        <ele>2532.3999023438</ele>
        <time>2016-03-26T13:35:54.000Z</time>
      </trkpt>
      <trkpt lat="45.31479" lon="6.18348">
        <ele>2530.8000488281</ele>
        <time>2016-03-26T13:35:56.000Z</time>
      </trkpt>
      <trkpt lat="45.31479" lon="6.18348">
        <ele>2529.8000488281</ele>
        <time>2016-03-26T13:35:59.000Z</time>
      </trkpt>
      <trkpt lat="45.31479" lon="6.18348">
        <ele>2529.6000976562</ele>
        <time>2016-03-26T13:36:01.000Z</time>
      </trkpt>
      <trkpt lat="45.31479" lon="6.18348">
        <ele>2529.1999511719</ele>
        <time>2016-03-26T13:36:08.000Z</time>
      </trkpt>
      <trkpt lat="45.31469" lon="6.18349">
        <ele>2529.1999511719</ele>
        <time>2016-03-26T13:36:11.000Z</time>
      </trkpt>
      <trkpt lat="45.31457" lon="6.18343">
        <ele>2528.6000976562</ele>
        <time>2016-03-26T13:36:13.000Z</time>
      </trkpt>
      <trkpt lat="45.31451" lon="6.18339">
        <ele>2527.6000976562</ele>
        <time>2016-03-26T13:36:14.000Z</time>
      </trkpt>
      <trkpt lat="45.31446" lon="6.18336">
        <ele>2526.3999023438</ele>
        <time>2016-03-26T13:36:15.000Z</time>
      </trkpt>
      <trkpt lat="45.31441" lon="6.18333">
        <ele>2525.1999511719</ele>
        <time>2016-03-26T13:36:16.000Z</time>
      </trkpt>
      <trkpt lat="45.31437" lon="6.1833">
        <ele>2524.1999511719</ele>
        <time>2016-03-26T13:36:17.000Z</time>
      </trkpt>
      <trkpt lat="45.31433" lon="6.18328">
        <ele>2523.3999023438</ele>
        <time>2016-03-26T13:36:18.000Z</time>
      </trkpt>
      <trkpt lat="45.3143" lon="6.18327">
        <ele>2522.8000488281</ele>
        <time>2016-03-26T13:36:19.000Z</time>
      </trkpt>
      <trkpt lat="45.31424" lon="6.18323">
        <ele>2522</ele>
        <time>2016-03-26T13:36:22.000Z</time>
      </trkpt>
      <trkpt lat="45.31423" lon="6.18321">
        <ele>2522.3999023438</ele>
        <time>2016-03-26T13:36:27.000Z</time>
      </trkpt>
      <trkpt lat="45.31424" lon="6.18321">
        <ele>2522.6000976562</ele>
        <time>2016-03-26T13:36:36.000Z</time>
      </trkpt>
      <trkpt lat="45.31425" lon="6.18321">
        <ele>2522.6000976562</ele>
        <time>2016-03-26T13:36:48.000Z</time>
      </trkpt>
      <trkpt lat="45.31428" lon="6.18324">
        <ele>2522.6000976562</ele>
        <time>2016-03-26T13:37:04.000Z</time>
      </trkpt>
      <trkpt lat="45.31429" lon="6.18326">
        <ele>2522.6000976562</ele>
        <time>2016-03-26T13:37:05.000Z</time>
      </trkpt>
      <trkpt lat="45.31424" lon="6.18327">
        <ele>2522.6000976562</ele>
        <time>2016-03-26T13:37:08.000Z</time>
      </trkpt>
      <trkpt lat="45.3142" lon="6.18325">
        <ele>2522.3999023438</ele>
        <time>2016-03-26T13:37:09.000Z</time>
      </trkpt>
      <trkpt lat="45.31409" lon="6.18323">
        <ele>2521.3999023438</ele>
        <time>2016-03-26T13:37:11.000Z</time>
      </trkpt>
      <trkpt lat="45.314" lon="6.18317">
        <ele>2520</ele>
        <time>2016-03-26T13:37:13.000Z</time>
      </trkpt>
      <trkpt lat="45.31396" lon="6.18316">
        <ele>2519</ele>
        <time>2016-03-26T13:37:14.000Z</time>
      </trkpt>
      <trkpt lat="45.31392" lon="6.18316">
        <ele>2518.3999023438</ele>
        <time>2016-03-26T13:37:15.000Z</time>
      </trkpt>
      <trkpt lat="45.31385" lon="6.18316">
        <ele>2517.3999023438</ele>
        <time>2016-03-26T13:37:17.000Z</time>
      </trkpt>
      <trkpt lat="45.31385" lon="6.18316">
        <ele>2516.8000488281</ele>
        <time>2016-03-26T13:37:18.000Z</time>
      </trkpt>
      <trkpt lat="45.31384" lon="6.18315">
        <ele>2516</ele>
        <time>2016-03-26T13:37:19.000Z</time>
      </trkpt>
      <trkpt lat="45.31384" lon="6.18315">
        <ele>2514.8000488281</ele>
        <time>2016-03-26T13:37:23.000Z</time>
      </trkpt>
      <trkpt lat="45.31386" lon="6.18313">
        <ele>2514.8000488281</ele>
        <time>2016-03-26T13:37:29.000Z</time>
      </trkpt>
      <trkpt lat="45.31389" lon="6.18311">
        <ele>2513.8000488281</ele>
        <time>2016-03-26T13:37:32.000Z</time>
      </trkpt>
      <trkpt lat="45.31387" lon="6.18309">
        <ele>2513.3999023438</ele>
        <time>2016-03-26T13:37:33.000Z</time>
      </trkpt>
      <trkpt lat="45.31385" lon="6.18307">
        <ele>2512.6000976562</ele>
        <time>2016-03-26T13:37:34.000Z</time>
      </trkpt>
      <trkpt lat="45.31383" lon="6.18302">
        <ele>2510.6000976562</ele>
        <time>2016-03-26T13:37:37.000Z</time>
      </trkpt>
      <trkpt lat="45.31385" lon="6.183">
        <ele>2509.1999511719</ele>
        <time>2016-03-26T13:37:38.000Z</time>
      </trkpt>
      <trkpt lat="45.31386" lon="6.18297">
        <ele>2508</ele>
        <time>2016-03-26T13:37:39.000Z</time>
      </trkpt>
      <trkpt lat="45.31387" lon="6.18295">
        <ele>2506.8000488281</ele>
        <time>2016-03-26T13:37:40.000Z</time>
      </trkpt>
      <trkpt lat="45.31389" lon="6.18294">
        <ele>2505.6000976562</ele>
        <time>2016-03-26T13:37:41.000Z</time>
      </trkpt>
      <trkpt lat="45.31392" lon="6.18291">
        <ele>2504.1999511719</ele>
        <time>2016-03-26T13:37:43.000Z</time>
      </trkpt>
      <trkpt lat="45.31394" lon="6.18288">
        <ele>2503.6000976562</ele>
        <time>2016-03-26T13:37:44.000Z</time>
      </trkpt>
      <trkpt lat="45.31393" lon="6.18286">
        <ele>2502.8000488281</ele>
        <time>2016-03-26T13:37:45.000Z</time>
      </trkpt>
      <trkpt lat="45.31391" lon="6.18284">
        <ele>2502.1999511719</ele>
        <time>2016-03-26T13:37:46.000Z</time>
      </trkpt>
      <trkpt lat="45.31389" lon="6.18282">
        <ele>2501.3999023438</ele>
        <time>2016-03-26T13:37:47.000Z</time>
      </trkpt>
      <trkpt lat="45.31388" lon="6.18281">
        <ele>2500.3999023438</ele>
        <time>2016-03-26T13:37:48.000Z</time>
      </trkpt>
      <trkpt lat="45.31386" lon="6.18279">
        <ele>2498.8000488281</ele>
        <time>2016-03-26T13:37:49.000Z</time>
      </trkpt>
      <trkpt lat="45.31387" lon="6.18279">
        <ele>2497</ele>
        <time>2016-03-26T13:37:50.000Z</time>
      </trkpt>
      <trkpt lat="45.31389" lon="6.18278">
        <ele>2495.3999023438</ele>
        <time>2016-03-26T13:37:51.000Z</time>
      </trkpt>
      <trkpt lat="45.3139" lon="6.18277">
        <ele>2494.1999511719</ele>
        <time>2016-03-26T13:37:52.000Z</time>
      </trkpt>
      <trkpt lat="45.31391" lon="6.18276">
        <ele>2492.8000488281</ele>
        <time>2016-03-26T13:37:53.000Z</time>
      </trkpt>
      <trkpt lat="45.31393" lon="6.18276">
        <ele>2491.8000488281</ele>
        <time>2016-03-26T13:37:54.000Z</time>
      </trkpt>
      <trkpt lat="45.31395" lon="6.18278">
        <ele>2490.1999511719</ele>
        <time>2016-03-26T13:37:56.000Z</time>
      </trkpt>
      <trkpt lat="45.31395" lon="6.1828">
        <ele>2489</ele>
        <time>2016-03-26T13:37:59.000Z</time>
      </trkpt>
      <trkpt lat="45.31395" lon="6.18281">
        <ele>2488.6000976562</ele>
        <time>2016-03-26T13:38:00.000Z</time>
      </trkpt>
      <trkpt lat="45.31398" lon="6.18281">
        <ele>2488</ele>
        <time>2016-03-26T13:38:07.000Z</time>
      </trkpt>
      <trkpt lat="45.314" lon="6.18283">
        <ele>2487.8000488281</ele>
        <time>2016-03-26T13:38:08.000Z</time>
      </trkpt>
      <trkpt lat="45.31407" lon="6.18283">
        <ele>2486.6000976562</ele>
        <time>2016-03-26T13:38:11.000Z</time>
      </trkpt>
      <trkpt lat="45.31407" lon="6.18282">
        <ele>2486</ele>
        <time>2016-03-26T13:38:12.000Z</time>
      </trkpt>
      <trkpt lat="45.31406" lon="6.18279">
        <ele>2485.6000976562</ele>
        <time>2016-03-26T13:38:13.000Z</time>
      </trkpt>
      <trkpt lat="45.31406" lon="6.18271">
        <ele>2484</ele>
        <time>2016-03-26T13:38:16.000Z</time>
      </trkpt>
      <trkpt lat="45.31408" lon="6.18268">
        <ele>2482.3999023438</ele>
        <time>2016-03-26T13:38:17.000Z</time>
      </trkpt>
      <trkpt lat="45.31408" lon="6.18263">
        <ele>2480.6000976562</ele>
        <time>2016-03-26T13:38:18.000Z</time>
      </trkpt>
      <trkpt lat="45.31405" lon="6.1826">
        <ele>2478.8000488281</ele>
        <time>2016-03-26T13:38:19.000Z</time>
      </trkpt>
      <trkpt lat="45.31401" lon="6.18257">
        <ele>2477.8000488281</ele>
        <time>2016-03-26T13:38:20.000Z</time>
      </trkpt>
      <trkpt lat="45.31394" lon="6.18255">
        <ele>2473.3999023438</ele>
        <time>2016-03-26T13:38:22.000Z</time>
      </trkpt>
      <trkpt lat="45.31392" lon="6.18255">
        <ele>2471</ele>
        <time>2016-03-26T13:38:23.000Z</time>
      </trkpt>
      <trkpt lat="45.3139" lon="6.18254">
        <ele>2469</ele>
        <time>2016-03-26T13:38:24.000Z</time>
      </trkpt>
      <trkpt lat="45.31388" lon="6.18254">
        <ele>2467.6000976562</ele>
        <time>2016-03-26T13:38:25.000Z</time>
      </trkpt>
      <trkpt lat="45.31386" lon="6.18253">
        <ele>2466.3999023438</ele>
        <time>2016-03-26T13:38:26.000Z</time>
      </trkpt>
      <trkpt lat="45.31385" lon="6.18251">
        <ele>2465.6000976562</ele>
        <time>2016-03-26T13:38:27.000Z</time>
      </trkpt>
      <trkpt lat="45.31386" lon="6.18247">
        <ele>2464.6000976562</ele>
        <time>2016-03-26T13:38:28.000Z</time>
      </trkpt>
      <trkpt lat="45.31387" lon="6.18244">
        <ele>2463.1999511719</ele>
        <time>2016-03-26T13:38:29.000Z</time>
      </trkpt>
      <trkpt lat="45.31388" lon="6.1824">
        <ele>2461.6000976562</ele>
        <time>2016-03-26T13:38:30.000Z</time>
      </trkpt>
      <trkpt lat="45.31387" lon="6.18235">
        <ele>2460.1999511719</ele>
        <time>2016-03-26T13:38:31.000Z</time>
      </trkpt>
      <trkpt lat="45.31387" lon="6.18232">
        <ele>2459</ele>
        <time>2016-03-26T13:38:32.000Z</time>
      </trkpt>
      <trkpt lat="45.31385" lon="6.1823">
        <ele>2457.6000976562</ele>
        <time>2016-03-26T13:38:33.000Z</time>
      </trkpt>
      <trkpt lat="45.31382" lon="6.18229">
        <ele>2456</ele>
        <time>2016-03-26T13:38:34.000Z</time>
      </trkpt>
      <trkpt lat="45.31381" lon="6.18226">
        <ele>2454</ele>
        <time>2016-03-26T13:38:35.000Z</time>
      </trkpt>
      <trkpt lat="45.31379" lon="6.18222">
        <ele>2451.6000976562</ele>
        <time>2016-03-26T13:38:36.000Z</time>
      </trkpt>
      <trkpt lat="45.31378" lon="6.18218">
        <ele>2449.6000976562</ele>
        <time>2016-03-26T13:38:37.000Z</time>
      </trkpt>
      <trkpt lat="45.31377" lon="6.18213">
        <ele>2447.8000488281</ele>
        <time>2016-03-26T13:38:38.000Z</time>
      </trkpt>
      <trkpt lat="45.31374" lon="6.1821">
        <ele>2446.1999511719</ele>
        <time>2016-03-26T13:38:39.000Z</time>
      </trkpt>
      <trkpt lat="45.31369" lon="6.18209">
        <ele>2444.3999023438</ele>
        <time>2016-03-26T13:38:40.000Z</time>
      </trkpt>
      <trkpt lat="45.31366" lon="6.18207">
        <ele>2442.3999023438</ele>
        <time>2016-03-26T13:38:41.000Z</time>
      </trkpt>
      <trkpt lat="45.31363" lon="6.18202">
        <ele>2440</ele>
        <time>2016-03-26T13:38:42.000Z</time>
      </trkpt>
      <trkpt lat="45.3136" lon="6.18197">
        <ele>2437.6000976562</ele>
        <time>2016-03-26T13:38:43.000Z</time>
      </trkpt>
      <trkpt lat="45.31355" lon="6.18195">
        <ele>2435.6000976562</ele>
        <time>2016-03-26T13:38:44.000Z</time>
      </trkpt>
      <trkpt lat="45.31349" lon="6.18194">
        <ele>2433.8000488281</ele>
        <time>2016-03-26T13:38:45.000Z</time>
      </trkpt>
      <trkpt lat="45.31344" lon="6.18192">
        <ele>2428.8000488281</ele>
        <time>2016-03-26T13:38:46.000Z</time>
      </trkpt>
      <trkpt lat="45.31338" lon="6.18188">
        <ele>2426</ele>
        <time>2016-03-26T13:38:47.000Z</time>
      </trkpt>
      <trkpt lat="45.31335" lon="6.1818">
        <ele>2423.3999023438</ele>
        <time>2016-03-26T13:38:48.000Z</time>
      </trkpt>
      <trkpt lat="45.3133" lon="6.18178">
        <ele>2420.8000488281</ele>
        <time>2016-03-26T13:38:49.000Z</time>
      </trkpt>
      <trkpt lat="45.31325" lon="6.18176">
        <ele>2418</ele>
        <time>2016-03-26T13:38:50.000Z</time>
      </trkpt>
      <trkpt lat="45.31318" lon="6.18175">
        <ele>2415.1999511719</ele>
        <time>2016-03-26T13:38:51.000Z</time>
      </trkpt>
      <trkpt lat="45.31312" lon="6.18173">
        <ele>2412.3999023438</ele>
        <time>2016-03-26T13:38:52.000Z</time>
      </trkpt>
      <trkpt lat="45.31307" lon="6.18169">
        <ele>2409.6000976562</ele>
        <time>2016-03-26T13:38:53.000Z</time>
      </trkpt>
      <trkpt lat="45.31303" lon="6.18165">
        <ele>2407.1999511719</ele>
        <time>2016-03-26T13:38:54.000Z</time>
      </trkpt>
      <trkpt lat="45.313" lon="6.1816">
        <ele>2405.3999023438</ele>
        <time>2016-03-26T13:38:55.000Z</time>
      </trkpt>
      <trkpt lat="45.31299" lon="6.18155">
        <ele>2403.6000976562</ele>
        <time>2016-03-26T13:38:56.000Z</time>
      </trkpt>
      <trkpt lat="45.31297" lon="6.1815">
        <ele>2401.8000488281</ele>
        <time>2016-03-26T13:38:57.000Z</time>
      </trkpt>
      <trkpt lat="45.31297" lon="6.18146">
        <ele>2400.1999511719</ele>
        <time>2016-03-26T13:38:58.000Z</time>
      </trkpt>
      <trkpt lat="45.31298" lon="6.18143">
        <ele>2399.1999511719</ele>
        <time>2016-03-26T13:38:59.000Z</time>
      </trkpt>
      <trkpt lat="45.31298" lon="6.18142">
        <ele>2398.6000976562</ele>
        <time>2016-03-26T13:39:00.000Z</time>
      </trkpt>
      <trkpt lat="45.31299" lon="6.18139">
        <ele>2398.1999511719</ele>
        <time>2016-03-26T13:39:02.000Z</time>
      </trkpt>
      <trkpt lat="45.31298" lon="6.1814">
        <ele>2398</ele>
        <time>2016-03-26T13:39:06.000Z</time>
      </trkpt>
      <trkpt lat="45.31295" lon="6.18137">
        <ele>2398</ele>
        <time>2016-03-26T13:39:07.000Z</time>
      </trkpt>
      <trkpt lat="45.31287" lon="6.18131">
        <ele>2396.6000976562</ele>
        <time>2016-03-26T13:39:10.000Z</time>
      </trkpt>
      <trkpt lat="45.31281" lon="6.18127">
        <ele>2395</ele>
        <time>2016-03-26T13:39:12.000Z</time>
      </trkpt>
      <trkpt lat="45.31278" lon="6.18122">
        <ele>2393.6000976562</ele>
        <time>2016-03-26T13:39:13.000Z</time>
      </trkpt>
      <trkpt lat="45.31277" lon="6.18122">
        <ele>2392</ele>
        <time>2016-03-26T13:39:14.000Z</time>
      </trkpt>
      <trkpt lat="45.31274" lon="6.18125">
        <ele>2390.3999023438</ele>
        <time>2016-03-26T13:39:15.000Z</time>
      </trkpt>
      <trkpt lat="45.31272" lon="6.18123">
        <ele>2388.6000976562</ele>
        <time>2016-03-26T13:39:16.000Z</time>
      </trkpt>
      <trkpt lat="45.31269" lon="6.18122">
        <ele>2386.8000488281</ele>
        <time>2016-03-26T13:39:17.000Z</time>
      </trkpt>
      <trkpt lat="45.31266" lon="6.18125">
        <ele>2384.8000488281</ele>
        <time>2016-03-26T13:39:18.000Z</time>
      </trkpt>
      <trkpt lat="45.31265" lon="6.18128">
        <ele>2383</ele>
        <time>2016-03-26T13:39:19.000Z</time>
      </trkpt>
      <trkpt lat="45.31263" lon="6.18128">
        <ele>2381.1999511719</ele>
        <time>2016-03-26T13:39:20.000Z</time>
      </trkpt>
      <trkpt lat="45.31263" lon="6.18128">
        <ele>2379</ele>
        <time>2016-03-26T13:39:21.000Z</time>
      </trkpt>
      <trkpt lat="45.31263" lon="6.18128">
        <ele>2376.8000488281</ele>
        <time>2016-03-26T13:39:22.000Z</time>
      </trkpt>
      <trkpt lat="45.31262" lon="6.18128">
        <ele>2375</ele>
        <time>2016-03-26T13:39:23.000Z</time>
      </trkpt>
      <trkpt lat="45.31263" lon="6.18129">
        <ele>2373.8000488281</ele>
        <time>2016-03-26T13:39:24.000Z</time>
      </trkpt>
      <trkpt lat="45.31263" lon="6.18129">
        <ele>2372.8000488281</ele>
        <time>2016-03-26T13:39:26.000Z</time>
      </trkpt>
      <trkpt lat="45.31262" lon="6.18134">
        <ele>2372.3999023438</ele>
        <time>2016-03-26T13:39:31.000Z</time>
      </trkpt>
      <trkpt lat="45.3126" lon="6.18142">
        <ele>2371</ele>
        <time>2016-03-26T13:39:35.000Z</time>
      </trkpt>
      <trkpt lat="45.3126" lon="6.18144">
        <ele>2369.8000488281</ele>
        <time>2016-03-26T13:39:37.000Z</time>
      </trkpt>
      <trkpt lat="45.3126" lon="6.18144">
        <ele>2368.8000488281</ele>
        <time>2016-03-26T13:39:40.000Z</time>
      </trkpt>
      <trkpt lat="45.3126" lon="6.18144">
        <ele>2368.6000976562</ele>
        <time>2016-03-26T13:39:41.000Z</time>
      </trkpt>
      <trkpt lat="45.3126" lon="6.18144">
        <ele>2368.1999511719</ele>
        <time>2016-03-26T13:39:55.000Z</time>
      </trkpt>
      <trkpt lat="45.31255" lon="6.18143">
        <ele>2368</ele>
        <time>2016-03-26T13:39:59.000Z</time>
      </trkpt>
      <trkpt lat="45.31254" lon="6.18139">
        <ele>2367.6000976562</ele>
        <time>2016-03-26T13:40:00.000Z</time>
      </trkpt>
      <trkpt lat="45.31253" lon="6.18137">
        <ele>2367</ele>
        <time>2016-03-26T13:40:01.000Z</time>
      </trkpt>
      <trkpt lat="45.3125" lon="6.18138">
        <ele>2365.6000976562</ele>
        <time>2016-03-26T13:40:03.000Z</time>
      </trkpt>
      <trkpt lat="45.31246" lon="6.18134">
        <ele>2364.8000488281</ele>
        <time>2016-03-26T13:40:04.000Z</time>
      </trkpt>
      <trkpt lat="45.31245" lon="6.18126">
        <ele>2363.3999023438</ele>
        <time>2016-03-26T13:40:05.000Z</time>
      </trkpt>
      <trkpt lat="45.31243" lon="6.18122">
        <ele>2361</ele>
        <time>2016-03-26T13:40:06.000Z</time>
      </trkpt>
      <trkpt lat="45.31242" lon="6.18121">
        <ele>2358.3999023438</ele>
        <time>2016-03-26T13:40:07.000Z</time>
      </trkpt>
      <trkpt lat="45.31242" lon="6.18121">
        <ele>2356.3999023438</ele>
        <time>2016-03-26T13:40:08.000Z</time>
      </trkpt>
      <trkpt lat="45.3124" lon="6.18121">
        <ele>2354.6000976562</ele>
        <time>2016-03-26T13:40:09.000Z</time>
      </trkpt>
      <trkpt lat="45.31237" lon="6.18116">
        <ele>2352.8000488281</ele>
        <time>2016-03-26T13:40:10.000Z</time>
      </trkpt>
      <trkpt lat="45.31235" lon="6.18109">
        <ele>2350.3999023438</ele>
        <time>2016-03-26T13:40:11.000Z</time>
      </trkpt>
      <trkpt lat="45.31235" lon="6.18106">
        <ele>2347.1999511719</ele>
        <time>2016-03-26T13:40:12.000Z</time>
      </trkpt>
      <trkpt lat="45.31235" lon="6.18104">
        <ele>2344</ele>
        <time>2016-03-26T13:40:13.000Z</time>
      </trkpt>
      <trkpt lat="45.31235" lon="6.18105">
        <ele>2341.6000976562</ele>
        <time>2016-03-26T13:40:14.000Z</time>
      </trkpt>
      <trkpt lat="45.31235" lon="6.18106">
        <ele>2339.6000976562</ele>
        <time>2016-03-26T13:40:15.000Z</time>
      </trkpt>
      <trkpt lat="45.31233" lon="6.18104">
        <ele>2337.1999511719</ele>
        <time>2016-03-26T13:40:16.000Z</time>
      </trkpt>
      <trkpt lat="45.31231" lon="6.18103">
        <ele>2334.1999511719</ele>
        <time>2016-03-26T13:40:17.000Z</time>
      </trkpt>
      <trkpt lat="45.3123" lon="6.18107">
        <ele>2331</ele>
        <time>2016-03-26T13:40:18.000Z</time>
      </trkpt>
      <trkpt lat="45.31228" lon="6.18109">
        <ele>2328.6000976562</ele>
        <time>2016-03-26T13:40:19.000Z</time>
      </trkpt>
      <trkpt lat="45.31226" lon="6.18111">
        <ele>2326.1999511719</ele>
        <time>2016-03-26T13:40:20.000Z</time>
      </trkpt>
      <trkpt lat="45.31224" lon="6.18112">
        <ele>2323.3999023438</ele>
        <time>2016-03-26T13:40:21.000Z</time>
      </trkpt>
      <trkpt lat="45.3122" lon="6.18108">
        <ele>2319.8000488281</ele>
        <time>2016-03-26T13:40:22.000Z</time>
      </trkpt>
      <trkpt lat="45.31217" lon="6.18106">
        <ele>2313.3999023438</ele>
        <time>2016-03-26T13:40:23.000Z</time>
      </trkpt>
      <trkpt lat="45.31212" lon="6.18101">
        <ele>2311.1999511719</ele>
        <time>2016-03-26T13:40:24.000Z</time>
      </trkpt>
      <trkpt lat="45.31206" lon="6.18093">
        <ele>2309.3999023438</ele>
        <time>2016-03-26T13:40:25.000Z</time>
      </trkpt>
      <trkpt lat="45.31203" lon="6.18089">
        <ele>2308</ele>
        <time>2016-03-26T13:40:26.000Z</time>
      </trkpt>
      <trkpt lat="45.312" lon="6.18087">
        <ele>2307</ele>
        <time>2016-03-26T13:40:27.000Z</time>
      </trkpt>
      <trkpt lat="45.31198" lon="6.18084">
        <ele>2305.8000488281</ele>
        <time>2016-03-26T13:40:28.000Z</time>
      </trkpt>
      <trkpt lat="45.31194" lon="6.18083">
        <ele>2304.6000976562</ele>
        <time>2016-03-26T13:40:29.000Z</time>
      </trkpt>
      <trkpt lat="45.31193" lon="6.1809">
        <ele>2303</ele>
        <time>2016-03-26T13:40:30.000Z</time>
      </trkpt>
      <trkpt lat="45.3119" lon="6.18091">
        <ele>2301</ele>
        <time>2016-03-26T13:40:31.000Z</time>
      </trkpt>
      <trkpt lat="45.31188" lon="6.18091">
        <ele>2298.8000488281</ele>
        <time>2016-03-26T13:40:32.000Z</time>
      </trkpt>
      <trkpt lat="45.31186" lon="6.18093">
        <ele>2296.6000976562</ele>
        <time>2016-03-26T13:40:33.000Z</time>
      </trkpt>
      <trkpt lat="45.31184" lon="6.18095">
        <ele>2294.8000488281</ele>
        <time>2016-03-26T13:40:34.000Z</time>
      </trkpt>
      <trkpt lat="45.31179" lon="6.18096">
        <ele>2293.6000976562</ele>
        <time>2016-03-26T13:40:35.000Z</time>
      </trkpt>
      <trkpt lat="45.31175" lon="6.18096">
        <ele>2292.1999511719</ele>
        <time>2016-03-26T13:40:36.000Z</time>
      </trkpt>
      <trkpt lat="45.31169" lon="6.18093">
        <ele>2290</ele>
        <time>2016-03-26T13:40:37.000Z</time>
      </trkpt>
      <trkpt lat="45.31167" lon="6.18094">
        <ele>2287.8000488281</ele>
        <time>2016-03-26T13:40:38.000Z</time>
      </trkpt>
      <trkpt lat="45.31165" lon="6.18095">
        <ele>2286</ele>
        <time>2016-03-26T13:40:39.000Z</time>
      </trkpt>
      <trkpt lat="45.31164" lon="6.18096">
        <ele>2284.8000488281</ele>
        <time>2016-03-26T13:40:40.000Z</time>
      </trkpt>
      <trkpt lat="45.31163" lon="6.18097">
        <ele>2283.3999023438</ele>
        <time>2016-03-26T13:40:41.000Z</time>
      </trkpt>
      <trkpt lat="45.31162" lon="6.18097">
        <ele>2281.8000488281</ele>
        <time>2016-03-26T13:40:42.000Z</time>
      </trkpt>
      <trkpt lat="45.3116" lon="6.18098">
        <ele>2280.1999511719</ele>
        <time>2016-03-26T13:40:43.000Z</time>
      </trkpt>
      <trkpt lat="45.31159" lon="6.18098">
        <ele>2279</ele>
        <time>2016-03-26T13:40:44.000Z</time>
      </trkpt>
      <trkpt lat="45.31157" lon="6.18098">
        <ele>2277.8000488281</ele>
        <time>2016-03-26T13:40:46.000Z</time>
      </trkpt>
      <trkpt lat="45.31155" lon="6.18098">
        <ele>2277.6000976562</ele>
        <time>2016-03-26T13:40:47.000Z</time>
      </trkpt>
      <trkpt lat="45.31155" lon="6.18098">
        <ele>2277.3999023438</ele>
        <time>2016-03-26T13:41:02.000Z</time>
      </trkpt>
      <trkpt lat="45.31154" lon="6.18098">
        <ele>2277.1999511719</ele>
        <time>2016-03-26T13:41:03.000Z</time>
      </trkpt>
      <trkpt lat="45.31142" lon="6.18096">
        <ele>2276.8000488281</ele>
        <time>2016-03-26T13:41:05.000Z</time>
      </trkpt>
      <trkpt lat="45.31136" lon="6.1809">
        <ele>2275.6000976562</ele>
        <time>2016-03-26T13:41:08.000Z</time>
      </trkpt>
      <trkpt lat="45.31131" lon="6.18095">
        <ele>2274.6000976562</ele>
        <time>2016-03-26T13:41:10.000Z</time>
      </trkpt>
      <trkpt lat="45.31128" lon="6.18098">
        <ele>2273.8000488281</ele>
        <time>2016-03-26T13:41:11.000Z</time>
      </trkpt>
      <trkpt lat="45.31124" lon="6.18102">
        <ele>2272.1999511719</ele>
        <time>2016-03-26T13:41:13.000Z</time>
      </trkpt>
      <trkpt lat="45.31123" lon="6.18102">
        <ele>2270.8000488281</ele>
        <time>2016-03-26T13:41:14.000Z</time>
      </trkpt>
      <trkpt lat="45.31121" lon="6.18102">
        <ele>2269.8000488281</ele>
        <time>2016-03-26T13:41:15.000Z</time>
      </trkpt>
      <trkpt lat="45.31117" lon="6.18102">
        <ele>2268.6000976562</ele>
        <time>2016-03-26T13:41:18.000Z</time>
      </trkpt>
      <trkpt lat="45.31115" lon="6.181">
        <ele>2268</ele>
        <time>2016-03-26T13:41:20.000Z</time>
      </trkpt>
      <trkpt lat="45.31113" lon="6.18098">
        <ele>2267.6000976562</ele>
        <time>2016-03-26T13:41:21.000Z</time>
      </trkpt>
      <trkpt lat="45.31112" lon="6.18096">
        <ele>2267.1999511719</ele>
        <time>2016-03-26T13:41:22.000Z</time>
      </trkpt>
      <trkpt lat="45.3111" lon="6.1809">
        <ele>2266.1999511719</ele>
        <time>2016-03-26T13:41:24.000Z</time>
      </trkpt>
      <trkpt lat="45.3111" lon="6.18083">
        <ele>2264.3999023438</ele>
        <time>2016-03-26T13:41:26.000Z</time>
      </trkpt>
      <trkpt lat="45.31109" lon="6.1808">
        <ele>2263.3999023438</ele>
        <time>2016-03-26T13:41:27.000Z</time>
      </trkpt>
      <trkpt lat="45.31108" lon="6.18077">
        <ele>2262.1999511719</ele>
        <time>2016-03-26T13:41:28.000Z</time>
      </trkpt>
      <trkpt lat="45.31107" lon="6.18075">
        <ele>2261.1999511719</ele>
        <time>2016-03-26T13:41:29.000Z</time>
      </trkpt>
      <trkpt lat="45.31105" lon="6.18073">
        <ele>2260.6000976562</ele>
        <time>2016-03-26T13:41:30.000Z</time>
      </trkpt>
      <trkpt lat="45.3111" lon="6.18065">
        <ele>2260</ele>
        <time>2016-03-26T13:41:31.000Z</time>
      </trkpt>
      <trkpt lat="45.31111" lon="6.18061">
        <ele>2259.3999023438</ele>
        <time>2016-03-26T13:41:32.000Z</time>
      </trkpt>
      <trkpt lat="45.31111" lon="6.18059">
        <ele>2258.3999023438</ele>
        <time>2016-03-26T13:41:33.000Z</time>
      </trkpt>
      <trkpt lat="45.31111" lon="6.18056">
        <ele>2258</ele>
        <time>2016-03-26T13:41:34.000Z</time>
      </trkpt>
      <trkpt lat="45.31107" lon="6.18053">
        <ele>2257</ele>
        <time>2016-03-26T13:41:38.000Z</time>
      </trkpt>
      <trkpt lat="45.31105" lon="6.18052">
        <ele>2256.8000488281</ele>
        <time>2016-03-26T13:41:39.000Z</time>
      </trkpt>
      <trkpt lat="45.31101" lon="6.18057">
        <ele>2255.8000488281</ele>
        <time>2016-03-26T13:41:41.000Z</time>
      </trkpt>
      <trkpt lat="45.31097" lon="6.18064">
        <ele>2254.6000976562</ele>
        <time>2016-03-26T13:41:43.000Z</time>
      </trkpt>
      <trkpt lat="45.31095" lon="6.18068">
        <ele>2253.1999511719</ele>
        <time>2016-03-26T13:41:45.000Z</time>
      </trkpt>
      <trkpt lat="45.31094" lon="6.18069">
        <ele>2252.1999511719</ele>
        <time>2016-03-26T13:41:46.000Z</time>
      </trkpt>
      <trkpt lat="45.31094" lon="6.18071">
        <ele>2251</ele>
        <time>2016-03-26T13:41:47.000Z</time>
      </trkpt>
      <trkpt lat="45.31092" lon="6.1807">
        <ele>2250</ele>
        <time>2016-03-26T13:41:48.000Z</time>
      </trkpt>
      <trkpt lat="45.3109" lon="6.18068">
        <ele>2249.3999023438</ele>
        <time>2016-03-26T13:41:49.000Z</time>
      </trkpt>
      <trkpt lat="45.31087" lon="6.18066">
        <ele>2248</ele>
        <time>2016-03-26T13:41:51.000Z</time>
      </trkpt>
      <trkpt lat="45.31082" lon="6.18064">
        <ele>2247</ele>
        <time>2016-03-26T13:41:53.000Z</time>
      </trkpt>
      <trkpt lat="45.31079" lon="6.18067">
        <ele>2245.8000488281</ele>
        <time>2016-03-26T13:41:54.000Z</time>
      </trkpt>
      <trkpt lat="45.31075" lon="6.18069">
        <ele>2244.3999023438</ele>
        <time>2016-03-26T13:41:55.000Z</time>
      </trkpt>
      <trkpt lat="45.31073" lon="6.18067">
        <ele>2243</ele>
        <time>2016-03-26T13:41:56.000Z</time>
      </trkpt>
      <trkpt lat="45.31069" lon="6.18067">
        <ele>2242</ele>
        <time>2016-03-26T13:41:57.000Z</time>
      </trkpt>
      <trkpt lat="45.31066" lon="6.18067">
        <ele>2240.8000488281</ele>
        <time>2016-03-26T13:41:58.000Z</time>
      </trkpt>
      <trkpt lat="45.31063" lon="6.18069">
        <ele>2237.1999511719</ele>
        <time>2016-03-26T13:41:59.000Z</time>
      </trkpt>
      <trkpt lat="45.31059" lon="6.18067">
        <ele>2235.1999511719</ele>
        <time>2016-03-26T13:42:00.000Z</time>
      </trkpt>
      <trkpt lat="45.31054" lon="6.18068">
        <ele>2233.3999023438</ele>
        <time>2016-03-26T13:42:01.000Z</time>
      </trkpt>
      <trkpt lat="45.31052" lon="6.18076">
        <ele>2231.3999023438</ele>
        <time>2016-03-26T13:42:02.000Z</time>
      </trkpt>
      <trkpt lat="45.31048" lon="6.18075">
        <ele>2229.8000488281</ele>
        <time>2016-03-26T13:42:03.000Z</time>
      </trkpt>
      <trkpt lat="45.31043" lon="6.18074">
        <ele>2228.3999023438</ele>
        <time>2016-03-26T13:42:04.000Z</time>
      </trkpt>
      <trkpt lat="45.3104" lon="6.18075">
        <ele>2226.8000488281</ele>
        <time>2016-03-26T13:42:05.000Z</time>
      </trkpt>
      <trkpt lat="45.31036" lon="6.18074">
        <ele>2224.8000488281</ele>
        <time>2016-03-26T13:42:06.000Z</time>
      </trkpt>
      <trkpt lat="45.31032" lon="6.18078">
        <ele>2223.1999511719</ele>
        <time>2016-03-26T13:42:07.000Z</time>
      </trkpt>
      <trkpt lat="45.31026" lon="6.18078">
        <ele>2221.3999023438</ele>
        <time>2016-03-26T13:42:08.000Z</time>
      </trkpt>
      <trkpt lat="45.31021" lon="6.18079">
        <ele>2219.3999023438</ele>
        <time>2016-03-26T13:42:09.000Z</time>
      </trkpt>
      <trkpt lat="45.31016" lon="6.1808">
        <ele>2217</ele>
        <time>2016-03-26T13:42:10.000Z</time>
      </trkpt>
      <trkpt lat="45.31011" lon="6.18079">
        <ele>2215</ele>
        <time>2016-03-26T13:42:11.000Z</time>
      </trkpt>
      <trkpt lat="45.31005" lon="6.18078">
        <ele>2213.1999511719</ele>
        <time>2016-03-26T13:42:12.000Z</time>
      </trkpt>
      <trkpt lat="45.31" lon="6.18076">
        <ele>2211.1999511719</ele>
        <time>2016-03-26T13:42:13.000Z</time>
      </trkpt>
      <trkpt lat="45.30995" lon="6.18076">
        <ele>2209</ele>
        <time>2016-03-26T13:42:14.000Z</time>
      </trkpt>
      <trkpt lat="45.30992" lon="6.18078">
        <ele>2206.8000488281</ele>
        <time>2016-03-26T13:42:15.000Z</time>
      </trkpt>
      <trkpt lat="45.30989" lon="6.1808">
        <ele>2204.3999023438</ele>
        <time>2016-03-26T13:42:16.000Z</time>
      </trkpt>
      <trkpt lat="45.30987" lon="6.18082">
        <ele>2202</ele>
        <time>2016-03-26T13:42:17.000Z</time>
      </trkpt>
      <trkpt lat="45.30987" lon="6.18082">
        <ele>2199.6000976562</ele>
        <time>2016-03-26T13:42:18.000Z</time>
      </trkpt>
      <trkpt lat="45.30986" lon="6.18083">
        <ele>2197.8000488281</ele>
        <time>2016-03-26T13:42:19.000Z</time>
      </trkpt>
      <trkpt lat="45.30985" lon="6.18084">
        <ele>2196.6000976562</ele>
        <time>2016-03-26T13:42:20.000Z</time>
      </trkpt>
      <trkpt lat="45.30985" lon="6.18086">
        <ele>2195.6000976562</ele>
        <time>2016-03-26T13:42:22.000Z</time>
      </trkpt>
      <trkpt lat="45.30989" lon="6.18086">
        <ele>2195.1999511719</ele>
        <time>2016-03-26T13:42:26.000Z</time>
      </trkpt>
      <trkpt lat="45.30991" lon="6.18081">
        <ele>2194.6000976562</ele>
        <time>2016-03-26T13:42:29.000Z</time>
      </trkpt>
      <trkpt lat="45.30989" lon="6.18081">
        <ele>2194</ele>
        <time>2016-03-26T13:42:30.000Z</time>
      </trkpt>
      <trkpt lat="45.30989" lon="6.18084">
        <ele>2193</ele>
        <time>2016-03-26T13:42:31.000Z</time>
      </trkpt>
      <trkpt lat="45.30987" lon="6.18087">
        <ele>2191.6000976562</ele>
        <time>2016-03-26T13:42:32.000Z</time>
      </trkpt>
      <trkpt lat="45.30986" lon="6.18089">
        <ele>2189.6000976562</ele>
        <time>2016-03-26T13:42:33.000Z</time>
      </trkpt>
      <trkpt lat="45.30985" lon="6.18088">
        <ele>2187.1999511719</ele>
        <time>2016-03-26T13:42:34.000Z</time>
      </trkpt>
      <trkpt lat="45.30981" lon="6.18084">
        <ele>2185</ele>
        <time>2016-03-26T13:42:35.000Z</time>
      </trkpt>
      <trkpt lat="45.30976" lon="6.18082">
        <ele>2182.8000488281</ele>
        <time>2016-03-26T13:42:36.000Z</time>
      </trkpt>
      <trkpt lat="45.30972" lon="6.18081">
        <ele>2180.3999023438</ele>
        <time>2016-03-26T13:42:37.000Z</time>
      </trkpt>
      <trkpt lat="45.3097" lon="6.18077">
        <ele>2177.3999023438</ele>
        <time>2016-03-26T13:42:38.000Z</time>
      </trkpt>
      <trkpt lat="45.30967" lon="6.18073">
        <ele>2174.1999511719</ele>
        <time>2016-03-26T13:42:39.000Z</time>
      </trkpt>
      <trkpt lat="45.30964" lon="6.18069">
        <ele>2171.1999511719</ele>
        <time>2016-03-26T13:42:40.000Z</time>
      </trkpt>
      <trkpt lat="45.3096" lon="6.18067">
        <ele>2168</ele>
        <time>2016-03-26T13:42:41.000Z</time>
      </trkpt>
      <trkpt lat="45.3095" lon="6.18062">
        <ele>2164.8000488281</ele>
        <time>2016-03-26T13:42:42.000Z</time>
      </trkpt>
      <trkpt lat="45.30945" lon="6.18062">
        <ele>2161.3999023438</ele>
        <time>2016-03-26T13:42:43.000Z</time>
      </trkpt>
      <trkpt lat="45.30938" lon="6.18057">
        <ele>2157.8000488281</ele>
        <time>2016-03-26T13:42:44.000Z</time>
      </trkpt>
      <trkpt lat="45.3093" lon="6.1806">
        <ele>2154.3999023438</ele>
        <time>2016-03-26T13:42:45.000Z</time>
      </trkpt>
      <trkpt lat="45.30922" lon="6.18058">
        <ele>2151.8000488281</ele>
        <time>2016-03-26T13:42:46.000Z</time>
      </trkpt>
      <trkpt lat="45.30916" lon="6.18058">
        <ele>2146.6000976562</ele>
        <time>2016-03-26T13:42:47.000Z</time>
      </trkpt>
      <trkpt lat="45.30908" lon="6.18055">
        <ele>2143.6000976562</ele>
        <time>2016-03-26T13:42:48.000Z</time>
      </trkpt>
      <trkpt lat="45.309" lon="6.18057">
        <ele>2140.6000976562</ele>
        <time>2016-03-26T13:42:49.000Z</time>
      </trkpt>
      <trkpt lat="45.30893" lon="6.18059">
        <ele>2137.8000488281</ele>
        <time>2016-03-26T13:42:50.000Z</time>
      </trkpt>
      <trkpt lat="45.30882" lon="6.18055">
        <ele>2135</ele>
        <time>2016-03-26T13:42:51.000Z</time>
      </trkpt>
      <trkpt lat="45.30872" lon="6.18051">
        <ele>2132</ele>
        <time>2016-03-26T13:42:52.000Z</time>
      </trkpt>
      <trkpt lat="45.30865" lon="6.1805">
        <ele>2129.1999511719</ele>
        <time>2016-03-26T13:42:53.000Z</time>
      </trkpt>
      <trkpt lat="45.30861" lon="6.18051">
        <ele>2126.6000976562</ele>
        <time>2016-03-26T13:42:54.000Z</time>
      </trkpt>
      <trkpt lat="45.30857" lon="6.18054">
        <ele>2124.1999511719</ele>
        <time>2016-03-26T13:42:55.000Z</time>
      </trkpt>
      <trkpt lat="45.30855" lon="6.18055">
        <ele>2122.3999023438</ele>
        <time>2016-03-26T13:42:56.000Z</time>
      </trkpt>
      <trkpt lat="45.30856" lon="6.18054">
        <ele>2121.3999023438</ele>
        <time>2016-03-26T13:42:57.000Z</time>
      </trkpt>
      <trkpt lat="45.30858" lon="6.18053">
        <ele>2120.3999023438</ele>
        <time>2016-03-26T13:42:59.000Z</time>
      </trkpt>
      <trkpt lat="45.30858" lon="6.18053">
        <ele>2120</ele>
        <time>2016-03-26T13:43:13.000Z</time>
      </trkpt>
      <trkpt lat="45.30854" lon="6.18044">
        <ele>2120</ele>
        <time>2016-03-26T13:43:19.000Z</time>
      </trkpt>
      <trkpt lat="45.30851" lon="6.18037">
        <ele>2120</ele>
        <time>2016-03-26T13:43:20.000Z</time>
      </trkpt>
      <trkpt lat="45.30846" lon="6.1802">
        <ele>2119.3999023438</ele>
        <time>2016-03-26T13:43:22.000Z</time>
      </trkpt>
      <trkpt lat="45.30844" lon="6.18014">
        <ele>2119</ele>
        <time>2016-03-26T13:43:23.000Z</time>
      </trkpt>
      <trkpt lat="45.30835" lon="6.18003">
        <ele>2117</ele>
        <time>2016-03-26T13:43:25.000Z</time>
      </trkpt>
      <trkpt lat="45.30831" lon="6.17996">
        <ele>2115.3999023438</ele>
        <time>2016-03-26T13:43:26.000Z</time>
      </trkpt>
      <trkpt lat="45.30828" lon="6.17995">
        <ele>2113.6000976562</ele>
        <time>2016-03-26T13:43:27.000Z</time>
      </trkpt>
      <trkpt lat="45.30823" lon="6.1799">
        <ele>2111.8000488281</ele>
        <time>2016-03-26T13:43:28.000Z</time>
      </trkpt>
      <trkpt lat="45.3082" lon="6.17988">
        <ele>2110.1999511719</ele>
        <time>2016-03-26T13:43:29.000Z</time>
      </trkpt>
      <trkpt lat="45.30817" lon="6.17985">
        <ele>2108.6000976562</ele>
        <time>2016-03-26T13:43:30.000Z</time>
      </trkpt>
      <trkpt lat="45.30813" lon="6.1798">
        <ele>2107</ele>
        <time>2016-03-26T13:43:31.000Z</time>
      </trkpt>
      <trkpt lat="45.30809" lon="6.17977">
        <ele>2105.1999511719</ele>
        <time>2016-03-26T13:43:32.000Z</time>
      </trkpt>
      <trkpt lat="45.30805" lon="6.17978">
        <ele>2103.1999511719</ele>
        <time>2016-03-26T13:43:33.000Z</time>
      </trkpt>
      <trkpt lat="45.30799" lon="6.17976">
        <ele>2101.1999511719</ele>
        <time>2016-03-26T13:43:34.000Z</time>
      </trkpt>
      <trkpt lat="45.30794" lon="6.17973">
        <ele>2096.8000488281</ele>
        <time>2016-03-26T13:43:35.000Z</time>
      </trkpt>
      <trkpt lat="45.3079" lon="6.17973">
        <ele>2094.6000976562</ele>
        <time>2016-03-26T13:43:36.000Z</time>
      </trkpt>
      <trkpt lat="45.30788" lon="6.17973">
        <ele>2092.1999511719</ele>
        <time>2016-03-26T13:43:37.000Z</time>
      </trkpt>
      <trkpt lat="45.30785" lon="6.17975">
        <ele>2090.1999511719</ele>
        <time>2016-03-26T13:43:38.000Z</time>
      </trkpt>
      <trkpt lat="45.3078" lon="6.17973">
        <ele>2088.1999511719</ele>
        <time>2016-03-26T13:43:39.000Z</time>
      </trkpt>
      <trkpt lat="45.30776" lon="6.17975">
        <ele>2086</ele>
        <time>2016-03-26T13:43:40.000Z</time>
      </trkpt>
      <trkpt lat="45.30769" lon="6.17973">
        <ele>2083.8000488281</ele>
        <time>2016-03-26T13:43:41.000Z</time>
      </trkpt>
      <trkpt lat="45.30762" lon="6.17971">
        <ele>2081.3999023438</ele>
        <time>2016-03-26T13:43:42.000Z</time>
      </trkpt>
      <trkpt lat="45.30756" lon="6.17969">
        <ele>2079</ele>
        <time>2016-03-26T13:43:43.000Z</time>
      </trkpt>
      <trkpt lat="45.3075" lon="6.17966">
        <ele>2076.3999023438</ele>
        <time>2016-03-26T13:43:44.000Z</time>
      </trkpt>
      <trkpt lat="45.30743" lon="6.17959">
        <ele>2073.8000488281</ele>
        <time>2016-03-26T13:43:45.000Z</time>
      </trkpt>
      <trkpt lat="45.30736" lon="6.17956">
        <ele>2070.8000488281</ele>
        <time>2016-03-26T13:43:46.000Z</time>
      </trkpt>
      <trkpt lat="45.30728" lon="6.17953">
        <ele>2068</ele>
        <time>2016-03-26T13:43:47.000Z</time>
      </trkpt>
      <trkpt lat="45.30721" lon="6.1795">
        <ele>2065.3999023438</ele>
        <time>2016-03-26T13:43:48.000Z</time>
      </trkpt>
      <trkpt lat="45.30715" lon="6.17948">
        <ele>2063</ele>
        <time>2016-03-26T13:43:49.000Z</time>
      </trkpt>
      <trkpt lat="45.30711" lon="6.17947">
        <ele>2060.8000488281</ele>
        <time>2016-03-26T13:43:50.000Z</time>
      </trkpt>
      <trkpt lat="45.30706" lon="6.17946">
        <ele>2058.8000488281</ele>
        <time>2016-03-26T13:43:51.000Z</time>
      </trkpt>
      <trkpt lat="45.30703" lon="6.17946">
        <ele>2057.3999023438</ele>
        <time>2016-03-26T13:43:52.000Z</time>
      </trkpt>
      <trkpt lat="45.30696" lon="6.17947">
        <ele>2056.1999511719</ele>
        <time>2016-03-26T13:43:54.000Z</time>
      </trkpt>
      <trkpt lat="45.30694" lon="6.17945">
        <ele>2055.8000488281</ele>
        <time>2016-03-26T13:43:56.000Z</time>
      </trkpt>
      <trkpt lat="45.307" lon="6.17938">
        <ele>2055.6000976562</ele>
        <time>2016-03-26T13:44:02.000Z</time>
      </trkpt>
      <trkpt lat="45.307" lon="6.17938">
        <ele>2055.6000976562</ele>
        <time>2016-03-26T13:44:14.000Z</time>
      </trkpt>
      <trkpt lat="45.30699" lon="6.17936">
        <ele>2055.8000488281</ele>
        <time>2016-03-26T13:44:26.000Z</time>
      </trkpt>
      <trkpt lat="45.30696" lon="6.17933">
        <ele>2055.8000488281</ele>
        <time>2016-03-26T13:44:28.000Z</time>
      </trkpt>
      <trkpt lat="45.30692" lon="6.17928">
        <ele>2055.6000976562</ele>
        <time>2016-03-26T13:44:30.000Z</time>
      </trkpt>
      <trkpt lat="45.30697" lon="6.17919">
        <ele>2055.3999023438</ele>
        <time>2016-03-26T13:44:31.000Z</time>
      </trkpt>
      <trkpt lat="45.30698" lon="6.17915">
        <ele>2055</ele>
        <time>2016-03-26T13:44:32.000Z</time>
      </trkpt>
      <trkpt lat="45.30692" lon="6.17912">
        <ele>2053.3999023438</ele>
        <time>2016-03-26T13:44:34.000Z</time>
      </trkpt>
      <trkpt lat="45.30691" lon="6.17907">
        <ele>2052</ele>
        <time>2016-03-26T13:44:35.000Z</time>
      </trkpt>
      <trkpt lat="45.3069" lon="6.17905">
        <ele>2050.6000976562</ele>
        <time>2016-03-26T13:44:36.000Z</time>
      </trkpt>
      <trkpt lat="45.30686" lon="6.17903">
        <ele>2049.3999023438</ele>
        <time>2016-03-26T13:44:37.000Z</time>
      </trkpt>
      <trkpt lat="45.30684" lon="6.17901">
        <ele>2048</ele>
        <time>2016-03-26T13:44:38.000Z</time>
      </trkpt>
      <trkpt lat="45.30681" lon="6.179">
        <ele>2046.4000244141</ele>
        <time>2016-03-26T13:44:39.000Z</time>
      </trkpt>
      <trkpt lat="45.30678" lon="6.17901">
        <ele>2044.4000244141</ele>
        <time>2016-03-26T13:44:40.000Z</time>
      </trkpt>
      <trkpt lat="45.30675" lon="6.179">
        <ele>2042.4000244141</ele>
        <time>2016-03-26T13:44:41.000Z</time>
      </trkpt>
      <trkpt lat="45.30669" lon="6.179">
        <ele>2040.5999755859</ele>
        <time>2016-03-26T13:44:42.000Z</time>
      </trkpt>
      <trkpt lat="45.30666" lon="6.17899">
        <ele>2038.5999755859</ele>
        <time>2016-03-26T13:44:43.000Z</time>
      </trkpt>
      <trkpt lat="45.30664" lon="6.17899">
        <ele>2036.4000244141</ele>
        <time>2016-03-26T13:44:44.000Z</time>
      </trkpt>
      <trkpt lat="45.30661" lon="6.17899">
        <ele>2034</ele>
        <time>2016-03-26T13:44:45.000Z</time>
      </trkpt>
      <trkpt lat="45.30656" lon="6.17898">
        <ele>2031.8000488281</ele>
        <time>2016-03-26T13:44:46.000Z</time>
      </trkpt>
      <trkpt lat="45.30654" lon="6.17894">
        <ele>2026.4000244141</ele>
        <time>2016-03-26T13:44:47.000Z</time>
      </trkpt>
      <trkpt lat="45.30652" lon="6.17894">
        <ele>2024</ele>
        <time>2016-03-26T13:44:48.000Z</time>
      </trkpt>
      <trkpt lat="45.3065" lon="6.17894">
        <ele>2021.8000488281</ele>
        <time>2016-03-26T13:44:49.000Z</time>
      </trkpt>
      <trkpt lat="45.30647" lon="6.17892">
        <ele>2019.5999755859</ele>
        <time>2016-03-26T13:44:50.000Z</time>
      </trkpt>
      <trkpt lat="45.30643" lon="6.17888">
        <ele>2017</ele>
        <time>2016-03-26T13:44:51.000Z</time>
      </trkpt>
      <trkpt lat="45.30642" lon="6.17888">
        <ele>2014.4000244141</ele>
        <time>2016-03-26T13:44:52.000Z</time>
      </trkpt>
      <trkpt lat="45.30639" lon="6.1789">
        <ele>2012.1999511719</ele>
        <time>2016-03-26T13:44:53.000Z</time>
      </trkpt>
      <trkpt lat="45.30635" lon="6.1789">
        <ele>2010</ele>
        <time>2016-03-26T13:44:54.000Z</time>
      </trkpt>
      <trkpt lat="45.30629" lon="6.1789">
        <ele>2007.5999755859</ele>
        <time>2016-03-26T13:44:55.000Z</time>
      </trkpt>
      <trkpt lat="45.30627" lon="6.17886">
        <ele>2004.8000488281</ele>
        <time>2016-03-26T13:44:56.000Z</time>
      </trkpt>
      <trkpt lat="45.30625" lon="6.17887">
        <ele>2002.1999511719</ele>
        <time>2016-03-26T13:44:57.000Z</time>
      </trkpt>
      <trkpt lat="45.30621" lon="6.17888">
        <ele>2000</ele>
        <time>2016-03-26T13:44:58.000Z</time>
      </trkpt>
      <trkpt lat="45.30616" lon="6.17888">
        <ele>1997.5999755859</ele>
        <time>2016-03-26T13:44:59.000Z</time>
      </trkpt>
      <trkpt lat="45.30616" lon="6.17885">
        <ele>1995</ele>
        <time>2016-03-26T13:45:00.000Z</time>
      </trkpt>
      <trkpt lat="45.30615" lon="6.17883">
        <ele>1992.1999511719</ele>
        <time>2016-03-26T13:45:01.000Z</time>
      </trkpt>
      <trkpt lat="45.30615" lon="6.17881">
        <ele>1989.5999755859</ele>
        <time>2016-03-26T13:45:02.000Z</time>
      </trkpt>
      <trkpt lat="45.30616" lon="6.1788">
        <ele>1987.5999755859</ele>
        <time>2016-03-26T13:45:03.000Z</time>
      </trkpt>
      <trkpt lat="45.30615" lon="6.1788">
        <ele>1986.1999511719</ele>
        <time>2016-03-26T13:45:04.000Z</time>
      </trkpt>
      <trkpt lat="45.30615" lon="6.17879">
        <ele>1985</ele>
        <time>2016-03-26T13:45:05.000Z</time>
      </trkpt>
      <trkpt lat="45.30614" lon="6.17879">
        <ele>1983.5999755859</ele>
        <time>2016-03-26T13:45:07.000Z</time>
      </trkpt>
      <trkpt lat="45.30613" lon="6.17878">
        <ele>1983.1999511719</ele>
        <time>2016-03-26T13:45:17.000Z</time>
      </trkpt>
      <trkpt lat="45.30608" lon="6.17872">
        <ele>1983.1999511719</ele>
        <time>2016-03-26T13:45:19.000Z</time>
      </trkpt>
      <trkpt lat="45.30601" lon="6.17877">
        <ele>1982.4000244141</ele>
        <time>2016-03-26T13:45:21.000Z</time>
      </trkpt>
      <trkpt lat="45.30599" lon="6.17878">
        <ele>1981.4000244141</ele>
        <time>2016-03-26T13:45:22.000Z</time>
      </trkpt>
      <trkpt lat="45.30596" lon="6.17878">
        <ele>1979.8000488281</ele>
        <time>2016-03-26T13:45:23.000Z</time>
      </trkpt>
      <trkpt lat="45.30593" lon="6.17877">
        <ele>1978</ele>
        <time>2016-03-26T13:45:24.000Z</time>
      </trkpt>
      <trkpt lat="45.3059" lon="6.17878">
        <ele>1976.4000244141</ele>
        <time>2016-03-26T13:45:25.000Z</time>
      </trkpt>
      <trkpt lat="45.30586" lon="6.17879">
        <ele>1975</ele>
        <time>2016-03-26T13:45:26.000Z</time>
      </trkpt>
      <trkpt lat="45.30582" lon="6.17876">
        <ele>1973.5999755859</ele>
        <time>2016-03-26T13:45:27.000Z</time>
      </trkpt>
      <trkpt lat="45.30579" lon="6.17872">
        <ele>1971.5999755859</ele>
        <time>2016-03-26T13:45:28.000Z</time>
      </trkpt>
      <trkpt lat="45.30576" lon="6.17873">
        <ele>1969.4000244141</ele>
        <time>2016-03-26T13:45:29.000Z</time>
      </trkpt>
      <trkpt lat="45.30575" lon="6.17876">
        <ele>1967.1999511719</ele>
        <time>2016-03-26T13:45:30.000Z</time>
      </trkpt>
      <trkpt lat="45.30576" lon="6.17877">
        <ele>1965.1999511719</ele>
        <time>2016-03-26T13:45:31.000Z</time>
      </trkpt>
      <trkpt lat="45.30575" lon="6.17879">
        <ele>1963</ele>
        <time>2016-03-26T13:45:32.000Z</time>
      </trkpt>
      <trkpt lat="45.30576" lon="6.1788">
        <ele>1960.8000488281</ele>
        <time>2016-03-26T13:45:33.000Z</time>
      </trkpt>
      <trkpt lat="45.30577" lon="6.17879">
        <ele>1958.5999755859</ele>
        <time>2016-03-26T13:45:34.000Z</time>
      </trkpt>
      <trkpt lat="45.30579" lon="6.17878">
        <ele>1956</ele>
        <time>2016-03-26T13:45:35.000Z</time>
      </trkpt>
      <trkpt lat="45.30578" lon="6.17878">
        <ele>1955</ele>
        <time>2016-03-26T13:45:37.000Z</time>
      </trkpt>
      <trkpt lat="45.30574" lon="6.17875">
        <ele>1954.8000488281</ele>
        <time>2016-03-26T13:45:38.000Z</time>
      </trkpt>
      <trkpt lat="45.30567" lon="6.17864">
        <ele>1953.8000488281</ele>
        <time>2016-03-26T13:45:40.000Z</time>
      </trkpt>
      <trkpt lat="45.30563" lon="6.17864">
        <ele>1952.8000488281</ele>
        <time>2016-03-26T13:45:41.000Z</time>
      </trkpt>
      <trkpt lat="45.30561" lon="6.17869">
        <ele>1951.8000488281</ele>
        <time>2016-03-26T13:45:42.000Z</time>
      </trkpt>
      <trkpt lat="45.30556" lon="6.17866">
        <ele>1950.4000244141</ele>
        <time>2016-03-26T13:45:43.000Z</time>
      </trkpt>
      <trkpt lat="45.30552" lon="6.17862">
        <ele>1948.5999755859</ele>
        <time>2016-03-26T13:45:44.000Z</time>
      </trkpt>
      <trkpt lat="45.30548" lon="6.17861">
        <ele>1946.1999511719</ele>
        <time>2016-03-26T13:45:45.000Z</time>
      </trkpt>
      <trkpt lat="45.30544" lon="6.17866">
        <ele>1944</ele>
        <time>2016-03-26T13:45:46.000Z</time>
      </trkpt>
      <trkpt lat="45.3054" lon="6.17869">
        <ele>1941.8000488281</ele>
        <time>2016-03-26T13:45:47.000Z</time>
      </trkpt>
      <trkpt lat="45.30538" lon="6.17871">
        <ele>1939.8000488281</ele>
        <time>2016-03-26T13:45:48.000Z</time>
      </trkpt>
      <trkpt lat="45.30533" lon="6.17871">
        <ele>1937.4000244141</ele>
        <time>2016-03-26T13:45:49.000Z</time>
      </trkpt>
      <trkpt lat="45.30529" lon="6.17875">
        <ele>1934.5999755859</ele>
        <time>2016-03-26T13:45:50.000Z</time>
      </trkpt>
      <trkpt lat="45.30524" lon="6.17874">
        <ele>1932.1999511719</ele>
        <time>2016-03-26T13:45:51.000Z</time>
      </trkpt>
      <trkpt lat="45.30521" lon="6.17873">
        <ele>1930</ele>
        <time>2016-03-26T13:45:52.000Z</time>
      </trkpt>
      <trkpt lat="45.30516" lon="6.17874">
        <ele>1927.5999755859</ele>
        <time>2016-03-26T13:45:53.000Z</time>
      </trkpt>
      <trkpt lat="45.30513" lon="6.17877">
        <ele>1925</ele>
        <time>2016-03-26T13:45:54.000Z</time>
      </trkpt>
      <trkpt lat="45.30511" lon="6.1788">
        <ele>1922.5999755859</ele>
        <time>2016-03-26T13:45:55.000Z</time>
      </trkpt>
      <trkpt lat="45.30509" lon="6.17883">
        <ele>1920.4000244141</ele>
        <time>2016-03-26T13:45:56.000Z</time>
      </trkpt>
      <trkpt lat="45.30505" lon="6.17888">
        <ele>1918.1999511719</ele>
        <time>2016-03-26T13:45:57.000Z</time>
      </trkpt>
      <trkpt lat="45.30501" lon="6.17894">
        <ele>1915.4000244141</ele>
        <time>2016-03-26T13:45:58.000Z</time>
      </trkpt>
      <trkpt lat="45.30499" lon="6.17898">
        <ele>1910.4000244141</ele>
        <time>2016-03-26T13:45:59.000Z</time>
      </trkpt>
      <trkpt lat="45.30498" lon="6.17901">
        <ele>1908.1999511719</ele>
        <time>2016-03-26T13:46:00.000Z</time>
      </trkpt>
      <trkpt lat="45.30496" lon="6.17904">
        <ele>1905.8000488281</ele>
        <time>2016-03-26T13:46:01.000Z</time>
      </trkpt>
      <trkpt lat="45.30493" lon="6.17904">
        <ele>1903</ele>
        <time>2016-03-26T13:46:02.000Z</time>
      </trkpt>
      <trkpt lat="45.30491" lon="6.17909">
        <ele>1900.5999755859</ele>
        <time>2016-03-26T13:46:03.000Z</time>
      </trkpt>
      <trkpt lat="45.30489" lon="6.17909">
        <ele>1898.4000244141</ele>
        <time>2016-03-26T13:46:04.000Z</time>
      </trkpt>
      <trkpt lat="45.30488" lon="6.1791">
        <ele>1896.4000244141</ele>
        <time>2016-03-26T13:46:05.000Z</time>
      </trkpt>
      <trkpt lat="45.30486" lon="6.17909">
        <ele>1894.4000244141</ele>
        <time>2016-03-26T13:46:06.000Z</time>
      </trkpt>
      <trkpt lat="45.30484" lon="6.17908">
        <ele>1892.5999755859</ele>
        <time>2016-03-26T13:46:07.000Z</time>
      </trkpt>
      <trkpt lat="45.30483" lon="6.17907">
        <ele>1891.1999511719</ele>
        <time>2016-03-26T13:46:08.000Z</time>
      </trkpt>
      <trkpt lat="45.30482" lon="6.17906">
        <ele>1890.1999511719</ele>
        <time>2016-03-26T13:46:10.000Z</time>
      </trkpt>
      <trkpt lat="45.30482" lon="6.17906">
        <ele>1889.8000488281</ele>
        <time>2016-03-26T13:46:14.000Z</time>
      </trkpt>
      <trkpt lat="45.3048" lon="6.17908">
        <ele>1889.5999755859</ele>
        <time>2016-03-26T13:46:19.000Z</time>
      </trkpt>
      <trkpt lat="45.30476" lon="6.17905">
        <ele>1889.5999755859</ele>
        <time>2016-03-26T13:46:20.000Z</time>
      </trkpt>
      <trkpt lat="45.30467" lon="6.17905">
        <ele>1887.8000488281</ele>
        <time>2016-03-26T13:46:23.000Z</time>
      </trkpt>
      <trkpt lat="45.30464" lon="6.1791">
        <ele>1886.5999755859</ele>
        <time>2016-03-26T13:46:24.000Z</time>
      </trkpt>
      <trkpt lat="45.30459" lon="6.17913">
        <ele>1885.1999511719</ele>
        <time>2016-03-26T13:46:25.000Z</time>
      </trkpt>
      <trkpt lat="45.30455" lon="6.17913">
        <ele>1883.4000244141</ele>
        <time>2016-03-26T13:46:26.000Z</time>
      </trkpt>
      <trkpt lat="45.30449" lon="6.17909">
        <ele>1881.1999511719</ele>
        <time>2016-03-26T13:46:27.000Z</time>
      </trkpt>
      <trkpt lat="45.30444" lon="6.17902">
        <ele>1879</ele>
        <time>2016-03-26T13:46:28.000Z</time>
      </trkpt>
      <trkpt lat="45.3044" lon="6.179">
        <ele>1877.1999511719</ele>
        <time>2016-03-26T13:46:29.000Z</time>
      </trkpt>
      <trkpt lat="45.30437" lon="6.17902">
        <ele>1875.5999755859</ele>
        <time>2016-03-26T13:46:30.000Z</time>
      </trkpt>
      <trkpt lat="45.30435" lon="6.17905">
        <ele>1874</ele>
        <time>2016-03-26T13:46:31.000Z</time>
      </trkpt>
      <trkpt lat="45.30433" lon="6.17904">
        <ele>1872.5999755859</ele>
        <time>2016-03-26T13:46:32.000Z</time>
      </trkpt>
      <trkpt lat="45.30427" lon="6.17901">
        <ele>1870.8000488281</ele>
        <time>2016-03-26T13:46:33.000Z</time>
      </trkpt>
      <trkpt lat="45.3042" lon="6.17897">
        <ele>1868.8000488281</ele>
        <time>2016-03-26T13:46:34.000Z</time>
      </trkpt>
      <trkpt lat="45.30414" lon="6.17897">
        <ele>1866.4000244141</ele>
        <time>2016-03-26T13:46:35.000Z</time>
      </trkpt>
      <trkpt lat="45.30413" lon="6.17899">
        <ele>1864.1999511719</ele>
        <time>2016-03-26T13:46:36.000Z</time>
      </trkpt>
      <trkpt lat="45.30413" lon="6.17902">
        <ele>1862</ele>
        <time>2016-03-26T13:46:37.000Z</time>
      </trkpt>
      <trkpt lat="45.30413" lon="6.17904">
        <ele>1860</ele>
        <time>2016-03-26T13:46:38.000Z</time>
      </trkpt>
      <trkpt lat="45.30413" lon="6.17905">
        <ele>1857.8000488281</ele>
        <time>2016-03-26T13:46:39.000Z</time>
      </trkpt>
      <trkpt lat="45.30413" lon="6.17906">
        <ele>1855.5999755859</ele>
        <time>2016-03-26T13:46:40.000Z</time>
      </trkpt>
      <trkpt lat="45.30414" lon="6.17906">
        <ele>1853.5999755859</ele>
        <time>2016-03-26T13:46:41.000Z</time>
      </trkpt>
      <trkpt lat="45.30414" lon="6.17905">
        <ele>1852.1999511719</ele>
        <time>2016-03-26T13:46:42.000Z</time>
      </trkpt>
      <trkpt lat="45.30414" lon="6.17905">
        <ele>1851.1999511719</ele>
        <time>2016-03-26T13:46:43.000Z</time>
      </trkpt>
      <trkpt lat="45.30414" lon="6.17905">
        <ele>1850</ele>
        <time>2016-03-26T13:46:45.000Z</time>
      </trkpt>
      <trkpt lat="45.30409" lon="6.1791">
        <ele>1849.4000244141</ele>
        <time>2016-03-26T13:46:49.000Z</time>
      </trkpt>
      <trkpt lat="45.30402" lon="6.1791">
        <ele>1848.8000488281</ele>
        <time>2016-03-26T13:46:50.000Z</time>
      </trkpt>
      <trkpt lat="45.30387" lon="6.17907">
        <ele>1846.5999755859</ele>
        <time>2016-03-26T13:46:52.000Z</time>
      </trkpt>
      <trkpt lat="45.30381" lon="6.17912">
        <ele>1845.1999511719</ele>
        <time>2016-03-26T13:46:53.000Z</time>
      </trkpt>
      <trkpt lat="45.30374" lon="6.17916">
        <ele>1844</ele>
        <time>2016-03-26T13:46:54.000Z</time>
      </trkpt>
      <trkpt lat="45.30367" lon="6.17916">
        <ele>1842.5999755859</ele>
        <time>2016-03-26T13:46:55.000Z</time>
      </trkpt>
      <trkpt lat="45.3036" lon="6.17914">
        <ele>1841.4000244141</ele>
        <time>2016-03-26T13:46:56.000Z</time>
      </trkpt>
      <trkpt lat="45.30353" lon="6.17908">
        <ele>1840</ele>
        <time>2016-03-26T13:46:57.000Z</time>
      </trkpt>
      <trkpt lat="45.30346" lon="6.17908">
        <ele>1838.1999511719</ele>
        <time>2016-03-26T13:46:58.000Z</time>
      </trkpt>
      <trkpt lat="45.30339" lon="6.17911">
        <ele>1836.5999755859</ele>
        <time>2016-03-26T13:46:59.000Z</time>
      </trkpt>
      <trkpt lat="45.30333" lon="6.17913">
        <ele>1835</ele>
        <time>2016-03-26T13:47:00.000Z</time>
      </trkpt>
      <trkpt lat="45.30326" lon="6.17914">
        <ele>1833.5999755859</ele>
        <time>2016-03-26T13:47:01.000Z</time>
      </trkpt>
      <trkpt lat="45.30321" lon="6.17918">
        <ele>1832</ele>
        <time>2016-03-26T13:47:02.000Z</time>
      </trkpt>
      <trkpt lat="45.30316" lon="6.17926">
        <ele>1830.4000244141</ele>
        <time>2016-03-26T13:47:03.000Z</time>
      </trkpt>
      <trkpt lat="45.30311" lon="6.17933">
        <ele>1828.4000244141</ele>
        <time>2016-03-26T13:47:04.000Z</time>
      </trkpt>
      <trkpt lat="45.30307" lon="6.17939">
        <ele>1826.4000244141</ele>
        <time>2016-03-26T13:47:05.000Z</time>
      </trkpt>
      <trkpt lat="45.30302" lon="6.17941">
        <ele>1824.1999511719</ele>
        <time>2016-03-26T13:47:06.000Z</time>
      </trkpt>
      <trkpt lat="45.30297" lon="6.17944">
        <ele>1821.8000488281</ele>
        <time>2016-03-26T13:47:07.000Z</time>
      </trkpt>
      <trkpt lat="45.30294" lon="6.17952">
        <ele>1819.1999511719</ele>
        <time>2016-03-26T13:47:08.000Z</time>
      </trkpt>
      <trkpt lat="45.3029" lon="6.17958">
        <ele>1817</ele>
        <time>2016-03-26T13:47:09.000Z</time>
      </trkpt>
      <trkpt lat="45.30287" lon="6.17961">
        <ele>1815.1999511719</ele>
        <time>2016-03-26T13:47:10.000Z</time>
      </trkpt>
      <trkpt lat="45.30281" lon="6.17964">
        <ele>1811.1999511719</ele>
        <time>2016-03-26T13:47:11.000Z</time>
      </trkpt>
      <trkpt lat="45.3028" lon="6.17969">
        <ele>1808.8000488281</ele>
        <time>2016-03-26T13:47:12.000Z</time>
      </trkpt>
      <trkpt lat="45.30278" lon="6.17975">
        <ele>1806.8000488281</ele>
        <time>2016-03-26T13:47:13.000Z</time>
      </trkpt>
      <trkpt lat="45.30276" lon="6.1798">
        <ele>1804.5999755859</ele>
        <time>2016-03-26T13:47:14.000Z</time>
      </trkpt>
      <trkpt lat="45.30273" lon="6.17984">
        <ele>1802.5999755859</ele>
        <time>2016-03-26T13:47:15.000Z</time>
      </trkpt>
      <trkpt lat="45.30271" lon="6.17986">
        <ele>1800.1999511719</ele>
        <time>2016-03-26T13:47:16.000Z</time>
      </trkpt>
      <trkpt lat="45.30268" lon="6.17987">
        <ele>1797.8000488281</ele>
        <time>2016-03-26T13:47:17.000Z</time>
      </trkpt>
      <trkpt lat="45.30266" lon="6.17986">
        <ele>1795.8000488281</ele>
        <time>2016-03-26T13:47:18.000Z</time>
      </trkpt>
      <trkpt lat="45.30261" lon="6.17987">
        <ele>1793.5999755859</ele>
        <time>2016-03-26T13:47:19.000Z</time>
      </trkpt>
      <trkpt lat="45.30255" lon="6.17989">
        <ele>1791.5999755859</ele>
        <time>2016-03-26T13:47:20.000Z</time>
      </trkpt>
      <trkpt lat="45.30247" lon="6.1799">
        <ele>1789.1999511719</ele>
        <time>2016-03-26T13:47:21.000Z</time>
      </trkpt>
      <trkpt lat="45.30239" lon="6.17989">
        <ele>1786.5999755859</ele>
        <time>2016-03-26T13:47:22.000Z</time>
      </trkpt>
      <trkpt lat="45.30228" lon="6.17986">
        <ele>1783.4000244141</ele>
        <time>2016-03-26T13:47:23.000Z</time>
      </trkpt>
      <trkpt lat="45.3022" lon="6.17987">
        <ele>1779.8000488281</ele>
        <time>2016-03-26T13:47:24.000Z</time>
      </trkpt>
      <trkpt lat="45.30213" lon="6.17987">
        <ele>1776.5999755859</ele>
        <time>2016-03-26T13:47:25.000Z</time>
      </trkpt>
      <trkpt lat="45.30205" lon="6.17986">
        <ele>1774.4000244141</ele>
        <time>2016-03-26T13:47:26.000Z</time>
      </trkpt>
      <trkpt lat="45.30197" lon="6.17985">
        <ele>1773</ele>
        <time>2016-03-26T13:47:27.000Z</time>
      </trkpt>
      <trkpt lat="45.30189" lon="6.17991">
        <ele>1771.5999755859</ele>
        <time>2016-03-26T13:47:29.000Z</time>
      </trkpt>
      <trkpt lat="45.30187" lon="6.17998">
        <ele>1770.8000488281</ele>
        <time>2016-03-26T13:47:30.000Z</time>
      </trkpt>
      <trkpt lat="45.30186" lon="6.18003">
        <ele>1770</ele>
        <time>2016-03-26T13:47:31.000Z</time>
      </trkpt>
      <trkpt lat="45.30179" lon="6.18017">
        <ele>1768.4000244141</ele>
        <time>2016-03-26T13:47:33.000Z</time>
      </trkpt>
      <trkpt lat="45.30175" lon="6.18025">
        <ele>1767.1999511719</ele>
        <time>2016-03-26T13:47:34.000Z</time>
      </trkpt>
      <trkpt lat="45.30168" lon="6.18032">
        <ele>1764.4000244141</ele>
        <time>2016-03-26T13:47:35.000Z</time>
      </trkpt>
      <trkpt lat="45.30162" lon="6.18037">
        <ele>1762.8000488281</ele>
        <time>2016-03-26T13:47:36.000Z</time>
      </trkpt>
      <trkpt lat="45.30155" lon="6.18043">
        <ele>1761</ele>
        <time>2016-03-26T13:47:37.000Z</time>
      </trkpt>
      <trkpt lat="45.30149" lon="6.18042">
        <ele>1759.1999511719</ele>
        <time>2016-03-26T13:47:38.000Z</time>
      </trkpt>
      <trkpt lat="45.30146" lon="6.18039">
        <ele>1757.5999755859</ele>
        <time>2016-03-26T13:47:39.000Z</time>
      </trkpt>
      <trkpt lat="45.3014" lon="6.18036">
        <ele>1756.1999511719</ele>
        <time>2016-03-26T13:47:41.000Z</time>
      </trkpt>
      <trkpt lat="45.30138" lon="6.18035">
        <ele>1755.8000488281</ele>
        <time>2016-03-26T13:47:42.000Z</time>
      </trkpt>
      <trkpt lat="45.30135" lon="6.18034">
        <ele>1755.8000488281</ele>
        <time>2016-03-26T13:47:43.000Z</time>
      </trkpt>
      <trkpt lat="45.30127" lon="6.18031">
        <ele>1755.8000488281</ele>
        <time>2016-03-26T13:47:49.000Z</time>
      </trkpt>
      <trkpt lat="45.30121" lon="6.18029">
        <ele>1756.4000244141</ele>
        <time>2016-03-26T13:47:56.000Z</time>
      </trkpt>
      <trkpt lat="45.30117" lon="6.18028">
        <ele>1756.5999755859</ele>
        <time>2016-03-26T13:48:00.000Z</time>
      </trkpt>
      <trkpt lat="45.30115" lon="6.18027">
        <ele>1756.8000488281</ele>
        <time>2016-03-26T13:48:04.000Z</time>
      </trkpt>
      <trkpt lat="45.30111" lon="6.18024">
        <ele>1756.8000488281</ele>
        <time>2016-03-26T13:48:06.000Z</time>
      </trkpt>
      <trkpt lat="45.30109" lon="6.18029">
        <ele>1756.8000488281</ele>
        <time>2016-03-26T13:48:08.000Z</time>
      </trkpt>
      <trkpt lat="45.30111" lon="6.18031">
        <ele>1756.8000488281</ele>
        <time>2016-03-26T13:48:12.000Z</time>
      </trkpt>
      <trkpt lat="45.30107" lon="6.18041">
        <ele>1757</ele>
        <time>2016-03-26T13:48:21.000Z</time>
      </trkpt>
      <trkpt lat="45.301" lon="6.18061">
        <ele>1755</ele>
        <time>2016-03-26T13:48:26.000Z</time>
      </trkpt>
      <trkpt lat="45.30098" lon="6.18064">
        <ele>1754.5999755859</ele>
        <time>2016-03-26T13:48:27.000Z</time>
      </trkpt>
      <trkpt lat="45.30094" lon="6.18072">
        <ele>1753.8000488281</ele>
        <time>2016-03-26T13:48:30.000Z</time>
      </trkpt>
      <trkpt lat="45.30086" lon="6.18085">
        <ele>1752.5999755859</ele>
        <time>2016-03-26T13:48:34.000Z</time>
      </trkpt>
      <trkpt lat="45.30074" lon="6.18098">
        <ele>1751.1999511719</ele>
        <time>2016-03-26T13:48:37.000Z</time>
      </trkpt>
      <trkpt lat="45.30068" lon="6.18106">
        <ele>1749.4000244141</ele>
        <time>2016-03-26T13:48:39.000Z</time>
      </trkpt>
      <trkpt lat="45.30064" lon="6.1811">
        <ele>1748.4000244141</ele>
        <time>2016-03-26T13:48:40.000Z</time>
      </trkpt>
      <trkpt lat="45.30057" lon="6.18119">
        <ele>1747</ele>
        <time>2016-03-26T13:48:42.000Z</time>
      </trkpt>
      <trkpt lat="45.30054" lon="6.18127">
        <ele>1746.5999755859</ele>
        <time>2016-03-26T13:48:43.000Z</time>
      </trkpt>
      <trkpt lat="45.30049" lon="6.18135">
        <ele>1746.1999511719</ele>
        <time>2016-03-26T13:48:44.000Z</time>
      </trkpt>
      <trkpt lat="45.30046" lon="6.18142">
        <ele>1745.5999755859</ele>
        <time>2016-03-26T13:48:45.000Z</time>
      </trkpt>
      <trkpt lat="45.30041" lon="6.18155">
        <ele>1743.8000488281</ele>
        <time>2016-03-26T13:48:47.000Z</time>
      </trkpt>
      <trkpt lat="45.30039" lon="6.18161">
        <ele>1742.1999511719</ele>
        <time>2016-03-26T13:48:48.000Z</time>
      </trkpt>
      <trkpt lat="45.3003" lon="6.18181">
        <ele>1741.1999511719</ele>
        <time>2016-03-26T13:48:51.000Z</time>
      </trkpt>
      <trkpt lat="45.30026" lon="6.18186">
        <ele>1740.5999755859</ele>
        <time>2016-03-26T13:48:52.000Z</time>
      </trkpt>
      <trkpt lat="45.30022" lon="6.18191">
        <ele>1740</ele>
        <time>2016-03-26T13:48:53.000Z</time>
      </trkpt>
      <trkpt lat="45.30016" lon="6.18203">
        <ele>1739</ele>
        <time>2016-03-26T13:48:55.000Z</time>
      </trkpt>
      <trkpt lat="45.30007" lon="6.18218">
        <ele>1737.5999755859</ele>
        <time>2016-03-26T13:48:57.000Z</time>
      </trkpt>
      <trkpt lat="45.29998" lon="6.18232">
        <ele>1736.1999511719</ele>
        <time>2016-03-26T13:48:59.000Z</time>
      </trkpt>
      <trkpt lat="45.29989" lon="6.18244">
        <ele>1734.5999755859</ele>
        <time>2016-03-26T13:49:01.000Z</time>
      </trkpt>
      <trkpt lat="45.29987" lon="6.18249">
        <ele>1733.5999755859</ele>
        <time>2016-03-26T13:49:02.000Z</time>
      </trkpt>
      <trkpt lat="45.29984" lon="6.18255">
        <ele>1732.5999755859</ele>
        <time>2016-03-26T13:49:03.000Z</time>
      </trkpt>
      <trkpt lat="45.29978" lon="6.18271">
        <ele>1730.8000488281</ele>
        <time>2016-03-26T13:49:05.000Z</time>
      </trkpt>
      <trkpt lat="45.29975" lon="6.18279">
        <ele>1730.4000244141</ele>
        <time>2016-03-26T13:49:06.000Z</time>
      </trkpt>
      <trkpt lat="45.2997" lon="6.18293">
        <ele>1729.1999511719</ele>
        <time>2016-03-26T13:49:08.000Z</time>
      </trkpt>
      <trkpt lat="45.29968" lon="6.183">
        <ele>1727.4000244141</ele>
        <time>2016-03-26T13:49:10.000Z</time>
      </trkpt>
      <trkpt lat="45.29967" lon="6.18303">
        <ele>1726.1999511719</ele>
        <time>2016-03-26T13:49:12.000Z</time>
      </trkpt>
      <trkpt lat="45.29967" lon="6.18304">
        <ele>1726</ele>
        <time>2016-03-26T13:49:14.000Z</time>
      </trkpt>
      <trkpt lat="45.29967" lon="6.18307">
        <ele>1727.1999511719</ele>
        <time>2016-03-26T13:49:25.000Z</time>
      </trkpt>
      <trkpt lat="45.2996" lon="6.18323">
        <ele>1726.8000488281</ele>
        <time>2016-03-26T13:49:29.000Z</time>
      </trkpt>
      <trkpt lat="45.29952" lon="6.18347">
        <ele>1725</ele>
        <time>2016-03-26T13:49:32.000Z</time>
      </trkpt>
      <trkpt lat="45.29946" lon="6.1836">
        <ele>1723.8000488281</ele>
        <time>2016-03-26T13:49:34.000Z</time>
      </trkpt>
      <trkpt lat="45.29945" lon="6.18364">
        <ele>1723</ele>
        <time>2016-03-26T13:49:35.000Z</time>
      </trkpt>
      <trkpt lat="45.29943" lon="6.18369">
        <ele>1721.4000244141</ele>
        <time>2016-03-26T13:49:36.000Z</time>
      </trkpt>
      <trkpt lat="45.2994" lon="6.18378">
        <ele>1720.5999755859</ele>
        <time>2016-03-26T13:49:39.000Z</time>
      </trkpt>
      <trkpt lat="45.29936" lon="6.18387">
        <ele>1720.4000244141</ele>
        <time>2016-03-26T13:49:41.000Z</time>
      </trkpt>
      <trkpt lat="45.2993" lon="6.18403">
        <ele>1719.8000488281</ele>
        <time>2016-03-26T13:49:43.000Z</time>
      </trkpt>
      <trkpt lat="45.29928" lon="6.18411">
        <ele>1719.1999511719</ele>
        <time>2016-03-26T13:49:44.000Z</time>
      </trkpt>
      <trkpt lat="45.2993" lon="6.18415">
        <ele>1718.4000244141</ele>
        <time>2016-03-26T13:49:45.000Z</time>
      </trkpt>
      <trkpt lat="45.2993" lon="6.18419">
        <ele>1717.5999755859</ele>
        <time>2016-03-26T13:49:46.000Z</time>
      </trkpt>
      <trkpt lat="45.29932" lon="6.1843">
        <ele>1716.1999511719</ele>
        <time>2016-03-26T13:49:49.000Z</time>
      </trkpt>
      <trkpt lat="45.29934" lon="6.18445">
        <ele>1715.4000244141</ele>
        <time>2016-03-26T13:49:53.000Z</time>
      </trkpt>
      <trkpt lat="45.29935" lon="6.18449">
        <ele>1715.1999511719</ele>
        <time>2016-03-26T13:49:54.000Z</time>
      </trkpt>
      <trkpt lat="45.29934" lon="6.18467">
        <ele>1714.4000244141</ele>
        <time>2016-03-26T13:49:59.000Z</time>
      </trkpt>
      <trkpt lat="45.29934" lon="6.18469">
        <ele>1714</ele>
        <time>2016-03-26T13:50:00.000Z</time>
      </trkpt>
      <trkpt lat="45.29934" lon="6.18469">
        <ele>1713.5999755859</ele>
        <time>2016-03-26T13:50:04.000Z</time>
      </trkpt>
      <trkpt lat="45.29934" lon="6.1847">
        <ele>1713.1999511719</ele>
        <time>2016-03-26T13:50:12.000Z</time>
      </trkpt>
      <trkpt lat="45.29934" lon="6.18475">
        <ele>1713</ele>
        <time>2016-03-26T13:50:13.000Z</time>
      </trkpt>
      <trkpt lat="45.29933" lon="6.18479">
        <ele>1712.8000488281</ele>
        <time>2016-03-26T13:50:14.000Z</time>
      </trkpt>
      <trkpt lat="45.2994" lon="6.18482">
        <ele>1711.8000488281</ele>
        <time>2016-03-26T13:50:17.000Z</time>
      </trkpt>
      <trkpt lat="45.29944" lon="6.18479">
        <ele>1711.5999755859</ele>
        <time>2016-03-26T13:50:18.000Z</time>
      </trkpt>
      <trkpt lat="45.2995" lon="6.18487">
        <ele>1710.5999755859</ele>
        <time>2016-03-26T13:50:20.000Z</time>
      </trkpt>
      <trkpt lat="45.2995" lon="6.18491">
        <ele>1709</ele>
        <time>2016-03-26T13:50:21.000Z</time>
      </trkpt>
      <trkpt lat="45.29949" lon="6.18498">
        <ele>1707</ele>
        <time>2016-03-26T13:50:22.000Z</time>
      </trkpt>
      <trkpt lat="45.29947" lon="6.18504">
        <ele>1705.5999755859</ele>
        <time>2016-03-26T13:50:23.000Z</time>
      </trkpt>
      <trkpt lat="45.29947" lon="6.18509">
        <ele>1704</ele>
        <time>2016-03-26T13:50:24.000Z</time>
      </trkpt>
      <trkpt lat="45.29947" lon="6.18516">
        <ele>1702.8000488281</ele>
        <time>2016-03-26T13:50:25.000Z</time>
      </trkpt>
      <trkpt lat="45.29947" lon="6.1852">
        <ele>1701.4000244141</ele>
        <time>2016-03-26T13:50:26.000Z</time>
      </trkpt>
      <trkpt lat="45.29949" lon="6.1852">
        <ele>1700.4000244141</ele>
        <time>2016-03-26T13:50:27.000Z</time>
      </trkpt>
      <trkpt lat="45.29954" lon="6.18521">
        <ele>1699.5999755859</ele>
        <time>2016-03-26T13:50:28.000Z</time>
      </trkpt>
      <trkpt lat="45.29958" lon="6.18527">
        <ele>1698.4000244141</ele>
        <time>2016-03-26T13:50:29.000Z</time>
      </trkpt>
      <trkpt lat="45.29959" lon="6.18533">
        <ele>1696.8000488281</ele>
        <time>2016-03-26T13:50:30.000Z</time>
      </trkpt>
      <trkpt lat="45.29955" lon="6.18538">
        <ele>1695.4000244141</ele>
        <time>2016-03-26T13:50:31.000Z</time>
      </trkpt>
      <trkpt lat="45.29953" lon="6.18541">
        <ele>1694</ele>
        <time>2016-03-26T13:50:32.000Z</time>
      </trkpt>
      <trkpt lat="45.29952" lon="6.18542">
        <ele>1692.5999755859</ele>
        <time>2016-03-26T13:50:33.000Z</time>
      </trkpt>
      <trkpt lat="45.29949" lon="6.18546">
        <ele>1691.1999511719</ele>
        <time>2016-03-26T13:50:34.000Z</time>
      </trkpt>
      <trkpt lat="45.29946" lon="6.18552">
        <ele>1690.1999511719</ele>
        <time>2016-03-26T13:50:35.000Z</time>
      </trkpt>
      <trkpt lat="45.29944" lon="6.18559">
        <ele>1689.4000244141</ele>
        <time>2016-03-26T13:50:36.000Z</time>
      </trkpt>
      <trkpt lat="45.29943" lon="6.18566">
        <ele>1688.5999755859</ele>
        <time>2016-03-26T13:50:37.000Z</time>
      </trkpt>
      <trkpt lat="45.29942" lon="6.18572">
        <ele>1687.1999511719</ele>
        <time>2016-03-26T13:50:38.000Z</time>
      </trkpt>
      <trkpt lat="45.29941" lon="6.18578">
        <ele>1685.4000244141</ele>
        <time>2016-03-26T13:50:39.000Z</time>
      </trkpt>
      <trkpt lat="45.2994" lon="6.18584">
        <ele>1683.8000488281</ele>
        <time>2016-03-26T13:50:40.000Z</time>
      </trkpt>
      <trkpt lat="45.29939" lon="6.1859">
        <ele>1682.5999755859</ele>
        <time>2016-03-26T13:50:41.000Z</time>
      </trkpt>
      <trkpt lat="45.29939" lon="6.18597">
        <ele>1681.5999755859</ele>
        <time>2016-03-26T13:50:42.000Z</time>
      </trkpt>
      <trkpt lat="45.29938" lon="6.18609">
        <ele>1680.4000244141</ele>
        <time>2016-03-26T13:50:44.000Z</time>
      </trkpt>
      <trkpt lat="45.29937" lon="6.18615">
        <ele>1680</ele>
        <time>2016-03-26T13:50:45.000Z</time>
      </trkpt>
      <trkpt lat="45.29936" lon="6.18628">
        <ele>1679.1999511719</ele>
        <time>2016-03-26T13:50:47.000Z</time>
      </trkpt>
      <trkpt lat="45.29934" lon="6.1864">
        <ele>1677.8000488281</ele>
        <time>2016-03-26T13:50:49.000Z</time>
      </trkpt>
      <trkpt lat="45.29933" lon="6.18645">
        <ele>1677.1999511719</ele>
        <time>2016-03-26T13:50:50.000Z</time>
      </trkpt>
      <trkpt lat="45.29932" lon="6.18652">
        <ele>1676.8000488281</ele>
        <time>2016-03-26T13:50:51.000Z</time>
      </trkpt>
      <trkpt lat="45.29929" lon="6.18668">
        <ele>1675.1999511719</ele>
        <time>2016-03-26T13:50:54.000Z</time>
      </trkpt>
      <trkpt lat="45.29927" lon="6.18675">
        <ele>1674.5999755859</ele>
        <time>2016-03-26T13:50:55.000Z</time>
      </trkpt>
      <trkpt lat="45.29927" lon="6.18681">
        <ele>1674</ele>
        <time>2016-03-26T13:50:56.000Z</time>
      </trkpt>
      <trkpt lat="45.29922" lon="6.18701">
        <ele>1672.4000244141</ele>
        <time>2016-03-26T13:50:59.000Z</time>
      </trkpt>
      <trkpt lat="45.29919" lon="6.18711">
        <ele>1671</ele>
        <time>2016-03-26T13:51:01.000Z</time>
      </trkpt>
      <trkpt lat="45.29918" lon="6.18714">
        <ele>1670.1999511719</ele>
        <time>2016-03-26T13:51:03.000Z</time>
      </trkpt>
      <trkpt lat="45.29918" lon="6.18709">
        <ele>1670</ele>
        <time>2016-03-26T13:51:11.000Z</time>
      </trkpt>
      <trkpt lat="45.29918" lon="6.18709">
        <ele>1669.8000488281</ele>
        <time>2016-03-26T13:51:12.000Z</time>
      </trkpt>
      <trkpt lat="45.29916" lon="6.18713">
        <ele>1669.4000244141</ele>
        <time>2016-03-26T13:51:18.000Z</time>
      </trkpt>
      <trkpt lat="45.29914" lon="6.18714">
        <ele>1668.5999755859</ele>
        <time>2016-03-26T13:51:21.000Z</time>
      </trkpt>
      <trkpt lat="45.29913" lon="6.18714">
        <ele>1668</ele>
        <time>2016-03-26T13:51:22.000Z</time>
      </trkpt>
      <trkpt lat="45.29913" lon="6.18714">
        <ele>1667.5999755859</ele>
        <time>2016-03-26T13:51:24.000Z</time>
      </trkpt>
      <trkpt lat="45.29913" lon="6.18716">
        <ele>1668.1999511719</ele>
        <time>2016-03-26T13:51:34.000Z</time>
      </trkpt>
      <trkpt lat="45.29913" lon="6.18719">
        <ele>1668.1999511719</ele>
        <time>2016-03-26T13:51:35.000Z</time>
      </trkpt>
      <trkpt lat="45.29907" lon="6.1873">
        <ele>1667.1999511719</ele>
        <time>2016-03-26T13:51:38.000Z</time>
      </trkpt>
      <trkpt lat="45.29906" lon="6.18733">
        <ele>1666.4000244141</ele>
        <time>2016-03-26T13:51:39.000Z</time>
      </trkpt>
      <trkpt lat="45.29902" lon="6.18736">
        <ele>1665</ele>
        <time>2016-03-26T13:51:41.000Z</time>
      </trkpt>
      <trkpt lat="45.29895" lon="6.18749">
        <ele>1664.1999511719</ele>
        <time>2016-03-26T13:51:44.000Z</time>
      </trkpt>
      <trkpt lat="45.29893" lon="6.18753">
        <ele>1663.8000488281</ele>
        <time>2016-03-26T13:51:45.000Z</time>
      </trkpt>
      <trkpt lat="45.2989" lon="6.18757">
        <ele>1662.8000488281</ele>
        <time>2016-03-26T13:51:47.000Z</time>
      </trkpt>
      <trkpt lat="45.29886" lon="6.18761">
        <ele>1661.8000488281</ele>
        <time>2016-03-26T13:51:49.000Z</time>
      </trkpt>
      <trkpt lat="45.29872" lon="6.18778">
        <ele>1660.5999755859</ele>
        <time>2016-03-26T13:51:54.000Z</time>
      </trkpt>
      <trkpt lat="45.29863" lon="6.18785">
        <ele>1659.4000244141</ele>
        <time>2016-03-26T13:51:56.000Z</time>
      </trkpt>
      <trkpt lat="45.29858" lon="6.18788">
        <ele>1657.8000488281</ele>
        <time>2016-03-26T13:51:58.000Z</time>
      </trkpt>
      <trkpt lat="45.29854" lon="6.18794">
        <ele>1656.4000244141</ele>
        <time>2016-03-26T13:52:00.000Z</time>
      </trkpt>
      <trkpt lat="45.29845" lon="6.18806">
        <ele>1655.1999511719</ele>
        <time>2016-03-26T13:52:03.000Z</time>
      </trkpt>
      <trkpt lat="45.29838" lon="6.18818">
        <ele>1653.5999755859</ele>
        <time>2016-03-26T13:52:05.000Z</time>
      </trkpt>
      <trkpt lat="45.29836" lon="6.18824">
        <ele>1653</ele>
        <time>2016-03-26T13:52:06.000Z</time>
      </trkpt>
      <trkpt lat="45.29831" lon="6.18832">
        <ele>1652</ele>
        <time>2016-03-26T13:52:07.000Z</time>
      </trkpt>
      <trkpt lat="45.29823" lon="6.18846">
        <ele>1650</ele>
        <time>2016-03-26T13:52:09.000Z</time>
      </trkpt>
      <trkpt lat="45.2982" lon="6.18852">
        <ele>1648.8000488281</ele>
        <time>2016-03-26T13:52:10.000Z</time>
      </trkpt>
      <trkpt lat="45.29815" lon="6.18859">
        <ele>1647.5999755859</ele>
        <time>2016-03-26T13:52:11.000Z</time>
      </trkpt>
      <trkpt lat="45.29811" lon="6.18867">
        <ele>1647</ele>
        <time>2016-03-26T13:52:12.000Z</time>
      </trkpt>
      <trkpt lat="45.29808" lon="6.18874">
        <ele>1646.1999511719</ele>
        <time>2016-03-26T13:52:13.000Z</time>
      </trkpt>
      <trkpt lat="45.29803" lon="6.18886">
        <ele>1644.1999511719</ele>
        <time>2016-03-26T13:52:15.000Z</time>
      </trkpt>
      <trkpt lat="45.29801" lon="6.1889">
        <ele>1643.1999511719</ele>
        <time>2016-03-26T13:52:16.000Z</time>
      </trkpt>
      <trkpt lat="45.29798" lon="6.18899">
        <ele>1641.8000488281</ele>
        <time>2016-03-26T13:52:18.000Z</time>
      </trkpt>
      <trkpt lat="45.29794" lon="6.18912">
        <ele>1641</ele>
        <time>2016-03-26T13:52:21.000Z</time>
      </trkpt>
      <trkpt lat="45.2979" lon="6.18926">
        <ele>1640.4000244141</ele>
        <time>2016-03-26T13:52:23.000Z</time>
      </trkpt>
      <trkpt lat="45.29786" lon="6.1894">
        <ele>1639.1999511719</ele>
        <time>2016-03-26T13:52:25.000Z</time>
      </trkpt>
      <trkpt lat="45.29784" lon="6.18945">
        <ele>1637.5999755859</ele>
        <time>2016-03-26T13:52:27.000Z</time>
      </trkpt>
      <trkpt lat="45.29784" lon="6.18945">
        <ele>1636.4000244141</ele>
        <time>2016-03-26T13:52:28.000Z</time>
      </trkpt>
      <trkpt lat="45.29784" lon="6.18946">
        <ele>1635.1999511719</ele>
        <time>2016-03-26T13:52:30.000Z</time>
      </trkpt>
      <trkpt lat="45.29784" lon="6.18946">
        <ele>1635.4000244141</ele>
        <time>2016-03-26T13:52:38.000Z</time>
      </trkpt>
      <trkpt lat="45.29784" lon="6.18946">
        <ele>1635.1999511719</ele>
        <time>2016-03-26T13:52:52.000Z</time>
      </trkpt>
      <trkpt lat="45.29784" lon="6.18946">
        <ele>1635.1999511719</ele>
        <time>2016-03-26T13:53:02.000Z</time>
      </trkpt>
      <trkpt lat="45.29783" lon="6.18952">
        <ele>1634.8000488281</ele>
        <time>2016-03-26T13:53:05.000Z</time>
      </trkpt>
      <trkpt lat="45.2978" lon="6.18964">
        <ele>1634</ele>
        <time>2016-03-26T13:53:09.000Z</time>
      </trkpt>
      <trkpt lat="45.29777" lon="6.18977">
        <ele>1632.1999511719</ele>
        <time>2016-03-26T13:53:12.000Z</time>
      </trkpt>
      <trkpt lat="45.29776" lon="6.18985">
        <ele>1631.5999755859</ele>
        <time>2016-03-26T13:53:14.000Z</time>
      </trkpt>
      <trkpt lat="45.29774" lon="6.18991">
        <ele>1630.8000488281</ele>
        <time>2016-03-26T13:53:16.000Z</time>
      </trkpt>
      <trkpt lat="45.29771" lon="6.18999">
        <ele>1630</ele>
        <time>2016-03-26T13:53:18.000Z</time>
      </trkpt>
      <trkpt lat="45.29769" lon="6.19003">
        <ele>1629.5999755859</ele>
        <time>2016-03-26T13:53:19.000Z</time>
      </trkpt>
      <trkpt lat="45.29766" lon="6.19012">
        <ele>1628.4000244141</ele>
        <time>2016-03-26T13:53:21.000Z</time>
      </trkpt>
      <trkpt lat="45.29761" lon="6.19021">
        <ele>1627.4000244141</ele>
        <time>2016-03-26T13:53:23.000Z</time>
      </trkpt>
      <trkpt lat="45.2976" lon="6.1902">
        <ele>1626.8000488281</ele>
        <time>2016-03-26T13:53:24.000Z</time>
      </trkpt>
      <trkpt lat="45.2976" lon="6.19021">
        <ele>1625.4000244141</ele>
        <time>2016-03-26T13:53:26.000Z</time>
      </trkpt>
      <trkpt lat="45.29762" lon="6.19024">
        <ele>1624.8000488281</ele>
        <time>2016-03-26T13:53:29.000Z</time>
      </trkpt>
      <trkpt lat="45.29763" lon="6.19031">
        <ele>1624.8000488281</ele>
        <time>2016-03-26T13:53:32.000Z</time>
      </trkpt>
      <trkpt lat="45.29767" lon="6.19038">
        <ele>1624</ele>
        <time>2016-03-26T13:53:34.000Z</time>
      </trkpt>
      <trkpt lat="45.29766" lon="6.19044">
        <ele>1623.1999511719</ele>
        <time>2016-03-26T13:53:35.000Z</time>
      </trkpt>
      <trkpt lat="45.29763" lon="6.1905">
        <ele>1620.8000488281</ele>
        <time>2016-03-26T13:53:36.000Z</time>
      </trkpt>
      <trkpt lat="45.2976" lon="6.19057">
        <ele>1618.8000488281</ele>
        <time>2016-03-26T13:53:37.000Z</time>
      </trkpt>
      <trkpt lat="45.29759" lon="6.19062">
        <ele>1616.8000488281</ele>
        <time>2016-03-26T13:53:38.000Z</time>
      </trkpt>
      <trkpt lat="45.29761" lon="6.19067">
        <ele>1615.1999511719</ele>
        <time>2016-03-26T13:53:39.000Z</time>
      </trkpt>
      <trkpt lat="45.29761" lon="6.19072">
        <ele>1613.8000488281</ele>
        <time>2016-03-26T13:53:40.000Z</time>
      </trkpt>
      <trkpt lat="45.29759" lon="6.19077">
        <ele>1612.1999511719</ele>
        <time>2016-03-26T13:53:41.000Z</time>
      </trkpt>
      <trkpt lat="45.29758" lon="6.19082">
        <ele>1610.5999755859</ele>
        <time>2016-03-26T13:53:42.000Z</time>
      </trkpt>
      <trkpt lat="45.29757" lon="6.19089">
        <ele>1609</ele>
        <time>2016-03-26T13:53:43.000Z</time>
      </trkpt>
      <trkpt lat="45.29755" lon="6.19094">
        <ele>1607.4000244141</ele>
        <time>2016-03-26T13:53:44.000Z</time>
      </trkpt>
      <trkpt lat="45.29753" lon="6.19099">
        <ele>1606</ele>
        <time>2016-03-26T13:53:45.000Z</time>
      </trkpt>
      <trkpt lat="45.2975" lon="6.19112">
        <ele>1604.4000244141</ele>
        <time>2016-03-26T13:53:47.000Z</time>
      </trkpt>
      <trkpt lat="45.29749" lon="6.19116">
        <ele>1604</ele>
        <time>2016-03-26T13:53:48.000Z</time>
      </trkpt>
      <trkpt lat="45.29747" lon="6.19124">
        <ele>1603.1999511719</ele>
        <time>2016-03-26T13:53:50.000Z</time>
      </trkpt>
      <trkpt lat="45.29746" lon="6.19127">
        <ele>1602.8000488281</ele>
        <time>2016-03-26T13:53:51.000Z</time>
      </trkpt>
      <trkpt lat="45.29738" lon="6.19141">
        <ele>1602</ele>
        <time>2016-03-26T13:53:56.000Z</time>
      </trkpt>
      <trkpt lat="45.29735" lon="6.19143">
        <ele>1600.8000488281</ele>
        <time>2016-03-26T13:53:59.000Z</time>
      </trkpt>
      <trkpt lat="45.29734" lon="6.19144">
        <ele>1600</ele>
        <time>2016-03-26T13:54:00.000Z</time>
      </trkpt>
      <trkpt lat="45.29734" lon="6.19148">
        <ele>1599.5999755859</ele>
        <time>2016-03-26T13:54:02.000Z</time>
      </trkpt>
      <trkpt lat="45.2973" lon="6.19153">
        <ele>1599.1999511719</ele>
        <time>2016-03-26T13:54:05.000Z</time>
      </trkpt>
      <trkpt lat="45.29725" lon="6.19161">
        <ele>1598.1999511719</ele>
        <time>2016-03-26T13:54:08.000Z</time>
      </trkpt>
      <trkpt lat="45.29722" lon="6.19163">
        <ele>1597.5999755859</ele>
        <time>2016-03-26T13:54:09.000Z</time>
      </trkpt>
      <trkpt lat="45.29721" lon="6.19164">
        <ele>1597</ele>
        <time>2016-03-26T13:54:10.000Z</time>
      </trkpt>
      <trkpt lat="45.29719" lon="6.19168">
        <ele>1596</ele>
        <time>2016-03-26T13:54:12.000Z</time>
      </trkpt>
      <trkpt lat="45.29712" lon="6.19178">
        <ele>1594.8000488281</ele>
        <time>2016-03-26T13:54:15.000Z</time>
      </trkpt>
      <trkpt lat="45.29714" lon="6.19175">
        <ele>1593.8000488281</ele>
        <time>2016-03-26T13:54:17.000Z</time>
      </trkpt>
      <trkpt lat="45.29714" lon="6.19175">
        <ele>1593.1999511719</ele>
        <time>2016-03-26T13:54:18.000Z</time>
      </trkpt>
      <trkpt lat="45.29714" lon="6.19175">
        <ele>1592.8000488281</ele>
        <time>2016-03-26T13:54:22.000Z</time>
      </trkpt>
      <trkpt lat="45.29714" lon="6.19175">
        <ele>1592.5999755859</ele>
        <time>2016-03-26T13:54:26.000Z</time>
      </trkpt>
      <trkpt lat="45.29714" lon="6.19177">
        <ele>1592.5999755859</ele>
        <time>2016-03-26T13:54:30.000Z</time>
      </trkpt>
      <trkpt lat="45.29717" lon="6.1918">
        <ele>1592.4000244141</ele>
        <time>2016-03-26T13:54:32.000Z</time>
      </trkpt>
      <trkpt lat="45.29718" lon="6.19183">
        <ele>1592</ele>
        <time>2016-03-26T13:54:34.000Z</time>
      </trkpt>
      <trkpt lat="45.29717" lon="6.19182">
        <ele>1591.4000244141</ele>
        <time>2016-03-26T13:54:35.000Z</time>
      </trkpt>
      <trkpt lat="45.29718" lon="6.19182">
        <ele>1590.4000244141</ele>
        <time>2016-03-26T13:54:36.000Z</time>
      </trkpt>
      <trkpt lat="45.29718" lon="6.19183">
        <ele>1589.8000488281</ele>
        <time>2016-03-26T13:54:37.000Z</time>
      </trkpt>
      <trkpt lat="45.2972" lon="6.19188">
        <ele>1588.5999755859</ele>
        <time>2016-03-26T13:54:39.000Z</time>
      </trkpt>
      <trkpt lat="45.29721" lon="6.1919">
        <ele>1588.1999511719</ele>
        <time>2016-03-26T13:54:40.000Z</time>
      </trkpt>
      <trkpt lat="45.29722" lon="6.19192">
        <ele>1587.4000244141</ele>
        <time>2016-03-26T13:54:42.000Z</time>
      </trkpt>
      <trkpt lat="45.29725" lon="6.19196">
        <ele>1585.5999755859</ele>
        <time>2016-03-26T13:54:44.000Z</time>
      </trkpt>
      <trkpt lat="45.29727" lon="6.19198">
        <ele>1584.5999755859</ele>
        <time>2016-03-26T13:54:45.000Z</time>
      </trkpt>
      <trkpt lat="45.2973" lon="6.19196">
        <ele>1583.4000244141</ele>
        <time>2016-03-26T13:54:46.000Z</time>
      </trkpt>
      <trkpt lat="45.29731" lon="6.19197">
        <ele>1582.4000244141</ele>
        <time>2016-03-26T13:54:47.000Z</time>
      </trkpt>
      <trkpt lat="45.29731" lon="6.19198">
        <ele>1580.5999755859</ele>
        <time>2016-03-26T13:54:48.000Z</time>
      </trkpt>
      <trkpt lat="45.29735" lon="6.19197">
        <ele>1579</ele>
        <time>2016-03-26T13:54:50.000Z</time>
      </trkpt>
      <trkpt lat="45.29743" lon="6.19206">
        <ele>1577.8000488281</ele>
        <time>2016-03-26T13:54:52.000Z</time>
      </trkpt>
      <trkpt lat="45.29747" lon="6.19212">
        <ele>1576.1999511719</ele>
        <time>2016-03-26T13:54:54.000Z</time>
      </trkpt>
      <trkpt lat="45.2975" lon="6.19216">
        <ele>1575</ele>
        <time>2016-03-26T13:54:55.000Z</time>
      </trkpt>
      <trkpt lat="45.29754" lon="6.19217">
        <ele>1573.1999511719</ele>
        <time>2016-03-26T13:54:56.000Z</time>
      </trkpt>
      <trkpt lat="45.29757" lon="6.19219">
        <ele>1571.4000244141</ele>
        <time>2016-03-26T13:54:57.000Z</time>
      </trkpt>
      <trkpt lat="45.2976" lon="6.19222">
        <ele>1570</ele>
        <time>2016-03-26T13:54:58.000Z</time>
      </trkpt>
      <trkpt lat="45.29762" lon="6.19224">
        <ele>1568.5999755859</ele>
        <time>2016-03-26T13:54:59.000Z</time>
      </trkpt>
      <trkpt lat="45.29763" lon="6.19226">
        <ele>1567.1999511719</ele>
        <time>2016-03-26T13:55:00.000Z</time>
      </trkpt>
      <trkpt lat="45.29766" lon="6.19231">
        <ele>1565.5999755859</ele>
        <time>2016-03-26T13:55:01.000Z</time>
      </trkpt>
      <trkpt lat="45.29769" lon="6.19237">
        <ele>1564.1999511719</ele>
        <time>2016-03-26T13:55:02.000Z</time>
      </trkpt>
      <trkpt lat="45.29774" lon="6.1924">
        <ele>1563.4000244141</ele>
        <time>2016-03-26T13:55:03.000Z</time>
      </trkpt>
      <trkpt lat="45.29779" lon="6.19242">
        <ele>1562.4000244141</ele>
        <time>2016-03-26T13:55:04.000Z</time>
      </trkpt>
      <trkpt lat="45.29784" lon="6.19245">
        <ele>1561.1999511719</ele>
        <time>2016-03-26T13:55:05.000Z</time>
      </trkpt>
      <trkpt lat="45.29789" lon="6.19251">
        <ele>1560</ele>
        <time>2016-03-26T13:55:06.000Z</time>
      </trkpt>
      <trkpt lat="45.29794" lon="6.19254">
        <ele>1558.4000244141</ele>
        <time>2016-03-26T13:55:07.000Z</time>
      </trkpt>
      <trkpt lat="45.29797" lon="6.1926">
        <ele>1557.1999511719</ele>
        <time>2016-03-26T13:55:08.000Z</time>
      </trkpt>
      <trkpt lat="45.29795" lon="6.19268">
        <ele>1556</ele>
        <time>2016-03-26T13:55:09.000Z</time>
      </trkpt>
      <trkpt lat="45.29792" lon="6.19274">
        <ele>1554.8000488281</ele>
        <time>2016-03-26T13:55:10.000Z</time>
      </trkpt>
      <trkpt lat="45.29789" lon="6.19276">
        <ele>1553.5999755859</ele>
        <time>2016-03-26T13:55:11.000Z</time>
      </trkpt>
      <trkpt lat="45.29789" lon="6.19275">
        <ele>1551.5999755859</ele>
        <time>2016-03-26T13:55:12.000Z</time>
      </trkpt>
      <trkpt lat="45.29789" lon="6.19276">
        <ele>1551.1999511719</ele>
        <time>2016-03-26T13:55:13.000Z</time>
      </trkpt>
      <trkpt lat="45.29789" lon="6.19276">
        <ele>1550.8000488281</ele>
        <time>2016-03-26T13:55:22.000Z</time>
      </trkpt>
      <trkpt lat="45.29782" lon="6.19288">
        <ele>1550.8000488281</ele>
        <time>2016-03-26T13:55:27.000Z</time>
      </trkpt>
      <trkpt lat="45.29779" lon="6.19297">
        <ele>1550.4000244141</ele>
        <time>2016-03-26T13:55:29.000Z</time>
      </trkpt>
      <trkpt lat="45.29779" lon="6.19309">
        <ele>1550</ele>
        <time>2016-03-26T13:55:31.000Z</time>
      </trkpt>
      <trkpt lat="45.29779" lon="6.1932">
        <ele>1549.1999511719</ele>
        <time>2016-03-26T13:55:33.000Z</time>
      </trkpt>
      <trkpt lat="45.29777" lon="6.1933">
        <ele>1547.8000488281</ele>
        <time>2016-03-26T13:55:35.000Z</time>
      </trkpt>
      <trkpt lat="45.29776" lon="6.19333">
        <ele>1546.5999755859</ele>
        <time>2016-03-26T13:55:36.000Z</time>
      </trkpt>
      <trkpt lat="45.29775" lon="6.19341">
        <ele>1545.5999755859</ele>
        <time>2016-03-26T13:55:38.000Z</time>
      </trkpt>
      <trkpt lat="45.29769" lon="6.19356">
        <ele>1544.4000244141</ele>
        <time>2016-03-26T13:55:41.000Z</time>
      </trkpt>
      <trkpt lat="45.29765" lon="6.1936">
        <ele>1542.8000488281</ele>
        <time>2016-03-26T13:55:43.000Z</time>
      </trkpt>
      <trkpt lat="45.29766" lon="6.1936">
        <ele>1542</ele>
        <time>2016-03-26T13:55:44.000Z</time>
      </trkpt>
      <trkpt lat="45.29766" lon="6.19358">
        <ele>1541.5999755859</ele>
        <time>2016-03-26T13:55:45.000Z</time>
      </trkpt>
      <trkpt lat="45.29767" lon="6.19363">
        <ele>1541.4000244141</ele>
        <time>2016-03-26T13:55:47.000Z</time>
      </trkpt>
      <trkpt lat="45.29765" lon="6.19367">
        <ele>1541.1999511719</ele>
        <time>2016-03-26T13:55:50.000Z</time>
      </trkpt>
      <trkpt lat="45.29769" lon="6.19369">
        <ele>1540.4000244141</ele>
        <time>2016-03-26T13:55:52.000Z</time>
      </trkpt>
      <trkpt lat="45.2977" lon="6.19371">
        <ele>1539.8000488281</ele>
        <time>2016-03-26T13:55:53.000Z</time>
      </trkpt>
      <trkpt lat="45.2977" lon="6.19377">
        <ele>1539.1999511719</ele>
        <time>2016-03-26T13:55:54.000Z</time>
      </trkpt>
      <trkpt lat="45.29769" lon="6.19387">
        <ele>1538</ele>
        <time>2016-03-26T13:55:56.000Z</time>
      </trkpt>
      <trkpt lat="45.29765" lon="6.19398">
        <ele>1535.8000488281</ele>
        <time>2016-03-26T13:55:58.000Z</time>
      </trkpt>
      <trkpt lat="45.29764" lon="6.19403">
        <ele>1534.5999755859</ele>
        <time>2016-03-26T13:55:59.000Z</time>
      </trkpt>
      <trkpt lat="45.29763" lon="6.19408">
        <ele>1532.8000488281</ele>
        <time>2016-03-26T13:56:00.000Z</time>
      </trkpt>
      <trkpt lat="45.29758" lon="6.19415">
        <ele>1532.1999511719</ele>
        <time>2016-03-26T13:56:01.000Z</time>
      </trkpt>
      <trkpt lat="45.29754" lon="6.1942">
        <ele>1531.4000244141</ele>
        <time>2016-03-26T13:56:02.000Z</time>
      </trkpt>
      <trkpt lat="45.29746" lon="6.19431">
        <ele>1529.8000488281</ele>
        <time>2016-03-26T13:56:04.000Z</time>
      </trkpt>
      <trkpt lat="45.29741" lon="6.19436">
        <ele>1529</ele>
        <time>2016-03-26T13:56:05.000Z</time>
      </trkpt>
      <trkpt lat="45.29736" lon="6.19442">
        <ele>1528.4000244141</ele>
        <time>2016-03-26T13:56:06.000Z</time>
      </trkpt>
      <trkpt lat="45.29727" lon="6.19451">
        <ele>1527.4000244141</ele>
        <time>2016-03-26T13:56:08.000Z</time>
      </trkpt>
      <trkpt lat="45.29724" lon="6.19456">
        <ele>1527</ele>
        <time>2016-03-26T13:56:09.000Z</time>
      </trkpt>
      <trkpt lat="45.2972" lon="6.19459">
        <ele>1526.8000488281</ele>
        <time>2016-03-26T13:56:11.000Z</time>
      </trkpt>
      <trkpt lat="45.29702" lon="6.19476">
        <ele>1526.8000488281</ele>
        <time>2016-03-26T13:56:19.000Z</time>
      </trkpt>
      <trkpt lat="45.29692" lon="6.1949">
        <ele>1526</ele>
        <time>2016-03-26T13:56:22.000Z</time>
      </trkpt>
      <trkpt lat="45.29685" lon="6.195">
        <ele>1524.8000488281</ele>
        <time>2016-03-26T13:56:25.000Z</time>
      </trkpt>
      <trkpt lat="45.29681" lon="6.19505">
        <ele>1524.5999755859</ele>
        <time>2016-03-26T13:56:30.000Z</time>
      </trkpt>
      <trkpt lat="45.29671" lon="6.1952">
        <ele>1525</ele>
        <time>2016-03-26T13:56:34.000Z</time>
      </trkpt>
      <trkpt lat="45.2966" lon="6.19538">
        <ele>1523.5999755859</ele>
        <time>2016-03-26T13:56:37.000Z</time>
      </trkpt>
      <trkpt lat="45.29652" lon="6.19553">
        <ele>1522.1999511719</ele>
        <time>2016-03-26T13:56:39.000Z</time>
      </trkpt>
      <trkpt lat="45.29646" lon="6.19566">
        <ele>1520.5999755859</ele>
        <time>2016-03-26T13:56:41.000Z</time>
      </trkpt>
      <trkpt lat="45.29642" lon="6.19572">
        <ele>1519.8000488281</ele>
        <time>2016-03-26T13:56:42.000Z</time>
      </trkpt>
      <trkpt lat="45.29639" lon="6.19578">
        <ele>1519</ele>
        <time>2016-03-26T13:56:43.000Z</time>
      </trkpt>
      <trkpt lat="45.29633" lon="6.19591">
        <ele>1518.1999511719</ele>
        <time>2016-03-26T13:56:45.000Z</time>
      </trkpt>
      <trkpt lat="45.29629" lon="6.19597">
        <ele>1518</ele>
        <time>2016-03-26T13:56:46.000Z</time>
      </trkpt>
      <trkpt lat="45.29622" lon="6.19609">
        <ele>1516.8000488281</ele>
        <time>2016-03-26T13:56:48.000Z</time>
      </trkpt>
      <trkpt lat="45.29619" lon="6.19614">
        <ele>1516.1999511719</ele>
        <time>2016-03-26T13:56:49.000Z</time>
      </trkpt>
      <trkpt lat="45.29612" lon="6.19623">
        <ele>1515.5999755859</ele>
        <time>2016-03-26T13:56:51.000Z</time>
      </trkpt>
      <trkpt lat="45.29605" lon="6.19632">
        <ele>1514.5999755859</ele>
        <time>2016-03-26T13:56:53.000Z</time>
      </trkpt>
      <trkpt lat="45.29596" lon="6.19642">
        <ele>1513.1999511719</ele>
        <time>2016-03-26T13:56:55.000Z</time>
      </trkpt>
      <trkpt lat="45.29593" lon="6.19646">
        <ele>1512.4000244141</ele>
        <time>2016-03-26T13:56:56.000Z</time>
      </trkpt>
      <trkpt lat="45.2959" lon="6.1965">
        <ele>1511.8000488281</ele>
        <time>2016-03-26T13:56:57.000Z</time>
      </trkpt>
      <trkpt lat="45.29581" lon="6.19665">
        <ele>1510.5999755859</ele>
        <time>2016-03-26T13:57:00.000Z</time>
      </trkpt>
      <trkpt lat="45.29578" lon="6.1967">
        <ele>1510.4000244141</ele>
        <time>2016-03-26T13:57:01.000Z</time>
      </trkpt>
      <trkpt lat="45.29568" lon="6.19685">
        <ele>1509.5999755859</ele>
        <time>2016-03-26T13:57:04.000Z</time>
      </trkpt>
      <trkpt lat="45.29563" lon="6.19689">
        <ele>1508.8000488281</ele>
        <time>2016-03-26T13:57:06.000Z</time>
      </trkpt>
      <trkpt lat="45.29559" lon="6.19693">
        <ele>1508.4000244141</ele>
        <time>2016-03-26T13:57:07.000Z</time>
      </trkpt>
      <trkpt lat="45.29559" lon="6.19696">
        <ele>1508.1999511719</ele>
        <time>2016-03-26T13:57:08.000Z</time>
      </trkpt>
      <trkpt lat="45.29558" lon="6.19704">
        <ele>1508</ele>
        <time>2016-03-26T13:57:10.000Z</time>
      </trkpt>
      <trkpt lat="45.29558" lon="6.19714">
        <ele>1507.1999511719</ele>
        <time>2016-03-26T13:57:12.000Z</time>
      </trkpt>
      <trkpt lat="45.29557" lon="6.19723">
        <ele>1506</ele>
        <time>2016-03-26T13:57:14.000Z</time>
      </trkpt>
      <trkpt lat="45.29557" lon="6.19729">
        <ele>1505.1999511719</ele>
        <time>2016-03-26T13:57:15.000Z</time>
      </trkpt>
      <trkpt lat="45.29556" lon="6.19735">
        <ele>1504.4000244141</ele>
        <time>2016-03-26T13:57:16.000Z</time>
      </trkpt>
      <trkpt lat="45.29553" lon="6.19746">
        <ele>1502.1999511719</ele>
        <time>2016-03-26T13:57:18.000Z</time>
      </trkpt>
      <trkpt lat="45.29551" lon="6.19752">
        <ele>1500.8000488281</ele>
        <time>2016-03-26T13:57:19.000Z</time>
      </trkpt>
      <trkpt lat="45.29549" lon="6.19758">
        <ele>1499.4000244141</ele>
        <time>2016-03-26T13:57:20.000Z</time>
      </trkpt>
      <trkpt lat="45.29546" lon="6.19763">
        <ele>1498.1999511719</ele>
        <time>2016-03-26T13:57:21.000Z</time>
      </trkpt>
      <trkpt lat="45.29543" lon="6.19766">
        <ele>1497</ele>
        <time>2016-03-26T13:57:22.000Z</time>
      </trkpt>
      <trkpt lat="45.29539" lon="6.19774">
        <ele>1495.5999755859</ele>
        <time>2016-03-26T13:57:24.000Z</time>
      </trkpt>
      <trkpt lat="45.29536" lon="6.19784">
        <ele>1494.4000244141</ele>
        <time>2016-03-26T13:57:26.000Z</time>
      </trkpt>
      <trkpt lat="45.29531" lon="6.19795">
        <ele>1492.4000244141</ele>
        <time>2016-03-26T13:57:28.000Z</time>
      </trkpt>
      <trkpt lat="45.29529" lon="6.19801">
        <ele>1491.1999511719</ele>
        <time>2016-03-26T13:57:29.000Z</time>
      </trkpt>
      <trkpt lat="45.29526" lon="6.19806">
        <ele>1490</ele>
        <time>2016-03-26T13:57:30.000Z</time>
      </trkpt>
      <trkpt lat="45.29522" lon="6.19813">
        <ele>1488.8000488281</ele>
        <time>2016-03-26T13:57:31.000Z</time>
      </trkpt>
      <trkpt lat="45.29519" lon="6.19819">
        <ele>1487.5999755859</ele>
        <time>2016-03-26T13:57:32.000Z</time>
      </trkpt>
      <trkpt lat="45.29517" lon="6.19823">
        <ele>1486.5999755859</ele>
        <time>2016-03-26T13:57:33.000Z</time>
      </trkpt>
      <trkpt lat="45.29512" lon="6.1983">
        <ele>1484.8000488281</ele>
        <time>2016-03-26T13:57:35.000Z</time>
      </trkpt>
      <trkpt lat="45.2951" lon="6.19835">
        <ele>1483.5999755859</ele>
        <time>2016-03-26T13:57:36.000Z</time>
      </trkpt>
      <trkpt lat="45.29504" lon="6.19846">
        <ele>1482.4000244141</ele>
        <time>2016-03-26T13:57:39.000Z</time>
      </trkpt>
      <trkpt lat="45.29503" lon="6.1985">
        <ele>1481.4000244141</ele>
        <time>2016-03-26T13:57:41.000Z</time>
      </trkpt>
      <trkpt lat="45.29503" lon="6.1985">
        <ele>1481.1999511719</ele>
        <time>2016-03-26T13:57:42.000Z</time>
      </trkpt>
      <trkpt lat="45.29502" lon="6.19854">
        <ele>1481.4000244141</ele>
        <time>2016-03-26T13:57:46.000Z</time>
      </trkpt>
      <trkpt lat="45.29496" lon="6.19864">
        <ele>1480.8000488281</ele>
        <time>2016-03-26T13:57:50.000Z</time>
      </trkpt>
      <trkpt lat="45.29491" lon="6.19874">
        <ele>1480.1999511719</ele>
        <time>2016-03-26T13:57:53.000Z</time>
      </trkpt>
      <trkpt lat="45.29486" lon="6.19884">
        <ele>1479.1999511719</ele>
        <time>2016-03-26T13:57:56.000Z</time>
      </trkpt>
      <trkpt lat="45.29484" lon="6.19887">
        <ele>1479</ele>
        <time>2016-03-26T13:57:57.000Z</time>
      </trkpt>
      <trkpt lat="45.29473" lon="6.19903">
        <ele>1478.1999511719</ele>
        <time>2016-03-26T13:58:02.000Z</time>
      </trkpt>
      <trkpt lat="45.29469" lon="6.19911">
        <ele>1477.8000488281</ele>
        <time>2016-03-26T13:58:04.000Z</time>
      </trkpt>
      <trkpt lat="45.29464" lon="6.19923">
        <ele>1477</ele>
        <time>2016-03-26T13:58:07.000Z</time>
      </trkpt>
      <trkpt lat="45.29461" lon="6.19931">
        <ele>1476.4000244141</ele>
        <time>2016-03-26T13:58:10.000Z</time>
      </trkpt>
      <trkpt lat="45.29459" lon="6.19948">
        <ele>1476.5999755859</ele>
        <time>2016-03-26T13:58:17.000Z</time>
      </trkpt>
      <trkpt lat="45.29459" lon="6.19965">
        <ele>1476</ele>
        <time>2016-03-26T13:58:22.000Z</time>
      </trkpt>
      <trkpt lat="45.29459" lon="6.1997">
        <ele>1475.8000488281</ele>
        <time>2016-03-26T13:58:23.000Z</time>
      </trkpt>
      <trkpt lat="45.29457" lon="6.19981">
        <ele>1474.4000244141</ele>
        <time>2016-03-26T13:58:25.000Z</time>
      </trkpt>
      <trkpt lat="45.29456" lon="6.19986">
        <ele>1473.8000488281</ele>
        <time>2016-03-26T13:58:26.000Z</time>
      </trkpt>
      <trkpt lat="45.29454" lon="6.19991">
        <ele>1473</ele>
        <time>2016-03-26T13:58:27.000Z</time>
      </trkpt>
      <trkpt lat="45.2945" lon="6.19998">
        <ele>1471</ele>
        <time>2016-03-26T13:58:29.000Z</time>
      </trkpt>
      <trkpt lat="45.29449" lon="6.19999">
        <ele>1469.8000488281</ele>
        <time>2016-03-26T13:58:30.000Z</time>
      </trkpt>
      <trkpt lat="45.29449" lon="6.20001">
        <ele>1468.5999755859</ele>
        <time>2016-03-26T13:58:31.000Z</time>
      </trkpt>
      <trkpt lat="45.29449" lon="6.20004">
        <ele>1467.4000244141</ele>
        <time>2016-03-26T13:58:32.000Z</time>
      </trkpt>
      <trkpt lat="45.29448" lon="6.20006">
        <ele>1466.5999755859</ele>
        <time>2016-03-26T13:58:33.000Z</time>
      </trkpt>
      <trkpt lat="45.29447" lon="6.2001">
        <ele>1466</ele>
        <time>2016-03-26T13:58:34.000Z</time>
      </trkpt>
      <trkpt lat="45.29448" lon="6.20022">
        <ele>1464.5999755859</ele>
        <time>2016-03-26T13:58:37.000Z</time>
      </trkpt>
      <trkpt lat="45.29449" lon="6.20024">
        <ele>1464</ele>
        <time>2016-03-26T13:58:38.000Z</time>
      </trkpt>
      <trkpt lat="45.2945" lon="6.20027">
        <ele>1463.4000244141</ele>
        <time>2016-03-26T13:58:39.000Z</time>
      </trkpt>
      <trkpt lat="45.2945" lon="6.20035">
        <ele>1461.8000488281</ele>
        <time>2016-03-26T13:58:42.000Z</time>
      </trkpt>
      <trkpt lat="45.29452" lon="6.20042">
        <ele>1460.4000244141</ele>
        <time>2016-03-26T13:58:44.000Z</time>
      </trkpt>
      <trkpt lat="45.29452" lon="6.20046">
        <ele>1459.8000488281</ele>
        <time>2016-03-26T13:58:45.000Z</time>
      </trkpt>
      <trkpt lat="45.29452" lon="6.2005">
        <ele>1459.1999511719</ele>
        <time>2016-03-26T13:58:46.000Z</time>
      </trkpt>
      <trkpt lat="45.29451" lon="6.20057">
        <ele>1457.5999755859</ele>
        <time>2016-03-26T13:58:48.000Z</time>
      </trkpt>
      <trkpt lat="45.29451" lon="6.20066">
        <ele>1456.1999511719</ele>
        <time>2016-03-26T13:58:50.000Z</time>
      </trkpt>
      <trkpt lat="45.29449" lon="6.20072">
        <ele>1455.5999755859</ele>
        <time>2016-03-26T13:58:51.000Z</time>
      </trkpt>
      <trkpt lat="45.29447" lon="6.20078">
        <ele>1454.8000488281</ele>
        <time>2016-03-26T13:58:52.000Z</time>
      </trkpt>
      <trkpt lat="45.29442" lon="6.20092">
        <ele>1453.1999511719</ele>
        <time>2016-03-26T13:58:54.000Z</time>
      </trkpt>
      <trkpt lat="45.29439" lon="6.20099">
        <ele>1452.1999511719</ele>
        <time>2016-03-26T13:58:55.000Z</time>
      </trkpt>
      <trkpt lat="45.29436" lon="6.20104">
        <ele>1451</ele>
        <time>2016-03-26T13:58:56.000Z</time>
      </trkpt>
      <trkpt lat="45.29435" lon="6.20108">
        <ele>1450</ele>
        <time>2016-03-26T13:58:57.000Z</time>
      </trkpt>
      <trkpt lat="45.29434" lon="6.2011">
        <ele>1449.4000244141</ele>
        <time>2016-03-26T13:58:58.000Z</time>
      </trkpt>
      <trkpt lat="45.29432" lon="6.20117">
        <ele>1448.8000488281</ele>
        <time>2016-03-26T13:59:00.000Z</time>
      </trkpt>
      <trkpt lat="45.29431" lon="6.20121">
        <ele>1448.8000488281</ele>
        <time>2016-03-26T13:59:01.000Z</time>
      </trkpt>
      <trkpt lat="45.29434" lon="6.20135">
        <ele>1448.1999511719</ele>
        <time>2016-03-26T13:59:04.000Z</time>
      </trkpt>
      <trkpt lat="45.29433" lon="6.20139">
        <ele>1447.4000244141</ele>
        <time>2016-03-26T13:59:05.000Z</time>
      </trkpt>
      <trkpt lat="45.29432" lon="6.20144">
        <ele>1446.1999511719</ele>
        <time>2016-03-26T13:59:06.000Z</time>
      </trkpt>
      <trkpt lat="45.29432" lon="6.20151">
        <ele>1445.1999511719</ele>
        <time>2016-03-26T13:59:07.000Z</time>
      </trkpt>
      <trkpt lat="45.29431" lon="6.20159">
        <ele>1444.5999755859</ele>
        <time>2016-03-26T13:59:08.000Z</time>
      </trkpt>
      <trkpt lat="45.29424" lon="6.20175">
        <ele>1442.5999755859</ele>
        <time>2016-03-26T13:59:10.000Z</time>
      </trkpt>
      <trkpt lat="45.2942" lon="6.20182">
        <ele>1441</ele>
        <time>2016-03-26T13:59:11.000Z</time>
      </trkpt>
      <trkpt lat="45.29416" lon="6.20188">
        <ele>1437.5999755859</ele>
        <time>2016-03-26T13:59:12.000Z</time>
      </trkpt>
      <trkpt lat="45.29414" lon="6.20191">
        <ele>1436.1999511719</ele>
        <time>2016-03-26T13:59:13.000Z</time>
      </trkpt>
      <trkpt lat="45.29412" lon="6.20196">
        <ele>1434.5999755859</ele>
        <time>2016-03-26T13:59:15.000Z</time>
      </trkpt>
      <trkpt lat="45.29411" lon="6.20201">
        <ele>1434.1999511719</ele>
        <time>2016-03-26T13:59:16.000Z</time>
      </trkpt>
      <trkpt lat="45.29405" lon="6.20213">
        <ele>1433</ele>
        <time>2016-03-26T13:59:19.000Z</time>
      </trkpt>
      <trkpt lat="45.29401" lon="6.20216">
        <ele>1431.1999511719</ele>
        <time>2016-03-26T13:59:21.000Z</time>
      </trkpt>
      <trkpt lat="45.294" lon="6.20217">
        <ele>1430.5999755859</ele>
        <time>2016-03-26T13:59:23.000Z</time>
      </trkpt>
      <trkpt lat="45.294" lon="6.20217">
        <ele>1430.1999511719</ele>
        <time>2016-03-26T13:59:27.000Z</time>
      </trkpt>
      <trkpt lat="45.294" lon="6.20217">
        <ele>1430</ele>
        <time>2016-03-26T13:59:32.000Z</time>
      </trkpt>
      <trkpt lat="45.294" lon="6.20217">
        <ele>1430.1999511719</ele>
        <time>2016-03-26T13:59:45.000Z</time>
      </trkpt>
      <trkpt lat="45.29401" lon="6.20218">
        <ele>1430.1999511719</ele>
        <time>2016-03-26T13:59:48.000Z</time>
      </trkpt>
      <trkpt lat="45.29405" lon="6.20222">
        <ele>1430.1999511719</ele>
        <time>2016-03-26T13:59:50.000Z</time>
      </trkpt>
      <trkpt lat="45.29408" lon="6.20234">
        <ele>1429.8000488281</ele>
        <time>2016-03-26T13:59:53.000Z</time>
      </trkpt>
      <trkpt lat="45.29405" lon="6.20239">
        <ele>1429.1999511719</ele>
        <time>2016-03-26T13:59:54.000Z</time>
      </trkpt>
      <trkpt lat="45.29403" lon="6.20244">
        <ele>1428.1999511719</ele>
        <time>2016-03-26T13:59:55.000Z</time>
      </trkpt>
      <trkpt lat="45.29403" lon="6.2025">
        <ele>1427</ele>
        <time>2016-03-26T13:59:56.000Z</time>
      </trkpt>
      <trkpt lat="45.29402" lon="6.20257">
        <ele>1425.8000488281</ele>
        <time>2016-03-26T13:59:57.000Z</time>
      </trkpt>
      <trkpt lat="45.294" lon="6.20264">
        <ele>1424.5999755859</ele>
        <time>2016-03-26T13:59:58.000Z</time>
      </trkpt>
      <trkpt lat="45.29396" lon="6.20271">
        <ele>1423.1999511719</ele>
        <time>2016-03-26T13:59:59.000Z</time>
      </trkpt>
      <trkpt lat="45.29393" lon="6.20277">
        <ele>1419.8000488281</ele>
        <time>2016-03-26T14:00:00.000Z</time>
      </trkpt>
      <trkpt lat="45.2939" lon="6.20283">
        <ele>1418.1999511719</ele>
        <time>2016-03-26T14:00:01.000Z</time>
      </trkpt>
      <trkpt lat="45.29387" lon="6.20287">
        <ele>1417</ele>
        <time>2016-03-26T14:00:02.000Z</time>
      </trkpt>
      <trkpt lat="45.29386" lon="6.20292">
        <ele>1415.8000488281</ele>
        <time>2016-03-26T14:00:03.000Z</time>
      </trkpt>
      <trkpt lat="45.29384" lon="6.20302">
        <ele>1414.5999755859</ele>
        <time>2016-03-26T14:00:05.000Z</time>
      </trkpt>
      <trkpt lat="45.29385" lon="6.20313">
        <ele>1413.8000488281</ele>
        <time>2016-03-26T14:00:07.000Z</time>
      </trkpt>
      <trkpt lat="45.29386" lon="6.20319">
        <ele>1413.4000244141</ele>
        <time>2016-03-26T14:00:08.000Z</time>
      </trkpt>
      <trkpt lat="45.29387" lon="6.20326">
        <ele>1413</ele>
        <time>2016-03-26T14:00:09.000Z</time>
      </trkpt>
      <trkpt lat="45.29386" lon="6.20341">
        <ele>1411.8000488281</ele>
        <time>2016-03-26T14:00:11.000Z</time>
      </trkpt>
      <trkpt lat="45.29383" lon="6.20355">
        <ele>1409.8000488281</ele>
        <time>2016-03-26T14:00:13.000Z</time>
      </trkpt>
      <trkpt lat="45.29383" lon="6.20362">
        <ele>1409</ele>
        <time>2016-03-26T14:00:14.000Z</time>
      </trkpt>
      <trkpt lat="45.29384" lon="6.20369">
        <ele>1408.1999511719</ele>
        <time>2016-03-26T14:00:15.000Z</time>
      </trkpt>
      <trkpt lat="45.29388" lon="6.20386">
        <ele>1406.1999511719</ele>
        <time>2016-03-26T14:00:17.000Z</time>
      </trkpt>
      <trkpt lat="45.2939" lon="6.20394">
        <ele>1405</ele>
        <time>2016-03-26T14:00:18.000Z</time>
      </trkpt>
      <trkpt lat="45.29392" lon="6.204">
        <ele>1403.8000488281</ele>
        <time>2016-03-26T14:00:19.000Z</time>
      </trkpt>
      <trkpt lat="45.29394" lon="6.20405">
        <ele>1402.8000488281</ele>
        <time>2016-03-26T14:00:20.000Z</time>
      </trkpt>
      <trkpt lat="45.29396" lon="6.20411">
        <ele>1401.5999755859</ele>
        <time>2016-03-26T14:00:21.000Z</time>
      </trkpt>
      <trkpt lat="45.29399" lon="6.20422">
        <ele>1400.1999511719</ele>
        <time>2016-03-26T14:00:23.000Z</time>
      </trkpt>
      <trkpt lat="45.294" lon="6.20428">
        <ele>1399.4000244141</ele>
        <time>2016-03-26T14:00:24.000Z</time>
      </trkpt>
      <trkpt lat="45.29401" lon="6.20434">
        <ele>1399</ele>
        <time>2016-03-26T14:00:25.000Z</time>
      </trkpt>
      <trkpt lat="45.29402" lon="6.20449">
        <ele>1398.1999511719</ele>
        <time>2016-03-26T14:00:27.000Z</time>
      </trkpt>
      <trkpt lat="45.294" lon="6.20455">
        <ele>1397.4000244141</ele>
        <time>2016-03-26T14:00:28.000Z</time>
      </trkpt>
      <trkpt lat="45.29395" lon="6.20469">
        <ele>1395.8000488281</ele>
        <time>2016-03-26T14:00:30.000Z</time>
      </trkpt>
      <trkpt lat="45.29393" lon="6.20483">
        <ele>1394.4000244141</ele>
        <time>2016-03-26T14:00:32.000Z</time>
      </trkpt>
      <trkpt lat="45.29391" lon="6.20493">
        <ele>1392.8000488281</ele>
        <time>2016-03-26T14:00:34.000Z</time>
      </trkpt>
      <trkpt lat="45.2939" lon="6.205">
        <ele>1391.8000488281</ele>
        <time>2016-03-26T14:00:36.000Z</time>
      </trkpt>
      <trkpt lat="45.29391" lon="6.20506">
        <ele>1391.5999755859</ele>
        <time>2016-03-26T14:00:37.000Z</time>
      </trkpt>
      <trkpt lat="45.29392" lon="6.20527">
        <ele>1391.1999511719</ele>
        <time>2016-03-26T14:00:40.000Z</time>
      </trkpt>
      <trkpt lat="45.2939" lon="6.20534">
        <ele>1390.8000488281</ele>
        <time>2016-03-26T14:00:41.000Z</time>
      </trkpt>
      <trkpt lat="45.29388" lon="6.20547">
        <ele>1389</ele>
        <time>2016-03-26T14:00:43.000Z</time>
      </trkpt>
      <trkpt lat="45.29385" lon="6.2056">
        <ele>1387.4000244141</ele>
        <time>2016-03-26T14:00:45.000Z</time>
      </trkpt>
      <trkpt lat="45.29384" lon="6.20566">
        <ele>1386.8000488281</ele>
        <time>2016-03-26T14:00:46.000Z</time>
      </trkpt>
      <trkpt lat="45.29383" lon="6.20572">
        <ele>1386.1999511719</ele>
        <time>2016-03-26T14:00:47.000Z</time>
      </trkpt>
      <trkpt lat="45.29381" lon="6.20584">
        <ele>1384.8000488281</ele>
        <time>2016-03-26T14:00:49.000Z</time>
      </trkpt>
      <trkpt lat="45.29383" lon="6.20595">
        <ele>1384</ele>
        <time>2016-03-26T14:00:51.000Z</time>
      </trkpt>
      <trkpt lat="45.29382" lon="6.20599">
        <ele>1383.4000244141</ele>
        <time>2016-03-26T14:00:52.000Z</time>
      </trkpt>
      <trkpt lat="45.29381" lon="6.206">
        <ele>1381.8000488281</ele>
        <time>2016-03-26T14:00:54.000Z</time>
      </trkpt>
      <trkpt lat="45.29381" lon="6.206">
        <ele>1380.8000488281</ele>
        <time>2016-03-26T14:00:56.000Z</time>
      </trkpt>
      <trkpt lat="45.29382" lon="6.20598">
        <ele>1379.8000488281</ele>
        <time>2016-03-26T14:01:04.000Z</time>
      </trkpt>
      <trkpt lat="45.29382" lon="6.20598">
        <ele>1379.4000244141</ele>
        <time>2016-03-26T14:01:17.000Z</time>
      </trkpt>
      <trkpt lat="45.29382" lon="6.20601">
        <ele>1379.5999755859</ele>
        <time>2016-03-26T14:01:28.000Z</time>
      </trkpt>
      <trkpt lat="45.29382" lon="6.20602">
        <ele>1379.1999511719</ele>
        <time>2016-03-26T14:01:38.000Z</time>
      </trkpt>
      <trkpt lat="45.29382" lon="6.20602">
        <ele>1379</ele>
        <time>2016-03-26T14:01:59.000Z</time>
      </trkpt>
      <trkpt lat="45.29381" lon="6.20602">
        <ele>1379.1999511719</ele>
        <time>2016-03-26T14:02:12.000Z</time>
      </trkpt>
      <trkpt lat="45.29381" lon="6.20602">
        <ele>1379.1999511719</ele>
        <time>2016-03-26T14:02:23.000Z</time>
      </trkpt>
      <trkpt lat="45.29381" lon="6.20602">
        <ele>1379</ele>
        <time>2016-03-26T14:02:38.000Z</time>
      </trkpt>
      <trkpt lat="45.29381" lon="6.20603">
        <ele>1379.1999511719</ele>
        <time>2016-03-26T14:02:52.000Z</time>
      </trkpt>
      <trkpt lat="45.29381" lon="6.20603">
        <ele>1379</ele>
        <time>2016-03-26T14:03:10.000Z</time>
      </trkpt>
      <trkpt lat="45.29381" lon="6.20603">
        <ele>1379.1999511719</ele>
        <time>2016-03-26T14:03:24.000Z</time>
      </trkpt>
      <trkpt lat="45.29381" lon="6.20602">
        <ele>1379</ele>
        <time>2016-03-26T14:03:37.000Z</time>
      </trkpt>
      <trkpt lat="45.29381" lon="6.20602">
        <ele>1379.1999511719</ele>
        <time>2016-03-26T14:03:53.000Z</time>
      </trkpt>
      <trkpt lat="45.29381" lon="6.20603">
        <ele>1379.1999511719</ele>
        <time>2016-03-26T14:04:10.000Z</time>
      </trkpt>
      <trkpt lat="45.29381" lon="6.20603">
        <ele>1379</ele>
        <time>2016-03-26T14:04:29.000Z</time>
      </trkpt>
      <trkpt lat="45.29382" lon="6.20608">
        <ele>1379.1999511719</ele>
        <time>2016-03-26T14:04:37.000Z</time>
      </trkpt>
      <trkpt lat="45.29376" lon="6.20622">
        <ele>1378.8000488281</ele>
        <time>2016-03-26T14:04:42.000Z</time>
      </trkpt>
      <trkpt lat="45.29374" lon="6.20626">
        <ele>1378.5999755859</ele>
        <time>2016-03-26T14:04:43.000Z</time>
      </trkpt>
      <trkpt lat="45.29369" lon="6.20645">
        <ele>1377.5999755859</ele>
        <time>2016-03-26T14:04:46.000Z</time>
      </trkpt>
      <trkpt lat="45.29365" lon="6.20658">
        <ele>1375.4000244141</ele>
        <time>2016-03-26T14:04:48.000Z</time>
      </trkpt>
      <trkpt lat="45.29362" lon="6.20666">
        <ele>1373.8000488281</ele>
        <time>2016-03-26T14:04:50.000Z</time>
      </trkpt>
      <trkpt lat="45.29362" lon="6.20669">
        <ele>1373.4000244141</ele>
        <time>2016-03-26T14:04:51.000Z</time>
      </trkpt>
      <trkpt lat="45.29358" lon="6.2069">
        <ele>1373.4000244141</ele>
        <time>2016-03-26T14:04:58.000Z</time>
      </trkpt>
      <trkpt lat="45.29358" lon="6.20698">
        <ele>1372.8000488281</ele>
        <time>2016-03-26T14:05:01.000Z</time>
      </trkpt>
      <trkpt lat="45.29359" lon="6.20703">
        <ele>1372.5999755859</ele>
        <time>2016-03-26T14:05:03.000Z</time>
      </trkpt>
      <trkpt lat="45.29364" lon="6.20722">
        <ele>1372.4000244141</ele>
        <time>2016-03-26T14:05:09.000Z</time>
      </trkpt>
      <trkpt lat="45.29366" lon="6.20731">
        <ele>1371.8000488281</ele>
        <time>2016-03-26T14:05:11.000Z</time>
      </trkpt>
      <trkpt lat="45.29369" lon="6.2074">
        <ele>1370.4000244141</ele>
        <time>2016-03-26T14:05:13.000Z</time>
      </trkpt>
      <trkpt lat="45.2937" lon="6.20745">
        <ele>1369.5999755859</ele>
        <time>2016-03-26T14:05:14.000Z</time>
      </trkpt>
      <trkpt lat="45.29371" lon="6.2075">
        <ele>1369</ele>
        <time>2016-03-26T14:05:15.000Z</time>
      </trkpt>
      <trkpt lat="45.29373" lon="6.20757">
        <ele>1368</ele>
        <time>2016-03-26T14:05:17.000Z</time>
      </trkpt>
      <trkpt lat="45.29373" lon="6.20765">
        <ele>1366.8000488281</ele>
        <time>2016-03-26T14:05:19.000Z</time>
      </trkpt>
      <trkpt lat="45.29374" lon="6.20773">
        <ele>1365.5999755859</ele>
        <time>2016-03-26T14:05:21.000Z</time>
      </trkpt>
      <trkpt lat="45.29376" lon="6.20781">
        <ele>1364</ele>
        <time>2016-03-26T14:05:23.000Z</time>
      </trkpt>
      <trkpt lat="45.29377" lon="6.20785">
        <ele>1363.1999511719</ele>
        <time>2016-03-26T14:05:24.000Z</time>
      </trkpt>
      <trkpt lat="45.29377" lon="6.2079">
        <ele>1362.4000244141</ele>
        <time>2016-03-26T14:05:25.000Z</time>
      </trkpt>
      <trkpt lat="45.29375" lon="6.208">
        <ele>1360.8000488281</ele>
        <time>2016-03-26T14:05:27.000Z</time>
      </trkpt>
      <trkpt lat="45.29375" lon="6.20803">
        <ele>1359.8000488281</ele>
        <time>2016-03-26T14:05:28.000Z</time>
      </trkpt>
      <trkpt lat="45.29375" lon="6.20806">
        <ele>1358.8000488281</ele>
        <time>2016-03-26T14:05:29.000Z</time>
      </trkpt>
      <trkpt lat="45.29374" lon="6.20809">
        <ele>1357.5999755859</ele>
        <time>2016-03-26T14:05:30.000Z</time>
      </trkpt>
      <trkpt lat="45.29372" lon="6.20814">
        <ele>1356.1999511719</ele>
        <time>2016-03-26T14:05:32.000Z</time>
      </trkpt>
      <trkpt lat="45.29371" lon="6.2082">
        <ele>1355.5999755859</ele>
        <time>2016-03-26T14:05:34.000Z</time>
      </trkpt>
      <trkpt lat="45.2937" lon="6.20824">
        <ele>1355.1999511719</ele>
        <time>2016-03-26T14:05:35.000Z</time>
      </trkpt>
      <trkpt lat="45.2937" lon="6.20829">
        <ele>1353</ele>
        <time>2016-03-26T14:05:37.000Z</time>
      </trkpt>
      <trkpt lat="45.2937" lon="6.20829">
        <ele>1352.4000244141</ele>
        <time>2016-03-26T14:05:39.000Z</time>
      </trkpt>
      <trkpt lat="45.2937" lon="6.20829">
        <ele>1352</ele>
        <time>2016-03-26T14:05:42.000Z</time>
      </trkpt>
      <trkpt lat="45.29369" lon="6.20838">
        <ele>1351.8000488281</ele>
        <time>2016-03-26T14:05:46.000Z</time>
      </trkpt>
      <trkpt lat="45.29369" lon="6.20852">
        <ele>1350.5999755859</ele>
        <time>2016-03-26T14:05:49.000Z</time>
      </trkpt>
      <trkpt lat="45.29368" lon="6.20861">
        <ele>1349</ele>
        <time>2016-03-26T14:05:51.000Z</time>
      </trkpt>
      <trkpt lat="45.29367" lon="6.20869">
        <ele>1347.5999755859</ele>
        <time>2016-03-26T14:05:53.000Z</time>
      </trkpt>
      <trkpt lat="45.29363" lon="6.20882">
        <ele>1346</ele>
        <time>2016-03-26T14:05:56.000Z</time>
      </trkpt>
      <trkpt lat="45.29362" lon="6.20893">
        <ele>1344.8000488281</ele>
        <time>2016-03-26T14:05:58.000Z</time>
      </trkpt>
      <trkpt lat="45.29359" lon="6.20907">
        <ele>1343.4000244141</ele>
        <time>2016-03-26T14:06:00.000Z</time>
      </trkpt>
      <trkpt lat="45.29358" lon="6.20912">
        <ele>1342</ele>
        <time>2016-03-26T14:06:01.000Z</time>
      </trkpt>
      <trkpt lat="45.29354" lon="6.20922">
        <ele>1340.5999755859</ele>
        <time>2016-03-26T14:06:03.000Z</time>
      </trkpt>
      <trkpt lat="45.29351" lon="6.20926">
        <ele>1339.5999755859</ele>
        <time>2016-03-26T14:06:05.000Z</time>
      </trkpt>
      <trkpt lat="45.2935" lon="6.20929">
        <ele>1339.4000244141</ele>
        <time>2016-03-26T14:06:06.000Z</time>
      </trkpt>
      <trkpt lat="45.29348" lon="6.20934">
        <ele>1338.1999511719</ele>
        <time>2016-03-26T14:06:10.000Z</time>
      </trkpt>
      <trkpt lat="45.29348" lon="6.20934">
        <ele>1337.5999755859</ele>
        <time>2016-03-26T14:06:12.000Z</time>
      </trkpt>
      <trkpt lat="45.29347" lon="6.20944">
        <ele>1337</ele>
        <time>2016-03-26T14:06:15.000Z</time>
      </trkpt>
      <trkpt lat="45.29346" lon="6.20954">
        <ele>1335.4000244141</ele>
        <time>2016-03-26T14:06:19.000Z</time>
      </trkpt>
      <trkpt lat="45.29345" lon="6.20957">
        <ele>1334</ele>
        <time>2016-03-26T14:06:21.000Z</time>
      </trkpt>
      <trkpt lat="45.29345" lon="6.20957">
        <ele>1333</ele>
        <time>2016-03-26T14:06:23.000Z</time>
      </trkpt>
      <trkpt lat="45.29345" lon="6.20959">
        <ele>1331.8000488281</ele>
        <time>2016-03-26T14:06:26.000Z</time>
      </trkpt>
      <trkpt lat="45.29345" lon="6.2096">
        <ele>1330.8000488281</ele>
        <time>2016-03-26T14:06:29.000Z</time>
      </trkpt>
      <trkpt lat="45.29345" lon="6.2096">
        <ele>1330.4000244141</ele>
        <time>2016-03-26T14:06:30.000Z</time>
      </trkpt>
      <trkpt lat="45.29345" lon="6.20961">
        <ele>1329.4000244141</ele>
        <time>2016-03-26T14:06:33.000Z</time>
      </trkpt>
      <trkpt lat="45.29345" lon="6.20965">
        <ele>1328.5999755859</ele>
        <time>2016-03-26T14:06:36.000Z</time>
      </trkpt>
      <trkpt lat="45.29345" lon="6.20968">
        <ele>1328.1999511719</ele>
        <time>2016-03-26T14:06:38.000Z</time>
      </trkpt>
      <trkpt lat="45.29344" lon="6.20973">
        <ele>1327.1999511719</ele>
        <time>2016-03-26T14:06:41.000Z</time>
      </trkpt>
      <trkpt lat="45.29344" lon="6.20974">
        <ele>1327</ele>
        <time>2016-03-26T14:06:42.000Z</time>
      </trkpt>
      <trkpt lat="45.29342" lon="6.20978">
        <ele>1325.5999755859</ele>
        <time>2016-03-26T14:06:45.000Z</time>
      </trkpt>
      <trkpt lat="45.29342" lon="6.20983">
        <ele>1324.1999511719</ele>
        <time>2016-03-26T14:06:48.000Z</time>
      </trkpt>
      <trkpt lat="45.29341" lon="6.20984">
        <ele>1323.4000244141</ele>
        <time>2016-03-26T14:06:49.000Z</time>
      </trkpt>
      <trkpt lat="45.2934" lon="6.20985">
        <ele>1323</ele>
        <time>2016-03-26T14:06:50.000Z</time>
      </trkpt>
      <trkpt lat="45.2934" lon="6.20985">
        <ele>1322.8000488281</ele>
        <time>2016-03-26T14:06:57.000Z</time>
      </trkpt>
      <trkpt lat="45.29336" lon="6.20995">
        <ele>1323.1999511719</ele>
        <time>2016-03-26T14:07:01.000Z</time>
      </trkpt>
      <trkpt lat="45.29334" lon="6.21002">
        <ele>1322.8000488281</ele>
        <time>2016-03-26T14:07:03.000Z</time>
      </trkpt>
      <trkpt lat="45.29332" lon="6.21007">
        <ele>1322.4000244141</ele>
        <time>2016-03-26T14:07:05.000Z</time>
      </trkpt>
      <trkpt lat="45.29331" lon="6.2101">
        <ele>1321.8000488281</ele>
        <time>2016-03-26T14:07:06.000Z</time>
      </trkpt>
      <trkpt lat="45.29329" lon="6.21017">
        <ele>1320.4000244141</ele>
        <time>2016-03-26T14:07:08.000Z</time>
      </trkpt>
      <trkpt lat="45.29329" lon="6.21021">
        <ele>1319.8000488281</ele>
        <time>2016-03-26T14:07:09.000Z</time>
      </trkpt>
      <trkpt lat="45.29329" lon="6.21025">
        <ele>1319</ele>
        <time>2016-03-26T14:07:10.000Z</time>
      </trkpt>
      <trkpt lat="45.29329" lon="6.21033">
        <ele>1317.4000244141</ele>
        <time>2016-03-26T14:07:12.000Z</time>
      </trkpt>
      <trkpt lat="45.2933" lon="6.21038">
        <ele>1315.5999755859</ele>
        <time>2016-03-26T14:07:13.000Z</time>
      </trkpt>
      <trkpt lat="45.29331" lon="6.21043">
        <ele>1314.8000488281</ele>
        <time>2016-03-26T14:07:14.000Z</time>
      </trkpt>
      <trkpt lat="45.29331" lon="6.21048">
        <ele>1314</ele>
        <time>2016-03-26T14:07:15.000Z</time>
      </trkpt>
      <trkpt lat="45.29332" lon="6.21054">
        <ele>1313</ele>
        <time>2016-03-26T14:07:16.000Z</time>
      </trkpt>
      <trkpt lat="45.29332" lon="6.21061">
        <ele>1311.8000488281</ele>
        <time>2016-03-26T14:07:17.000Z</time>
      </trkpt>
      <trkpt lat="45.29332" lon="6.21068">
        <ele>1310.4000244141</ele>
        <time>2016-03-26T14:07:18.000Z</time>
      </trkpt>
      <trkpt lat="45.29332" lon="6.21076">
        <ele>1309.1999511719</ele>
        <time>2016-03-26T14:07:19.000Z</time>
      </trkpt>
      <trkpt lat="45.29332" lon="6.21083">
        <ele>1308.1999511719</ele>
        <time>2016-03-26T14:07:20.000Z</time>
      </trkpt>
      <trkpt lat="45.29331" lon="6.21091">
        <ele>1307.1999511719</ele>
        <time>2016-03-26T14:07:21.000Z</time>
      </trkpt>
      <trkpt lat="45.29332" lon="6.21096">
        <ele>1306.1999511719</ele>
        <time>2016-03-26T14:07:22.000Z</time>
      </trkpt>
      <trkpt lat="45.29332" lon="6.21103">
        <ele>1305</ele>
        <time>2016-03-26T14:07:23.000Z</time>
      </trkpt>
      <trkpt lat="45.29332" lon="6.21109">
        <ele>1303.8000488281</ele>
        <time>2016-03-26T14:07:24.000Z</time>
      </trkpt>
      <trkpt lat="45.29332" lon="6.21115">
        <ele>1302.4000244141</ele>
        <time>2016-03-26T14:07:25.000Z</time>
      </trkpt>
      <trkpt lat="45.29332" lon="6.21121">
        <ele>1301.1999511719</ele>
        <time>2016-03-26T14:07:26.000Z</time>
      </trkpt>
      <trkpt lat="45.29331" lon="6.21127">
        <ele>1300.1999511719</ele>
        <time>2016-03-26T14:07:27.000Z</time>
      </trkpt>
      <trkpt lat="45.29329" lon="6.21139">
        <ele>1298.4000244141</ele>
        <time>2016-03-26T14:07:29.000Z</time>
      </trkpt>
      <trkpt lat="45.29327" lon="6.21145">
        <ele>1297.1999511719</ele>
        <time>2016-03-26T14:07:30.000Z</time>
      </trkpt>
      <trkpt lat="45.29327" lon="6.21151">
        <ele>1296</ele>
        <time>2016-03-26T14:07:31.000Z</time>
      </trkpt>
      <trkpt lat="45.29326" lon="6.21156">
        <ele>1294.8000488281</ele>
        <time>2016-03-26T14:07:32.000Z</time>
      </trkpt>
      <trkpt lat="45.29325" lon="6.21163">
        <ele>1293.5999755859</ele>
        <time>2016-03-26T14:07:33.000Z</time>
      </trkpt>
      <trkpt lat="45.29325" lon="6.21169">
        <ele>1292.5999755859</ele>
        <time>2016-03-26T14:07:34.000Z</time>
      </trkpt>
      <trkpt lat="45.29327" lon="6.21184">
        <ele>1291</ele>
        <time>2016-03-26T14:07:36.000Z</time>
      </trkpt>
      <trkpt lat="45.29327" lon="6.2119">
        <ele>1288.8000488281</ele>
        <time>2016-03-26T14:07:37.000Z</time>
      </trkpt>
      <trkpt lat="45.29327" lon="6.21197">
        <ele>1287.8000488281</ele>
        <time>2016-03-26T14:07:38.000Z</time>
      </trkpt>
      <trkpt lat="45.29326" lon="6.21212">
        <ele>1286.4000244141</ele>
        <time>2016-03-26T14:07:40.000Z</time>
      </trkpt>
      <trkpt lat="45.29323" lon="6.21221">
        <ele>1285.8000488281</ele>
        <time>2016-03-26T14:07:41.000Z</time>
      </trkpt>
      <trkpt lat="45.2932" lon="6.21227">
        <ele>1284.8000488281</ele>
        <time>2016-03-26T14:07:42.000Z</time>
      </trkpt>
      <trkpt lat="45.29311" lon="6.2124">
        <ele>1283</ele>
        <time>2016-03-26T14:07:44.000Z</time>
      </trkpt>
      <trkpt lat="45.29302" lon="6.21251">
        <ele>1281.1999511719</ele>
        <time>2016-03-26T14:07:46.000Z</time>
      </trkpt>
      <trkpt lat="45.29297" lon="6.21259">
        <ele>1279.8000488281</ele>
        <time>2016-03-26T14:07:48.000Z</time>
      </trkpt>
      <trkpt lat="45.2929" lon="6.21267">
        <ele>1279</ele>
        <time>2016-03-26T14:07:51.000Z</time>
      </trkpt>
      <trkpt lat="45.29284" lon="6.21274">
        <ele>1279</ele>
        <time>2016-03-26T14:08:00.000Z</time>
      </trkpt>
      <trkpt lat="45.29284" lon="6.21276">
        <ele>1278.8000488281</ele>
        <time>2016-03-26T14:08:09.000Z</time>
      </trkpt>
      <trkpt lat="45.29284" lon="6.21276">
        <ele>1278.8000488281</ele>
        <time>2016-03-26T14:08:14.000Z</time>
      </trkpt>
      <trkpt lat="45.29284" lon="6.21276">
        <ele>1278.8000488281</ele>
        <time>2016-03-26T14:08:20.000Z</time>
      </trkpt>
      <trkpt lat="45.29285" lon="6.21277">
        <ele>1278.8000488281</ele>
        <time>2016-03-26T14:08:32.000Z</time>
      </trkpt>
      <trkpt lat="45.29282" lon="6.21281">
        <ele>1278.5999755859</ele>
        <time>2016-03-26T14:08:43.000Z</time>
      </trkpt>
      <trkpt lat="45.29282" lon="6.21289">
        <ele>1279.4000244141</ele>
        <time>2016-03-26T14:08:53.000Z</time>
      </trkpt>
      <trkpt lat="45.29282" lon="6.21289">
        <ele>1278.5999755859</ele>
        <time>2016-03-26T14:09:05.000Z</time>
      </trkpt>
      <trkpt lat="45.29282" lon="6.21289">
        <ele>1278.8000488281</ele>
        <time>2016-03-26T14:09:16.000Z</time>
      </trkpt>
      <trkpt lat="45.29282" lon="6.21289">
        <ele>1279</ele>
        <time>2016-03-26T14:09:30.000Z</time>
      </trkpt>
      <trkpt lat="45.29282" lon="6.21289">
        <ele>1278.8000488281</ele>
        <time>2016-03-26T14:09:46.000Z</time>
      </trkpt>
      <trkpt lat="45.29283" lon="6.21289">
        <ele>1278.4000244141</ele>
        <time>2016-03-26T14:10:00.000Z</time>
      </trkpt>
      <trkpt lat="45.29284" lon="6.21286">
        <ele>1278.8000488281</ele>
        <time>2016-03-26T14:10:16.000Z</time>
      </trkpt>
      <trkpt lat="45.29283" lon="6.2129">
        <ele>1278.8000488281</ele>
        <time>2016-03-26T14:10:29.000Z</time>
      </trkpt>
      <trkpt lat="45.29283" lon="6.2129">
        <ele>1278.8000488281</ele>
        <time>2016-03-26T14:10:43.000Z</time>
      </trkpt>
      <trkpt lat="45.29283" lon="6.2129">
        <ele>1278.4000244141</ele>
        <time>2016-03-26T14:11:00.000Z</time>
      </trkpt>
      <trkpt lat="45.29283" lon="6.2129">
        <ele>1278.5999755859</ele>
        <time>2016-03-26T14:11:12.000Z</time>
      </trkpt>
      <trkpt lat="45.29274" lon="6.21288">
        <ele>1278.5999755859</ele>
        <time>2016-03-26T14:11:23.000Z</time>
      </trkpt>
      <trkpt lat="45.29274" lon="6.21293">
        <ele>1278.1999511719</ele>
        <time>2016-03-26T14:11:31.000Z</time>
      </trkpt>
      <trkpt lat="45.29276" lon="6.21295">
        <ele>1277.5999755859</ele>
        <time>2016-03-26T14:11:35.000Z</time>
      </trkpt>
      <trkpt lat="45.29276" lon="6.21296">
        <ele>1276.5999755859</ele>
        <time>2016-03-26T14:11:38.000Z</time>
      </trkpt>
      <trkpt lat="45.29276" lon="6.21297">
        <ele>1276.4000244141</ele>
        <time>2016-03-26T14:11:39.000Z</time>
      </trkpt>
      <trkpt lat="45.29276" lon="6.21299">
        <ele>1275.4000244141</ele>
        <time>2016-03-26T14:11:44.000Z</time>
      </trkpt>
      <trkpt lat="45.29276" lon="6.21299">
        <ele>1275</ele>
        <time>2016-03-26T14:11:45.000Z</time>
      </trkpt>
      <trkpt lat="45.29274" lon="6.21301">
        <ele>1274.5999755859</ele>
        <time>2016-03-26T14:11:52.000Z</time>
      </trkpt>
      <trkpt lat="45.29273" lon="6.21304">
        <ele>1274.1999511719</ele>
        <time>2016-03-26T14:11:54.000Z</time>
      </trkpt>
      <trkpt lat="45.29267" lon="6.21309">
        <ele>1273.1999511719</ele>
        <time>2016-03-26T14:11:59.000Z</time>
      </trkpt>
      <trkpt lat="45.29261" lon="6.21315">
        <ele>1272.1999511719</ele>
        <time>2016-03-26T14:12:03.000Z</time>
      </trkpt>
      <trkpt lat="45.2926" lon="6.21318">
        <ele>1272</ele>
        <time>2016-03-26T14:12:04.000Z</time>
      </trkpt>
      <trkpt lat="45.29259" lon="6.2132">
        <ele>1271.8000488281</ele>
        <time>2016-03-26T14:12:05.000Z</time>
      </trkpt>
      <trkpt lat="45.29257" lon="6.21321">
        <ele>1271.1999511719</ele>
        <time>2016-03-26T14:12:07.000Z</time>
      </trkpt>
      <trkpt lat="45.29253" lon="6.21323">
        <ele>1270.4000244141</ele>
        <time>2016-03-26T14:12:12.000Z</time>
      </trkpt>
      <trkpt lat="45.29253" lon="6.21324">
        <ele>1270</ele>
        <time>2016-03-26T14:12:13.000Z</time>
      </trkpt>
      <trkpt lat="45.29249" lon="6.2133">
        <ele>1269</ele>
        <time>2016-03-26T14:12:20.000Z</time>
      </trkpt>
      <trkpt lat="45.29249" lon="6.21331">
        <ele>1268.8000488281</ele>
        <time>2016-03-26T14:12:21.000Z</time>
      </trkpt>
      <trkpt lat="45.29248" lon="6.21335">
        <ele>1268</ele>
        <time>2016-03-26T14:12:24.000Z</time>
      </trkpt>
      <trkpt lat="45.29247" lon="6.21339">
        <ele>1267</ele>
        <time>2016-03-26T14:12:27.000Z</time>
      </trkpt>
      <trkpt lat="45.29246" lon="6.2134">
        <ele>1266.8000488281</ele>
        <time>2016-03-26T14:12:28.000Z</time>
      </trkpt>
      <trkpt lat="45.29244" lon="6.21346">
        <ele>1265.8000488281</ele>
        <time>2016-03-26T14:12:32.000Z</time>
      </trkpt>
      <trkpt lat="45.29244" lon="6.21346">
        <ele>1265.5999755859</ele>
        <time>2016-03-26T14:12:33.000Z</time>
      </trkpt>
      <trkpt lat="45.2924" lon="6.2135">
        <ele>1264.5999755859</ele>
        <time>2016-03-26T14:12:38.000Z</time>
      </trkpt>
      <trkpt lat="45.29237" lon="6.21354">
        <ele>1263.8000488281</ele>
        <time>2016-03-26T14:12:41.000Z</time>
      </trkpt>
      <trkpt lat="45.29236" lon="6.21355">
        <ele>1263.4000244141</ele>
        <time>2016-03-26T14:12:44.000Z</time>
      </trkpt>
      <trkpt lat="45.29234" lon="6.2136">
        <ele>1262.4000244141</ele>
        <time>2016-03-26T14:12:48.000Z</time>
      </trkpt>
      <trkpt lat="45.29232" lon="6.21363">
        <ele>1261</ele>
        <time>2016-03-26T14:12:51.000Z</time>
      </trkpt>
      <trkpt lat="45.29231" lon="6.21367">
        <ele>1260</ele>
        <time>2016-03-26T14:12:55.000Z</time>
      </trkpt>
      <trkpt lat="45.29231" lon="6.21367">
        <ele>1259.4000244141</ele>
        <time>2016-03-26T14:12:57.000Z</time>
      </trkpt>
      <trkpt lat="45.29231" lon="6.21367">
        <ele>1258.8000488281</ele>
        <time>2016-03-26T14:13:00.000Z</time>
      </trkpt>
      <trkpt lat="45.29231" lon="6.21367">
        <ele>1258.5999755859</ele>
        <time>2016-03-26T14:13:04.000Z</time>
      </trkpt>
      <trkpt lat="45.29233" lon="6.21371">
        <ele>1257.5999755859</ele>
        <time>2016-03-26T14:13:09.000Z</time>
      </trkpt>
      <trkpt lat="45.29235" lon="6.21373">
        <ele>1257.4000244141</ele>
        <time>2016-03-26T14:13:10.000Z</time>
      </trkpt>
      <trkpt lat="45.29237" lon="6.21377">
        <ele>1256.5999755859</ele>
        <time>2016-03-26T14:13:12.000Z</time>
      </trkpt>
      <trkpt lat="45.2924" lon="6.2138">
        <ele>1255.5999755859</ele>
        <time>2016-03-26T14:13:14.000Z</time>
      </trkpt>
      <trkpt lat="45.29242" lon="6.21385">
        <ele>1254.1999511719</ele>
        <time>2016-03-26T14:13:17.000Z</time>
      </trkpt>
      <trkpt lat="45.29245" lon="6.21387">
        <ele>1253.1999511719</ele>
        <time>2016-03-26T14:13:20.000Z</time>
      </trkpt>
      <trkpt lat="45.29245" lon="6.21391">
        <ele>1252</ele>
        <time>2016-03-26T14:13:24.000Z</time>
      </trkpt>
      <trkpt lat="45.29244" lon="6.21392">
        <ele>1251.5999755859</ele>
        <time>2016-03-26T14:13:25.000Z</time>
      </trkpt>
      <trkpt lat="45.29241" lon="6.21395">
        <ele>1250.4000244141</ele>
        <time>2016-03-26T14:13:27.000Z</time>
      </trkpt>
      <trkpt lat="45.29237" lon="6.21401">
        <ele>1249.1999511719</ele>
        <time>2016-03-26T14:13:30.000Z</time>
      </trkpt>
      <trkpt lat="45.29233" lon="6.21404">
        <ele>1248.1999511719</ele>
        <time>2016-03-26T14:13:34.000Z</time>
      </trkpt>
      <trkpt lat="45.29232" lon="6.21406">
        <ele>1247.5999755859</ele>
        <time>2016-03-26T14:13:36.000Z</time>
      </trkpt>
      <trkpt lat="45.29231" lon="6.21406">
        <ele>1247</ele>
        <time>2016-03-26T14:13:37.000Z</time>
      </trkpt>
      <trkpt lat="45.29228" lon="6.21409">
        <ele>1245.8000488281</ele>
        <time>2016-03-26T14:13:40.000Z</time>
      </trkpt>
      <trkpt lat="45.29223" lon="6.21412">
        <ele>1244.5999755859</ele>
        <time>2016-03-26T14:13:44.000Z</time>
      </trkpt>
      <trkpt lat="45.29222" lon="6.21413">
        <ele>1244.1999511719</ele>
        <time>2016-03-26T14:13:45.000Z</time>
      </trkpt>
      <trkpt lat="45.2922" lon="6.21417">
        <ele>1243.1999511719</ele>
        <time>2016-03-26T14:13:48.000Z</time>
      </trkpt>
      <trkpt lat="45.29217" lon="6.2142">
        <ele>1241.8000488281</ele>
        <time>2016-03-26T14:13:51.000Z</time>
      </trkpt>
      <trkpt lat="45.29216" lon="6.21422">
        <ele>1240.8000488281</ele>
        <time>2016-03-26T14:13:53.000Z</time>
      </trkpt>
      <trkpt lat="45.29214" lon="6.21423">
        <ele>1239.5999755859</ele>
        <time>2016-03-26T14:13:55.000Z</time>
      </trkpt>
      <trkpt lat="45.29212" lon="6.21427">
        <ele>1238.1999511719</ele>
        <time>2016-03-26T14:13:57.000Z</time>
      </trkpt>
      <trkpt lat="45.2921" lon="6.2143">
        <ele>1237.1999511719</ele>
        <time>2016-03-26T14:14:00.000Z</time>
      </trkpt>
      <trkpt lat="45.29207" lon="6.21432">
        <ele>1235.8000488281</ele>
        <time>2016-03-26T14:14:02.000Z</time>
      </trkpt>
      <trkpt lat="45.29206" lon="6.21435">
        <ele>1235</ele>
        <time>2016-03-26T14:14:04.000Z</time>
      </trkpt>
      <trkpt lat="45.29206" lon="6.21436">
        <ele>1234.5999755859</ele>
        <time>2016-03-26T14:14:05.000Z</time>
      </trkpt>
      <trkpt lat="45.29204" lon="6.21441">
        <ele>1233.4000244141</ele>
        <time>2016-03-26T14:14:08.000Z</time>
      </trkpt>
      <trkpt lat="45.29202" lon="6.21445">
        <ele>1232.5999755859</ele>
        <time>2016-03-26T14:14:10.000Z</time>
      </trkpt>
      <trkpt lat="45.29202" lon="6.21447">
        <ele>1232</ele>
        <time>2016-03-26T14:14:11.000Z</time>
      </trkpt>
      <trkpt lat="45.292" lon="6.2145">
        <ele>1230.8000488281</ele>
        <time>2016-03-26T14:14:13.000Z</time>
      </trkpt>
      <trkpt lat="45.29197" lon="6.21451">
        <ele>1229.4000244141</ele>
        <time>2016-03-26T14:14:15.000Z</time>
      </trkpt>
      <trkpt lat="45.29197" lon="6.21452">
        <ele>1228.5999755859</ele>
        <time>2016-03-26T14:14:17.000Z</time>
      </trkpt>
      <trkpt lat="45.29197" lon="6.21452">
        <ele>1228.1999511719</ele>
        <time>2016-03-26T14:14:18.000Z</time>
      </trkpt>
      <trkpt lat="45.29194" lon="6.21457">
        <ele>1227.4000244141</ele>
        <time>2016-03-26T14:14:25.000Z</time>
      </trkpt>
      <trkpt lat="45.29192" lon="6.21459">
        <ele>1227</ele>
        <time>2016-03-26T14:14:27.000Z</time>
      </trkpt>
      <trkpt lat="45.29189" lon="6.21463">
        <ele>1225.8000488281</ele>
        <time>2016-03-26T14:14:31.000Z</time>
      </trkpt>
      <trkpt lat="45.29188" lon="6.21465">
        <ele>1224.5999755859</ele>
        <time>2016-03-26T14:14:35.000Z</time>
      </trkpt>
      <trkpt lat="45.29188" lon="6.21466">
        <ele>1224.1999511719</ele>
        <time>2016-03-26T14:14:38.000Z</time>
      </trkpt>
      <trkpt lat="45.29185" lon="6.21469">
        <ele>1223.4000244141</ele>
        <time>2016-03-26T14:14:43.000Z</time>
      </trkpt>
      <trkpt lat="45.29182" lon="6.21472">
        <ele>1222.8000488281</ele>
        <time>2016-03-26T14:14:45.000Z</time>
      </trkpt>
      <trkpt lat="45.29181" lon="6.21475">
        <ele>1222</ele>
        <time>2016-03-26T14:14:47.000Z</time>
      </trkpt>
      <trkpt lat="45.2918" lon="6.21477">
        <ele>1220.8000488281</ele>
        <time>2016-03-26T14:14:50.000Z</time>
      </trkpt>
      <trkpt lat="45.29176" lon="6.21483">
        <ele>1219.8000488281</ele>
        <time>2016-03-26T14:14:54.000Z</time>
      </trkpt>
      <trkpt lat="45.29175" lon="6.21484">
        <ele>1219.5999755859</ele>
        <time>2016-03-26T14:14:55.000Z</time>
      </trkpt>
      <trkpt lat="45.29172" lon="6.21488">
        <ele>1218.4000244141</ele>
        <time>2016-03-26T14:14:58.000Z</time>
      </trkpt>
      <trkpt lat="45.29169" lon="6.21491">
        <ele>1217.8000488281</ele>
        <time>2016-03-26T14:15:02.000Z</time>
      </trkpt>
      <trkpt lat="45.29168" lon="6.21492">
        <ele>1217.4000244141</ele>
        <time>2016-03-26T14:15:04.000Z</time>
      </trkpt>
      <trkpt lat="45.29164" lon="6.21497">
        <ele>1216.4000244141</ele>
        <time>2016-03-26T14:15:08.000Z</time>
      </trkpt>
      <trkpt lat="45.29163" lon="6.21498">
        <ele>1216</ele>
        <time>2016-03-26T14:15:09.000Z</time>
      </trkpt>
      <trkpt lat="45.2916" lon="6.215">
        <ele>1215.4000244141</ele>
        <time>2016-03-26T14:15:12.000Z</time>
      </trkpt>
      <trkpt lat="45.29158" lon="6.21503">
        <ele>1214.1999511719</ele>
        <time>2016-03-26T14:15:15.000Z</time>
      </trkpt>
      <trkpt lat="45.29158" lon="6.21504">
        <ele>1214</ele>
        <time>2016-03-26T14:15:16.000Z</time>
      </trkpt>
      <trkpt lat="45.29157" lon="6.21507">
        <ele>1213</ele>
        <time>2016-03-26T14:15:20.000Z</time>
      </trkpt>
      <trkpt lat="45.29156" lon="6.21508">
        <ele>1212.4000244141</ele>
        <time>2016-03-26T14:15:22.000Z</time>
      </trkpt>
      <trkpt lat="45.29155" lon="6.21512">
        <ele>1211.8000488281</ele>
        <time>2016-03-26T14:15:25.000Z</time>
      </trkpt>
      <trkpt lat="45.29152" lon="6.21515">
        <ele>1210.8000488281</ele>
        <time>2016-03-26T14:15:29.000Z</time>
      </trkpt>
      <trkpt lat="45.29149" lon="6.2152">
        <ele>1209.5999755859</ele>
        <time>2016-03-26T14:15:34.000Z</time>
      </trkpt>
      <trkpt lat="45.29147" lon="6.21523">
        <ele>1208.8000488281</ele>
        <time>2016-03-26T14:15:37.000Z</time>
      </trkpt>
      <trkpt lat="45.29147" lon="6.21523">
        <ele>1208.5999755859</ele>
        <time>2016-03-26T14:15:38.000Z</time>
      </trkpt>
      <trkpt lat="45.29147" lon="6.21523">
        <ele>1208</ele>
        <time>2016-03-26T14:15:48.000Z</time>
      </trkpt>
      <trkpt lat="45.29143" lon="6.21528">
        <ele>1207.4000244141</ele>
        <time>2016-03-26T14:15:53.000Z</time>
      </trkpt>
      <trkpt lat="45.2914" lon="6.21532">
        <ele>1207</ele>
        <time>2016-03-26T14:15:56.000Z</time>
      </trkpt>
      <trkpt lat="45.29138" lon="6.21536">
        <ele>1206.4000244141</ele>
        <time>2016-03-26T14:15:59.000Z</time>
      </trkpt>
      <trkpt lat="45.29136" lon="6.21539">
        <ele>1205.1999511719</ele>
        <time>2016-03-26T14:16:03.000Z</time>
      </trkpt>
      <trkpt lat="45.29135" lon="6.21544">
        <ele>1204.5999755859</ele>
        <time>2016-03-26T14:16:06.000Z</time>
      </trkpt>
      <trkpt lat="45.29133" lon="6.21547">
        <ele>1204.1999511719</ele>
        <time>2016-03-26T14:16:08.000Z</time>
      </trkpt>
      <trkpt lat="45.29133" lon="6.21548">
        <ele>1203.8000488281</ele>
        <time>2016-03-26T14:16:09.000Z</time>
      </trkpt>
      <trkpt lat="45.29133" lon="6.21553">
        <ele>1203</ele>
        <time>2016-03-26T14:16:13.000Z</time>
      </trkpt>
      <trkpt lat="45.29132" lon="6.21556">
        <ele>1202</ele>
        <time>2016-03-26T14:16:16.000Z</time>
      </trkpt>
      <trkpt lat="45.29131" lon="6.21557">
        <ele>1201.8000488281</ele>
        <time>2016-03-26T14:16:17.000Z</time>
      </trkpt>
      <trkpt lat="45.29128" lon="6.21563">
        <ele>1200.5999755859</ele>
        <time>2016-03-26T14:16:21.000Z</time>
      </trkpt>
      <trkpt lat="45.29127" lon="6.21566">
        <ele>1199.8000488281</ele>
        <time>2016-03-26T14:16:24.000Z</time>
      </trkpt>
      <trkpt lat="45.29126" lon="6.21568">
        <ele>1199</ele>
        <time>2016-03-26T14:16:25.000Z</time>
      </trkpt>
      <trkpt lat="45.29121" lon="6.21576">
        <ele>1197.8000488281</ele>
        <time>2016-03-26T14:16:30.000Z</time>
      </trkpt>
      <trkpt lat="45.2912" lon="6.21577">
        <ele>1197.5999755859</ele>
        <time>2016-03-26T14:16:31.000Z</time>
      </trkpt>
      <trkpt lat="45.29119" lon="6.21583">
        <ele>1196.8000488281</ele>
        <time>2016-03-26T14:16:34.000Z</time>
      </trkpt>
      <trkpt lat="45.29116" lon="6.21589">
        <ele>1195.5999755859</ele>
        <time>2016-03-26T14:16:38.000Z</time>
      </trkpt>
      <trkpt lat="45.29115" lon="6.21596">
        <ele>1194.5999755859</ele>
        <time>2016-03-26T14:16:43.000Z</time>
      </trkpt>
      <trkpt lat="45.29115" lon="6.21598">
        <ele>1194.1999511719</ele>
        <time>2016-03-26T14:16:44.000Z</time>
      </trkpt>
      <trkpt lat="45.29114" lon="6.21602">
        <ele>1193.4000244141</ele>
        <time>2016-03-26T14:16:47.000Z</time>
      </trkpt>
      <trkpt lat="45.29114" lon="6.21603">
        <ele>1192.5999755859</ele>
        <time>2016-03-26T14:16:49.000Z</time>
      </trkpt>
      <trkpt lat="45.29113" lon="6.21605">
        <ele>1192.1999511719</ele>
        <time>2016-03-26T14:16:51.000Z</time>
      </trkpt>
      <trkpt lat="45.2911" lon="6.21613">
        <ele>1191.8000488281</ele>
        <time>2016-03-26T14:16:55.000Z</time>
      </trkpt>
      <trkpt lat="45.29108" lon="6.21617">
        <ele>1190.8000488281</ele>
        <time>2016-03-26T14:16:58.000Z</time>
      </trkpt>
      <trkpt lat="45.29105" lon="6.21623">
        <ele>1189.8000488281</ele>
        <time>2016-03-26T14:17:02.000Z</time>
      </trkpt>
      <trkpt lat="45.29103" lon="6.2163">
        <ele>1188.5999755859</ele>
        <time>2016-03-26T14:17:07.000Z</time>
      </trkpt>
      <trkpt lat="45.29103" lon="6.21632">
        <ele>1187.8000488281</ele>
        <time>2016-03-26T14:17:10.000Z</time>
      </trkpt>
      <trkpt lat="45.29103" lon="6.21633">
        <ele>1187.5999755859</ele>
        <time>2016-03-26T14:17:11.000Z</time>
      </trkpt>
      <trkpt lat="45.291" lon="6.21638">
        <ele>1186.4000244141</ele>
        <time>2016-03-26T14:17:15.000Z</time>
      </trkpt>
      <trkpt lat="45.291" lon="6.21639">
        <ele>1186</ele>
        <time>2016-03-26T14:17:16.000Z</time>
      </trkpt>
      <trkpt lat="45.29099" lon="6.21644">
        <ele>1185.1999511719</ele>
        <time>2016-03-26T14:17:19.000Z</time>
      </trkpt>
      <trkpt lat="45.29098" lon="6.21649">
        <ele>1184.1999511719</ele>
        <time>2016-03-26T14:17:23.000Z</time>
      </trkpt>
      <trkpt lat="45.29097" lon="6.2165">
        <ele>1184</ele>
        <time>2016-03-26T14:17:24.000Z</time>
      </trkpt>
      <trkpt lat="45.29095" lon="6.21653">
        <ele>1183.1999511719</ele>
        <time>2016-03-26T14:17:27.000Z</time>
      </trkpt>
      <trkpt lat="45.29093" lon="6.21656">
        <ele>1182.1999511719</ele>
        <time>2016-03-26T14:17:30.000Z</time>
      </trkpt>
      <trkpt lat="45.29093" lon="6.21657">
        <ele>1182</ele>
        <time>2016-03-26T14:17:31.000Z</time>
      </trkpt>
      <trkpt lat="45.29091" lon="6.2166">
        <ele>1181.1999511719</ele>
        <time>2016-03-26T14:17:34.000Z</time>
      </trkpt>
      <trkpt lat="45.29089" lon="6.21666">
        <ele>1180.1999511719</ele>
        <time>2016-03-26T14:17:37.000Z</time>
      </trkpt>
      <trkpt lat="45.29088" lon="6.21667">
        <ele>1180</ele>
        <time>2016-03-26T14:17:38.000Z</time>
      </trkpt>
      <trkpt lat="45.29086" lon="6.21673">
        <ele>1179</ele>
        <time>2016-03-26T14:17:42.000Z</time>
      </trkpt>
      <trkpt lat="45.29084" lon="6.21677">
        <ele>1178.4000244141</ele>
        <time>2016-03-26T14:17:45.000Z</time>
      </trkpt>
      <trkpt lat="45.29085" lon="6.21682">
        <ele>1178</ele>
        <time>2016-03-26T14:17:49.000Z</time>
      </trkpt>
      <trkpt lat="45.29086" lon="6.21686">
        <ele>1177.8000488281</ele>
        <time>2016-03-26T14:17:51.000Z</time>
      </trkpt>
      <trkpt lat="45.2909" lon="6.2169">
        <ele>1177.1999511719</ele>
        <time>2016-03-26T14:17:54.000Z</time>
      </trkpt>
      <trkpt lat="45.29091" lon="6.2169">
        <ele>1177</ele>
        <time>2016-03-26T14:17:55.000Z</time>
      </trkpt>
      <trkpt lat="45.29092" lon="6.21691">
        <ele>1176.8000488281</ele>
        <time>2016-03-26T14:17:56.000Z</time>
      </trkpt>
      <trkpt lat="45.29097" lon="6.21694">
        <ele>1177</ele>
        <time>2016-03-26T14:18:01.000Z</time>
      </trkpt>
      <trkpt lat="45.29098" lon="6.21693">
        <ele>1177</ele>
        <time>2016-03-26T14:18:07.000Z</time>
      </trkpt>
      <trkpt lat="45.29098" lon="6.21693">
        <ele>1177.1999511719</ele>
        <time>2016-03-26T14:18:16.000Z</time>
      </trkpt>
      <trkpt lat="45.29098" lon="6.21693">
        <ele>1176.8000488281</ele>
        <time>2016-03-26T14:18:28.000Z</time>
      </trkpt>
      <trkpt lat="45.29097" lon="6.21691">
        <ele>1177</ele>
        <time>2016-03-26T14:18:36.000Z</time>
      </trkpt>
      <trkpt lat="45.29097" lon="6.21688">
        <ele>1176.8000488281</ele>
        <time>2016-03-26T14:18:41.000Z</time>
      </trkpt>
      <trkpt lat="45.29096" lon="6.2168">
        <ele>1176.8000488281</ele>
        <time>2016-03-26T14:18:46.000Z</time>
      </trkpt>
      <trkpt lat="45.29096" lon="6.21679">
        <ele>1176.5999755859</ele>
        <time>2016-03-26T14:18:51.000Z</time>
      </trkpt>
      <trkpt lat="45.29096" lon="6.21679">
        <ele>1177.4000244141</ele>
        <time>2016-03-26T14:19:02.000Z</time>
      </trkpt>
      <trkpt lat="45.29094" lon="6.21681">
        <ele>1177.1999511719</ele>
        <time>2016-03-26T14:19:08.000Z</time>
      </trkpt>
      <trkpt lat="45.29094" lon="6.21681">
        <ele>1177</ele>
        <time>2016-03-26T14:19:09.000Z</time>
      </trkpt>
      <trkpt lat="45.29094" lon="6.21685">
        <ele>1177</ele>
        <time>2016-03-26T14:19:11.000Z</time>
      </trkpt>
      <trkpt lat="45.29094" lon="6.21688">
        <ele>1176.8000488281</ele>
        <time>2016-03-26T14:19:15.000Z</time>
      </trkpt>
      <trkpt lat="45.29094" lon="6.21688">
        <ele>1177</ele>
        <time>2016-03-26T14:19:23.000Z</time>
      </trkpt>
      <trkpt lat="45.29086" lon="6.21683">
        <ele>1177.1999511719</ele>
        <time>2016-03-26T14:19:30.000Z</time>
      </trkpt>
      <trkpt lat="45.29079" lon="6.21682">
        <ele>1177.1999511719</ele>
        <time>2016-03-26T14:19:35.000Z</time>
      </trkpt>
      <trkpt lat="45.29073" lon="6.21686">
        <ele>1177.4000244141</ele>
        <time>2016-03-26T14:19:40.000Z</time>
      </trkpt>
      <trkpt lat="45.29067" lon="6.21691">
        <ele>1177.1999511719</ele>
        <time>2016-03-26T14:19:46.000Z</time>
      </trkpt>
      <trkpt lat="45.29063" lon="6.21695">
        <ele>1177</ele>
        <time>2016-03-26T14:19:50.000Z</time>
      </trkpt>
      <trkpt lat="45.29059" lon="6.21698">
        <ele>1177</ele>
        <time>2016-03-26T14:19:55.000Z</time>
      </trkpt>
      <trkpt lat="45.29052" lon="6.21701">
        <ele>1176.4000244141</ele>
        <time>2016-03-26T14:20:01.000Z</time>
      </trkpt>
      <trkpt lat="45.29049" lon="6.21703">
        <ele>1175.8000488281</ele>
        <time>2016-03-26T14:20:04.000Z</time>
      </trkpt>
      <trkpt lat="45.29044" lon="6.21707">
        <ele>1175.8000488281</ele>
        <time>2016-03-26T14:20:07.000Z</time>
      </trkpt>
      <trkpt lat="45.29039" lon="6.2171">
        <ele>1175</ele>
        <time>2016-03-26T14:20:13.000Z</time>
      </trkpt>
      <trkpt lat="45.29037" lon="6.21712">
        <ele>1174.8000488281</ele>
        <time>2016-03-26T14:20:15.000Z</time>
      </trkpt>
      <trkpt lat="45.29032" lon="6.21714">
        <ele>1173.8000488281</ele>
        <time>2016-03-26T14:20:20.000Z</time>
      </trkpt>
      <trkpt lat="45.29026" lon="6.21716">
        <ele>1174</ele>
        <time>2016-03-26T14:20:26.000Z</time>
      </trkpt>
      <trkpt lat="45.29019" lon="6.21716">
        <ele>1174.5999755859</ele>
        <time>2016-03-26T14:20:31.000Z</time>
      </trkpt>
      <trkpt lat="45.29012" lon="6.21712">
        <ele>1175.1999511719</ele>
        <time>2016-03-26T14:20:36.000Z</time>
      </trkpt>
      <trkpt lat="45.29009" lon="6.21713">
        <ele>1175.8000488281</ele>
        <time>2016-03-26T14:20:41.000Z</time>
      </trkpt>
      <trkpt lat="45.29007" lon="6.21712">
        <ele>1175.8000488281</ele>
        <time>2016-03-26T14:20:43.000Z</time>
      </trkpt>
      <trkpt lat="45.29004" lon="6.21711">
        <ele>1176.1999511719</ele>
        <time>2016-03-26T14:20:46.000Z</time>
      </trkpt>
      <trkpt lat="45.29" lon="6.2171">
        <ele>1176.5999755859</ele>
        <time>2016-03-26T14:20:49.000Z</time>
      </trkpt>
      <trkpt lat="45.28998" lon="6.21708">
        <ele>1177</ele>
        <time>2016-03-26T14:20:51.000Z</time>
      </trkpt>
      <trkpt lat="45.28994" lon="6.21705">
        <ele>1177.1999511719</ele>
        <time>2016-03-26T14:20:54.000Z</time>
      </trkpt>
      <trkpt lat="45.28992" lon="6.217">
        <ele>1177.8000488281</ele>
        <time>2016-03-26T14:20:57.000Z</time>
      </trkpt>
      <trkpt lat="45.28991" lon="6.21697">
        <ele>1178</ele>
        <time>2016-03-26T14:21:00.000Z</time>
      </trkpt>
      <trkpt lat="45.2899" lon="6.21695">
        <ele>1178.1999511719</ele>
        <time>2016-03-26T14:21:01.000Z</time>
      </trkpt>
      <trkpt lat="45.28989" lon="6.21684">
        <ele>1178.5999755859</ele>
        <time>2016-03-26T14:21:07.000Z</time>
      </trkpt>
      <trkpt lat="45.28991" lon="6.21678">
        <ele>1179.1999511719</ele>
        <time>2016-03-26T14:21:10.000Z</time>
      </trkpt>
      <trkpt lat="45.2899" lon="6.21674">
        <ele>1179.5999755859</ele>
        <time>2016-03-26T14:21:13.000Z</time>
      </trkpt>
      <trkpt lat="45.28989" lon="6.21671">
        <ele>1179.8000488281</ele>
        <time>2016-03-26T14:21:15.000Z</time>
      </trkpt>
      <trkpt lat="45.28988" lon="6.21669">
        <ele>1180.4000244141</ele>
        <time>2016-03-26T14:21:18.000Z</time>
      </trkpt>
      <trkpt lat="45.28987" lon="6.21667">
        <ele>1180.4000244141</ele>
        <time>2016-03-26T14:21:19.000Z</time>
      </trkpt>
      <trkpt lat="45.28983" lon="6.21658">
        <ele>1181.5999755859</ele>
        <time>2016-03-26T14:21:25.000Z</time>
      </trkpt>
      <trkpt lat="45.28981" lon="6.21652">
        <ele>1182.4000244141</ele>
        <time>2016-03-26T14:21:30.000Z</time>
      </trkpt>
      <trkpt lat="45.2898" lon="6.2165">
        <ele>1182.5999755859</ele>
        <time>2016-03-26T14:21:32.000Z</time>
      </trkpt>
      <trkpt lat="45.28977" lon="6.21648">
        <ele>1183</ele>
        <time>2016-03-26T14:21:35.000Z</time>
      </trkpt>
      <trkpt lat="45.28973" lon="6.21644">
        <ele>1183.8000488281</ele>
        <time>2016-03-26T14:21:39.000Z</time>
      </trkpt>
      <trkpt lat="45.28973" lon="6.21643">
        <ele>1183.8000488281</ele>
        <time>2016-03-26T14:21:40.000Z</time>
      </trkpt>
      <trkpt lat="45.28969" lon="6.21639">
        <ele>1184</ele>
        <time>2016-03-26T14:21:45.000Z</time>
      </trkpt>
      <trkpt lat="45.28962" lon="6.21631">
        <ele>1184.8000488281</ele>
        <time>2016-03-26T14:21:52.000Z</time>
      </trkpt>
      <trkpt lat="45.28959" lon="6.21624">
        <ele>1185.1999511719</ele>
        <time>2016-03-26T14:21:57.000Z</time>
      </trkpt>
      <trkpt lat="45.28956" lon="6.21614">
        <ele>1185.5999755859</ele>
        <time>2016-03-26T14:22:03.000Z</time>
      </trkpt>
      <trkpt lat="45.28954" lon="6.21612">
        <ele>1185.8000488281</ele>
        <time>2016-03-26T14:22:05.000Z</time>
      </trkpt>
      <trkpt lat="45.28952" lon="6.21606">
        <ele>1186.1999511719</ele>
        <time>2016-03-26T14:22:09.000Z</time>
      </trkpt>
      <trkpt lat="45.28948" lon="6.21598">
        <ele>1186.8000488281</ele>
        <time>2016-03-26T14:22:15.000Z</time>
      </trkpt>
      <trkpt lat="45.28947" lon="6.21597">
        <ele>1187</ele>
        <time>2016-03-26T14:22:16.000Z</time>
      </trkpt>
      <trkpt lat="45.28946" lon="6.21596">
        <ele>1187.1999511719</ele>
        <time>2016-03-26T14:22:17.000Z</time>
      </trkpt>
      <trkpt lat="45.28944" lon="6.21589">
        <ele>1187.4000244141</ele>
        <time>2016-03-26T14:22:21.000Z</time>
      </trkpt>
      <trkpt lat="45.28941" lon="6.21585">
        <ele>1188.1999511719</ele>
        <time>2016-03-26T14:22:26.000Z</time>
      </trkpt>
      <trkpt lat="45.28941" lon="6.21585">
        <ele>1188.4000244141</ele>
        <time>2016-03-26T14:22:27.000Z</time>
      </trkpt>
      <trkpt lat="45.28936" lon="6.21578">
        <ele>1188.5999755859</ele>
        <time>2016-03-26T14:22:32.000Z</time>
      </trkpt>
      <trkpt lat="45.28934" lon="6.21568">
        <ele>1189.1999511719</ele>
        <time>2016-03-26T14:22:38.000Z</time>
      </trkpt>
      <trkpt lat="45.28931" lon="6.21561">
        <ele>1189.8000488281</ele>
        <time>2016-03-26T14:22:44.000Z</time>
      </trkpt>
      <trkpt lat="45.28927" lon="6.21552">
        <ele>1190.1999511719</ele>
        <time>2016-03-26T14:22:50.000Z</time>
      </trkpt>
      <trkpt lat="45.28923" lon="6.21544">
        <ele>1191.1999511719</ele>
        <time>2016-03-26T14:22:56.000Z</time>
      </trkpt>
      <trkpt lat="45.28923" lon="6.21542">
        <ele>1191.4000244141</ele>
        <time>2016-03-26T14:22:57.000Z</time>
      </trkpt>
      <trkpt lat="45.28919" lon="6.21543">
        <ele>1191.5999755859</ele>
        <time>2016-03-26T14:23:01.000Z</time>
      </trkpt>
      <trkpt lat="45.28917" lon="6.21539">
        <ele>1192</ele>
        <time>2016-03-26T14:23:05.000Z</time>
      </trkpt>
      <trkpt lat="45.28914" lon="6.21534">
        <ele>1192.4000244141</ele>
        <time>2016-03-26T14:23:10.000Z</time>
      </trkpt>
      <trkpt lat="45.28913" lon="6.21532">
        <ele>1192.4000244141</ele>
        <time>2016-03-26T14:23:11.000Z</time>
      </trkpt>
      <trkpt lat="45.2891" lon="6.21526">
        <ele>1193.4000244141</ele>
        <time>2016-03-26T14:23:16.000Z</time>
      </trkpt>
      <trkpt lat="45.2891" lon="6.21524">
        <ele>1193.4000244141</ele>
        <time>2016-03-26T14:23:17.000Z</time>
      </trkpt>
      <trkpt lat="45.28908" lon="6.21519">
        <ele>1193.8000488281</ele>
        <time>2016-03-26T14:23:21.000Z</time>
      </trkpt>
      <trkpt lat="45.28905" lon="6.21512">
        <ele>1194.4000244141</ele>
        <time>2016-03-26T14:23:27.000Z</time>
      </trkpt>
      <trkpt lat="45.28905" lon="6.2151">
        <ele>1194.4000244141</ele>
        <time>2016-03-26T14:23:28.000Z</time>
      </trkpt>
      <trkpt lat="45.28902" lon="6.21506">
        <ele>1194.8000488281</ele>
        <time>2016-03-26T14:23:32.000Z</time>
      </trkpt>
      <trkpt lat="45.28897" lon="6.21498">
        <ele>1195.4000244141</ele>
        <time>2016-03-26T14:23:38.000Z</time>
      </trkpt>
      <trkpt lat="45.28897" lon="6.21497">
        <ele>1195.5999755859</ele>
        <time>2016-03-26T14:23:39.000Z</time>
      </trkpt>
      <trkpt lat="45.28895" lon="6.21494">
        <ele>1195.8000488281</ele>
        <time>2016-03-26T14:23:43.000Z</time>
      </trkpt>
      <trkpt lat="45.28895" lon="6.21494">
        <ele>1196.1999511719</ele>
        <time>2016-03-26T14:23:52.000Z</time>
      </trkpt>
      <trkpt lat="45.28892" lon="6.2149">
        <ele>1196.4000244141</ele>
        <time>2016-03-26T14:23:57.000Z</time>
      </trkpt>
      <trkpt lat="45.28892" lon="6.21489">
        <ele>1196.5999755859</ele>
        <time>2016-03-26T14:24:01.000Z</time>
      </trkpt>
      <trkpt lat="45.28892" lon="6.21489">
        <ele>1196.8000488281</ele>
        <time>2016-03-26T14:24:04.000Z</time>
      </trkpt>
      <trkpt lat="45.28892" lon="6.2149">
        <ele>1197</ele>
        <time>2016-03-26T14:24:13.000Z</time>
      </trkpt>
    </trkseg>
  </trk>
</gpx>